<?xml version='1.0' encoding='UTF-8'?><gpx version="1.1" creator="JPX - https://github.com/jenetics/jpx" xmlns="http://www.topografix.com/GPX/1/1"><trk><trkseg><trkpt lat="44.59987289779869" lon="10.592825415585398"><ele>296.0</ele><time>2026-03-28T09:04:17.999Z</time></trkpt><trkpt lat="44.600034578218384" lon="10.592852823631532"><ele>296.0</ele><time>2026-03-28T09:25:43.999Z</time></trkpt><trkpt lat="44.60014610000835" lon="10.592876200131009"><ele>296.0</ele><time>2026-03-28T09:25:45.999Z</time></trkpt><trkpt lat="44.6002419404611" lon="10.592852573191978"><ele>296.0</ele><time>2026-03-28T09:25:47.999Z</time></trkpt><trkpt lat="44.60032045628706" lon="10.59282422518457"><ele>294.1666666666667</ele><time>2026-03-28T09:25:49.999Z</time></trkpt><trkpt lat="44.600347695550724" lon="10.592695015768278"><ele>292.33333333333337</ele><time>2026-03-28T09:25:52.999Z</time></trkpt><trkpt lat="44.60033707185937" lon="10.592595369425476"><ele>290.5</ele><time>2026-03-28T09:25:53.999Z</time></trkpt><trkpt lat="44.60036033198087" lon="10.592465986099233"><ele>288.6666666666667</ele><time>2026-03-28T09:25:56Z</time></trkpt><trkpt lat="44.60041382445458" lon="10.592352886837944"><ele>286.8333333333333</ele><time>2026-03-28T09:25:58Z</time></trkpt><trkpt lat="44.60049136144295" lon="10.59232190547537"><ele>285.0</ele><time>2026-03-28T09:26:00Z</time></trkpt><trkpt lat="44.60055067072204" lon="10.592395848892973"><ele>285.0</ele><time>2026-03-28T09:26:02Z</time></trkpt><trkpt lat="44.60058088816619" lon="10.592552244350452"><ele>285.0</ele><time>2026-03-28T09:26:04Z</time></trkpt><trkpt lat="44.600566069428886" lon="10.592651003020498"><ele>285.0</ele><time>2026-03-28T09:26:05Z</time></trkpt><trkpt lat="44.60058376446092" lon="10.592819665258574"><ele>285.0</ele><time>2026-03-28T09:26:07Z</time></trkpt><trkpt lat="44.60065407273063" lon="10.592959222205312"><ele>285.0</ele><time>2026-03-28T09:26:09Z</time></trkpt><trkpt lat="44.60071710874715" lon="10.59308602914531"><ele>285.0</ele><time>2026-03-28T09:26:11Z</time></trkpt><trkpt lat="44.60077272965079" lon="10.593210535226513"><ele>285.0</ele><time>2026-03-28T09:26:14Z</time></trkpt><trkpt lat="44.60082746377858" lon="10.593262228878812"><ele>285.0</ele><time>2026-03-28T09:26:16Z</time></trkpt><trkpt lat="44.60083735875795" lon="10.593121589185582"><ele>285.0</ele><time>2026-03-28T09:26:19Z</time></trkpt><trkpt lat="44.60080679941028" lon="10.59303893952898"><ele>285.0</ele><time>2026-03-28T09:26:20Z</time></trkpt><trkpt lat="44.60075546058377" lon="10.592917949573794"><ele>285.0</ele><time>2026-03-28T09:26:22Z</time></trkpt><trkpt lat="44.60073448737855" lon="10.592814315497483"><ele>285.0</ele><time>2026-03-28T09:26:24Z</time></trkpt><trkpt lat="44.6007817358477" lon="10.59274940055455"><ele>285.0</ele><time>2026-03-28T09:26:27Z</time></trkpt><trkpt lat="44.600819766523045" lon="10.592650270201045"><ele>285.0</ele><time>2026-03-28T09:26:34Z</time></trkpt><trkpt lat="44.60085592007721" lon="10.592576626870624"><ele>285.0</ele><time>2026-03-28T09:26:35Z</time></trkpt><trkpt lat="44.60088276693517" lon="10.592482389116679"><ele>285.0</ele><time>2026-03-28T09:26:36Z</time></trkpt><trkpt lat="44.60089464454516" lon="10.592333553082748"><ele>285.0</ele><time>2026-03-28T09:26:37Z</time></trkpt><trkpt lat="44.60095891013273" lon="10.59219996222951"><ele>285.0</ele><time>2026-03-28T09:26:38Z</time></trkpt><trkpt lat="44.600960455054846" lon="10.592058233027702"><ele>285.0</ele><time>2026-03-28T09:26:39Z</time></trkpt><trkpt lat="44.60094065043918" lon="10.59192594562271"><ele>285.0</ele><time>2026-03-28T09:26:40Z</time></trkpt><trkpt lat="44.600904522580365" lon="10.591815616054834"><ele>285.0</ele><time>2026-03-28T09:26:41Z</time></trkpt><trkpt lat="44.60084118617678" lon="10.591724544943228"><ele>285.0</ele><time>2026-03-28T09:26:42Z</time></trkpt><trkpt lat="44.600736446820456" lon="10.591683931716409"><ele>284.0</ele><time>2026-03-28T09:26:43Z</time></trkpt><trkpt lat="44.60063399648556" lon="10.591670082245985"><ele>283.0</ele><time>2026-03-28T09:26:44Z</time></trkpt><trkpt lat="44.60050015138499" lon="10.591685271873999"><ele>282.0</ele><time>2026-03-28T09:26:45Z</time></trkpt><trkpt lat="44.60037147330874" lon="10.591689104029133"><ele>281.0</ele><time>2026-03-28T09:26:46Z</time></trkpt><trkpt lat="44.600241294579874" lon="10.591667612758755"><ele>281.0</ele><time>2026-03-28T09:26:47Z</time></trkpt><trkpt lat="44.60009597895708" lon="10.591661942074843"><ele>281.0</ele><time>2026-03-28T09:26:48Z</time></trkpt><trkpt lat="44.59994215952409" lon="10.591656638300083"><ele>281.0</ele><time>2026-03-28T09:26:49Z</time></trkpt><trkpt lat="44.599783411214204" lon="10.591641207211216"><ele>281.0</ele><time>2026-03-28T09:26:50Z</time></trkpt><trkpt lat="44.599608930610785" lon="10.59162720993878"><ele>281.0</ele><time>2026-03-28T09:26:50.999Z</time></trkpt><trkpt lat="44.599447653606155" lon="10.5916161178226"><ele>281.0</ele><time>2026-03-28T09:26:51.999Z</time></trkpt><trkpt lat="44.59929702449982" lon="10.591588120259956"><ele>281.33333333333337</ele><time>2026-03-28T09:26:52.999Z</time></trkpt><trkpt lat="44.59912734394276" lon="10.591561403882753"><ele>281.6666666666667</ele><time>2026-03-28T09:26:53.999Z</time></trkpt><trkpt lat="44.5989669621737" lon="10.591523903953313"><ele>282.0</ele><time>2026-03-28T09:26:54.999Z</time></trkpt><trkpt lat="44.59881113742101" lon="10.591475796324444"><ele>281.0</ele><time>2026-03-28T09:26:55.999Z</time></trkpt><trkpt lat="44.598663808112676" lon="10.591471545801193"><ele>280.0</ele><time>2026-03-28T09:26:56.999Z</time></trkpt><trkpt lat="44.59851685293152" lon="10.591439738072086"><ele>279.0</ele><time>2026-03-28T09:26:57.999Z</time></trkpt><trkpt lat="44.59838943092431" lon="10.59145217600111"><ele>278.0</ele><time>2026-03-28T09:26:58.999Z</time></trkpt><trkpt lat="44.598267080739234" lon="10.591455335777052"><ele>278.0</ele><time>2026-03-28T09:26:59.999Z</time></trkpt><trkpt lat="44.59814359653586" lon="10.591446847598226"><ele>278.0</ele><time>2026-03-28T09:27:00.999Z</time></trkpt><trkpt lat="44.59801709665808" lon="10.59139736699866"><ele>278.0</ele><time>2026-03-28T09:27:01.999Z</time></trkpt><trkpt lat="44.59789357531864" lon="10.591329837115591"><ele>278.0</ele><time>2026-03-28T09:27:02.999Z</time></trkpt><trkpt lat="44.597758307155836" lon="10.591251752892658"><ele>275.75</ele><time>2026-03-28T09:27:03.999Z</time></trkpt><trkpt lat="44.59762669132687" lon="10.59117742389717"><ele>273.5</ele><time>2026-03-28T09:27:04.999Z</time></trkpt><trkpt lat="44.59748941905346" lon="10.591100335034263"><ele>271.25</ele><time>2026-03-28T09:27:05.999Z</time></trkpt><trkpt lat="44.5973553542368" lon="10.591022036439664"><ele>269.0</ele><time>2026-03-28T09:27:06.999Z</time></trkpt><trkpt lat="44.597226256258956" lon="10.59094586336977"><ele>269.0</ele><time>2026-03-28T09:27:07.999Z</time></trkpt><trkpt lat="44.597094660945196" lon="10.590869681900585"><ele>269.0</ele><time>2026-03-28T09:27:08.999Z</time></trkpt><trkpt lat="44.59696302307595" lon="10.590794391859728"><ele>269.0</ele><time>2026-03-28T09:27:09.999Z</time></trkpt><trkpt lat="44.59683219866868" lon="10.590715359657334"><ele>269.0</ele><time>2026-03-28T09:27:10.999Z</time></trkpt><trkpt lat="44.59670180570477" lon="10.590637397371964"><ele>269.0</ele><time>2026-03-28T09:27:11.999Z</time></trkpt><trkpt lat="44.596573433457145" lon="10.590566616788253"><ele>269.0</ele><time>2026-03-28T09:27:12.999Z</time></trkpt><trkpt lat="44.5964509325622" lon="10.590494364012239"><ele>269.0</ele><time>2026-03-28T09:27:13.999Z</time></trkpt><trkpt lat="44.596336148946726" lon="10.590412208293145"><ele>269.0</ele><time>2026-03-28T09:27:14.999Z</time></trkpt><trkpt lat="44.5962279180545" lon="10.590306354708503"><ele>268.5</ele><time>2026-03-28T09:27:15.999Z</time></trkpt><trkpt lat="44.596129409052935" lon="10.590180838245347"><ele>268.0</ele><time>2026-03-28T09:27:16.999Z</time></trkpt><trkpt lat="44.596032429815324" lon="10.590034709832613"><ele>267.5</ele><time>2026-03-28T09:27:17.999Z</time></trkpt><trkpt lat="44.59594971548254" lon="10.589878433961317"><ele>267.0</ele><time>2026-03-28T09:27:18.999Z</time></trkpt><trkpt lat="44.59586875329315" lon="10.589710456669621"><ele>267.0</ele><time>2026-03-28T09:27:19.999Z</time></trkpt><trkpt lat="44.595794271413816" lon="10.589546532695643"><ele>267.0</ele><time>2026-03-28T09:27:20.999Z</time></trkpt><trkpt lat="44.59571734244676" lon="10.589377390059804"><ele>267.0</ele><time>2026-03-28T09:27:21.999Z</time></trkpt><trkpt lat="44.595644193575886" lon="10.589220846082014"><ele>267.0</ele><time>2026-03-28T09:27:22.999Z</time></trkpt><trkpt lat="44.59557354804741" lon="10.589069660013708"><ele>267.0</ele><time>2026-03-28T09:27:23.999Z</time></trkpt><trkpt lat="44.595503109255205" lon="10.588916663547728"><ele>267.0</ele><time>2026-03-28T09:27:24.999Z</time></trkpt><trkpt lat="44.59543807280168" lon="10.58875984198887"><ele>267.0</ele><time>2026-03-28T09:27:25.999Z</time></trkpt><trkpt lat="44.59539628853776" lon="10.588603435667464"><ele>267.0</ele><time>2026-03-28T09:27:26.999Z</time></trkpt><trkpt lat="44.59537026879073" lon="10.588439408391732"><ele>267.75</ele><time>2026-03-28T09:27:27.999Z</time></trkpt><trkpt lat="44.595386952544146" lon="10.588284813367244"><ele>268.5</ele><time>2026-03-28T09:27:28.999Z</time></trkpt><trkpt lat="44.59543850501516" lon="10.588150379616952"><ele>269.25</ele><time>2026-03-28T09:27:29.999Z</time></trkpt><trkpt lat="44.59551237788158" lon="10.588029441667908"><ele>270.0</ele><time>2026-03-28T09:27:30.999Z</time></trkpt><trkpt lat="44.59558542531712" lon="10.58789338511068"><ele>271.4</ele><time>2026-03-28T09:27:31.999Z</time></trkpt><trkpt lat="44.595662579537354" lon="10.58777309793975"><ele>272.8</ele><time>2026-03-28T09:27:32.999Z</time></trkpt><trkpt lat="44.595706281256064" lon="10.587662463248856"><ele>274.2</ele><time>2026-03-28T09:27:33.999Z</time></trkpt><trkpt lat="44.59570920918478" lon="10.587555148828908"><ele>275.6</ele><time>2026-03-28T09:27:34.999Z</time></trkpt><trkpt lat="44.59567567524233" lon="10.587444433501652"><ele>277.0</ele><time>2026-03-28T09:27:35.999Z</time></trkpt><trkpt lat="44.59560769810656" lon="10.58735396008073"><ele>277.0</ele><time>2026-03-28T09:27:36.999Z</time></trkpt><trkpt lat="44.595515607718866" lon="10.587298613664348"><ele>277.0</ele><time>2026-03-28T09:27:37.999Z</time></trkpt><trkpt lat="44.595423702796346" lon="10.587299797754358"><ele>277.0</ele><time>2026-03-28T09:27:38.999Z</time></trkpt><trkpt lat="44.59535026713018" lon="10.587356760161462"><ele>277.0</ele><time>2026-03-28T09:27:39.999Z</time></trkpt><trkpt lat="44.59529898896952" lon="10.587449678813952"><ele>277.0</ele><time>2026-03-28T09:27:40.999Z</time></trkpt><trkpt lat="44.59525371849687" lon="10.587591277822504"><ele>280.5</ele><time>2026-03-28T09:27:41.999Z</time></trkpt><trkpt lat="44.5952124428917" lon="10.587715096795137"><ele>284.0</ele><time>2026-03-28T09:27:42.999Z</time></trkpt><trkpt lat="44.59515045969368" lon="10.587845762349327"><ele>287.5</ele><time>2026-03-28T09:27:43.999Z</time></trkpt><trkpt lat="44.59504673320691" lon="10.587942027270103"><ele>291.0</ele><time>2026-03-28T09:27:44.999Z</time></trkpt><trkpt lat="44.59494936137325" lon="10.588042971029735"><ele>291.0</ele><time>2026-03-28T09:27:45.999Z</time></trkpt><trkpt lat="44.59484902655268" lon="10.588152816766858"><ele>291.0</ele><time>2026-03-28T09:27:46.999Z</time></trkpt><trkpt lat="44.59474891061524" lon="10.588259640935425"><ele>291.0</ele><time>2026-03-28T09:27:47.999Z</time></trkpt><trkpt lat="44.59466836641999" lon="10.588362381733399"><ele>291.0</ele><time>2026-03-28T09:27:48.999Z</time></trkpt><trkpt lat="44.59456376718357" lon="10.588394910431772"><ele>293.40000000000003</ele><time>2026-03-28T09:27:49.999Z</time></trkpt><trkpt lat="44.59447209549861" lon="10.588387024389414"><ele>295.8</ele><time>2026-03-28T09:27:50.999Z</time></trkpt><trkpt lat="44.594388948729225" lon="10.588309394652411"><ele>298.20000000000005</ele><time>2026-03-28T09:27:51.999Z</time></trkpt><trkpt lat="44.59427360525186" lon="10.58825059542989"><ele>300.6</ele><time>2026-03-28T09:27:52.999Z</time></trkpt><trkpt lat="44.594147744745875" lon="10.588214568160861"><ele>303.0</ele><time>2026-03-28T09:27:53.999Z</time></trkpt><trkpt lat="44.594022150841354" lon="10.588212193433975"><ele>303.0</ele><time>2026-03-28T09:27:54.999Z</time></trkpt><trkpt lat="44.593898961320605" lon="10.588205242744133"><ele>303.0</ele><time>2026-03-28T09:27:55.999Z</time></trkpt><trkpt lat="44.593782231309554" lon="10.588192909005123"><ele>303.0</ele><time>2026-03-28T09:27:56.999Z</time></trkpt><trkpt lat="44.593672659190275" lon="10.588182206866339"><ele>303.0</ele><time>2026-03-28T09:27:57.999Z</time></trkpt><trkpt lat="44.59357377753214" lon="10.588172966557703"><ele>303.0</ele><time>2026-03-28T09:27:58.999Z</time></trkpt><trkpt lat="44.5935053144797" lon="10.588144500355517"><ele>303.0</ele><time>2026-03-28T09:27:59.999Z</time></trkpt><trkpt lat="44.59348483912823" lon="10.58801697656487"><ele>303.0</ele><time>2026-03-28T09:28:01.999Z</time></trkpt><trkpt lat="44.59359318445637" lon="10.587949157485113"><ele>303.0</ele><time>2026-03-28T09:28:03.999Z</time></trkpt><trkpt lat="44.5936692837517" lon="10.587973298584442"><ele>303.0</ele><time>2026-03-28T09:28:04.999Z</time></trkpt><trkpt lat="44.593762957186826" lon="10.587966799293229"><ele>303.0</ele><time>2026-03-28T09:28:05.999Z</time></trkpt><trkpt lat="44.59385731234697" lon="10.587967724374531"><ele>303.0</ele><time>2026-03-28T09:28:06.999Z</time></trkpt><trkpt lat="44.59394603983487" lon="10.587916390213643"><ele>303.0</ele><time>2026-03-28T09:28:07.999Z</time></trkpt><trkpt lat="44.59402260101104" lon="10.587841253509414"><ele>303.0</ele><time>2026-03-28T09:28:08.999Z</time></trkpt><trkpt lat="44.59405461528825" lon="10.587743630468609"><ele>303.0</ele><time>2026-03-28T09:28:09.999Z</time></trkpt><trkpt lat="44.59403987990244" lon="10.587622372517457"><ele>303.0</ele><time>2026-03-28T09:28:10.999Z</time></trkpt><trkpt lat="44.59399532251419" lon="10.58751974323225"><ele>303.0</ele><time>2026-03-28T09:28:11.999Z</time></trkpt><trkpt lat="44.593899105875614" lon="10.587482164008904"><ele>303.6</ele><time>2026-03-28T09:28:12.999Z</time></trkpt><trkpt lat="44.59381817760889" lon="10.58748168209567"><ele>304.20000000000005</ele><time>2026-03-28T09:28:13.999Z</time></trkpt><trkpt lat="44.59371845020491" lon="10.587518480023974"><ele>304.8</ele><time>2026-03-28T09:28:14.999Z</time></trkpt><trkpt lat="44.5936183411738" lon="10.587582634671739"><ele>305.40000000000003</ele><time>2026-03-28T09:28:15.999Z</time></trkpt><trkpt lat="44.593505273777176" lon="10.58763835674096"><ele>306.0</ele><time>2026-03-28T09:28:16.999Z</time></trkpt><trkpt lat="44.5933812742564" lon="10.587657463457862"><ele>307.3333333333333</ele><time>2026-03-28T09:28:17.999Z</time></trkpt><trkpt lat="44.593291221438214" lon="10.587688327819397"><ele>308.6666666666667</ele><time>2026-03-28T09:28:18.999Z</time></trkpt><trkpt lat="44.59321248445966" lon="10.58765612851236"><ele>310.0</ele><time>2026-03-28T09:28:19.999Z</time></trkpt><trkpt lat="44.5931326003543" lon="10.587611992408652"><ele>311.33333333333337</ele><time>2026-03-28T09:28:20.999Z</time></trkpt><trkpt lat="44.5930852030947" lon="10.587496217030646"><ele>312.6666666666667</ele><time>2026-03-28T09:28:21.999Z</time></trkpt><trkpt lat="44.593061913891326" lon="10.587373416553651"><ele>314.0</ele><time>2026-03-28T09:28:22.999Z</time></trkpt><trkpt lat="44.593039649608926" lon="10.587236648949029"><ele>314.0</ele><time>2026-03-28T09:28:23.999Z</time></trkpt><trkpt lat="44.59305392650171" lon="10.587080023180683"><ele>314.0</ele><time>2026-03-28T09:28:24.999Z</time></trkpt><trkpt lat="44.59304535699652" lon="10.586924015959449"><ele>314.0</ele><time>2026-03-28T09:28:25.999Z</time></trkpt><trkpt lat="44.59300578747268" lon="10.586781641963062"><ele>314.0</ele><time>2026-03-28T09:28:26.999Z</time></trkpt><trkpt lat="44.59293867848514" lon="10.58665341231443"><ele>314.0</ele><time>2026-03-28T09:28:27.999Z</time></trkpt><trkpt lat="44.59283224532878" lon="10.58654925347749"><ele>316.75</ele><time>2026-03-28T09:28:28.999Z</time></trkpt><trkpt lat="44.59272102873447" lon="10.586455647282007"><ele>319.5</ele><time>2026-03-28T09:28:29.999Z</time></trkpt><trkpt lat="44.592615023394906" lon="10.586364033892334"><ele>322.25</ele><time>2026-03-28T09:28:30.999Z</time></trkpt><trkpt lat="44.59251223871821" lon="10.586264694375897"><ele>325.0</ele><time>2026-03-28T09:28:31.999Z</time></trkpt><trkpt lat="44.59240085837356" lon="10.586163432801179"><ele>325.0</ele><time>2026-03-28T09:28:32.999Z</time></trkpt><trkpt lat="44.59230266072877" lon="10.586071261877201"><ele>325.0</ele><time>2026-03-28T09:28:33.999Z</time></trkpt><trkpt lat="44.59221460297496" lon="10.585988833577952"><ele>325.0</ele><time>2026-03-28T09:28:34.999Z</time></trkpt><trkpt lat="44.59212029304147" lon="10.585931069614329"><ele>325.0</ele><time>2026-03-28T09:28:35.999Z</time></trkpt><trkpt lat="44.59204863464536" lon="10.585852768200912"><ele>325.0</ele><time>2026-03-28T09:28:36.999Z</time></trkpt><trkpt lat="44.59198447322738" lon="10.58578318270184"><ele>327.3333333333333</ele><time>2026-03-28T09:28:37.999Z</time></trkpt><trkpt lat="44.59188513989344" lon="10.585722597798533"><ele>329.66666666666663</ele><time>2026-03-28T09:28:39.999Z</time></trkpt><trkpt lat="44.591805344910675" lon="10.585660758027934"><ele>332.0</ele><time>2026-03-28T09:28:41.999Z</time></trkpt><trkpt lat="44.59174157264596" lon="10.585622120533465"><ele>334.3333333333333</ele><time>2026-03-28T09:28:43Z</time></trkpt><trkpt lat="44.59168089389431" lon="10.585591695389185"><ele>336.6666666666667</ele><time>2026-03-28T09:28:43.999Z</time></trkpt><trkpt lat="44.59161243860477" lon="10.585542614006878"><ele>339.0</ele><time>2026-03-28T09:28:45.999Z</time></trkpt><trkpt lat="44.59170670139805" lon="10.585584519468268"><ele>339.0</ele><time>2026-03-28T09:29:02.999Z</time></trkpt><trkpt lat="44.591786930950946" lon="10.585631821613974"><ele>339.0</ele><time>2026-03-28T09:29:04.999Z</time></trkpt><trkpt lat="44.591855420139616" lon="10.585679588130503"><ele>339.0</ele><time>2026-03-28T09:29:06.999Z</time></trkpt><trkpt lat="44.591932285448905" lon="10.585663251561321"><ele>339.0</ele><time>2026-03-28T09:29:11.999Z</time></trkpt><trkpt lat="44.59203673384263" lon="10.585349218515052"><ele>335.6</ele><time>2026-03-28T09:29:16.999Z</time></trkpt><trkpt lat="44.59210845127175" lon="10.585266730920464"><ele>332.2</ele><time>2026-03-28T09:29:18.999Z</time></trkpt><trkpt lat="44.592211257279224" lon="10.585194833010931"><ele>328.8</ele><time>2026-03-28T09:29:20.999Z</time></trkpt><trkpt lat="44.592315959190366" lon="10.585133489148708"><ele>325.40000000000003</ele><time>2026-03-28T09:29:22.999Z</time></trkpt><trkpt lat="44.59238119026433" lon="10.585101313888211"><ele>322.0</ele><time>2026-03-28T09:29:23.999Z</time></trkpt><trkpt lat="44.59244145999813" lon="10.585047540602936"><ele>322.0</ele><time>2026-03-28T09:29:24.999Z</time></trkpt><trkpt lat="44.59255165164334" lon="10.585011493503336"><ele>322.0</ele><time>2026-03-28T09:29:26.999Z</time></trkpt><trkpt lat="44.59265450950241" lon="10.584951190086485"><ele>322.0</ele><time>2026-03-28T09:29:28.999Z</time></trkpt><trkpt lat="44.59272169144133" lon="10.584905989837482"><ele>322.0</ele><time>2026-03-28T09:29:29.999Z</time></trkpt><trkpt lat="44.59283710254041" lon="10.584797699415505"><ele>322.0</ele><time>2026-03-28T09:29:31.999Z</time></trkpt><trkpt lat="44.592890529917035" lon="10.584727675873301"><ele>320.3333333333333</ele><time>2026-03-28T09:29:32.999Z</time></trkpt><trkpt lat="44.59293135715333" lon="10.584647838848763"><ele>318.66666666666663</ele><time>2026-03-28T09:29:33.999Z</time></trkpt><trkpt lat="44.59296303713754" lon="10.584556330812667"><ele>317.0</ele><time>2026-03-28T09:29:34.999Z</time></trkpt><trkpt lat="44.593000958102195" lon="10.58446050786848"><ele>315.3333333333333</ele><time>2026-03-28T09:29:35.999Z</time></trkpt><trkpt lat="44.59304092089224" lon="10.584361806182237"><ele>313.6666666666667</ele><time>2026-03-28T09:29:36.999Z</time></trkpt><trkpt lat="44.593116054839356" lon="10.584243250786695"><ele>312.0</ele><time>2026-03-28T09:29:38.999Z</time></trkpt><trkpt lat="44.59321580563358" lon="10.58413641050617"><ele>312.0</ele><time>2026-03-28T09:29:40.999Z</time></trkpt><trkpt lat="44.59328670603231" lon="10.584059960683568"><ele>312.0</ele><time>2026-03-28T09:29:41.999Z</time></trkpt><trkpt lat="44.593345219995214" lon="10.583997806070284"><ele>312.0</ele><time>2026-03-28T09:29:42.999Z</time></trkpt><trkpt lat="44.59339339120282" lon="10.583926013334048"><ele>312.0</ele><time>2026-03-28T09:29:43.999Z</time></trkpt><trkpt lat="44.59345529369756" lon="10.583880885706499"><ele>312.0</ele><time>2026-03-28T09:29:44.999Z</time></trkpt><trkpt lat="44.59351839614671" lon="10.583816684610685"><ele>312.0</ele><time>2026-03-28T09:29:45.999Z</time></trkpt><trkpt lat="44.59358649728947" lon="10.58374896487789"><ele>312.0</ele><time>2026-03-28T09:29:46.999Z</time></trkpt><trkpt lat="44.593638207336234" lon="10.5836892291947"><ele>312.0</ele><time>2026-03-28T09:29:47.999Z</time></trkpt><trkpt lat="44.593747872518826" lon="10.583596487442113"><ele>312.0</ele><time>2026-03-28T09:29:49.999Z</time></trkpt><trkpt lat="44.59383415021012" lon="10.583499295768453"><ele>312.0</ele><time>2026-03-28T09:29:51.999Z</time></trkpt><trkpt lat="44.593906368049424" lon="10.583404997017642"><ele>312.0</ele><time>2026-03-28T09:29:53.999Z</time></trkpt><trkpt lat="44.59403313505298" lon="10.583343836566357"><ele>311.5</ele><time>2026-03-28T09:29:55.999Z</time></trkpt><trkpt lat="44.59410877431869" lon="10.583306708382343"><ele>311.0</ele><time>2026-03-28T09:29:56.999Z</time></trkpt><trkpt lat="44.59417184782875" lon="10.583275748198878"><ele>310.5</ele><time>2026-03-28T09:29:57.999Z</time></trkpt><trkpt lat="44.59423881192764" lon="10.583245915935677"><ele>310.0</ele><time>2026-03-28T09:29:58.999Z</time></trkpt><trkpt lat="44.59429969238026" lon="10.583219804917274"><ele>309.5</ele><time>2026-03-28T09:29:59.999Z</time></trkpt><trkpt lat="44.59439341387287" lon="10.583197010512354"><ele>309.0</ele><time>2026-03-28T09:30:01.999Z</time></trkpt><trkpt lat="44.594488451999986" lon="10.58318500065051"><ele>306.1666666666667</ele><time>2026-03-28T09:30:03.999Z</time></trkpt><trkpt lat="44.594580989757034" lon="10.583179441445889"><ele>303.3333333333333</ele><time>2026-03-28T09:30:06Z</time></trkpt><trkpt lat="44.59467520483952" lon="10.583180234132788"><ele>300.5</ele><time>2026-03-28T09:30:08Z</time></trkpt><trkpt lat="44.594755124496196" lon="10.583188279839815"><ele>297.66666666666663</ele><time>2026-03-28T09:30:10Z</time></trkpt><trkpt lat="44.59482978516703" lon="10.583195024945033"><ele>294.8333333333333</ele><time>2026-03-28T09:30:12Z</time></trkpt><trkpt lat="44.59490448503641" lon="10.583178658025153"><ele>292.0</ele><time>2026-03-28T09:30:14Z</time></trkpt><trkpt lat="44.59499687614009" lon="10.583204628514245"><ele>292.0</ele><time>2026-03-28T09:30:16Z</time></trkpt><trkpt lat="44.595103850888805" lon="10.583182483122766"><ele>292.0</ele><time>2026-03-28T09:30:18Z</time></trkpt><trkpt lat="44.595219946685496" lon="10.583167899506403"><ele>292.0</ele><time>2026-03-28T09:30:20Z</time></trkpt><trkpt lat="44.59528423221986" lon="10.583173524785165"><ele>292.0</ele><time>2026-03-28T09:30:21Z</time></trkpt><trkpt lat="44.59536911486926" lon="10.583130270935492"><ele>292.0</ele><time>2026-03-28T09:30:23Z</time></trkpt><trkpt lat="44.59544198672884" lon="10.583116754495324"><ele>291.0</ele><time>2026-03-28T09:30:24Z</time></trkpt><trkpt lat="44.59553206762579" lon="10.583092289695294"><ele>290.0</ele><time>2026-03-28T09:30:26Z</time></trkpt><trkpt lat="44.59561530834799" lon="10.58305998096417"><ele>289.0</ele><time>2026-03-28T09:30:28Z</time></trkpt><trkpt lat="44.59570250962968" lon="10.58303980504854"><ele>288.0</ele><time>2026-03-28T09:30:30Z</time></trkpt><trkpt lat="44.59578150486974" lon="10.582994341050561"><ele>287.0</ele><time>2026-03-28T09:30:32Z</time></trkpt><trkpt lat="44.59581020019858" lon="10.582868725443623"><ele>286.0</ele><time>2026-03-28T09:30:35Z</time></trkpt><trkpt lat="44.59578791124015" lon="10.58272909566014"><ele>283.8</ele><time>2026-03-28T09:30:37Z</time></trkpt><trkpt lat="44.59584243762836" lon="10.582659837945274"><ele>281.6</ele><time>2026-03-28T09:30:41Z</time></trkpt><trkpt lat="44.59594630283634" lon="10.582679088987902"><ele>279.4</ele><time>2026-03-28T09:30:43Z</time></trkpt><trkpt lat="44.596017780048285" lon="10.582727317078694"><ele>277.2</ele><time>2026-03-28T09:30:45Z</time></trkpt><trkpt lat="44.596118311746295" lon="10.582786920714588"><ele>275.0</ele><time>2026-03-28T09:30:47Z</time></trkpt><trkpt lat="44.596200970485896" lon="10.58285161766533"><ele>275.0</ele><time>2026-03-28T09:30:49Z</time></trkpt><trkpt lat="44.59627219740484" lon="10.582882051205402"><ele>275.0</ele><time>2026-03-28T09:30:50Z</time></trkpt><trkpt lat="44.59636775444086" lon="10.582879969041738"><ele>275.0</ele><time>2026-03-28T09:30:52Z</time></trkpt><trkpt lat="44.59647871490279" lon="10.582871254502352"><ele>275.0</ele><time>2026-03-28T09:30:54Z</time></trkpt><trkpt lat="44.59655682041649" lon="10.582980354330177"><ele>275.0</ele><time>2026-03-28T09:30:56Z</time></trkpt><trkpt lat="44.59661216722846" lon="10.583026677661085"><ele>275.0</ele><time>2026-03-28T09:30:57Z</time></trkpt><trkpt lat="44.5967015143357" lon="10.583050799328248"><ele>275.0</ele><time>2026-03-28T09:30:59Z</time></trkpt><trkpt lat="44.596794680179585" lon="10.582999191446405"><ele>275.0</ele><time>2026-03-28T09:31:01Z</time></trkpt><trkpt lat="44.59684080452524" lon="10.582919446944803"><ele>275.0</ele><time>2026-03-28T09:31:02Z</time></trkpt><trkpt lat="44.59686897325878" lon="10.582747913546044"><ele>275.0</ele><time>2026-03-28T09:31:04Z</time></trkpt><trkpt lat="44.59686192060326" lon="10.582653683077627"><ele>273.5</ele><time>2026-03-28T09:31:05Z</time></trkpt><trkpt lat="44.59685964161556" lon="10.582500681345287"><ele>272.0</ele><time>2026-03-28T09:31:07Z</time></trkpt><trkpt lat="44.59686024132801" lon="10.5824045810632"><ele>270.5</ele><time>2026-03-28T09:31:08Z</time></trkpt><trkpt lat="44.596863133210036" lon="10.582304810912413"><ele>269.0</ele><time>2026-03-28T09:31:09Z</time></trkpt><trkpt lat="44.596869406772974" lon="10.582216503181094"><ele>267.5</ele><time>2026-03-28T09:31:10Z</time></trkpt><trkpt lat="44.59688749101092" lon="10.58207510755499"><ele>266.0</ele><time>2026-03-28T09:31:12Z</time></trkpt><trkpt lat="44.59690456527495" lon="10.581985050188042"><ele>264.83333333333337</ele><time>2026-03-28T09:31:13Z</time></trkpt><trkpt lat="44.59695256252053" lon="10.581829465293412"><ele>263.6666666666667</ele><time>2026-03-28T09:31:15Z</time></trkpt><trkpt lat="44.596985497640254" lon="10.58174584811485"><ele>262.5</ele><time>2026-03-28T09:31:16Z</time></trkpt><trkpt lat="44.597020947694176" lon="10.581656645513629"><ele>261.3333333333333</ele><time>2026-03-28T09:31:17Z</time></trkpt><trkpt lat="44.59705749373617" lon="10.581564684916438"><ele>260.16666666666663</ele><time>2026-03-28T09:31:18Z</time></trkpt><trkpt lat="44.59709439441163" lon="10.581482777720469"><ele>259.0</ele><time>2026-03-28T09:31:19Z</time></trkpt><trkpt lat="44.59717416425941" lon="10.581328543743295"><ele>259.0</ele><time>2026-03-28T09:31:21Z</time></trkpt><trkpt lat="44.597218223208365" lon="10.581247860960808"><ele>259.0</ele><time>2026-03-28T09:31:22Z</time></trkpt><trkpt lat="44.597245691962144" lon="10.581168078524852"><ele>259.0</ele><time>2026-03-28T09:31:23Z</time></trkpt><trkpt lat="44.59729767363479" lon="10.581109906110369"><ele>259.0</ele><time>2026-03-28T09:31:24Z</time></trkpt><trkpt lat="44.597371268991154" lon="10.580990220590824"><ele>259.0</ele><time>2026-03-28T09:31:26Z</time></trkpt><trkpt lat="44.597441497307216" lon="10.580963042365532"><ele>259.0</ele><time>2026-03-28T09:31:27Z</time></trkpt><trkpt lat="44.597550486728764" lon="10.580888896688856"><ele>258.7142857142857</ele><time>2026-03-28T09:31:29Z</time></trkpt><trkpt lat="44.59760761105186" lon="10.580843139414624"><ele>258.42857142857144</ele><time>2026-03-28T09:31:30Z</time></trkpt><trkpt lat="44.59764857956528" lon="10.580762340496385"><ele>258.1428571428571</ele><time>2026-03-28T09:31:31Z</time></trkpt><trkpt lat="44.5977035175596" lon="10.58068355867865"><ele>257.8571428571429</ele><time>2026-03-28T09:31:32Z</time></trkpt><trkpt lat="44.59775391861285" lon="10.580608328182096"><ele>257.57142857142856</ele><time>2026-03-28T09:31:33Z</time></trkpt><trkpt lat="44.597800912037705" lon="10.58054435294546"><ele>257.2857142857143</ele><time>2026-03-28T09:31:34Z</time></trkpt><trkpt lat="44.59785969434131" lon="10.580491397611759"><ele>257.0</ele><time>2026-03-28T09:31:35Z</time></trkpt><trkpt lat="44.597915792832545" lon="10.580442572509916"><ele>257.0</ele><time>2026-03-28T09:31:36Z</time></trkpt><trkpt lat="44.59798603686615" lon="10.580414389536664"><ele>257.0</ele><time>2026-03-28T09:31:37Z</time></trkpt><trkpt lat="44.598051963411606" lon="10.580382352686737"><ele>257.0</ele><time>2026-03-28T09:31:38Z</time></trkpt><trkpt lat="44.59811687316356" lon="10.580351940238478"><ele>257.0</ele><time>2026-03-28T09:31:39Z</time></trkpt><trkpt lat="44.598197726060576" lon="10.580318460354817"><ele>257.0</ele><time>2026-03-28T09:31:39.999Z</time></trkpt><trkpt lat="44.59828607050312" lon="10.580283711528287"><ele>257.0</ele><time>2026-03-28T09:31:40.999Z</time></trkpt><trkpt lat="44.598382036356725" lon="10.580250265983063"><ele>259.6</ele><time>2026-03-28T09:31:41.999Z</time></trkpt><trkpt lat="44.59846719123583" lon="10.580216160085014"><ele>262.2</ele><time>2026-03-28T09:31:42.999Z</time></trkpt><trkpt lat="44.59856027481023" lon="10.58019873065786"><ele>264.8</ele><time>2026-03-28T09:31:43.999Z</time></trkpt><trkpt lat="44.598655669672496" lon="10.58019467789023"><ele>267.4</ele><time>2026-03-28T09:31:44.999Z</time></trkpt><trkpt lat="44.59874739611515" lon="10.580183237795023"><ele>270.0</ele><time>2026-03-28T09:31:45.999Z</time></trkpt><trkpt lat="44.59884565575132" lon="10.580157431349535"><ele>270.0</ele><time>2026-03-28T09:31:46.999Z</time></trkpt><trkpt lat="44.59892158981352" lon="10.58019796891912"><ele>270.0</ele><time>2026-03-28T09:31:47.999Z</time></trkpt><trkpt lat="44.5990017496818" lon="10.580224483345528"><ele>270.0</ele><time>2026-03-28T09:31:48.999Z</time></trkpt><trkpt lat="44.599071949666765" lon="10.58025779850028"><ele>270.0</ele><time>2026-03-28T09:31:49.999Z</time></trkpt><trkpt lat="44.59914928594544" lon="10.580305270913804"><ele>270.0</ele><time>2026-03-28T09:31:50.999Z</time></trkpt><trkpt lat="44.59921719494952" lon="10.58034889580077"><ele>270.0</ele><time>2026-03-28T09:31:51.999Z</time></trkpt><trkpt lat="44.599300094367024" lon="10.58040007373764"><ele>268.6</ele><time>2026-03-28T09:31:52.999Z</time></trkpt><trkpt lat="44.599378539113786" lon="10.580441972766334"><ele>267.2</ele><time>2026-03-28T09:31:53.999Z</time></trkpt><trkpt lat="44.599445835954405" lon="10.58047593784054"><ele>265.8</ele><time>2026-03-28T09:31:54.999Z</time></trkpt><trkpt lat="44.599597371197774" lon="10.580480999323951"><ele>264.4</ele><time>2026-03-28T09:31:56.999Z</time></trkpt><trkpt lat="44.5996918183555" lon="10.580486375981476"><ele>263.0</ele><time>2026-03-28T09:31:57.999Z</time></trkpt><trkpt lat="44.59979427174939" lon="10.580515194897755"><ele>263.0</ele><time>2026-03-28T09:31:58.999Z</time></trkpt><trkpt lat="44.59989081196206" lon="10.580541162396186"><ele>263.0</ele><time>2026-03-28T09:31:59.999Z</time></trkpt><trkpt lat="44.59998050753828" lon="10.58056513425181"><ele>263.0</ele><time>2026-03-28T09:32:00.999Z</time></trkpt><trkpt lat="44.60006939243763" lon="10.580588382875224"><ele>263.0</ele><time>2026-03-28T09:32:01.999Z</time></trkpt><trkpt lat="44.60014258617211" lon="10.580607527491063"><ele>263.0</ele><time>2026-03-28T09:32:02.999Z</time></trkpt><trkpt lat="44.60022305053079" lon="10.580610064823485"><ele>263.0</ele><time>2026-03-28T09:32:03.999Z</time></trkpt><trkpt lat="44.6003088550932" lon="10.580622978911766"><ele>262.8</ele><time>2026-03-28T09:32:04.999Z</time></trkpt><trkpt lat="44.600403745484876" lon="10.5806183288098"><ele>262.6</ele><time>2026-03-28T09:32:05.999Z</time></trkpt><trkpt lat="44.600500429301796" lon="10.5806144114372"><ele>262.4</ele><time>2026-03-28T09:32:06.999Z</time></trkpt><trkpt lat="44.600587847348166" lon="10.580589501146534"><ele>262.2</ele><time>2026-03-28T09:32:07.999Z</time></trkpt><trkpt lat="44.60067194865348" lon="10.580565536105837"><ele>262.0</ele><time>2026-03-28T09:32:08.999Z</time></trkpt><trkpt lat="44.60075307847895" lon="10.580536568007387"><ele>262.0</ele><time>2026-03-28T09:32:09.999Z</time></trkpt><trkpt lat="44.600827397264865" lon="10.580508729318218"><ele>262.0</ele><time>2026-03-28T09:32:10.999Z</time></trkpt><trkpt lat="44.600898019698214" lon="10.580461701105081"><ele>262.0</ele><time>2026-03-28T09:32:12Z</time></trkpt><trkpt lat="44.60097050865618" lon="10.580476905883623"><ele>262.0</ele><time>2026-03-28T09:32:13Z</time></trkpt><trkpt lat="44.60109534243886" lon="10.580619042164386"><ele>262.0</ele><time>2026-03-28T09:32:15Z</time></trkpt><trkpt lat="44.60117799977171" lon="10.58068550488803"><ele>261.8</ele><time>2026-03-28T09:32:16Z</time></trkpt><trkpt lat="44.60125397567563" lon="10.580739258104549"><ele>261.6</ele><time>2026-03-28T09:32:17Z</time></trkpt><trkpt lat="44.60132209003508" lon="10.580786266783399"><ele>261.40000000000003</ele><time>2026-03-28T09:32:18Z</time></trkpt><trkpt lat="44.6014355182008" lon="10.58085477967555"><ele>261.2</ele><time>2026-03-28T09:32:20Z</time></trkpt><trkpt lat="44.60152615634163" lon="10.580915221092615"><ele>261.0</ele><time>2026-03-28T09:32:22Z</time></trkpt><trkpt lat="44.60159159277186" lon="10.580961213459167"><ele>261.0</ele><time>2026-03-28T09:33:12Z</time></trkpt><trkpt lat="44.60165681248788" lon="10.580991554231417"><ele>261.0</ele><time>2026-03-28T09:33:13Z</time></trkpt><trkpt lat="44.601730484899704" lon="10.581019977712801"><ele>261.0</ele><time>2026-03-28T09:33:14Z</time></trkpt><trkpt lat="44.60181961948998" lon="10.581044655548043"><ele>261.0</ele><time>2026-03-28T09:33:15Z</time></trkpt><trkpt lat="44.60191736045579" lon="10.581064374089138"><ele>261.0</ele><time>2026-03-28T09:33:16Z</time></trkpt><trkpt lat="44.602022029187545" lon="10.581083505282097"><ele>261.0</ele><time>2026-03-28T09:33:17Z</time></trkpt><trkpt lat="44.60213582771572" lon="10.581095884773225"><ele>260.0</ele><time>2026-03-28T09:33:18Z</time></trkpt><trkpt lat="44.60225440480098" lon="10.581106716543294"><ele>259.0</ele><time>2026-03-28T09:33:19Z</time></trkpt><trkpt lat="44.60238146086547" lon="10.581114660802868"><ele>258.0</ele><time>2026-03-28T09:33:20Z</time></trkpt><trkpt lat="44.60250298298105" lon="10.581116701298034"><ele>257.0</ele><time>2026-03-28T09:33:21Z</time></trkpt><trkpt lat="44.60261992455609" lon="10.581116701298638"><ele>257.0</ele><time>2026-03-28T09:33:22Z</time></trkpt><trkpt lat="44.60274867344481" lon="10.581117004702849"><ele>257.0</ele><time>2026-03-28T09:33:23Z</time></trkpt><trkpt lat="44.602869853327206" lon="10.581117875609534"><ele>257.0</ele><time>2026-03-28T09:33:24Z</time></trkpt><trkpt lat="44.602988543314034" lon="10.581120531848205"><ele>257.0</ele><time>2026-03-28T09:33:25Z</time></trkpt><trkpt lat="44.60310183218846" lon="10.581123682031736"><ele>256.0</ele><time>2026-03-28T09:33:26Z</time></trkpt><trkpt lat="44.60321961015783" lon="10.581126957043889"><ele>255.0</ele><time>2026-03-28T09:33:27Z</time></trkpt><trkpt lat="44.60333985121538" lon="10.58112880130857"><ele>254.0</ele><time>2026-03-28T09:33:28Z</time></trkpt><trkpt lat="44.60346445047332" lon="10.58112880130965"><ele>253.0</ele><time>2026-03-28T09:33:29Z</time></trkpt><trkpt lat="44.60357995198722" lon="10.581124907349583"><ele>252.5</ele><time>2026-03-28T09:33:30Z</time></trkpt><trkpt lat="44.60369399785977" lon="10.581119171304286"><ele>252.0</ele><time>2026-03-28T09:33:31Z</time></trkpt><trkpt lat="44.60381841668179" lon="10.581088768080782"><ele>251.5</ele><time>2026-03-28T09:33:32Z</time></trkpt><trkpt lat="44.60394596602593" lon="10.581102499798634"><ele>251.0</ele><time>2026-03-28T09:33:33Z</time></trkpt><trkpt lat="44.604077592346506" lon="10.581092761216588"><ele>251.0</ele><time>2026-03-28T09:33:34Z</time></trkpt><trkpt lat="44.60420373702952" lon="10.581085470372955"><ele>251.0</ele><time>2026-03-28T09:33:35Z</time></trkpt><trkpt lat="44.60432759027552" lon="10.581083201317984"><ele>251.0</ele><time>2026-03-28T09:33:36Z</time></trkpt><trkpt lat="44.604433169465146" lon="10.581101728767761"><ele>251.0</ele><time>2026-03-28T09:33:37Z</time></trkpt><trkpt lat="44.60456012903852" lon="10.581130973020066"><ele>251.25</ele><time>2026-03-28T09:33:38Z</time></trkpt><trkpt lat="44.60466510306466" lon="10.581159339081852"><ele>251.5</ele><time>2026-03-28T09:33:39Z</time></trkpt><trkpt lat="44.604772404758" lon="10.581195283254754"><ele>251.75</ele><time>2026-03-28T09:33:40Z</time></trkpt><trkpt lat="44.604888208295854" lon="10.581234889024424"><ele>252.0</ele><time>2026-03-28T09:33:41Z</time></trkpt><trkpt lat="44.60500932929109" lon="10.581244844487683"><ele>252.25</ele><time>2026-03-28T09:33:42Z</time></trkpt><trkpt lat="44.6051200861628" lon="10.581267213767187"><ele>252.5</ele><time>2026-03-28T09:33:43Z</time></trkpt><trkpt lat="44.60524340379135" lon="10.58124322391589"><ele>252.75</ele><time>2026-03-28T09:33:44Z</time></trkpt><trkpt lat="44.60537522258718" lon="10.581231906729048"><ele>253.0</ele><time>2026-03-28T09:33:45Z</time></trkpt><trkpt lat="44.605496815077544" lon="10.581202896940678"><ele>253.25</ele><time>2026-03-28T09:33:46Z</time></trkpt><trkpt lat="44.605624508540856" lon="10.581167380827441"><ele>253.5</ele><time>2026-03-28T09:33:47Z</time></trkpt><trkpt lat="44.60574444088464" lon="10.58111037243521"><ele>253.75</ele><time>2026-03-28T09:33:48Z</time></trkpt><trkpt lat="44.6058634743291" lon="10.581073252862728"><ele>254.0</ele><time>2026-03-28T09:33:49Z</time></trkpt><trkpt lat="44.60596775847282" lon="10.581058903551428"><ele>254.0</ele><time>2026-03-28T09:33:50Z</time></trkpt><trkpt lat="44.60608620766022" lon="10.580998065294986"><ele>254.0</ele><time>2026-03-28T09:33:51Z</time></trkpt><trkpt lat="44.60620225063725" lon="10.58094888908578"><ele>254.0</ele><time>2026-03-28T09:33:52Z</time></trkpt><trkpt lat="44.606321676325614" lon="10.58090360751102"><ele>254.0</ele><time>2026-03-28T09:33:53Z</time></trkpt><trkpt lat="44.60643267695532" lon="10.58082802690737"><ele>255.0</ele><time>2026-03-28T09:33:54Z</time></trkpt><trkpt lat="44.60654510669495" lon="10.580755209495623"><ele>256.0</ele><time>2026-03-28T09:33:55Z</time></trkpt><trkpt lat="44.606648686192806" lon="10.580688124085773"><ele>257.0</ele><time>2026-03-28T09:33:56Z</time></trkpt><trkpt lat="44.60675690056022" lon="10.580618036962067"><ele>258.0</ele><time>2026-03-28T09:33:57Z</time></trkpt><trkpt lat="44.606865254778704" lon="10.580547858537695"><ele>258.0</ele><time>2026-03-28T09:33:58Z</time></trkpt><trkpt lat="44.6069655151384" lon="10.580476727611691"><ele>258.0</ele><time>2026-03-28T09:33:59Z</time></trkpt><trkpt lat="44.607063176392785" lon="10.580391027797733"><ele>258.0</ele><time>2026-03-28T09:34:00Z</time></trkpt><trkpt lat="44.6071640810994" lon="10.580343599127302"><ele>258.0</ele><time>2026-03-28T09:34:01Z</time></trkpt><trkpt lat="44.607259894501475" lon="10.580331811655586"><ele>258.0</ele><time>2026-03-28T09:34:02Z</time></trkpt><trkpt lat="44.60734299646503" lon="10.580312145272844"><ele>259.3333333333333</ele><time>2026-03-28T09:34:03Z</time></trkpt><trkpt lat="44.60743007183049" lon="10.58028931873143"><ele>260.6666666666667</ele><time>2026-03-28T09:34:04Z</time></trkpt><trkpt lat="44.607505834700625" lon="10.580296611053905"><ele>262.0</ele><time>2026-03-28T09:34:05Z</time></trkpt><trkpt lat="44.60759078696754" lon="10.580278690167566"><ele>263.33333333333337</ele><time>2026-03-28T09:34:06Z</time></trkpt><trkpt lat="44.60767729526503" lon="10.58026244867015"><ele>264.6666666666667</ele><time>2026-03-28T09:34:07Z</time></trkpt><trkpt lat="44.60777752534321" lon="10.580249985448644"><ele>266.0</ele><time>2026-03-28T09:34:08Z</time></trkpt><trkpt lat="44.607869928630464" lon="10.58024630318621"><ele>266.40000000000003</ele><time>2026-03-28T09:34:09Z</time></trkpt><trkpt lat="44.60796405693548" lon="10.580252595495004"><ele>266.8</ele><time>2026-03-28T09:34:09.999Z</time></trkpt><trkpt lat="44.60805229680886" lon="10.580277551089882"><ele>267.20000000000005</ele><time>2026-03-28T09:34:10.999Z</time></trkpt><trkpt lat="44.608135009285604" lon="10.580314013401086"><ele>267.6</ele><time>2026-03-28T09:34:11.999Z</time></trkpt><trkpt lat="44.608207730687845" lon="10.580350095363777"><ele>268.0</ele><time>2026-03-28T09:34:12.999Z</time></trkpt><trkpt lat="44.60832895585759" lon="10.58041687381085"><ele>268.0</ele><time>2026-03-28T09:34:13.999Z</time></trkpt><trkpt lat="44.60840473591739" lon="10.580467817023106"><ele>268.0</ele><time>2026-03-28T09:34:18Z</time></trkpt><trkpt lat="44.608311892170896" lon="10.580408047781674"><ele>268.0</ele><time>2026-03-28T09:34:35Z</time></trkpt><trkpt lat="44.608215514314075" lon="10.580353528834788"><ele>268.0</ele><time>2026-03-28T09:34:37Z</time></trkpt><trkpt lat="44.60812512049306" lon="10.580307424159715"><ele>268.0</ele><time>2026-03-28T09:34:38Z</time></trkpt><trkpt lat="44.60802350813633" lon="10.580254938054788"><ele>268.0</ele><time>2026-03-28T09:34:39Z</time></trkpt><trkpt lat="44.60794015779957" lon="10.580232922615906"><ele>268.0</ele><time>2026-03-28T09:34:40Z</time></trkpt><trkpt lat="44.607853547733015" lon="10.58019566330726"><ele>268.0</ele><time>2026-03-28T09:34:41Z</time></trkpt><trkpt lat="44.607754171383505" lon="10.58022683646815"><ele>268.0</ele><time>2026-03-28T09:34:42Z</time></trkpt><trkpt lat="44.60764568379614" lon="10.580246303187279"><ele>268.0</ele><time>2026-03-28T09:34:43Z</time></trkpt><trkpt lat="44.60754523550393" lon="10.58026983947696"><ele>267.66666666666663</ele><time>2026-03-28T09:34:44Z</time></trkpt><trkpt lat="44.60745473546894" lon="10.580304800457132"><ele>267.3333333333333</ele><time>2026-03-28T09:34:45Z</time></trkpt><trkpt lat="44.60737233487889" lon="10.580324773664096"><ele>267.0</ele><time>2026-03-28T09:34:46Z</time></trkpt><trkpt lat="44.60730924910263" lon="10.580329400073143"><ele>266.6666666666667</ele><time>2026-03-28T09:34:47Z</time></trkpt><trkpt lat="44.607227680807235" lon="10.580339171339409"><ele>266.33333333333337</ele><time>2026-03-28T09:34:49Z</time></trkpt><trkpt lat="44.60721575204504" lon="10.580240697752542"><ele>266.0</ele><time>2026-03-28T09:34:53Z</time></trkpt><trkpt lat="44.60725198515187" lon="10.58011755746895"><ele>266.0</ele><time>2026-03-28T09:34:55Z</time></trkpt><trkpt lat="44.607230507704" lon="10.580030064705456"><ele>266.0</ele><time>2026-03-28T09:34:56Z</time></trkpt><trkpt lat="44.60724446962727" lon="10.580124251309135"><ele>266.0</ele><time>2026-03-28T09:35:26Z</time></trkpt><trkpt lat="44.60724152975526" lon="10.580237777475153"><ele>266.0</ele><time>2026-03-28T09:35:29Z</time></trkpt><trkpt lat="44.60721633717639" lon="10.580319518208505"><ele>266.0</ele><time>2026-03-28T09:35:32Z</time></trkpt><trkpt lat="44.607159659725966" lon="10.580373646411902"><ele>266.0</ele><time>2026-03-28T09:35:34Z</time></trkpt><trkpt lat="44.60706635903897" lon="10.580415508901995"><ele>266.0</ele><time>2026-03-28T09:35:36Z</time></trkpt><trkpt lat="44.60700832117656" lon="10.580451964989892"><ele>266.0</ele><time>2026-03-28T09:35:37Z</time></trkpt><trkpt lat="44.60689309804696" lon="10.580509362390718"><ele>266.0</ele><time>2026-03-28T09:35:39Z</time></trkpt><trkpt lat="44.606929184600034" lon="10.580351042150689"><ele>266.0</ele><time>2026-03-28T09:35:46Z</time></trkpt><trkpt lat="44.60702233800847" lon="10.580263675350134"><ele>266.0</ele><time>2026-03-28T09:35:48Z</time></trkpt><trkpt lat="44.607106515818614" lon="10.580170568508002"><ele>266.0</ele><time>2026-03-28T09:35:50Z</time></trkpt><trkpt lat="44.607155488678096" lon="10.58011080832029"><ele>266.0</ele><time>2026-03-28T09:36:04.999Z</time></trkpt><trkpt lat="44.60721025539826" lon="10.580061118352926"><ele>266.0</ele><time>2026-03-28T09:36:05.999Z</time></trkpt><trkpt lat="44.607262631225844" lon="10.579979503807058"><ele>266.0</ele><time>2026-03-28T09:36:06.999Z</time></trkpt><trkpt lat="44.60732090953156" lon="10.579881379431637"><ele>266.0</ele><time>2026-03-28T09:36:07.999Z</time></trkpt><trkpt lat="44.607376693951956" lon="10.579784834214824"><ele>266.0</ele><time>2026-03-28T09:36:08.999Z</time></trkpt><trkpt lat="44.60742748977292" lon="10.579695650726807"><ele>266.0</ele><time>2026-03-28T09:36:09.999Z</time></trkpt><trkpt lat="44.60747985724862" lon="10.57960706599753"><ele>266.0</ele><time>2026-03-28T09:36:10.999Z</time></trkpt><trkpt lat="44.60752561531122" lon="10.579514698260894"><ele>266.0</ele><time>2026-03-28T09:36:11.999Z</time></trkpt><trkpt lat="44.60758781472752" lon="10.579406035283753"><ele>266.0</ele><time>2026-03-28T09:36:12.999Z</time></trkpt><trkpt lat="44.60764638545818" lon="10.579315812650144"><ele>266.0</ele><time>2026-03-28T09:36:13.999Z</time></trkpt><trkpt lat="44.60770877464836" lon="10.579215693461098"><ele>266.0</ele><time>2026-03-28T09:36:14.999Z</time></trkpt><trkpt lat="44.60776218709648" lon="10.579136133523493"><ele>265.5</ele><time>2026-03-28T09:36:15.999Z</time></trkpt><trkpt lat="44.60782442385505" lon="10.579041332416095"><ele>265.0</ele><time>2026-03-28T09:36:16.999Z</time></trkpt><trkpt lat="44.607883276628336" lon="10.5789631099188"><ele>264.5</ele><time>2026-03-28T09:36:17.999Z</time></trkpt><trkpt lat="44.60794050851003" lon="10.578873117872527"><ele>264.0</ele><time>2026-03-28T09:36:18.999Z</time></trkpt><trkpt lat="44.60800062552443" lon="10.578782551265995"><ele>263.5</ele><time>2026-03-28T09:36:19.999Z</time></trkpt><trkpt lat="44.608058468476514" lon="10.57869299541051"><ele>263.0</ele><time>2026-03-28T09:36:20.999Z</time></trkpt><trkpt lat="44.608147771710236" lon="10.57858384987398"><ele>260.33333333333337</ele><time>2026-03-28T09:36:22.999Z</time></trkpt><trkpt lat="44.60819301710259" lon="10.578515764261573"><ele>257.6666666666667</ele><time>2026-03-28T09:36:24Z</time></trkpt><trkpt lat="44.60828049535455" lon="10.578384125088519"><ele>255.0</ele><time>2026-03-28T09:36:26Z</time></trkpt><trkpt lat="44.60832871116919" lon="10.578311568530973"><ele>252.33333333333331</ele><time>2026-03-28T09:36:27Z</time></trkpt><trkpt lat="44.60837808021985" lon="10.578237276553752"><ele>249.66666666666666</ele><time>2026-03-28T09:36:28Z</time></trkpt><trkpt lat="44.60842540901775" lon="10.578162159924343"><ele>247.0</ele><time>2026-03-28T09:36:29Z</time></trkpt><trkpt lat="44.60848803754629" lon="10.5781240614064"><ele>246.99999999999997</ele><time>2026-03-28T09:36:30Z</time></trkpt><trkpt lat="44.608559508233" lon="10.57808466969796"><ele>247.0</ele><time>2026-03-28T09:36:31Z</time></trkpt><trkpt lat="44.60862399133759" lon="10.578047057145943"><ele>247.0</ele><time>2026-03-28T09:36:32Z</time></trkpt><trkpt lat="44.60869666653168" lon="10.577992131806278"><ele>247.0</ele><time>2026-03-28T09:36:33Z</time></trkpt><trkpt lat="44.6087645089107" lon="10.57792211555501"><ele>246.99999999999997</ele><time>2026-03-28T09:36:34Z</time></trkpt><trkpt lat="44.608850103798424" lon="10.57783587162973"><ele>247.0</ele><time>2026-03-28T09:36:36Z</time></trkpt><trkpt lat="44.608921794984056" lon="10.577780458032574"><ele>245.0</ele><time>2026-03-28T09:36:39Z</time></trkpt><trkpt lat="44.608961763278366" lon="10.577700619273287"><ele>243.0</ele><time>2026-03-28T09:36:43Z</time></trkpt><trkpt lat="44.60896372754223" lon="10.5776099136887"><ele>241.0</ele><time>2026-03-28T09:36:47Z</time></trkpt><trkpt lat="44.60890105003614" lon="10.577560634131043"><ele>239.0</ele><time>2026-03-28T09:38:04.999Z</time></trkpt><trkpt lat="44.6088653161726" lon="10.577472370337418"><ele>237.0</ele><time>2026-03-28T09:38:06.999Z</time></trkpt><trkpt lat="44.60882519059481" lon="10.5773923931826"><ele>235.0</ele><time>2026-03-28T09:38:08.999Z</time></trkpt><trkpt lat="44.60878549775574" lon="10.577310018748802"><ele>233.0</ele><time>2026-03-28T09:38:10.999Z</time></trkpt><trkpt lat="44.608765784998575" lon="10.577222499591539"><ele>233.00000000000003</ele><time>2026-03-28T09:38:12.999Z</time></trkpt><trkpt lat="44.608767841407044" lon="10.577132830018973"><ele>233.0</ele><time>2026-03-28T09:38:15.999Z</time></trkpt><trkpt lat="44.60874939889" lon="10.57699422945019"><ele>233.0</ele><time>2026-03-28T09:38:17.999Z</time></trkpt><trkpt lat="44.608736733207024" lon="10.576867814986675"><ele>233.0</ele><time>2026-03-28T09:38:19.999Z</time></trkpt><trkpt lat="44.60873045836896" lon="10.5767486782764"><ele>233.00000000000003</ele><time>2026-03-28T09:38:21.999Z</time></trkpt><trkpt lat="44.60872336753155" lon="10.576633595073726"><ele>233.0</ele><time>2026-03-28T09:38:23.999Z</time></trkpt><trkpt lat="44.6087334957303" lon="10.576520373764037"><ele>230.8</ele><time>2026-03-28T09:38:25.999Z</time></trkpt><trkpt lat="44.608767566676846" lon="10.576427225513479"><ele>228.60000000000002</ele><time>2026-03-28T09:38:27.999Z</time></trkpt><trkpt lat="44.608846459434005" lon="10.576302705000822"><ele>226.39999999999998</ele><time>2026-03-28T09:38:30Z</time></trkpt><trkpt lat="44.60890035890972" lon="10.576244109570332"><ele>224.2</ele><time>2026-03-28T09:38:31Z</time></trkpt><trkpt lat="44.60899887280496" lon="10.57617299798459"><ele>222.0</ele><time>2026-03-28T09:38:33Z</time></trkpt><trkpt lat="44.609090480377226" lon="10.576160571196159"><ele>222.0</ele><time>2026-03-28T09:38:35Z</time></trkpt><trkpt lat="44.609167318054254" lon="10.57617992656606"><ele>222.0</ele><time>2026-03-28T09:38:37Z</time></trkpt><trkpt lat="44.60922382871494" lon="10.57626946992844"><ele>222.0</ele><time>2026-03-28T09:38:39Z</time></trkpt><trkpt lat="44.60926592955767" lon="10.57642272325799"><ele>222.0</ele><time>2026-03-28T09:38:41Z</time></trkpt><trkpt lat="44.60930561447278" lon="10.576568507794304"><ele>222.0</ele><time>2026-03-28T09:38:43Z</time></trkpt><trkpt lat="44.60931303561419" lon="10.576656659997274"><ele>222.0</ele><time>2026-03-28T09:38:44Z</time></trkpt><trkpt lat="44.609338045525995" lon="10.576760370264797"><ele>222.0</ele><time>2026-03-28T09:38:46Z</time></trkpt><trkpt lat="44.60926904576689" lon="10.576848067479366"><ele>222.0</ele><time>2026-03-28T09:38:48Z</time></trkpt><trkpt lat="44.60915768603202" lon="10.576906146435586"><ele>222.0</ele><time>2026-03-28T09:38:50Z</time></trkpt><trkpt lat="44.60910360567052" lon="10.576953231654636"><ele>222.0</ele><time>2026-03-28T09:38:51Z</time></trkpt><trkpt lat="44.60900458548647" lon="10.577057715157675"><ele>224.2</ele><time>2026-03-28T09:38:53Z</time></trkpt><trkpt lat="44.60890466816769" lon="10.577132563488925"><ele>226.39999999999998</ele><time>2026-03-28T09:38:55Z</time></trkpt><trkpt lat="44.6088120354912" lon="10.577211422807016"><ele>228.60000000000002</ele><time>2026-03-28T09:38:57Z</time></trkpt><trkpt lat="44.60879169604173" lon="10.577326289323313"><ele>230.8</ele><time>2026-03-28T09:39:00Z</time></trkpt><trkpt lat="44.60887712829453" lon="10.577453537059654"><ele>233.0</ele><time>2026-03-28T09:39:02Z</time></trkpt><trkpt lat="44.60892178556579" lon="10.57752493878276"><ele>233.00000000000003</ele><time>2026-03-28T09:39:03Z</time></trkpt><trkpt lat="44.608939508017826" lon="10.577675793130737"><ele>233.0</ele><time>2026-03-28T09:39:05Z</time></trkpt><trkpt lat="44.60886288012286" lon="10.577808403158944"><ele>233.0</ele><time>2026-03-28T09:39:07Z</time></trkpt><trkpt lat="44.608801383546535" lon="10.577855569464258"><ele>233.0</ele><time>2026-03-28T09:39:08Z</time></trkpt><trkpt lat="44.60873762188461" lon="10.577889982554659"><ele>233.00000000000003</ele><time>2026-03-28T09:39:09Z</time></trkpt><trkpt lat="44.60867943044342" lon="10.577943558454777"><ele>233.0</ele><time>2026-03-28T09:39:10Z</time></trkpt><trkpt lat="44.60861096150865" lon="10.577998985967644"><ele>235.33333333333334</ele><time>2026-03-28T09:39:11Z</time></trkpt><trkpt lat="44.60852663530698" lon="10.578062245611306"><ele>237.66666666666669</ele><time>2026-03-28T09:39:13Z</time></trkpt><trkpt lat="44.60842323747152" lon="10.578129018984631"><ele>240.0</ele><time>2026-03-28T09:39:15Z</time></trkpt><trkpt lat="44.60837129085249" lon="10.578186161526126"><ele>242.33333333333331</ele><time>2026-03-28T09:39:16Z</time></trkpt><trkpt lat="44.608288821307404" lon="10.578239395938871"><ele>244.66666666666666</ele><time>2026-03-28T09:39:17Z</time></trkpt><trkpt lat="44.60824357226386" lon="10.57831568404934"><ele>247.0</ele><time>2026-03-28T09:39:18Z</time></trkpt><trkpt lat="44.6082011498511" lon="10.578391186538129"><ele>246.99999999999997</ele><time>2026-03-28T09:39:19Z</time></trkpt><trkpt lat="44.60815219923315" lon="10.578477713232717"><ele>247.0</ele><time>2026-03-28T09:39:20Z</time></trkpt><trkpt lat="44.60812071425623" lon="10.578574001689194"><ele>247.0</ele><time>2026-03-28T09:39:21Z</time></trkpt><trkpt lat="44.60809948515488" lon="10.578667561018314"><ele>247.0</ele><time>2026-03-28T09:39:22Z</time></trkpt><trkpt lat="44.60805224882128" lon="10.578754147603105"><ele>246.99999999999997</ele><time>2026-03-28T09:39:23Z</time></trkpt><trkpt lat="44.60799838052282" lon="10.578802957943347"><ele>247.0</ele><time>2026-03-28T09:39:24Z</time></trkpt><trkpt lat="44.607922390192144" lon="10.578854577657518"><ele>247.83333333333331</ele><time>2026-03-28T09:39:25Z</time></trkpt><trkpt lat="44.60787461936511" lon="10.578926463565114"><ele>248.66666666666666</ele><time>2026-03-28T09:39:26Z</time></trkpt><trkpt lat="44.60782845429066" lon="10.579023799347238"><ele>249.5</ele><time>2026-03-28T09:39:27Z</time></trkpt><trkpt lat="44.60776925239502" lon="10.579086833651338"><ele>250.33333333333331</ele><time>2026-03-28T09:39:28Z</time></trkpt><trkpt lat="44.607728099772004" lon="10.579184174769859"><ele>251.16666666666666</ele><time>2026-03-28T09:39:29Z</time></trkpt><trkpt lat="44.6076783708102" lon="10.579254975080824"><ele>252.0</ele><time>2026-03-28T09:39:30Z</time></trkpt><trkpt lat="44.60760611169643" lon="10.579356935440005"><ele>252.0</ele><time>2026-03-28T09:39:31Z</time></trkpt><trkpt lat="44.60755086124101" lon="10.579445943963426"><ele>252.0</ele><time>2026-03-28T09:39:32Z</time></trkpt><trkpt lat="44.607501993068325" lon="10.579526891120473"><ele>252.0</ele><time>2026-03-28T09:39:33Z</time></trkpt><trkpt lat="44.60745461397016" lon="10.579597646869269"><ele>252.0</ele><time>2026-03-28T09:39:34Z</time></trkpt><trkpt lat="44.607397490129685" lon="10.579695364856605"><ele>252.0</ele><time>2026-03-28T09:39:35Z</time></trkpt><trkpt lat="44.6073490148166" lon="10.579780626087768"><ele>252.0</ele><time>2026-03-28T09:39:36Z</time></trkpt><trkpt lat="44.60730698928698" lon="10.579859387320019"><ele>253.5</ele><time>2026-03-28T09:39:37Z</time></trkpt><trkpt lat="44.607260693196466" lon="10.579940846402899"><ele>255.0</ele><time>2026-03-28T09:39:38Z</time></trkpt><trkpt lat="44.60721350161857" lon="10.580016251781652"><ele>256.5</ele><time>2026-03-28T09:39:39Z</time></trkpt><trkpt lat="44.607156072327385" lon="10.58007007294078"><ele>258.0</ele><time>2026-03-28T09:39:40Z</time></trkpt><trkpt lat="44.607107227359364" lon="10.580129009199961"><ele>259.5</ele><time>2026-03-28T09:39:41Z</time></trkpt><trkpt lat="44.60702604273987" lon="10.58020610761854"><ele>261.0</ele><time>2026-03-28T09:39:43Z</time></trkpt><trkpt lat="44.60714104254319" lon="10.580376177726304"><ele>261.0</ele><time>2026-03-28T09:39:48Z</time></trkpt><trkpt lat="44.60720785768782" lon="10.580360229374183"><ele>261.0</ele><time>2026-03-28T09:39:52Z</time></trkpt><trkpt lat="44.607277039932896" lon="10.580335763366913"><ele>261.0</ele><time>2026-03-28T09:39:56Z</time></trkpt><trkpt lat="44.607308887941336" lon="10.579984454789924"><ele>261.0</ele><time>2026-03-28T09:39:58.999Z</time></trkpt><trkpt lat="44.607356647248935" lon="10.579882815175479"><ele>261.8333333333333</ele><time>2026-03-28T09:39:59.999Z</time></trkpt><trkpt lat="44.607406174269315" lon="10.579816994671976"><ele>262.6666666666667</ele><time>2026-03-28T09:40:00.999Z</time></trkpt><trkpt lat="44.60745038682523" lon="10.57974806409288"><ele>263.5</ele><time>2026-03-28T09:40:01.999Z</time></trkpt><trkpt lat="44.60750547349112" lon="10.579682233244029"><ele>264.33333333333337</ele><time>2026-03-28T09:40:02.999Z</time></trkpt><trkpt lat="44.60756149715751" lon="10.579618255947999"><ele>265.1666666666667</ele><time>2026-03-28T09:40:03.999Z</time></trkpt><trkpt lat="44.60762159845147" lon="10.579543844029725"><ele>266.0</ele><time>2026-03-28T09:40:04.999Z</time></trkpt><trkpt lat="44.6077031683342" lon="10.579410191198003"><ele>265.40000000000003</ele><time>2026-03-28T09:40:06.999Z</time></trkpt><trkpt lat="44.6077702989207" lon="10.579298360150386"><ele>264.8</ele><time>2026-03-28T09:40:07.999Z</time></trkpt><trkpt lat="44.607821135245025" lon="10.57920676520067"><ele>264.20000000000005</ele><time>2026-03-28T09:40:08.999Z</time></trkpt><trkpt lat="44.60787009167717" lon="10.579097513732547"><ele>263.6</ele><time>2026-03-28T09:40:09.999Z</time></trkpt><trkpt lat="44.607948553792234" lon="10.578990185846333"><ele>263.0</ele><time>2026-03-28T09:40:11.999Z</time></trkpt><trkpt lat="44.60799636206844" lon="10.578895818970672"><ele>263.0</ele><time>2026-03-28T09:40:12.999Z</time></trkpt><trkpt lat="44.60805360406152" lon="10.57881038342407"><ele>263.0</ele><time>2026-03-28T09:40:13.999Z</time></trkpt><trkpt lat="44.60812435885159" lon="10.578719988112402"><ele>263.0</ele><time>2026-03-28T09:40:14.999Z</time></trkpt><trkpt lat="44.608180221704785" lon="10.578672336725543"><ele>263.0</ele><time>2026-03-28T09:40:15.999Z</time></trkpt><trkpt lat="44.6082348723124" lon="10.578604112742866"><ele>263.0</ele><time>2026-03-28T09:40:16.999Z</time></trkpt><trkpt lat="44.60829518255227" lon="10.578506254032366"><ele>263.0</ele><time>2026-03-28T09:40:17.999Z</time></trkpt><trkpt lat="44.60834407114923" lon="10.578436911121043"><ele>260.33333333333337</ele><time>2026-03-28T09:40:18.999Z</time></trkpt><trkpt lat="44.60839099316866" lon="10.578376026079999"><ele>257.6666666666667</ele><time>2026-03-28T09:40:19.999Z</time></trkpt><trkpt lat="44.60844642799959" lon="10.578281464049887"><ele>255.0</ele><time>2026-03-28T09:40:20.999Z</time></trkpt><trkpt lat="44.60853312751106" lon="10.578151423729638"><ele>252.33333333333331</ele><time>2026-03-28T09:40:22.999Z</time></trkpt><trkpt lat="44.60859385786106" lon="10.578089377034154"><ele>249.66666666666666</ele><time>2026-03-28T09:40:23.999Z</time></trkpt><trkpt lat="44.60865771049237" lon="10.578026542152525"><ele>247.0</ele><time>2026-03-28T09:40:24.999Z</time></trkpt><trkpt lat="44.60871728843619" lon="10.5779661436125"><ele>246.16666666666666</ele><time>2026-03-28T09:40:25.999Z</time></trkpt><trkpt lat="44.60877784126881" lon="10.577906002245587"><ele>245.33333333333331</ele><time>2026-03-28T09:40:26.999Z</time></trkpt><trkpt lat="44.60884978784608" lon="10.577847422564208"><ele>244.5</ele><time>2026-03-28T09:40:27.999Z</time></trkpt><trkpt lat="44.60890839244932" lon="10.577798407344284"><ele>243.66666666666669</ele><time>2026-03-28T09:40:28.999Z</time></trkpt><trkpt lat="44.608968027740396" lon="10.577767676080066"><ele>242.83333333333334</ele><time>2026-03-28T09:40:29.999Z</time></trkpt><trkpt lat="44.609040179540465" lon="10.577724209084495"><ele>242.0</ele><time>2026-03-28T09:40:31.999Z</time></trkpt><trkpt lat="44.60912495874582" lon="10.577700611239392"><ele>240.50000000000003</ele><time>2026-03-28T09:40:33.999Z</time></trkpt><trkpt lat="44.609220624934046" lon="10.577673989552233"><ele>239.0</ele><time>2026-03-28T09:40:36Z</time></trkpt><trkpt lat="44.60930005676143" lon="10.57766809119565"><ele>237.5</ele><time>2026-03-28T09:40:38Z</time></trkpt><trkpt lat="44.60937087224082" lon="10.57764862604724"><ele>236.0</ele><time>2026-03-28T09:40:43Z</time></trkpt><trkpt lat="44.609444157403196" lon="10.577635438339625"><ele>234.50000000000003</ele><time>2026-03-28T09:40:47Z</time></trkpt><trkpt lat="44.60953023389111" lon="10.577624219111586"><ele>233.0</ele><time>2026-03-28T09:40:50Z</time></trkpt><trkpt lat="44.60960513715901" lon="10.577618308160423"><ele>232.2</ele><time>2026-03-28T09:40:52Z</time></trkpt><trkpt lat="44.60964838977676" lon="10.577530263409312"><ele>231.4</ele><time>2026-03-28T09:40:56Z</time></trkpt><trkpt lat="44.60961086499256" lon="10.577382404305446"><ele>230.59999999999997</ele><time>2026-03-28T09:40:58Z</time></trkpt><trkpt lat="44.60957509665459" lon="10.577231639290012"><ele>229.79999999999998</ele><time>2026-03-28T09:41:00Z</time></trkpt><trkpt lat="44.60952196462592" lon="10.577085165537813"><ele>229.0</ele><time>2026-03-28T09:41:02Z</time></trkpt><trkpt lat="44.60948354841514" lon="10.57696356564143"><ele>227.83333333333331</ele><time>2026-03-28T09:41:03Z</time></trkpt><trkpt lat="44.60949718530322" lon="10.576815727438623"><ele>226.66666666666666</ele><time>2026-03-28T09:41:04Z</time></trkpt><trkpt lat="44.609454494200534" lon="10.576695765957956"><ele>225.5</ele><time>2026-03-28T09:41:05Z</time></trkpt><trkpt lat="44.60942131453345" lon="10.57660229762797"><ele>224.33333333333331</ele><time>2026-03-28T09:41:06Z</time></trkpt><trkpt lat="44.60938978301465" lon="10.57651165696134"><ele>223.16666666666666</ele><time>2026-03-28T09:41:07Z</time></trkpt><trkpt lat="44.60935883890949" lon="10.576422704645495"><ele>222.0</ele><time>2026-03-28T09:41:08Z</time></trkpt><trkpt lat="44.60933054427382" lon="10.576337318202496"><ele>220.0</ele><time>2026-03-28T09:41:09Z</time></trkpt><trkpt lat="44.609295921106096" lon="10.576171700431885"><ele>218.0</ele><time>2026-03-28T09:41:10Z</time></trkpt><trkpt lat="44.6092857462464" lon="10.576045451873044"><ele>216.0</ele><time>2026-03-28T09:41:11Z</time></trkpt><trkpt lat="44.60934832792835" lon="10.575897748614427"><ele>214.0</ele><time>2026-03-28T09:41:12Z</time></trkpt><trkpt lat="44.609397987288745" lon="10.57575545705895"><ele>212.0</ele><time>2026-03-28T09:41:13Z</time></trkpt><trkpt lat="44.60944397762876" lon="10.575595882936218"><ele>212.0</ele><time>2026-03-28T09:41:14Z</time></trkpt><trkpt lat="44.609502201907524" lon="10.575458842596928"><ele>212.0</ele><time>2026-03-28T09:41:15Z</time></trkpt><trkpt lat="44.60954532916081" lon="10.575317996416683"><ele>212.0</ele><time>2026-03-28T09:41:16Z</time></trkpt><trkpt lat="44.60959683280765" lon="10.575183193207028"><ele>212.0</ele><time>2026-03-28T09:41:17Z</time></trkpt><trkpt lat="44.60964884283983" lon="10.575060904799683"><ele>212.0</ele><time>2026-03-28T09:41:18Z</time></trkpt><trkpt lat="44.609710493437255" lon="10.574929442494906"><ele>212.0</ele><time>2026-03-28T09:41:19Z</time></trkpt><trkpt lat="44.60979330348101" lon="10.574817626077927"><ele>212.0</ele><time>2026-03-28T09:41:20Z</time></trkpt><trkpt lat="44.60986686127383" lon="10.57471357061605"><ele>212.0</ele><time>2026-03-28T09:41:21Z</time></trkpt><trkpt lat="44.60995261700698" lon="10.574602672943662"><ele>212.0</ele><time>2026-03-28T09:41:22Z</time></trkpt><trkpt lat="44.61003807319009" lon="10.574501784029986"><ele>212.0</ele><time>2026-03-28T09:41:23Z</time></trkpt><trkpt lat="44.61013848084288" lon="10.574415175953394"><ele>210.8</ele><time>2026-03-28T09:41:24Z</time></trkpt><trkpt lat="44.610223286413394" lon="10.574316369764396"><ele>209.6</ele><time>2026-03-28T09:41:25Z</time></trkpt><trkpt lat="44.61030183493179" lon="10.574233492963234"><ele>208.4</ele><time>2026-03-28T09:41:26Z</time></trkpt><trkpt lat="44.6103877933095" lon="10.574139455854343"><ele>207.20000000000002</ele><time>2026-03-28T09:41:27Z</time></trkpt><trkpt lat="44.61048180145843" lon="10.574047175574968"><ele>206.0</ele><time>2026-03-28T09:41:28Z</time></trkpt><trkpt lat="44.61059650762466" lon="10.573960976178796"><ele>204.5</ele><time>2026-03-28T09:41:29Z</time></trkpt><trkpt lat="44.6107089029687" lon="10.573842034630692"><ele>203.0</ele><time>2026-03-28T09:41:30Z</time></trkpt><trkpt lat="44.61082425512184" lon="10.573719155027362"><ele>201.5</ele><time>2026-03-28T09:41:31Z</time></trkpt><trkpt lat="44.61093614441965" lon="10.573605156856138"><ele>200.0</ele><time>2026-03-28T09:41:32Z</time></trkpt><trkpt lat="44.61105247336951" lon="10.573493764222192"><ele>198.0</ele><time>2026-03-28T09:41:33Z</time></trkpt><trkpt lat="44.61117289792953" lon="10.57338666493615"><ele>196.0</ele><time>2026-03-28T09:41:34Z</time></trkpt><trkpt lat="44.61128470571033" lon="10.573287983402887"><ele>194.0</ele><time>2026-03-28T09:41:35Z</time></trkpt><trkpt lat="44.61141339508548" lon="10.573199035014603"><ele>192.0</ele><time>2026-03-28T09:41:36Z</time></trkpt><trkpt lat="44.61153092076408" lon="10.573176575653012"><ele>192.0</ele><time>2026-03-28T09:41:37Z</time></trkpt><trkpt lat="44.61164749877788" lon="10.57313886208573"><ele>192.0</ele><time>2026-03-28T09:41:38Z</time></trkpt><trkpt lat="44.61177535216993" lon="10.57313214982356"><ele>192.0</ele><time>2026-03-28T09:41:39Z</time></trkpt><trkpt lat="44.61189057642172" lon="10.573124140894969"><ele>192.0</ele><time>2026-03-28T09:41:40Z</time></trkpt><trkpt lat="44.61201983436836" lon="10.573086312751204"><ele>191.0</ele><time>2026-03-28T09:41:41Z</time></trkpt><trkpt lat="44.612153482622276" lon="10.573026239284225"><ele>190.0</ele><time>2026-03-28T09:41:42Z</time></trkpt><trkpt lat="44.61227998479672" lon="10.572948641888704"><ele>189.0</ele><time>2026-03-28T09:41:43Z</time></trkpt><trkpt lat="44.61239190093805" lon="10.572846429158165"><ele>188.0</ele><time>2026-03-28T09:41:44Z</time></trkpt><trkpt lat="44.612478537283096" lon="10.572744114511513"><ele>187.75</ele><time>2026-03-28T09:41:45Z</time></trkpt><trkpt lat="44.61257252570008" lon="10.57264083426301"><ele>187.5</ele><time>2026-03-28T09:41:45.999Z</time></trkpt><trkpt lat="44.61268527138824" lon="10.572532522454813"><ele>187.25</ele><time>2026-03-28T09:41:46.999Z</time></trkpt><trkpt lat="44.61279612808174" lon="10.572434035534139"><ele>187.0</ele><time>2026-03-28T09:41:47.999Z</time></trkpt><trkpt lat="44.61290235727622" lon="10.572344955639222"><ele>188.25</ele><time>2026-03-28T09:41:48.999Z</time></trkpt><trkpt lat="44.61300649419088" lon="10.572271443918229"><ele>189.5</ele><time>2026-03-28T09:41:49.999Z</time></trkpt><trkpt lat="44.6131305626996" lon="10.572241265375817"><ele>190.75</ele><time>2026-03-28T09:41:50.999Z</time></trkpt><trkpt lat="44.61323936312835" lon="10.572193822230362"><ele>192.0</ele><time>2026-03-28T09:41:51.999Z</time></trkpt><trkpt lat="44.61334983774903" lon="10.572155610451732"><ele>192.0</ele><time>2026-03-28T09:41:52.999Z</time></trkpt><trkpt lat="44.613460474283286" lon="10.572103804348426"><ele>192.0</ele><time>2026-03-28T09:41:53.999Z</time></trkpt><trkpt lat="44.61356659973736" lon="10.572085765771288"><ele>192.0</ele><time>2026-03-28T09:41:54.999Z</time></trkpt><trkpt lat="44.61365697951333" lon="10.572026753340435"><ele>192.0</ele><time>2026-03-28T09:41:55.999Z</time></trkpt><trkpt lat="44.613764985062474" lon="10.571964851667188"><ele>192.0</ele><time>2026-03-28T09:41:56.999Z</time></trkpt><trkpt lat="44.613879038539544" lon="10.571878122523668"><ele>189.5</ele><time>2026-03-28T09:41:57.999Z</time></trkpt><trkpt lat="44.61398596210801" lon="10.571795143850505"><ele>187.0</ele><time>2026-03-28T09:41:58.999Z</time></trkpt><trkpt lat="44.61409219205076" lon="10.571696342101687"><ele>184.5</ele><time>2026-03-28T09:41:59.999Z</time></trkpt><trkpt lat="44.614203798365196" lon="10.571594421784427"><ele>182.0</ele><time>2026-03-28T09:42:00.999Z</time></trkpt><trkpt lat="44.6143206546641" lon="10.571490929644607"><ele>182.0</ele><time>2026-03-28T09:42:01.999Z</time></trkpt><trkpt lat="44.61443378824217" lon="10.571399833480598"><ele>182.0</ele><time>2026-03-28T09:42:02.999Z</time></trkpt><trkpt lat="44.61454321006844" lon="10.571306785768998"><ele>182.0</ele><time>2026-03-28T09:42:03.999Z</time></trkpt><trkpt lat="44.614654017939124" lon="10.571213478200738"><ele>182.0</ele><time>2026-03-28T09:42:04.999Z</time></trkpt><trkpt lat="44.614755267762746" lon="10.571126851662987"><ele>179.5</ele><time>2026-03-28T09:42:05.999Z</time></trkpt><trkpt lat="44.61487097321935" lon="10.571033363853518"><ele>177.0</ele><time>2026-03-28T09:42:06.999Z</time></trkpt><trkpt lat="44.61499064509034" lon="10.5709475691497"><ele>174.5</ele><time>2026-03-28T09:42:07.999Z</time></trkpt><trkpt lat="44.61510684814249" lon="10.570856909356431"><ele>172.0</ele><time>2026-03-28T09:42:08.999Z</time></trkpt><trkpt lat="44.61522379377841" lon="10.570756974890159"><ele>170.25</ele><time>2026-03-28T09:42:09.999Z</time></trkpt><trkpt lat="44.615348464453604" lon="10.570668171358827"><ele>168.5</ele><time>2026-03-28T09:42:10.999Z</time></trkpt><trkpt lat="44.61546608447906" lon="10.570596912946947"><ele>166.75</ele><time>2026-03-28T09:42:11.999Z</time></trkpt><trkpt lat="44.61560420466896" lon="10.57052113285177"><ele>165.0</ele><time>2026-03-28T09:42:12.999Z</time></trkpt><trkpt lat="44.61574351303799" lon="10.570457461853286"><ele>165.0</ele><time>2026-03-28T09:42:13.999Z</time></trkpt><trkpt lat="44.61588049018334" lon="10.570398105017253"><ele>165.0</ele><time>2026-03-28T09:42:14.999Z</time></trkpt><trkpt lat="44.61603330919927" lon="10.570332561573789"><ele>165.0</ele><time>2026-03-28T09:42:15.999Z</time></trkpt><trkpt lat="44.616165264955484" lon="10.570277246269455"><ele>165.0</ele><time>2026-03-28T09:42:16.999Z</time></trkpt><trkpt lat="44.61631955624031" lon="10.570214903833605"><ele>161.33333333333334</ele><time>2026-03-28T09:42:17.999Z</time></trkpt><trkpt lat="44.616463828675926" lon="10.57015470403668"><ele>157.66666666666669</ele><time>2026-03-28T09:42:18.999Z</time></trkpt><trkpt lat="44.61661233613532" lon="10.570088189282734"><ele>154.0</ele><time>2026-03-28T09:42:19.999Z</time></trkpt><trkpt lat="44.616754143602336" lon="10.570024972876615"><ele>154.0</ele><time>2026-03-28T09:42:20.999Z</time></trkpt><trkpt lat="44.61689623666202" lon="10.569966182333554"><ele>154.0</ele><time>2026-03-28T09:42:21.999Z</time></trkpt><trkpt lat="44.61702743230179" lon="10.569907989331748"><ele>154.0</ele><time>2026-03-28T09:42:22.999Z</time></trkpt><trkpt lat="44.61715220899853" lon="10.569855423525551"><ele>154.0</ele><time>2026-03-28T09:42:23.999Z</time></trkpt><trkpt lat="44.61727067721204" lon="10.56980238538264"><ele>153.4</ele><time>2026-03-28T09:42:24.999Z</time></trkpt><trkpt lat="44.61737349819485" lon="10.56972586366372"><ele>152.8</ele><time>2026-03-28T09:42:25.999Z</time></trkpt><trkpt lat="44.61745284154996" lon="10.569617756969773"><ele>152.2</ele><time>2026-03-28T09:42:26.999Z</time></trkpt><trkpt lat="44.61750154690673" lon="10.569489301061274"><ele>151.6</ele><time>2026-03-28T09:42:27.999Z</time></trkpt><trkpt lat="44.61755799590824" lon="10.569374415684015"><ele>151.0</ele><time>2026-03-28T09:42:28.999Z</time></trkpt><trkpt lat="44.6176023406428" lon="10.56927444585132"><ele>150.8</ele><time>2026-03-28T09:42:29.999Z</time></trkpt><trkpt lat="44.61765251367565" lon="10.569174151521976"><ele>150.6</ele><time>2026-03-28T09:42:31.999Z</time></trkpt><trkpt lat="44.61774226563585" lon="10.569284227888309"><ele>150.4</ele><time>2026-03-28T09:42:33.999Z</time></trkpt><trkpt lat="44.61781437190377" lon="10.569349742943"><ele>150.2</ele><time>2026-03-28T09:42:34.999Z</time></trkpt><trkpt lat="44.61788137987578" lon="10.569451411419893"><ele>150.0</ele><time>2026-03-28T09:42:35.999Z</time></trkpt><trkpt lat="44.61796643264842" lon="10.569562795760898"><ele>149.8</ele><time>2026-03-28T09:42:36.999Z</time></trkpt><trkpt lat="44.61804828227036" lon="10.569677591301168"><ele>149.6</ele><time>2026-03-28T09:42:37.999Z</time></trkpt><trkpt lat="44.61812931361509" lon="10.56979522390487"><ele>149.4</ele><time>2026-03-28T09:42:38.999Z</time></trkpt><trkpt lat="44.61821142661972" lon="10.569904718145988"><ele>149.2</ele><time>2026-03-28T09:42:39.999Z</time></trkpt><trkpt lat="44.618286408295525" lon="10.570001102050615"><ele>149.0</ele><time>2026-03-28T09:42:40.999Z</time></trkpt><trkpt lat="44.61835867869795" lon="10.570097224554761"><ele>149.0</ele><time>2026-03-28T09:42:42Z</time></trkpt><trkpt lat="44.618423120317175" lon="10.570195642684826"><ele>149.0</ele><time>2026-03-28T09:42:43Z</time></trkpt><trkpt lat="44.618494511078296" lon="10.570282498371538"><ele>149.0</ele><time>2026-03-28T09:42:44Z</time></trkpt><trkpt lat="44.61856793210364" lon="10.570370413112746"><ele>149.0</ele><time>2026-03-28T09:42:45Z</time></trkpt><trkpt lat="44.618633307319676" lon="10.570460556265362"><ele>149.0</ele><time>2026-03-28T09:42:46Z</time></trkpt><trkpt lat="44.618692362660944" lon="10.57054005429369"><ele>148.5</ele><time>2026-03-28T09:42:47Z</time></trkpt><trkpt lat="44.61875309563237" lon="10.570619881224838"><ele>148.0</ele><time>2026-03-28T09:42:48Z</time></trkpt><trkpt lat="44.61881205450456" lon="10.570691607911709"><ele>147.5</ele><time>2026-03-28T09:42:49Z</time></trkpt><trkpt lat="44.6188698123611" lon="10.570767732015021"><ele>147.0</ele><time>2026-03-28T09:42:50Z</time></trkpt><trkpt lat="44.61893538280952" lon="10.570855921941066"><ele>146.5</ele><time>2026-03-28T09:42:51Z</time></trkpt><trkpt lat="44.619016146692026" lon="10.570949131475833"><ele>146.0</ele><time>2026-03-28T09:42:52Z</time></trkpt><trkpt lat="44.61909719021773" lon="10.571045667848843"><ele>146.0</ele><time>2026-03-28T09:42:53Z</time></trkpt><trkpt lat="44.61917505649962" lon="10.571162330143286"><ele>146.0</ele><time>2026-03-28T09:42:54Z</time></trkpt><trkpt lat="44.61925468127541" lon="10.571287038930866"><ele>146.0</ele><time>2026-03-28T09:42:55Z</time></trkpt><trkpt lat="44.619337760699295" lon="10.571407440989557"><ele>146.0</ele><time>2026-03-28T09:42:56Z</time></trkpt><trkpt lat="44.619416335605784" lon="10.571533715559648"><ele>146.0</ele><time>2026-03-28T09:42:57Z</time></trkpt><trkpt lat="44.61948136025398" lon="10.57167312760486"><ele>146.0</ele><time>2026-03-28T09:42:58Z</time></trkpt><trkpt lat="44.619542000829796" lon="10.571817730330347"><ele>146.0</ele><time>2026-03-28T09:42:59Z</time></trkpt><trkpt lat="44.61961093396959" lon="10.571954973203905"><ele>146.0</ele><time>2026-03-28T09:43:00Z</time></trkpt><trkpt lat="44.61968339263701" lon="10.572081021658892"><ele>145.25</ele><time>2026-03-28T09:43:01Z</time></trkpt><trkpt lat="44.61976205080864" lon="10.572201416166312"><ele>144.5</ele><time>2026-03-28T09:43:02Z</time></trkpt><trkpt lat="44.61984163090416" lon="10.572327887133186"><ele>143.75</ele><time>2026-03-28T09:43:03Z</time></trkpt><trkpt lat="44.61991884418172" lon="10.572434546850237"><ele>143.0</ele><time>2026-03-28T09:43:04Z</time></trkpt><trkpt lat="44.61999151005786" lon="10.57254152571261"><ele>143.0</ele><time>2026-03-28T09:43:05Z</time></trkpt><trkpt lat="44.62006432160462" lon="10.572639742619566"><ele>143.0</ele><time>2026-03-28T09:43:06Z</time></trkpt><trkpt lat="44.620136152841674" lon="10.572734146076487"><ele>143.0</ele><time>2026-03-28T09:43:07Z</time></trkpt><trkpt lat="44.620220586602436" lon="10.572831127203553"><ele>143.0</ele><time>2026-03-28T09:43:08Z</time></trkpt><trkpt lat="44.62027728827119" lon="10.572922506434393"><ele>143.0</ele><time>2026-03-28T09:43:09Z</time></trkpt><trkpt lat="44.62034418972768" lon="10.572995203937431"><ele>142.25</ele><time>2026-03-28T09:43:10Z</time></trkpt><trkpt lat="44.620439665758916" lon="10.57310691305813"><ele>141.5</ele><time>2026-03-28T09:43:11Z</time></trkpt><trkpt lat="44.62052317513897" lon="10.573194404967271"><ele>140.75</ele><time>2026-03-28T09:43:12Z</time></trkpt><trkpt lat="44.620616932755794" lon="10.573290376622918"><ele>140.0</ele><time>2026-03-28T09:43:13Z</time></trkpt><trkpt lat="44.620739605791336" lon="10.573400370112607"><ele>140.0</ele><time>2026-03-28T09:43:14Z</time></trkpt><trkpt lat="44.620873693871594" lon="10.573485792636728"><ele>140.0</ele><time>2026-03-28T09:43:15Z</time></trkpt><trkpt lat="44.62100386975185" lon="10.573551331578857"><ele>140.0</ele><time>2026-03-28T09:43:16Z</time></trkpt><trkpt lat="44.621131317193935" lon="10.5736188579317"><ele>140.0</ele><time>2026-03-28T09:43:17Z</time></trkpt><trkpt lat="44.621256873656435" lon="10.573683032722736"><ele>139.8</ele><time>2026-03-28T09:43:18Z</time></trkpt><trkpt lat="44.621374628281686" lon="10.57375347163209"><ele>139.6</ele><time>2026-03-28T09:43:19Z</time></trkpt><trkpt lat="44.62148279223281" lon="10.573815455902864"><ele>139.4</ele><time>2026-03-28T09:43:20Z</time></trkpt><trkpt lat="44.62158049871532" lon="10.57386434089933"><ele>139.2</ele><time>2026-03-28T09:43:21Z</time></trkpt><trkpt lat="44.621667391475796" lon="10.573920581063508"><ele>139.0</ele><time>2026-03-28T09:43:22Z</time></trkpt><trkpt lat="44.621746890091366" lon="10.573959647874705"><ele>139.0</ele><time>2026-03-28T09:43:23Z</time></trkpt><trkpt lat="44.62182288739022" lon="10.573978715889801"><ele>139.0</ele><time>2026-03-28T09:43:24Z</time></trkpt><trkpt lat="44.62188376658608" lon="10.57400222320954"><ele>139.0</ele><time>2026-03-28T09:43:25Z</time></trkpt><trkpt lat="44.62195064675959" lon="10.573965049569939"><ele>139.0</ele><time>2026-03-28T09:43:26Z</time></trkpt><trkpt lat="44.62201770065065" lon="10.573972824862466"><ele>139.0</ele><time>2026-03-28T09:43:27Z</time></trkpt><trkpt lat="44.62212335901053" lon="10.573987291022936"><ele>139.0</ele><time>2026-03-28T09:43:29Z</time></trkpt><trkpt lat="44.62216824003747" lon="10.57390483860374"><ele>138.5</ele><time>2026-03-28T09:43:30Z</time></trkpt><trkpt lat="44.62215125332583" lon="10.573763055170083"><ele>138.0</ele><time>2026-03-28T09:43:31Z</time></trkpt><trkpt lat="44.62214411726899" lon="10.573638650189888"><ele>137.5</ele><time>2026-03-28T09:43:32Z</time></trkpt><trkpt lat="44.62214617864533" lon="10.573464030394085"><ele>137.0</ele><time>2026-03-28T09:43:33Z</time></trkpt><trkpt lat="44.6222005633863" lon="10.573284599693478"><ele>137.0</ele><time>2026-03-28T09:43:34Z</time></trkpt><trkpt lat="44.62226141286102" lon="10.57308396149031"><ele>137.0</ele><time>2026-03-28T09:43:35Z</time></trkpt><trkpt lat="44.622323551848176" lon="10.572872442986176"><ele>137.0</ele><time>2026-03-28T09:43:36Z</time></trkpt><trkpt lat="44.62239397424283" lon="10.57263272811903"><ele>137.33333333333331</ele><time>2026-03-28T09:43:37Z</time></trkpt><trkpt lat="44.62245956674386" lon="10.572409126143443"><ele>137.66666666666666</ele><time>2026-03-28T09:43:38Z</time></trkpt><trkpt lat="44.62252594597961" lon="10.572182833309913"><ele>138.0</ele><time>2026-03-28T09:43:39Z</time></trkpt><trkpt lat="44.6225929562926" lon="10.571954389041812"><ele>137.33333333333334</ele><time>2026-03-28T09:43:40Z</time></trkpt><trkpt lat="44.6226573094517" lon="10.571735003539382"><ele>136.66666666666669</ele><time>2026-03-28T09:43:41Z</time></trkpt><trkpt lat="44.62271387633409" lon="10.57154389573954"><ele>136.0</ele><time>2026-03-28T09:43:42Z</time></trkpt><trkpt lat="44.62277241430948" lon="10.571345891712703"><ele>135.25</ele><time>2026-03-28T09:43:43Z</time></trkpt><trkpt lat="44.622831297167984" lon="10.571146721128283"><ele>134.5</ele><time>2026-03-28T09:43:44Z</time></trkpt><trkpt lat="44.62288836262224" lon="10.570953691398227"><ele>133.75</ele><time>2026-03-28T09:43:45Z</time></trkpt><trkpt lat="44.62294323575171" lon="10.570767720095063"><ele>133.0</ele><time>2026-03-28T09:43:46Z</time></trkpt><trkpt lat="44.623002298399214" lon="10.57056755001597"><ele>133.0</ele><time>2026-03-28T09:43:47Z</time></trkpt><trkpt lat="44.62305649825807" lon="10.570381225634733"><ele>133.0</ele><time>2026-03-28T09:43:48Z</time></trkpt><trkpt lat="44.62311381550334" lon="10.570183687339744"><ele>133.0</ele><time>2026-03-28T09:43:49Z</time></trkpt><trkpt lat="44.62317157831172" lon="10.569984613465994"><ele>133.0</ele><time>2026-03-28T09:43:50Z</time></trkpt><trkpt lat="44.6232275595384" lon="10.569793087241198"><ele>133.0</ele><time>2026-03-28T09:43:51Z</time></trkpt><trkpt lat="44.62327130375199" lon="10.569590073206593"><ele>133.0</ele><time>2026-03-28T09:43:52Z</time></trkpt><trkpt lat="44.62333730598768" lon="10.56940615726077"><ele>133.0</ele><time>2026-03-28T09:43:53Z</time></trkpt><trkpt lat="44.62340853272377" lon="10.569218551241924"><ele>133.0</ele><time>2026-03-28T09:43:54Z</time></trkpt><trkpt lat="44.623499517477036" lon="10.569057864596568"><ele>133.0</ele><time>2026-03-28T09:43:55Z</time></trkpt><trkpt lat="44.62358169371942" lon="10.568893103976938"><ele>133.0</ele><time>2026-03-28T09:43:56Z</time></trkpt><trkpt lat="44.623666718668375" lon="10.56872575677852"><ele>133.0</ele><time>2026-03-28T09:43:57Z</time></trkpt><trkpt lat="44.62375170018399" lon="10.56856056925174"><ele>133.0</ele><time>2026-03-28T09:43:57.999Z</time></trkpt><trkpt lat="44.623832843380924" lon="10.568402142791157"><ele>131.75</ele><time>2026-03-28T09:43:58.999Z</time></trkpt><trkpt lat="44.62391901515769" lon="10.568233042789677"><ele>130.5</ele><time>2026-03-28T09:43:59.999Z</time></trkpt><trkpt lat="44.6240022309719" lon="10.568069743483695"><ele>129.25</ele><time>2026-03-28T09:44:00.999Z</time></trkpt><trkpt lat="44.624087815678344" lon="10.567901890505624"><ele>128.0</ele><time>2026-03-28T09:44:01.999Z</time></trkpt><trkpt lat="44.624171688017164" lon="10.567736790527949"><ele>128.0</ele><time>2026-03-28T09:44:02.999Z</time></trkpt><trkpt lat="44.624243872281134" lon="10.567594147406943"><ele>128.0</ele><time>2026-03-28T09:44:03.999Z</time></trkpt><trkpt lat="44.624317104896214" lon="10.567449432624674"><ele>128.0</ele><time>2026-03-28T09:44:04.999Z</time></trkpt><trkpt lat="44.62438432456796" lon="10.567315742602634"><ele>128.0</ele><time>2026-03-28T09:44:05.999Z</time></trkpt><trkpt lat="44.62444943271046" lon="10.56718317987758"><ele>127.60000000000001</ele><time>2026-03-28T09:44:06.999Z</time></trkpt><trkpt lat="44.62451299181212" lon="10.56705211090491"><ele>127.20000000000002</ele><time>2026-03-28T09:44:07.999Z</time></trkpt><trkpt lat="44.62456458089724" lon="10.566936803277581"><ele>126.8</ele><time>2026-03-28T09:44:08.999Z</time></trkpt><trkpt lat="44.62466283353071" lon="10.566873132029565"><ele>126.4</ele><time>2026-03-28T09:44:09.999Z</time></trkpt><trkpt lat="44.624779366159174" lon="10.56687209085028"><ele>126.0</ele><time>2026-03-28T09:44:10.999Z</time></trkpt><trkpt lat="44.62486548409682" lon="10.566797897368314"><ele>126.8</ele><time>2026-03-28T09:44:11.999Z</time></trkpt><trkpt lat="44.624924387156284" lon="10.566683138846738"><ele>127.6</ele><time>2026-03-28T09:44:12.999Z</time></trkpt><trkpt lat="44.62495206779178" lon="10.566534848047972"><ele>128.4</ele><time>2026-03-28T09:44:13.999Z</time></trkpt><trkpt lat="44.624937654342155" lon="10.566364389329788"><ele>129.2</ele><time>2026-03-28T09:44:14.999Z</time></trkpt><trkpt lat="44.62494409931686" lon="10.566207711518432"><ele>130.0</ele><time>2026-03-28T09:44:15.999Z</time></trkpt><trkpt lat="44.624962115913405" lon="10.56606300821478"><ele>130.6</ele><time>2026-03-28T09:44:16.999Z</time></trkpt><trkpt lat="44.625068527010484" lon="10.565966224487484"><ele>131.2</ele><time>2026-03-28T09:44:17.999Z</time></trkpt><trkpt lat="44.625120085272705" lon="10.565857005072669"><ele>131.8</ele><time>2026-03-28T09:44:18.999Z</time></trkpt><trkpt lat="44.62517730201626" lon="10.565738392379265"><ele>132.4</ele><time>2026-03-28T09:44:19.999Z</time></trkpt><trkpt lat="44.62522135707394" lon="10.565641020161683"><ele>133.0</ele><time>2026-03-28T09:44:20.999Z</time></trkpt><trkpt lat="44.62526525775501" lon="10.565558075619398"><ele>133.0</ele><time>2026-03-28T09:44:21.999Z</time></trkpt><trkpt lat="44.625304845775695" lon="10.565488115024346"><ele>133.0</ele><time>2026-03-28T09:44:22.999Z</time></trkpt><trkpt lat="44.62534109053612" lon="10.565398434004345"><ele>133.0</ele><time>2026-03-28T09:44:23.999Z</time></trkpt><trkpt lat="44.62538729427195" lon="10.565332904097556"><ele>133.0</ele><time>2026-03-28T09:44:24.999Z</time></trkpt><trkpt lat="44.62543942893212" lon="10.565243969485412"><ele>133.0</ele><time>2026-03-28T09:44:25.999Z</time></trkpt><trkpt lat="44.62548784200432" lon="10.565152721681407"><ele>133.0</ele><time>2026-03-28T09:44:26.999Z</time></trkpt><trkpt lat="44.62553346314662" lon="10.565047941681948"><ele>134.16666666666669</ele><time>2026-03-28T09:44:27.999Z</time></trkpt><trkpt lat="44.62557008421766" lon="10.564957575196948"><ele>135.33333333333334</ele><time>2026-03-28T09:44:28.999Z</time></trkpt><trkpt lat="44.62561308135481" lon="10.56485583810883"><ele>136.5</ele><time>2026-03-28T09:44:29.999Z</time></trkpt><trkpt lat="44.62565937519494" lon="10.56478401147086"><ele>137.66666666666666</ele><time>2026-03-28T09:44:30.999Z</time></trkpt><trkpt lat="44.62570186176285" lon="10.564679211562053"><ele>138.83333333333331</ele><time>2026-03-28T09:44:33.999Z</time></trkpt><trkpt lat="44.62574124993753" lon="10.564600741551123"><ele>140.0</ele><time>2026-03-28T09:44:35.999Z</time></trkpt><trkpt lat="44.625836647243446" lon="10.56449837159555"><ele>140.0</ele><time>2026-03-28T09:44:37.999Z</time></trkpt><trkpt lat="44.625929808085175" lon="10.564419098516645"><ele>140.0</ele><time>2026-03-28T09:44:39.999Z</time></trkpt><trkpt lat="44.62597279095186" lon="10.564312388777607"><ele>140.0</ele><time>2026-03-28T09:44:41.999Z</time></trkpt><trkpt lat="44.62600888186283" lon="10.564165498547812"><ele>140.0</ele><time>2026-03-28T09:44:43.999Z</time></trkpt><trkpt lat="44.62607302201601" lon="10.564014701218216"><ele>140.0</ele><time>2026-03-28T09:44:45.999Z</time></trkpt><trkpt lat="44.6261219940832" lon="10.563914433121608"><ele>140.6</ele><time>2026-03-28T09:44:46.999Z</time></trkpt><trkpt lat="44.626176110868016" lon="10.563791189557106"><ele>141.2</ele><time>2026-03-28T09:44:48Z</time></trkpt><trkpt lat="44.62623958993322" lon="10.563679947969531"><ele>141.8</ele><time>2026-03-28T09:44:49Z</time></trkpt><trkpt lat="44.62631700281823" lon="10.563564128908247"><ele>142.4</ele><time>2026-03-28T09:44:50Z</time></trkpt><trkpt lat="44.62638129293957" lon="10.563426551890393"><ele>143.0</ele><time>2026-03-28T09:44:51Z</time></trkpt><trkpt lat="44.62645555821296" lon="10.563275319647433"><ele>143.25</ele><time>2026-03-28T09:44:52Z</time></trkpt><trkpt lat="44.62653296785916" lon="10.563121583217393"><ele>143.5</ele><time>2026-03-28T09:44:53Z</time></trkpt><trkpt lat="44.626603414034015" lon="10.562977567998935"><ele>143.75</ele><time>2026-03-28T09:44:54Z</time></trkpt><trkpt lat="44.62667022584418" lon="10.562796513915583"><ele>144.0</ele><time>2026-03-28T09:44:55Z</time></trkpt><trkpt lat="44.626736342391865" lon="10.562611728830396"><ele>144.25</ele><time>2026-03-28T09:44:56Z</time></trkpt><trkpt lat="44.62679992913828" lon="10.562442640321555"><ele>144.5</ele><time>2026-03-28T09:44:57Z</time></trkpt><trkpt lat="44.626851665188816" lon="10.562257886590988"><ele>144.75</ele><time>2026-03-28T09:44:58Z</time></trkpt><trkpt lat="44.62688948902678" lon="10.562079283022817"><ele>145.0</ele><time>2026-03-28T09:44:59Z</time></trkpt><trkpt lat="44.62693422037886" lon="10.561900879760904"><ele>145.5</ele><time>2026-03-28T09:45:00Z</time></trkpt><trkpt lat="44.62696595055847" lon="10.561720777659918"><ele>146.0</ele><time>2026-03-28T09:45:01Z</time></trkpt><trkpt lat="44.62702005927284" lon="10.561557011723819"><ele>146.5</ele><time>2026-03-28T09:45:02Z</time></trkpt><trkpt lat="44.62708440066034" lon="10.561388208926898"><ele>147.0</ele><time>2026-03-28T09:45:03Z</time></trkpt><trkpt lat="44.62713100474199" lon="10.56121729419564"><ele>147.0</ele><time>2026-03-28T09:45:04Z</time></trkpt><trkpt lat="44.627159749316256" lon="10.561048793809674"><ele>147.0</ele><time>2026-03-28T09:45:05Z</time></trkpt><trkpt lat="44.62720839381829" lon="10.560907665092602"><ele>147.0</ele><time>2026-03-28T09:45:06Z</time></trkpt><trkpt lat="44.627240190540746" lon="10.560768301938865"><ele>147.0</ele><time>2026-03-28T09:45:07Z</time></trkpt><trkpt lat="44.62728466392962" lon="10.560633906144355"><ele>147.0</ele><time>2026-03-28T09:45:08Z</time></trkpt><trkpt lat="44.62732353124229" lon="10.560480988633094"><ele>146.75</ele><time>2026-03-28T09:45:09Z</time></trkpt><trkpt lat="44.62736571097664" lon="10.560322324028148"><ele>146.5</ele><time>2026-03-28T09:45:10Z</time></trkpt><trkpt lat="44.627418916887805" lon="10.56016983438585"><ele>146.25</ele><time>2026-03-28T09:45:11Z</time></trkpt><trkpt lat="44.6274610775105" lon="10.559995140673914"><ele>146.0</ele><time>2026-03-28T09:45:12Z</time></trkpt><trkpt lat="44.62752874042771" lon="10.559838089368785"><ele>146.0</ele><time>2026-03-28T09:45:13Z</time></trkpt><trkpt lat="44.62757838910368" lon="10.559667254427474"><ele>146.0</ele><time>2026-03-28T09:45:14Z</time></trkpt><trkpt lat="44.62766119547151" lon="10.559504897446477"><ele>146.0</ele><time>2026-03-28T09:45:15Z</time></trkpt><trkpt lat="44.62775097048967" lon="10.559359908206265"><ele>146.0</ele><time>2026-03-28T09:45:16Z</time></trkpt><trkpt lat="44.6278625467259" lon="10.559231962976002"><ele>146.25</ele><time>2026-03-28T09:45:17Z</time></trkpt><trkpt lat="44.6279645001397" lon="10.559098277846152"><ele>146.5</ele><time>2026-03-28T09:45:18Z</time></trkpt><trkpt lat="44.6280717312329" lon="10.558960155558651"><ele>146.75</ele><time>2026-03-28T09:45:19Z</time></trkpt><trkpt lat="44.6281866955066" lon="10.55881333154816"><ele>147.0</ele><time>2026-03-28T09:45:20Z</time></trkpt><trkpt lat="44.62829952135694" lon="10.558666425920162"><ele>147.0</ele><time>2026-03-28T09:45:21Z</time></trkpt><trkpt lat="44.62841067971591" lon="10.558514443708058"><ele>147.0</ele><time>2026-03-28T09:45:22Z</time></trkpt><trkpt lat="44.628522356150576" lon="10.558350422780435"><ele>147.0</ele><time>2026-03-28T09:45:23Z</time></trkpt><trkpt lat="44.628619080045" lon="10.55818151141944"><ele>148.25</ele><time>2026-03-28T09:45:24Z</time></trkpt><trkpt lat="44.628686745851034" lon="10.557999426523153"><ele>149.5</ele><time>2026-03-28T09:45:25Z</time></trkpt><trkpt lat="44.62876486509182" lon="10.557820700598159"><ele>150.75</ele><time>2026-03-28T09:45:26Z</time></trkpt><trkpt lat="44.62882955428068" lon="10.557636499797846"><ele>152.0</ele><time>2026-03-28T09:45:27Z</time></trkpt><trkpt lat="44.628886655185966" lon="10.557450703021072"><ele>152.25</ele><time>2026-03-28T09:45:28Z</time></trkpt><trkpt lat="44.62895185157608" lon="10.557272720872993"><ele>152.5</ele><time>2026-03-28T09:45:29Z</time></trkpt><trkpt lat="44.62898831893733" lon="10.557076513794971"><ele>152.75</ele><time>2026-03-28T09:45:30Z</time></trkpt><trkpt lat="44.629012770905454" lon="10.55687806129379"><ele>153.0</ele><time>2026-03-28T09:45:31Z</time></trkpt><trkpt lat="44.62902880511224" lon="10.556673492383009"><ele>153.0</ele><time>2026-03-28T09:45:32Z</time></trkpt><trkpt lat="44.6290250602669" lon="10.556471654835997"><ele>153.0</ele><time>2026-03-28T09:45:33Z</time></trkpt><trkpt lat="44.62903343367492" lon="10.556274275300325"><ele>153.0</ele><time>2026-03-28T09:45:34Z</time></trkpt><trkpt lat="44.62903987193329" lon="10.556080581546437"><ele>153.0</ele><time>2026-03-28T09:45:35Z</time></trkpt><trkpt lat="44.629045100131115" lon="10.55588281174709"><ele>153.0</ele><time>2026-03-28T09:45:36Z</time></trkpt><trkpt lat="44.629050430706386" lon="10.555686965156859"><ele>153.0</ele><time>2026-03-28T09:45:37Z</time></trkpt><trkpt lat="44.629057140736634" lon="10.55547853674477"><ele>153.0</ele><time>2026-03-28T09:45:38Z</time></trkpt><trkpt lat="44.629079678955364" lon="10.555259786305482"><ele>153.0</ele><time>2026-03-28T09:45:39Z</time></trkpt><trkpt lat="44.62908656004176" lon="10.555041624526584"><ele>152.66666666666666</ele><time>2026-03-28T09:45:40Z</time></trkpt><trkpt lat="44.62909355159336" lon="10.554819960529574"><ele>152.33333333333331</ele><time>2026-03-28T09:45:41Z</time></trkpt><trkpt lat="44.62910026403551" lon="10.554606284088894"><ele>152.0</ele><time>2026-03-28T09:45:42Z</time></trkpt><trkpt lat="44.629107063069455" lon="10.554389234302118"><ele>152.0</ele><time>2026-03-28T09:45:43Z</time></trkpt><trkpt lat="44.62911335339015" lon="10.554188424483764"><ele>152.0</ele><time>2026-03-28T09:45:44Z</time></trkpt><trkpt lat="44.62911977916561" lon="10.553983290478184"><ele>152.0</ele><time>2026-03-28T09:45:45Z</time></trkpt><trkpt lat="44.62912596127424" lon="10.553785935210392"><ele>152.0</ele><time>2026-03-28T09:45:46Z</time></trkpt><trkpt lat="44.62913199222546" lon="10.553593405395407"><ele>151.5</ele><time>2026-03-28T09:45:47Z</time></trkpt><trkpt lat="44.62913787382632" lon="10.553405643385725"><ele>151.0</ele><time>2026-03-28T09:45:47.999Z</time></trkpt><trkpt lat="44.629143713014045" lon="10.553219235376856"><ele>150.5</ele><time>2026-03-28T09:45:48.999Z</time></trkpt><trkpt lat="44.62914942862553" lon="10.553036772392055"><ele>150.0</ele><time>2026-03-28T09:45:49.999Z</time></trkpt><trkpt lat="44.62915506659975" lon="10.552856788072543"><ele>150.0</ele><time>2026-03-28T09:45:50.999Z</time></trkpt><trkpt lat="44.62916064837539" lon="10.552678896029505"><ele>150.0</ele><time>2026-03-28T09:45:51.999Z</time></trkpt><trkpt lat="44.629166139310406" lon="10.552503810121985"><ele>150.0</ele><time>2026-03-28T09:45:52.999Z</time></trkpt><trkpt lat="44.629171682498814" lon="10.552327058004016"><ele>150.0</ele><time>2026-03-28T09:45:53.999Z</time></trkpt><trkpt lat="44.62917728729777" lon="10.55214834266185"><ele>150.0</ele><time>2026-03-28T09:45:54.999Z</time></trkpt><trkpt lat="44.62918291221641" lon="10.55196679448336"><ele>150.0</ele><time>2026-03-28T09:45:55.999Z</time></trkpt><trkpt lat="44.62918833182334" lon="10.551792550389816"><ele>150.0</ele><time>2026-03-28T09:45:56.999Z</time></trkpt><trkpt lat="44.629193515984376" lon="10.551625876102598"><ele>150.0</ele><time>2026-03-28T09:45:57.999Z</time></trkpt><trkpt lat="44.629198368497555" lon="10.551463737051929"><ele>150.0</ele><time>2026-03-28T09:45:58.999Z</time></trkpt><trkpt lat="44.62920269256046" lon="10.551310277871309"><ele>150.0</ele><time>2026-03-28T09:45:59.999Z</time></trkpt><trkpt lat="44.629206799303425" lon="10.55116779353655"><ele>150.0</ele><time>2026-03-28T09:46:00.999Z</time></trkpt><trkpt lat="44.629211050230545" lon="10.551037730075558"><ele>150.0</ele><time>2026-03-28T09:46:01.999Z</time></trkpt><trkpt lat="44.62921517523838" lon="10.550911519748714"><ele>150.0</ele><time>2026-03-28T09:46:02.999Z</time></trkpt><trkpt lat="44.62922236881946" lon="10.550786229782318"><ele>149.8</ele><time>2026-03-28T09:46:03.999Z</time></trkpt><trkpt lat="44.62922698659715" lon="10.550675307090774"><ele>149.6</ele><time>2026-03-28T09:46:04.999Z</time></trkpt><trkpt lat="44.62921960183485" lon="10.5505150704815"><ele>149.4</ele><time>2026-03-28T09:46:06.999Z</time></trkpt><trkpt lat="44.629250872189715" lon="10.550390616596616"><ele>149.2</ele><time>2026-03-28T09:46:08.999Z</time></trkpt><trkpt lat="44.62933164919509" lon="10.550276861234492"><ele>149.0</ele><time>2026-03-28T09:46:10.999Z</time></trkpt><trkpt lat="44.62939217198508" lon="10.550217123792828"><ele>149.0</ele><time>2026-03-28T09:46:11.999Z</time></trkpt><trkpt lat="44.62946204049898" lon="10.550140912126523"><ele>149.0</ele><time>2026-03-28T09:46:12.999Z</time></trkpt><trkpt lat="44.62956248710752" lon="10.550081937497001"><ele>149.0</ele><time>2026-03-28T09:46:13.999Z</time></trkpt><trkpt lat="44.62967365845544" lon="10.55004888228055"><ele>149.0</ele><time>2026-03-28T09:46:14.999Z</time></trkpt><trkpt lat="44.629785814832005" lon="10.550012933046988"><ele>149.0</ele><time>2026-03-28T09:46:15.999Z</time></trkpt><trkpt lat="44.6299012483598" lon="10.549964661116208"><ele>147.75</ele><time>2026-03-28T09:46:16.999Z</time></trkpt><trkpt lat="44.63002572825276" lon="10.54991003428089"><ele>146.5</ele><time>2026-03-28T09:46:17.999Z</time></trkpt><trkpt lat="44.630157330262044" lon="10.549879306572745"><ele>145.25</ele><time>2026-03-28T09:46:18.999Z</time></trkpt><trkpt lat="44.63028416128816" lon="10.549816646650187"><ele>144.0</ele><time>2026-03-28T09:46:19.999Z</time></trkpt><trkpt lat="44.63040976667171" lon="10.549762739965727"><ele>142.25</ele><time>2026-03-28T09:46:20.999Z</time></trkpt><trkpt lat="44.63053393073784" lon="10.549718210185693"><ele>140.5</ele><time>2026-03-28T09:46:21.999Z</time></trkpt><trkpt lat="44.63065859896013" lon="10.549660745786149"><ele>138.75</ele><time>2026-03-28T09:46:22.999Z</time></trkpt><trkpt lat="44.63077967036778" lon="10.549611034228816"><ele>137.0</ele><time>2026-03-28T09:46:23.999Z</time></trkpt><trkpt lat="44.63089599837301" lon="10.549575549109953"><ele>136.25</ele><time>2026-03-28T09:46:24.999Z</time></trkpt><trkpt lat="44.631009075691146" lon="10.54951796675323"><ele>135.5</ele><time>2026-03-28T09:46:25.999Z</time></trkpt><trkpt lat="44.63111872901321" lon="10.549479115366285"><ele>134.75</ele><time>2026-03-28T09:46:26.999Z</time></trkpt><trkpt lat="44.63123613413731" lon="10.54943564274986"><ele>134.0</ele><time>2026-03-28T09:46:27.999Z</time></trkpt><trkpt lat="44.63136560544706" lon="10.549381160778474"><ele>133.66666666666666</ele><time>2026-03-28T09:46:28.999Z</time></trkpt><trkpt lat="44.631507254173314" lon="10.549320986119106"><ele>133.33333333333334</ele><time>2026-03-28T09:46:29.999Z</time></trkpt><trkpt lat="44.63166179309424" lon="10.549256104238326"><ele>133.0</ele><time>2026-03-28T09:46:30.999Z</time></trkpt><trkpt lat="44.63179497055637" lon="10.549179735675974"><ele>133.0</ele><time>2026-03-28T09:46:31.999Z</time></trkpt><trkpt lat="44.63194542030971" lon="10.549135319311759"><ele>133.0</ele><time>2026-03-28T09:46:32.999Z</time></trkpt><trkpt lat="44.63208680853826" lon="10.549082167636913"><ele>133.0</ele><time>2026-03-28T09:46:33.999Z</time></trkpt><trkpt lat="44.63221960086048" lon="10.549029633622034"><ele>133.0</ele><time>2026-03-28T09:46:34.999Z</time></trkpt><trkpt lat="44.63235484348422" lon="10.548969608276149"><ele>133.75</ele><time>2026-03-28T09:46:35.999Z</time></trkpt><trkpt lat="44.63249307317674" lon="10.548904494642034"><ele>134.5</ele><time>2026-03-28T09:46:36.999Z</time></trkpt><trkpt lat="44.6326304236524" lon="10.548850718503024"><ele>135.25</ele><time>2026-03-28T09:46:37.999Z</time></trkpt><trkpt lat="44.63278233227141" lon="10.548810543276458"><ele>136.0</ele><time>2026-03-28T09:46:38.999Z</time></trkpt><trkpt lat="44.63291838692506" lon="10.548742543515027"><ele>136.25</ele><time>2026-03-28T09:46:39.999Z</time></trkpt><trkpt lat="44.63305903421437" lon="10.548705422872045"><ele>136.5</ele><time>2026-03-28T09:46:40.999Z</time></trkpt><trkpt lat="44.63317434952029" lon="10.548650387402564"><ele>136.75</ele><time>2026-03-28T09:46:41.999Z</time></trkpt><trkpt lat="44.63330824257741" lon="10.548594530040386"><ele>137.0</ele><time>2026-03-28T09:46:42.999Z</time></trkpt><trkpt lat="44.63347139987311" lon="10.548526643526706"><ele>137.0</ele><time>2026-03-28T09:46:43.999Z</time></trkpt><trkpt lat="44.63362987020887" lon="10.548455699159693"><ele>137.0</ele><time>2026-03-28T09:46:44.999Z</time></trkpt><trkpt lat="44.6337913781853" lon="10.548406339658188"><ele>137.0</ele><time>2026-03-28T09:46:45.999Z</time></trkpt><trkpt lat="44.63392947210927" lon="10.548274906535203"><ele>136.75</ele><time>2026-03-28T09:46:46.999Z</time></trkpt><trkpt lat="44.63404481216992" lon="10.548144151136048"><ele>136.5</ele><time>2026-03-28T09:46:47.999Z</time></trkpt><trkpt lat="44.634149422655874" lon="10.548014873224336"><ele>136.25</ele><time>2026-03-28T09:46:48.999Z</time></trkpt><trkpt lat="44.63422085668433" lon="10.547880782587233"><ele>136.0</ele><time>2026-03-28T09:46:49.999Z</time></trkpt><trkpt lat="44.63428401922629" lon="10.547753705221762"><ele>136.0</ele><time>2026-03-28T09:46:50.999Z</time></trkpt><trkpt lat="44.63434258387107" lon="10.547634771752772"><ele>136.0</ele><time>2026-03-28T09:46:51.999Z</time></trkpt><trkpt lat="44.63439351714004" lon="10.547523213878014"><ele>136.0</ele><time>2026-03-28T09:46:53Z</time></trkpt><trkpt lat="44.63443926870356" lon="10.547417910482705"><ele>136.0</ele><time>2026-03-28T09:46:54Z</time></trkpt><trkpt lat="44.634481468548486" lon="10.547311642948612"><ele>136.0</ele><time>2026-03-28T09:46:55Z</time></trkpt><trkpt lat="44.63449944226303" lon="10.547220812664099"><ele>136.0</ele><time>2026-03-28T09:46:56Z</time></trkpt><trkpt lat="44.634542778154525" lon="10.547149236847238"><ele>135.99999999999997</ele><time>2026-03-28T09:46:57Z</time></trkpt><trkpt lat="44.634599405961644" lon="10.547087074359544"><ele>136.0</ele><time>2026-03-28T09:46:58Z</time></trkpt><trkpt lat="44.6346550632873" lon="10.54704085488876"><ele>136.0</ele><time>2026-03-28T09:46:59Z</time></trkpt><trkpt lat="44.63472145085563" lon="10.546988750491344"><ele>136.0</ele><time>2026-03-28T09:47:00Z</time></trkpt><trkpt lat="44.634779301958424" lon="10.546942338086613"><ele>136.0</ele><time>2026-03-28T09:47:01Z</time></trkpt><trkpt lat="44.63482996161934" lon="10.546865721493873"><ele>135.99999999999997</ele><time>2026-03-28T09:47:02Z</time></trkpt><trkpt lat="44.63486411158966" lon="10.546767254181292"><ele>136.0</ele><time>2026-03-28T09:47:03Z</time></trkpt><trkpt lat="44.63487809570633" lon="10.546620568061597"><ele>136.25</ele><time>2026-03-28T09:47:04Z</time></trkpt><trkpt lat="44.63488521894406" lon="10.546453098643711"><ele>136.5</ele><time>2026-03-28T09:47:05Z</time></trkpt><trkpt lat="44.63490511762324" lon="10.546277847828657"><ele>136.75</ele><time>2026-03-28T09:47:06Z</time></trkpt><trkpt lat="44.63494199510606" lon="10.546101805977907"><ele>137.0</ele><time>2026-03-28T09:47:07Z</time></trkpt><trkpt lat="44.63499217413435" lon="10.545931095183535"><ele>137.5</ele><time>2026-03-28T09:47:08Z</time></trkpt><trkpt lat="44.63505926461429" lon="10.545763725059144"><ele>138.0</ele><time>2026-03-28T09:47:09Z</time></trkpt><trkpt lat="44.635125405005105" lon="10.545590797408167"><ele>138.5</ele><time>2026-03-28T09:47:10Z</time></trkpt><trkpt lat="44.63518935507584" lon="10.545413914785666"><ele>139.0</ele><time>2026-03-28T09:47:11Z</time></trkpt><trkpt lat="44.63524422322488" lon="10.545229665771584"><ele>139.0</ele><time>2026-03-28T09:47:12Z</time></trkpt><trkpt lat="44.63529359445224" lon="10.545040282810753"><ele>139.0</ele><time>2026-03-28T09:47:13Z</time></trkpt><trkpt lat="44.635340535403365" lon="10.544848782572874"><ele>139.0</ele><time>2026-03-28T09:47:14Z</time></trkpt><trkpt lat="44.63538146690493" lon="10.544658055616079"><ele>139.0</ele><time>2026-03-28T09:47:15Z</time></trkpt><trkpt lat="44.635420431887795" lon="10.544454820081105"><ele>140.25</ele><time>2026-03-28T09:47:16Z</time></trkpt><trkpt lat="44.63545221510427" lon="10.544261296220446"><ele>141.5</ele><time>2026-03-28T09:47:17Z</time></trkpt><trkpt lat="44.635480833773144" lon="10.544061722684122"><ele>142.75</ele><time>2026-03-28T09:47:18Z</time></trkpt><trkpt lat="44.63550601773809" lon="10.543852434719536"><ele>144.0</ele><time>2026-03-28T09:47:19Z</time></trkpt><trkpt lat="44.63554189851456" lon="10.543655472070949"><ele>144.0</ele><time>2026-03-28T09:47:20Z</time></trkpt><trkpt lat="44.635550290378255" lon="10.543453226088621"><ele>144.0</ele><time>2026-03-28T09:47:21Z</time></trkpt><trkpt lat="44.63557472974612" lon="10.543263172303215"><ele>144.0</ele><time>2026-03-28T09:47:22Z</time></trkpt><trkpt lat="44.635598312572135" lon="10.543068699136914"><ele>144.0</ele><time>2026-03-28T09:47:23Z</time></trkpt><trkpt lat="44.635623085213986" lon="10.542873832121028"><ele>144.0</ele><time>2026-03-28T09:47:24Z</time></trkpt><trkpt lat="44.635647845647696" lon="10.542689334327576"><ele>144.0</ele><time>2026-03-28T09:47:25Z</time></trkpt><trkpt lat="44.63567118770253" lon="10.542505304380803"><ele>144.0</ele><time>2026-03-28T09:47:26Z</time></trkpt><trkpt lat="44.63569508185979" lon="10.542319007312628"><ele>144.0</ele><time>2026-03-28T09:47:27Z</time></trkpt><trkpt lat="44.635720569829395" lon="10.54212578538908"><ele>144.0</ele><time>2026-03-28T09:47:28Z</time></trkpt><trkpt lat="44.635746670120696" lon="10.541921512664663"><ele>144.0</ele><time>2026-03-28T09:47:29Z</time></trkpt><trkpt lat="44.635770795389995" lon="10.541729381688867"><ele>144.0</ele><time>2026-03-28T09:47:30Z</time></trkpt><trkpt lat="44.63579393462765" lon="10.541526441079435"><ele>144.0</ele><time>2026-03-28T09:47:31Z</time></trkpt><trkpt lat="44.635817976487" lon="10.54131827244339"><ele>144.0</ele><time>2026-03-28T09:47:32Z</time></trkpt><trkpt lat="44.63585676599059" lon="10.541094911390893"><ele>144.0</ele><time>2026-03-28T09:47:33Z</time></trkpt><trkpt lat="44.63588488011456" lon="10.540862107892409"><ele>144.0</ele><time>2026-03-28T09:47:34Z</time></trkpt><trkpt lat="44.63591373521488" lon="10.540626315436462"><ele>144.0</ele><time>2026-03-28T09:47:35Z</time></trkpt><trkpt lat="44.63594034123805" lon="10.540408901609752"><ele>144.0</ele><time>2026-03-28T09:47:36Z</time></trkpt><trkpt lat="44.635951180137226" lon="10.540197630650535"><ele>144.0</ele><time>2026-03-28T09:47:37Z</time></trkpt><trkpt lat="44.635976853575706" lon="10.539989433996851"><ele>144.0</ele><time>2026-03-28T09:47:38Z</time></trkpt><trkpt lat="44.6360020811117" lon="10.539780540272078"><ele>144.0</ele><time>2026-03-28T09:47:39Z</time></trkpt><trkpt lat="44.63604317821926" lon="10.539571144123723"><ele>144.0</ele><time>2026-03-28T09:47:40Z</time></trkpt><trkpt lat="44.63606699291563" lon="10.539376025742602"><ele>144.0</ele><time>2026-03-28T09:47:41Z</time></trkpt><trkpt lat="44.63609058779337" lon="10.539182708234017"><ele>143.75</ele><time>2026-03-28T09:47:42Z</time></trkpt><trkpt lat="44.63609456632112" lon="10.538991994393417"><ele>143.5</ele><time>2026-03-28T09:47:43Z</time></trkpt><trkpt lat="44.636117527832944" lon="10.538808224194435"><ele>143.25</ele><time>2026-03-28T09:47:44Z</time></trkpt><trkpt lat="44.63613951651302" lon="10.538636229420689"><ele>143.0</ele><time>2026-03-28T09:47:45Z</time></trkpt><trkpt lat="44.63616314109942" lon="10.538463920571264"><ele>143.0</ele><time>2026-03-28T09:47:46Z</time></trkpt><trkpt lat="44.636181903277496" lon="10.538302712433973"><ele>143.0</ele><time>2026-03-28T09:47:47Z</time></trkpt><trkpt lat="44.636216164850865" lon="10.538161484438282"><ele>143.0</ele><time>2026-03-28T09:47:48Z</time></trkpt><trkpt lat="44.636232829146" lon="10.5380263292923"><ele>143.0</ele><time>2026-03-28T09:47:49Z</time></trkpt><trkpt lat="44.63624935332994" lon="10.537892310481721"><ele>143.0</ele><time>2026-03-28T09:47:50Z</time></trkpt><trkpt lat="44.6362492407244" lon="10.53774232722009"><ele>143.0</ele><time>2026-03-28T09:47:51Z</time></trkpt><trkpt lat="44.63626588593425" lon="10.537588749547831"><ele>143.0</ele><time>2026-03-28T09:47:52Z</time></trkpt><trkpt lat="44.636282000784256" lon="10.537424378556393"><ele>143.0</ele><time>2026-03-28T09:47:53Z</time></trkpt><trkpt lat="44.63629998096681" lon="10.537257836089402"><ele>143.0</ele><time>2026-03-28T09:47:54Z</time></trkpt><trkpt lat="44.63634812638009" lon="10.53708939403914"><ele>143.25</ele><time>2026-03-28T09:47:55Z</time></trkpt><trkpt lat="44.6363703517068" lon="10.536908554214353"><ele>143.5</ele><time>2026-03-28T09:47:56Z</time></trkpt><trkpt lat="44.63639267385894" lon="10.536726926429772"><ele>143.75</ele><time>2026-03-28T09:47:57Z</time></trkpt><trkpt lat="44.636414692231625" lon="10.536547770546154"><ele>144.0</ele><time>2026-03-28T09:47:58Z</time></trkpt><trkpt lat="44.63643652210411" lon="10.536370148374596"><ele>144.0</ele><time>2026-03-28T09:47:58.999Z</time></trkpt><trkpt lat="44.63645834192948" lon="10.536192608086937"><ele>144.0</ele><time>2026-03-28T09:47:59.999Z</time></trkpt><trkpt lat="44.6364821661715" lon="10.535998758244673"><ele>144.0</ele><time>2026-03-28T09:48:00.999Z</time></trkpt><trkpt lat="44.63650629949522" lon="10.535803597863163"><ele>144.0</ele><time>2026-03-28T09:48:01.999Z</time></trkpt><trkpt lat="44.636529083299706" lon="10.535620686440664"><ele>144.0</ele><time>2026-03-28T09:48:02.999Z</time></trkpt><trkpt lat="44.63655035592999" lon="10.535446208459263"><ele>144.0</ele><time>2026-03-28T09:48:03.999Z</time></trkpt><trkpt lat="44.636571130977266" lon="10.535273163758447"><ele>144.0</ele><time>2026-03-28T09:48:04.999Z</time></trkpt><trkpt lat="44.63658334098036" lon="10.535113803667647"><ele>144.0</ele><time>2026-03-28T09:48:05.999Z</time></trkpt><trkpt lat="44.63660838018544" lon="10.534961655703786"><ele>144.4</ele><time>2026-03-28T09:48:06.999Z</time></trkpt><trkpt lat="44.636645036064714" lon="10.534819553830971"><ele>144.8</ele><time>2026-03-28T09:48:07.999Z</time></trkpt><trkpt lat="44.63669731892274" lon="10.534688242703634"><ele>145.2</ele><time>2026-03-28T09:48:08.999Z</time></trkpt><trkpt lat="44.63673702914231" lon="10.53454768085902"><ele>145.6</ele><time>2026-03-28T09:48:09.999Z</time></trkpt><trkpt lat="44.63674009274223" lon="10.534387140798009"><ele>146.0</ele><time>2026-03-28T09:48:10.999Z</time></trkpt><trkpt lat="44.63671456862154" lon="10.53419126609984"><ele>146.33333333333331</ele><time>2026-03-28T09:48:11.999Z</time></trkpt><trkpt lat="44.63672567786644" lon="10.533986771015094"><ele>146.66666666666666</ele><time>2026-03-28T09:48:12.999Z</time></trkpt><trkpt lat="44.63675175229606" lon="10.533766496399007"><ele>147.0</ele><time>2026-03-28T09:48:13.999Z</time></trkpt><trkpt lat="44.6367748077968" lon="10.533544452988107"><ele>147.0</ele><time>2026-03-28T09:48:14.999Z</time></trkpt><trkpt lat="44.6367964616287" lon="10.533302633242963"><ele>147.0</ele><time>2026-03-28T09:48:15.999Z</time></trkpt><trkpt lat="44.63680698147281" lon="10.533061107755291"><ele>147.0</ele><time>2026-03-28T09:48:16.999Z</time></trkpt><trkpt lat="44.63679679723019" lon="10.532830944286232"><ele>147.33333333333334</ele><time>2026-03-28T09:48:17.999Z</time></trkpt><trkpt lat="44.63679404972941" lon="10.532616335384056"><ele>147.66666666666669</ele><time>2026-03-28T09:48:18.999Z</time></trkpt><trkpt lat="44.63677729098871" lon="10.532402790975587"><ele>148.0</ele><time>2026-03-28T09:48:19.999Z</time></trkpt><trkpt lat="44.63675686019748" lon="10.532191494352405"><ele>147.33333333333334</ele><time>2026-03-28T09:48:20.999Z</time></trkpt><trkpt lat="44.636731558186625" lon="10.531979747137205"><ele>146.66666666666666</ele><time>2026-03-28T09:48:21.999Z</time></trkpt><trkpt lat="44.636701449652236" lon="10.531769298868975"><ele>146.0</ele><time>2026-03-28T09:48:22.999Z</time></trkpt><trkpt lat="44.63666142559133" lon="10.531558820287268"><ele>146.0</ele><time>2026-03-28T09:48:23.999Z</time></trkpt><trkpt lat="44.63661456561351" lon="10.531346418666537"><ele>146.0</ele><time>2026-03-28T09:48:24.999Z</time></trkpt><trkpt lat="44.63658112960218" lon="10.531137736335776"><ele>146.0</ele><time>2026-03-28T09:48:25.999Z</time></trkpt><trkpt lat="44.636532879430234" lon="10.530924434960674"><ele>146.66666666666666</ele><time>2026-03-28T09:48:26.999Z</time></trkpt><trkpt lat="44.63648617721075" lon="10.530722228335007"><ele>147.33333333333334</ele><time>2026-03-28T09:48:27.999Z</time></trkpt><trkpt lat="44.63643911298404" lon="10.530518453905264"><ele>148.0</ele><time>2026-03-28T09:48:28.999Z</time></trkpt><trkpt lat="44.636374666371076" lon="10.530312133038422"><ele>148.33333333333334</ele><time>2026-03-28T09:48:29.999Z</time></trkpt><trkpt lat="44.63634214783057" lon="10.530101524798596"><ele>148.66666666666666</ele><time>2026-03-28T09:48:30.999Z</time></trkpt><trkpt lat="44.636292685636356" lon="10.52989572434615"><ele>149.0</ele><time>2026-03-28T09:48:31.999Z</time></trkpt><trkpt lat="44.636237751116916" lon="10.529685739719149"><ele>148.66666666666666</ele><time>2026-03-28T09:48:32.999Z</time></trkpt><trkpt lat="44.636163278554285" lon="10.52949765507317"><ele>148.33333333333334</ele><time>2026-03-28T09:48:33.999Z</time></trkpt><trkpt lat="44.63611374628359" lon="10.529291563725232"><ele>148.0</ele><time>2026-03-28T09:48:34.999Z</time></trkpt><trkpt lat="44.636027903023184" lon="10.529105760881999"><ele>148.0</ele><time>2026-03-28T09:48:35.999Z</time></trkpt><trkpt lat="44.63595268219399" lon="10.528922581957799"><ele>148.0</ele><time>2026-03-28T09:48:36.999Z</time></trkpt><trkpt lat="44.635871997929634" lon="10.52874215035013"><ele>148.0</ele><time>2026-03-28T09:48:37.999Z</time></trkpt><trkpt lat="44.63578100585997" lon="10.528571575028788"><ele>147.33333333333334</ele><time>2026-03-28T09:48:38.999Z</time></trkpt><trkpt lat="44.63569052067497" lon="10.528395341310683"><ele>146.66666666666666</ele><time>2026-03-28T09:48:39.999Z</time></trkpt><trkpt lat="44.635602202270114" lon="10.528217025107253"><ele>146.0</ele><time>2026-03-28T09:48:40.999Z</time></trkpt><trkpt lat="44.635502140794344" lon="10.528064493917558"><ele>146.0</ele><time>2026-03-28T09:48:41.999Z</time></trkpt><trkpt lat="44.63540088408147" lon="10.527922458918166"><ele>146.0</ele><time>2026-03-28T09:48:42.999Z</time></trkpt><trkpt lat="44.63529851720596" lon="10.527785368525885"><ele>146.0</ele><time>2026-03-28T09:48:43.999Z</time></trkpt><trkpt lat="44.635186011973495" lon="10.52764499919433"><ele>146.0</ele><time>2026-03-28T09:48:44.999Z</time></trkpt><trkpt lat="44.635078046097846" lon="10.527516127804509"><ele>145.75</ele><time>2026-03-28T09:48:45.999Z</time></trkpt><trkpt lat="44.634963175012274" lon="10.527379527582797"><ele>145.5</ele><time>2026-03-28T09:48:46.999Z</time></trkpt><trkpt lat="44.63485258548936" lon="10.527248034036848"><ele>145.25</ele><time>2026-03-28T09:48:47.999Z</time></trkpt><trkpt lat="44.634738773243974" lon="10.527112778967199"><ele>145.0</ele><time>2026-03-28T09:48:48.999Z</time></trkpt><trkpt lat="44.63462976595438" lon="10.526983115552731"><ele>145.0</ele><time>2026-03-28T09:48:49.999Z</time></trkpt><trkpt lat="44.63452399729807" lon="10.526849214112685"><ele>145.0</ele><time>2026-03-28T09:48:50.999Z</time></trkpt><trkpt lat="44.63442156636381" lon="10.526705199032692"><ele>145.0</ele><time>2026-03-28T09:48:51.999Z</time></trkpt><trkpt lat="44.63431931755161" lon="10.526550661110065"><ele>145.0</ele><time>2026-03-28T09:48:52.999Z</time></trkpt><trkpt lat="44.634229801006285" lon="10.526401891212368"><ele>144.75</ele><time>2026-03-28T09:48:53.999Z</time></trkpt><trkpt lat="44.63415945630129" lon="10.526235335686549"><ele>144.5</ele><time>2026-03-28T09:48:54.999Z</time></trkpt><trkpt lat="44.634095197064376" lon="10.526072623174457"><ele>144.25</ele><time>2026-03-28T09:48:55.999Z</time></trkpt><trkpt lat="44.63405203083765" lon="10.52592439326972"><ele>144.0</ele><time>2026-03-28T09:48:56.999Z</time></trkpt><trkpt lat="44.63401550055788" lon="10.525768597726426"><ele>143.75</ele><time>2026-03-28T09:48:57.999Z</time></trkpt><trkpt lat="44.63398008516271" lon="10.525613467604522"><ele>143.5</ele><time>2026-03-28T09:48:59Z</time></trkpt><trkpt lat="44.63395407762243" lon="10.525447626221025"><ele>143.25</ele><time>2026-03-28T09:49:00Z</time></trkpt><trkpt lat="44.63394927092572" lon="10.525290638200389"><ele>143.0</ele><time>2026-03-28T09:49:01Z</time></trkpt><trkpt lat="44.63396563187006" lon="10.52515016810252"><ele>143.5</ele><time>2026-03-28T09:49:02Z</time></trkpt><trkpt lat="44.633965624583034" lon="10.52502891083533"><ele>144.0</ele><time>2026-03-28T09:49:03Z</time></trkpt><trkpt lat="44.633955433351026" lon="10.524919835068486"><ele>144.5</ele><time>2026-03-28T09:49:04Z</time></trkpt><trkpt lat="44.633886036746794" lon="10.52486182950552"><ele>145.0</ele><time>2026-03-28T09:49:05Z</time></trkpt><trkpt lat="44.63382928325139" lon="10.524803169138593"><ele>145.5</ele><time>2026-03-28T09:49:06Z</time></trkpt><trkpt lat="44.633756317541625" lon="10.524730061323208"><ele>146.0</ele><time>2026-03-28T09:49:07Z</time></trkpt><trkpt lat="44.63371823969145" lon="10.524625330086957"><ele>146.2</ele><time>2026-03-28T09:49:08Z</time></trkpt><trkpt lat="44.633685375935926" lon="10.524514728904418"><ele>146.39999999999998</ele><time>2026-03-28T09:49:09Z</time></trkpt><trkpt lat="44.633650734301945" lon="10.524394456253235"><ele>146.6</ele><time>2026-03-28T09:49:10Z</time></trkpt><trkpt lat="44.63361917558314" lon="10.52426580025971"><ele>146.79999999999998</ele><time>2026-03-28T09:49:11Z</time></trkpt><trkpt lat="44.63358382579766" lon="10.524122641724517"><ele>147.0</ele><time>2026-03-28T09:49:12Z</time></trkpt><trkpt lat="44.633577214135514" lon="10.523954599525153"><ele>147.0</ele><time>2026-03-28T09:49:13Z</time></trkpt><trkpt lat="44.63353748027671" lon="10.52379650356873"><ele>147.0</ele><time>2026-03-28T09:49:14Z</time></trkpt><trkpt lat="44.63349622710053" lon="10.523632368177912"><ele>147.0</ele><time>2026-03-28T09:49:15Z</time></trkpt><trkpt lat="44.63345439033614" lon="10.523466543425815"><ele>147.0</ele><time>2026-03-28T09:49:16Z</time></trkpt><trkpt lat="44.633410623603325" lon="10.52329306709456"><ele>147.0</ele><time>2026-03-28T09:49:17Z</time></trkpt><trkpt lat="44.633366833458695" lon="10.523120765232447"><ele>147.0</ele><time>2026-03-28T09:49:18Z</time></trkpt><trkpt lat="44.633323158373216" lon="10.522948557687386"><ele>147.0</ele><time>2026-03-28T09:49:19Z</time></trkpt><trkpt lat="44.633275310221286" lon="10.522764335604665"><ele>147.0</ele><time>2026-03-28T09:49:20Z</time></trkpt><trkpt lat="44.633228042085406" lon="10.522585481115629"><ele>146.25</ele><time>2026-03-28T09:49:21Z</time></trkpt><trkpt lat="44.63317917929377" lon="10.522394652183653"><ele>145.5</ele><time>2026-03-28T09:49:22Z</time></trkpt><trkpt lat="44.633131655467274" lon="10.522209052357743"><ele>144.75</ele><time>2026-03-28T09:49:23Z</time></trkpt><trkpt lat="44.633082644686375" lon="10.522017644613564"><ele>144.0</ele><time>2026-03-28T09:49:24Z</time></trkpt><trkpt lat="44.6330373321825" lon="10.52182505844837"><ele>144.0</ele><time>2026-03-28T09:49:25Z</time></trkpt><trkpt lat="44.632994827517045" lon="10.521622794797798"><ele>144.0</ele><time>2026-03-28T09:49:26Z</time></trkpt><trkpt lat="44.632958917105064" lon="10.521425766763404"><ele>144.0</ele><time>2026-03-28T09:49:27Z</time></trkpt><trkpt lat="44.63292556560663" lon="10.52122879376915"><ele>144.0</ele><time>2026-03-28T09:49:28Z</time></trkpt><trkpt lat="44.63289547721719" lon="10.521028661330403"><ele>144.0</ele><time>2026-03-28T09:49:29Z</time></trkpt><trkpt lat="44.6328664800588" lon="10.520819561478236"><ele>144.0</ele><time>2026-03-28T09:49:30Z</time></trkpt><trkpt lat="44.632836775546004" lon="10.520606094288617"><ele>144.0</ele><time>2026-03-28T09:49:31Z</time></trkpt><trkpt lat="44.63280797418468" lon="10.520385053331319"><ele>145.33333333333334</ele><time>2026-03-28T09:49:32Z</time></trkpt><trkpt lat="44.63278046087688" lon="10.520173890036205"><ele>146.66666666666669</ele><time>2026-03-28T09:49:33Z</time></trkpt><trkpt lat="44.63275145414515" lon="10.51995126488804"><ele>148.0</ele><time>2026-03-28T09:49:34Z</time></trkpt><trkpt lat="44.63272303905145" lon="10.519733180468503"><ele>147.33333333333334</ele><time>2026-03-28T09:49:35Z</time></trkpt><trkpt lat="44.632695117655835" lon="10.519518885105835"><ele>146.66666666666666</ele><time>2026-03-28T09:49:36Z</time></trkpt><trkpt lat="44.632667637812276" lon="10.519311741080323"><ele>146.0</ele><time>2026-03-28T09:49:37Z</time></trkpt><trkpt lat="44.6326404251516" lon="10.519107945547887"><ele>146.0</ele><time>2026-03-28T09:49:38Z</time></trkpt><trkpt lat="44.63261414400165" lon="10.518911126235047"><ele>146.0</ele><time>2026-03-28T09:49:39Z</time></trkpt><trkpt lat="44.632588411001684" lon="10.518718411791728"><ele>146.0</ele><time>2026-03-28T09:49:40Z</time></trkpt><trkpt lat="44.63256247778028" lon="10.518524198086945"><ele>146.0</ele><time>2026-03-28T09:49:41Z</time></trkpt><trkpt lat="44.63253722634262" lon="10.518335090191469"><ele>145.5</ele><time>2026-03-28T09:49:42Z</time></trkpt><trkpt lat="44.63251211523774" lon="10.518147033264677"><ele>145.0</ele><time>2026-03-28T09:49:43Z</time></trkpt><trkpt lat="44.632487132200524" lon="10.51795993537078"><ele>144.5</ele><time>2026-03-28T09:49:44Z</time></trkpt><trkpt lat="44.632462304388724" lon="10.517776673001238"><ele>144.0</ele><time>2026-03-28T09:49:45Z</time></trkpt><trkpt lat="44.63243769985583" lon="10.517596382910318"><ele>144.0</ele><time>2026-03-28T09:49:46Z</time></trkpt><trkpt lat="44.632413225716974" lon="10.51741704822026"><ele>144.0</ele><time>2026-03-28T09:49:47Z</time></trkpt><trkpt lat="44.632389277033546" lon="10.517240625554944"><ele>144.0</ele><time>2026-03-28T09:49:48Z</time></trkpt><trkpt lat="44.63236510395809" lon="10.517061992425992"><ele>144.0</ele><time>2026-03-28T09:49:49Z</time></trkpt><trkpt lat="44.63234277069787" lon="10.516896955108276"><ele>143.5</ele><time>2026-03-28T09:49:50Z</time></trkpt><trkpt lat="44.63231996984514" lon="10.516728462561288"><ele>143.0</ele><time>2026-03-28T09:49:51Z</time></trkpt><trkpt lat="44.63229851120699" lon="10.516569888563039"><ele>142.5</ele><time>2026-03-28T09:49:52Z</time></trkpt><trkpt lat="44.63227818199981" lon="10.516419660814151"><ele>142.0</ele><time>2026-03-28T09:49:53Z</time></trkpt><trkpt lat="44.63225775607847" lon="10.516268718231927"><ele>142.2</ele><time>2026-03-28T09:49:54Z</time></trkpt><trkpt lat="44.632237292820584" lon="10.516117499785329"><ele>142.39999999999998</ele><time>2026-03-28T09:49:55Z</time></trkpt><trkpt lat="44.632193920250714" lon="10.515967692462352"><ele>142.60000000000002</ele><time>2026-03-28T09:49:56Z</time></trkpt><trkpt lat="44.632174046182335" lon="10.515825724944046"><ele>142.8</ele><time>2026-03-28T09:49:57Z</time></trkpt><trkpt lat="44.63215777873012" lon="10.515692446650355"><ele>143.0</ele><time>2026-03-28T09:49:58Z</time></trkpt><trkpt lat="44.63214149203153" lon="10.515558555322698"><ele>143.0</ele><time>2026-03-28T09:49:59Z</time></trkpt><trkpt lat="44.632132717540344" lon="10.515423962032743"><ele>143.0</ele><time>2026-03-28T09:49:59.999Z</time></trkpt><trkpt lat="44.6321352662576" lon="10.515310341210089"><ele>143.0</ele><time>2026-03-28T09:50:00.999Z</time></trkpt><trkpt lat="44.63214245829025" lon="10.515192213136734"><ele>143.0</ele><time>2026-03-28T09:50:01.999Z</time></trkpt><trkpt lat="44.632153109654396" lon="10.515041022005786"><ele>143.0</ele><time>2026-03-28T09:50:02.999Z</time></trkpt><trkpt lat="44.632167546058305" lon="10.514892026757911"><ele>143.0</ele><time>2026-03-28T09:50:03.999Z</time></trkpt><trkpt lat="44.63218581434929" lon="10.514750402624117"><ele>143.0</ele><time>2026-03-28T09:50:04.999Z</time></trkpt><trkpt lat="44.63219414538768" lon="10.514624121109252"><ele>143.0</ele><time>2026-03-28T09:50:05.999Z</time></trkpt><trkpt lat="44.63218619631632" lon="10.514524865059318"><ele>143.0</ele><time>2026-03-28T09:50:06.999Z</time></trkpt><trkpt lat="44.63224654827281" lon="10.514446363274349"><ele>143.0</ele><time>2026-03-28T09:50:08.999Z</time></trkpt><trkpt lat="44.632072131307744" lon="10.514379176793499"><ele>143.0</ele><time>2026-03-28T09:50:09.999Z</time></trkpt><trkpt lat="44.63198408382854" lon="10.514358239032838"><ele>143.0</ele><time>2026-03-28T09:50:10.999Z</time></trkpt><trkpt lat="44.63189169177295" lon="10.514339968474468"><ele>143.0</ele><time>2026-03-28T09:50:11.999Z</time></trkpt><trkpt lat="44.631789977562285" lon="10.51432106823557"><ele>143.0</ele><time>2026-03-28T09:50:12.999Z</time></trkpt><trkpt lat="44.63167883022335" lon="10.514300415124644"><ele>143.0</ele><time>2026-03-28T09:50:13.999Z</time></trkpt><trkpt lat="44.63155740363884" lon="10.514277851965424"><ele>143.75</ele><time>2026-03-28T09:50:14.999Z</time></trkpt><trkpt lat="44.63144498994198" lon="10.514252222292942"><ele>144.5</ele><time>2026-03-28T09:50:15.999Z</time></trkpt><trkpt lat="44.63131796418721" lon="10.514223592608635"><ele>145.25</ele><time>2026-03-28T09:50:16.999Z</time></trkpt><trkpt lat="44.631201172986415" lon="10.514197269631788"><ele>146.0</ele><time>2026-03-28T09:50:17.999Z</time></trkpt><trkpt lat="44.63108720900857" lon="10.51417208005117"><ele>147.75</ele><time>2026-03-28T09:50:18.999Z</time></trkpt><trkpt lat="44.63095997243967" lon="10.51416697630883"><ele>149.5</ele><time>2026-03-28T09:50:19.999Z</time></trkpt><trkpt lat="44.630843806062934" lon="10.514137674008543"><ele>151.25</ele><time>2026-03-28T09:50:20.999Z</time></trkpt><trkpt lat="44.63072928962248" lon="10.514096002813403"><ele>153.0</ele><time>2026-03-28T09:50:21.999Z</time></trkpt><trkpt lat="44.63060771433123" lon="10.514081836526787"><ele>153.0</ele><time>2026-03-28T09:50:22.999Z</time></trkpt><trkpt lat="44.630486750613876" lon="10.514052663820124"><ele>153.0</ele><time>2026-03-28T09:50:23.999Z</time></trkpt><trkpt lat="44.63037041831101" lon="10.514027610113095"><ele>153.0</ele><time>2026-03-28T09:50:24.999Z</time></trkpt><trkpt lat="44.63024806387517" lon="10.514022123867964"><ele>153.0</ele><time>2026-03-28T09:50:25.999Z</time></trkpt><trkpt lat="44.63012946725511" lon="10.513990343359046"><ele>155.75</ele><time>2026-03-28T09:50:26.999Z</time></trkpt><trkpt lat="44.6299948237458" lon="10.513968308240512"><ele>158.5</ele><time>2026-03-28T09:50:27.999Z</time></trkpt><trkpt lat="44.62986702968118" lon="10.513933550768543"><ele>161.25</ele><time>2026-03-28T09:50:28.999Z</time></trkpt><trkpt lat="44.62973524309918" lon="10.51391181476309"><ele>164.0</ele><time>2026-03-28T09:50:29.999Z</time></trkpt><trkpt lat="44.6296050156243" lon="10.513896606554045"><ele>164.0</ele><time>2026-03-28T09:50:30.999Z</time></trkpt><trkpt lat="44.62948612160598" lon="10.513874554109165"><ele>164.0</ele><time>2026-03-28T09:50:31.999Z</time></trkpt><trkpt lat="44.62936553345531" lon="10.513847606169936"><ele>164.0</ele><time>2026-03-28T09:50:32.999Z</time></trkpt><trkpt lat="44.629225989713895" lon="10.513825040630202"><ele>164.0</ele><time>2026-03-28T09:50:33.999Z</time></trkpt><trkpt lat="44.629089649567675" lon="10.513782267099295"><ele>167.0</ele><time>2026-03-28T09:50:34.999Z</time></trkpt><trkpt lat="44.628968794019826" lon="10.513762896983513"><ele>170.0</ele><time>2026-03-28T09:50:35.999Z</time></trkpt><trkpt lat="44.6288455706643" lon="10.513734670800071"><ele>173.0</ele><time>2026-03-28T09:50:36.999Z</time></trkpt><trkpt lat="44.62871610262873" lon="10.513705596913999"><ele>176.0</ele><time>2026-03-28T09:50:37.999Z</time></trkpt><trkpt lat="44.628604924812876" lon="10.513687645111068"><ele>178.4</ele><time>2026-03-28T09:50:38.999Z</time></trkpt><trkpt lat="44.628520269603634" lon="10.513637814878157"><ele>180.8</ele><time>2026-03-28T09:50:39.999Z</time></trkpt><trkpt lat="44.62841324466188" lon="10.513622358901504"><ele>183.20000000000002</ele><time>2026-03-28T09:50:40.999Z</time></trkpt><trkpt lat="44.62833606768072" lon="10.513690074243483"><ele>185.60000000000002</ele><time>2026-03-28T09:50:41.999Z</time></trkpt><trkpt lat="44.62825922787365" lon="10.513757591690766"><ele>188.0</ele><time>2026-03-28T09:50:42.999Z</time></trkpt><trkpt lat="44.62819731928713" lon="10.513871557135412"><ele>192.25</ele><time>2026-03-28T09:50:43.999Z</time></trkpt><trkpt lat="44.628134494102106" lon="10.51401312949964"><ele>196.5</ele><time>2026-03-28T09:50:44.999Z</time></trkpt><trkpt lat="44.62806065905829" lon="10.51413879284909"><ele>200.75</ele><time>2026-03-28T09:50:45.999Z</time></trkpt><trkpt lat="44.62795936744679" lon="10.51420770894999"><ele>205.0</ele><time>2026-03-28T09:50:46.999Z</time></trkpt><trkpt lat="44.62785660227333" lon="10.514233957456588"><ele>205.0</ele><time>2026-03-28T09:50:47.999Z</time></trkpt><trkpt lat="44.62773863726769" lon="10.514275435926587"><ele>205.0</ele><time>2026-03-28T09:50:48.999Z</time></trkpt><trkpt lat="44.62761919127747" lon="10.514312162148254"><ele>205.0</ele><time>2026-03-28T09:50:49.999Z</time></trkpt><trkpt lat="44.627473754852325" lon="10.51437560274161"><ele>205.0</ele><time>2026-03-28T09:50:50.999Z</time></trkpt><trkpt lat="44.62734234002731" lon="10.51441569768163"><ele>205.0</ele><time>2026-03-28T09:50:51.999Z</time></trkpt><trkpt lat="44.62723222194169" lon="10.514422585449402"><ele>205.0</ele><time>2026-03-28T09:50:52.999Z</time></trkpt><trkpt lat="44.627162533359204" lon="10.514424901974143"><ele>205.0</ele><time>2026-03-28T09:50:53.999Z</time></trkpt><trkpt lat="44.627090400297725" lon="10.5144131030684"><ele>205.0</ele><time>2026-03-28T09:50:54.999Z</time></trkpt><trkpt lat="44.62698760207558" lon="10.514347942807127"><ele>205.0</ele><time>2026-03-28T09:50:55.999Z</time></trkpt><trkpt lat="44.62687235230326" lon="10.514296387530722"><ele>206.5</ele><time>2026-03-28T09:50:56.999Z</time></trkpt><trkpt lat="44.626752395243216" lon="10.514245784650244"><ele>208.0</ele><time>2026-03-28T09:50:57.999Z</time></trkpt><trkpt lat="44.62664157211352" lon="10.51416122111349"><ele>209.5</ele><time>2026-03-28T09:50:58.999Z</time></trkpt><trkpt lat="44.626504264874725" lon="10.51412602050159"><ele>211.0</ele><time>2026-03-28T09:50:59.999Z</time></trkpt><trkpt lat="44.626394697314474" lon="10.514077723439977"><ele>211.0</ele><time>2026-03-28T09:51:00.999Z</time></trkpt><trkpt lat="44.626277346946694" lon="10.514024535117724"><ele>211.0</ele><time>2026-03-28T09:51:01.999Z</time></trkpt><trkpt lat="44.6261510030293" lon="10.513985415260064"><ele>211.0</ele><time>2026-03-28T09:51:02.999Z</time></trkpt><trkpt lat="44.62607777952724" lon="10.513981297596276"><ele>211.0</ele><time>2026-03-28T09:51:03.999Z</time></trkpt><trkpt lat="44.62598139395077" lon="10.513977751136746"><ele>211.0</ele><time>2026-03-28T09:51:05Z</time></trkpt><trkpt lat="44.625895421986826" lon="10.513955156482638"><ele>213.0</ele><time>2026-03-28T09:51:06Z</time></trkpt><trkpt lat="44.62579405460885" lon="10.51393916994728"><ele>215.0</ele><time>2026-03-28T09:51:07Z</time></trkpt><trkpt lat="44.625682154261234" lon="10.513917335207612"><ele>217.00000000000003</ele><time>2026-03-28T09:51:08Z</time></trkpt><trkpt lat="44.625601055177746" lon="10.513888755767345"><ele>219.0</ele><time>2026-03-28T09:51:09Z</time></trkpt><trkpt lat="44.62552991219615" lon="10.513783580674005"><ele>221.0</ele><time>2026-03-28T09:51:11Z</time></trkpt><trkpt lat="44.62554231195067" lon="10.513677245087292"><ele>221.0</ele><time>2026-03-28T09:51:13Z</time></trkpt><trkpt lat="44.62551535197161" lon="10.51355667414016"><ele>221.00000000000003</ele><time>2026-03-28T09:51:15Z</time></trkpt><trkpt lat="44.62551546027271" lon="10.51346274211535"><ele>221.00000000000003</ele><time>2026-03-28T09:51:16Z</time></trkpt><trkpt lat="44.62553133183762" lon="10.513323998832591"><ele>221.0</ele><time>2026-03-28T09:51:17Z</time></trkpt><trkpt lat="44.6255253669105" lon="10.51316799501016"><ele>221.0</ele><time>2026-03-28T09:51:18Z</time></trkpt><trkpt lat="44.62551653234087" lon="10.513002371264555"><ele>221.8</ele><time>2026-03-28T09:51:19Z</time></trkpt><trkpt lat="44.62550485077986" lon="10.512840193218128"><ele>222.60000000000002</ele><time>2026-03-28T09:51:20Z</time></trkpt><trkpt lat="44.625484790096294" lon="10.512707493079594"><ele>223.4</ele><time>2026-03-28T09:51:21Z</time></trkpt><trkpt lat="44.62544396263796" lon="10.512582401414925"><ele>224.2</ele><time>2026-03-28T09:51:22Z</time></trkpt><trkpt lat="44.62541714157622" lon="10.512471961590872"><ele>225.0</ele><time>2026-03-28T09:51:23Z</time></trkpt><trkpt lat="44.62539986836596" lon="10.512329498055335"><ele>225.0</ele><time>2026-03-28T09:51:24Z</time></trkpt><trkpt lat="44.62538754176975" lon="10.512183882439961"><ele>225.0</ele><time>2026-03-28T09:51:25Z</time></trkpt><trkpt lat="44.6253755396673" lon="10.512035407995882"><ele>225.0</ele><time>2026-03-28T09:51:26Z</time></trkpt><trkpt lat="44.62536430745642" lon="10.511896457661509"><ele>225.0</ele><time>2026-03-28T09:51:27Z</time></trkpt><trkpt lat="44.625354230496654" lon="10.51177179861837"><ele>225.0</ele><time>2026-03-28T09:51:28Z</time></trkpt><trkpt lat="44.62534393310069" lon="10.511644412614494"><ele>226.5</ele><time>2026-03-28T09:51:29Z</time></trkpt><trkpt lat="44.62533549675542" lon="10.511521294302614"><ele>228.0</ele><time>2026-03-28T09:51:30Z</time></trkpt><trkpt lat="44.62532889224748" lon="10.511406294816524"><ele>229.5</ele><time>2026-03-28T09:51:31Z</time></trkpt><trkpt lat="44.62530413044363" lon="10.511270806430797"><ele>231.0</ele><time>2026-03-28T09:51:33Z</time></trkpt><trkpt lat="44.62532388936579" lon="10.511171503617703"><ele>232.5</ele><time>2026-03-28T09:52:29.999Z</time></trkpt><trkpt lat="44.625322404688966" lon="10.511309906304362"><ele>234.0</ele><time>2026-03-28T09:52:34.999Z</time></trkpt><trkpt lat="44.625327497138514" lon="10.511411788085551"><ele>234.0</ele><time>2026-03-28T09:52:35.999Z</time></trkpt><trkpt lat="44.62532391338901" lon="10.511549724851426"><ele>233.99999999999997</ele><time>2026-03-28T09:52:36.999Z</time></trkpt><trkpt lat="44.62532706969177" lon="10.511644991988115"><ele>233.99999999999997</ele><time>2026-03-28T09:52:37.999Z</time></trkpt><trkpt lat="44.625339365610714" lon="10.511743094168764"><ele>234.0</ele><time>2026-03-28T09:52:38.999Z</time></trkpt><trkpt lat="44.62536598754275" lon="10.511917242213153"><ele>234.0</ele><time>2026-03-28T09:52:40.999Z</time></trkpt><trkpt lat="44.625378190276344" lon="10.512068198602057"><ele>233.0</ele><time>2026-03-28T09:52:42.999Z</time></trkpt><trkpt lat="44.62538770581781" lon="10.51218591257992"><ele>232.0</ele><time>2026-03-28T09:52:44.999Z</time></trkpt><trkpt lat="44.62539584601437" lon="10.512286612049497"><ele>231.0</ele><time>2026-03-28T09:52:48.999Z</time></trkpt><trkpt lat="44.62510973022082" lon="10.512295754433383"><ele>230.0</ele><time>2026-03-28T09:52:53.999Z</time></trkpt><trkpt lat="44.62501242609006" lon="10.512277485570136"><ele>230.00000000000003</ele><time>2026-03-28T09:52:54.999Z</time></trkpt><trkpt lat="44.624945212022965" lon="10.512277298998578"><ele>230.0</ele><time>2026-03-28T09:52:55.999Z</time></trkpt><trkpt lat="44.624821624514105" lon="10.512273456466055"><ele>230.0</ele><time>2026-03-28T09:52:57.999Z</time></trkpt><trkpt lat="44.62474723929385" lon="10.512283163678863"><ele>230.0</ele><time>2026-03-28T09:52:58.999Z</time></trkpt><trkpt lat="44.624679373448785" lon="10.512310155291422"><ele>230.00000000000003</ele><time>2026-03-28T09:52:59.999Z</time></trkpt><trkpt lat="44.6246107809973" lon="10.512333546812027"><ele>230.0</ele><time>2026-03-28T09:53:00.999Z</time></trkpt><trkpt lat="44.624558365866186" lon="10.51240049548959"><ele>230.00000000000003</ele><time>2026-03-28T09:53:01.999Z</time></trkpt><trkpt lat="44.624500904572756" lon="10.512502139187838"><ele>230.0</ele><time>2026-03-28T09:53:02.999Z</time></trkpt><trkpt lat="44.62446040979099" lon="10.512617962070095"><ele>230.0</ele><time>2026-03-28T09:53:03.999Z</time></trkpt><trkpt lat="44.6244147134287" lon="10.512724830853553"><ele>230.0</ele><time>2026-03-28T09:53:04.999Z</time></trkpt><trkpt lat="44.62435668349055" lon="10.512820727812839"><ele>230.00000000000003</ele><time>2026-03-28T09:53:05.999Z</time></trkpt><trkpt lat="44.62431528120149" lon="10.5129090699869"><ele>230.0</ele><time>2026-03-28T09:53:06.999Z</time></trkpt><trkpt lat="44.6242706252769" lon="10.512989623306146"><ele>229.50000000000003</ele><time>2026-03-28T09:53:07.999Z</time></trkpt><trkpt lat="44.62421384542358" lon="10.513085011218253"><ele>229.0</ele><time>2026-03-28T09:53:08.999Z</time></trkpt><trkpt lat="44.624175574210724" lon="10.513179693109642"><ele>228.5</ele><time>2026-03-28T09:53:09.999Z</time></trkpt><trkpt lat="44.624108085425384" lon="10.513262340082553"><ele>228.0</ele><time>2026-03-28T09:53:11Z</time></trkpt><trkpt lat="44.62403861457244" lon="10.513359767380114"><ele>227.50000000000003</ele><time>2026-03-28T09:53:12Z</time></trkpt><trkpt lat="44.623971996938444" lon="10.51344449514576"><ele>227.0</ele><time>2026-03-28T09:53:13Z</time></trkpt><trkpt lat="44.62390588387384" lon="10.51351989310326"><ele>227.00000000000003</ele><time>2026-03-28T09:53:14Z</time></trkpt><trkpt lat="44.62383400103581" lon="10.51359530154757"><ele>227.0</ele><time>2026-03-28T09:53:15Z</time></trkpt><trkpt lat="44.623781084173274" lon="10.513663030389342"><ele>227.0</ele><time>2026-03-28T09:53:16Z</time></trkpt><trkpt lat="44.62372583651183" lon="10.513748320556376"><ele>227.0</ele><time>2026-03-28T09:53:17Z</time></trkpt><trkpt lat="44.6236796365597" lon="10.513819423910864"><ele>227.00000000000003</ele><time>2026-03-28T09:53:18Z</time></trkpt><trkpt lat="44.62362752353958" lon="10.513903473602602"><ele>227.0</ele><time>2026-03-28T09:53:19Z</time></trkpt><trkpt lat="44.62354808755247" lon="10.514041569949706"><ele>227.33333333333334</ele><time>2026-03-28T09:53:21Z</time></trkpt><trkpt lat="44.62348099265189" lon="10.51411788309106"><ele>227.66666666666669</ele><time>2026-03-28T09:53:22Z</time></trkpt><trkpt lat="44.623417909819175" lon="10.514213175047447"><ele>228.0</ele><time>2026-03-28T09:53:23Z</time></trkpt><trkpt lat="44.62336231710427" lon="10.514281464433761"><ele>228.33333333333331</ele><time>2026-03-28T09:53:24Z</time></trkpt><trkpt lat="44.6233126766564" lon="10.514370487852684"><ele>228.66666666666666</ele><time>2026-03-28T09:53:25Z</time></trkpt><trkpt lat="44.62325342050222" lon="10.514479124997331"><ele>229.0</ele><time>2026-03-28T09:53:26Z</time></trkpt><trkpt lat="44.62318448933038" lon="10.514596000718651"><ele>227.6</ele><time>2026-03-28T09:53:27Z</time></trkpt><trkpt lat="44.62313215418752" lon="10.5147115964977"><ele>226.2</ele><time>2026-03-28T09:53:28Z</time></trkpt><trkpt lat="44.62308600731902" lon="10.514803318997311"><ele>224.79999999999998</ele><time>2026-03-28T09:53:29Z</time></trkpt><trkpt lat="44.622996643783765" lon="10.51494274433048"><ele>223.39999999999998</ele><time>2026-03-28T09:53:31Z</time></trkpt><trkpt lat="44.6229575227121" lon="10.515014482484396"><ele>222.0</ele><time>2026-03-28T09:53:32Z</time></trkpt><trkpt lat="44.62290607014994" lon="10.515100171348363"><ele>222.0</ele><time>2026-03-28T09:53:33Z</time></trkpt><trkpt lat="44.622839320463946" lon="10.51517339322969"><ele>222.0</ele><time>2026-03-28T09:53:34Z</time></trkpt><trkpt lat="44.622774191614695" lon="10.515240333591818"><ele>222.0</ele><time>2026-03-28T09:53:35Z</time></trkpt><trkpt lat="44.622712839608425" lon="10.515354125746786"><ele>222.0</ele><time>2026-03-28T09:53:36Z</time></trkpt><trkpt lat="44.622650642868905" lon="10.515471649394089"><ele>222.0</ele><time>2026-03-28T09:53:37Z</time></trkpt><trkpt lat="44.62259573672713" lon="10.515575741427188"><ele>224.8</ele><time>2026-03-28T09:53:38Z</time></trkpt><trkpt lat="44.622519992681134" lon="10.515662786262428"><ele>227.6</ele><time>2026-03-28T09:53:39Z</time></trkpt><trkpt lat="44.62246361806152" lon="10.51574412294462"><ele>230.40000000000003</ele><time>2026-03-28T09:53:40Z</time></trkpt><trkpt lat="44.622400291511724" lon="10.515830804493731"><ele>233.20000000000002</ele><time>2026-03-28T09:53:41Z</time></trkpt><trkpt lat="44.622350524916264" lon="10.515945887117958"><ele>236.0</ele><time>2026-03-28T09:53:42Z</time></trkpt><trkpt lat="44.6222940808769" lon="10.516049632313178"><ele>236.00000000000003</ele><time>2026-03-28T09:53:43Z</time></trkpt><trkpt lat="44.622206227299564" lon="10.516184717557945"><ele>236.0</ele><time>2026-03-28T09:53:45Z</time></trkpt><trkpt lat="44.622154849388934" lon="10.516239416465913"><ele>236.0</ele><time>2026-03-28T09:53:46Z</time></trkpt><trkpt lat="44.62215268707962" lon="10.516363054989407"><ele>236.0</ele><time>2026-03-28T09:53:48Z</time></trkpt><trkpt lat="44.62215303517039" lon="10.516473618683074"><ele>236.00000000000003</ele><time>2026-03-28T09:53:49Z</time></trkpt><trkpt lat="44.62214688076566" lon="10.51656862439829"><ele>236.0</ele><time>2026-03-28T09:53:50Z</time></trkpt><trkpt lat="44.62213482831407" lon="10.516657021938485"><ele>235.50000000000003</ele><time>2026-03-28T09:53:51Z</time></trkpt><trkpt lat="44.62213039640159" lon="10.51674920385009"><ele>235.0</ele><time>2026-03-28T09:53:52Z</time></trkpt><trkpt lat="44.62208802665861" lon="10.516899223003106"><ele>234.5</ele><time>2026-03-28T09:53:54Z</time></trkpt><trkpt lat="44.6220518454011" lon="10.51703581864735"><ele>234.0</ele><time>2026-03-28T09:53:56Z</time></trkpt><trkpt lat="44.6219918030393" lon="10.517082987239391"><ele>233.50000000000003</ele><time>2026-03-28T09:53:58Z</time></trkpt><trkpt lat="44.62193228990057" lon="10.517031309359778"><ele>233.0</ele><time>2026-03-28T09:54:00Z</time></trkpt><trkpt lat="44.62186548979465" lon="10.516991618353806"><ele>233.0</ele><time>2026-03-28T09:54:03Z</time></trkpt><trkpt lat="44.62180637694767" lon="10.516734056543038"><ele>233.0</ele><time>2026-03-28T09:54:48.999Z</time></trkpt><trkpt lat="44.621777758258524" lon="10.516649809241516"><ele>233.0</ele><time>2026-03-28T09:54:49.999Z</time></trkpt><trkpt lat="44.62172406181391" lon="10.516542148126776"><ele>233.0</ele><time>2026-03-28T09:54:51.999Z</time></trkpt><trkpt lat="44.62168140857627" lon="10.516462513047752"><ele>233.0</ele><time>2026-03-28T09:54:52.999Z</time></trkpt><trkpt lat="44.62163593979411" lon="10.516359114930946"><ele>233.00000000000003</ele><time>2026-03-28T09:54:54.999Z</time></trkpt><trkpt lat="44.62158524717172" lon="10.516305686673446"><ele>233.0</ele><time>2026-03-28T09:54:55.999Z</time></trkpt><trkpt lat="44.62148184076126" lon="10.516242747914601"><ele>233.0</ele><time>2026-03-28T09:54:57.999Z</time></trkpt><trkpt lat="44.62134732597065" lon="10.516215817162514"><ele>233.0</ele><time>2026-03-28T09:54:59.999Z</time></trkpt><trkpt lat="44.621282986961155" lon="10.516201517307138"><ele>233.00000000000003</ele><time>2026-03-28T09:55:00.999Z</time></trkpt><trkpt lat="44.621238597668416" lon="10.516124368070438"><ele>233.0</ele><time>2026-03-28T09:55:01.999Z</time></trkpt><trkpt lat="44.62117573133835" lon="10.51607414416435"><ele>229.85714285714286</ele><time>2026-03-28T09:55:02.999Z</time></trkpt><trkpt lat="44.62109578788082" lon="10.516072505779269"><ele>226.7142857142857</ele><time>2026-03-28T09:55:03.999Z</time></trkpt><trkpt lat="44.621002880614625" lon="10.516058185197648"><ele>223.57142857142856</ele><time>2026-03-28T09:55:04.999Z</time></trkpt><trkpt lat="44.62093384649948" lon="10.516026850846117"><ele>220.42857142857144</ele><time>2026-03-28T09:55:05.999Z</time></trkpt><trkpt lat="44.62087785073004" lon="10.515985125478617"><ele>217.28571428571428</ele><time>2026-03-28T09:55:06.999Z</time></trkpt><trkpt lat="44.620817328294336" lon="10.51594184964369"><ele>214.14285714285714</ele><time>2026-03-28T09:55:07.999Z</time></trkpt><trkpt lat="44.620758479457834" lon="10.51588479124306"><ele>211.0</ele><time>2026-03-28T09:55:08.999Z</time></trkpt><trkpt lat="44.62071694828565" lon="10.515813152201007"><ele>211.0</ele><time>2026-03-28T09:55:09.999Z</time></trkpt><trkpt lat="44.620693657756966" lon="10.515716665321456"><ele>211.0</ele><time>2026-03-28T09:55:10.999Z</time></trkpt><trkpt lat="44.620650322049286" lon="10.51562677881295"><ele>211.0</ele><time>2026-03-28T09:55:11.999Z</time></trkpt><trkpt lat="44.62061956731224" lon="10.515547904527466"><ele>211.0</ele><time>2026-03-28T09:55:12.999Z</time></trkpt><trkpt lat="44.62059609690646" lon="10.515442616695694"><ele>211.0</ele><time>2026-03-28T09:55:13.999Z</time></trkpt><trkpt lat="44.62058952781244" lon="10.515337539670824"><ele>211.0</ele><time>2026-03-28T09:55:14.999Z</time></trkpt><trkpt lat="44.62059029127333" lon="10.515225087802767"><ele>211.0</ele><time>2026-03-28T09:55:15.999Z</time></trkpt><trkpt lat="44.620593167109845" lon="10.515134043984672"><ele>211.0</ele><time>2026-03-28T09:55:17Z</time></trkpt><trkpt lat="44.62053499499131" lon="10.514944685221469"><ele>211.0</ele><time>2026-03-28T09:55:19Z</time></trkpt><trkpt lat="44.62050643542952" lon="10.514846329581939"><ele>211.0</ele><time>2026-03-28T09:55:20Z</time></trkpt><trkpt lat="44.62045653527191" lon="10.514755351312463"><ele>211.0</ele><time>2026-03-28T09:55:21Z</time></trkpt><trkpt lat="44.6204152014748" lon="10.514604801833299"><ele>211.0</ele><time>2026-03-28T09:55:23Z</time></trkpt><trkpt lat="44.62038004216255" lon="10.514519630211382"><ele>210.20000000000002</ele><time>2026-03-28T09:55:24Z</time></trkpt><trkpt lat="44.620350656712695" lon="10.514438872622351"><ele>209.4</ele><time>2026-03-28T09:55:25Z</time></trkpt><trkpt lat="44.620307409333016" lon="10.514268005353507"><ele>208.6</ele><time>2026-03-28T09:55:27Z</time></trkpt><trkpt lat="44.62022856039107" lon="10.514207672572292"><ele>207.8</ele><time>2026-03-28T09:55:29Z</time></trkpt><trkpt lat="44.62012387949795" lon="10.51425941289651"><ele>207.0</ele><time>2026-03-28T09:55:31Z</time></trkpt><trkpt lat="44.62004629495052" lon="10.51429213284715"><ele>204.85714285714286</ele><time>2026-03-28T09:55:32Z</time></trkpt><trkpt lat="44.619982755808" lon="10.514316943370934"><ele>202.71428571428572</ele><time>2026-03-28T09:55:33Z</time></trkpt><trkpt lat="44.61992366821448" lon="10.51434909249121"><ele>200.57142857142856</ele><time>2026-03-28T09:55:34Z</time></trkpt><trkpt lat="44.61986627365648" lon="10.514390820179411"><ele>198.42857142857144</ele><time>2026-03-28T09:55:35Z</time></trkpt><trkpt lat="44.61980587923253" lon="10.514458290019821"><ele>196.28571428571428</ele><time>2026-03-28T09:55:36Z</time></trkpt><trkpt lat="44.61973607586417" lon="10.514531115591033"><ele>194.14285714285714</ele><time>2026-03-28T09:55:37Z</time></trkpt><trkpt lat="44.619671337832266" lon="10.51460726076714"><ele>192.0</ele><time>2026-03-28T09:55:38Z</time></trkpt><trkpt lat="44.61960695902378" lon="10.514685123107274"><ele>191.66666666666666</ele><time>2026-03-28T09:55:39Z</time></trkpt><trkpt lat="44.61955261522419" lon="10.514757897434828"><ele>191.33333333333334</ele><time>2026-03-28T09:55:40Z</time></trkpt><trkpt lat="44.61949462114478" lon="10.514833798919591"><ele>191.0</ele><time>2026-03-28T09:55:41Z</time></trkpt><trkpt lat="44.61943779336277" lon="10.514900634675028"><ele>190.66666666666669</ele><time>2026-03-28T09:55:42Z</time></trkpt><trkpt lat="44.6193776957451" lon="10.514935482730383"><ele>190.33333333333334</ele><time>2026-03-28T09:55:43Z</time></trkpt><trkpt lat="44.61931278447447" lon="10.51503353677301"><ele>190.0</ele><time>2026-03-28T09:55:45Z</time></trkpt><trkpt lat="44.619253310837905" lon="10.515087242372354"><ele>188.33333333333334</ele><time>2026-03-28T09:55:46Z</time></trkpt><trkpt lat="44.619199759862376" lon="10.515143648646191"><ele>186.66666666666669</ele><time>2026-03-28T09:55:47Z</time></trkpt><trkpt lat="44.61914025888746" lon="10.515201792073215"><ele>185.0</ele><time>2026-03-28T09:55:48Z</time></trkpt><trkpt lat="44.61908791893207" lon="10.515252730497615"><ele>183.33333333333334</ele><time>2026-03-28T09:55:49Z</time></trkpt><trkpt lat="44.6190000109574" lon="10.515339525205098"><ele>181.66666666666666</ele><time>2026-03-28T09:55:51Z</time></trkpt><trkpt lat="44.618946004430825" lon="10.515394448043969"><ele>180.0</ele><time>2026-03-28T09:55:53Z</time></trkpt><trkpt lat="44.61884615937799" lon="10.515198643790072"><ele>180.0</ele><time>2026-03-28T09:55:58Z</time></trkpt><trkpt lat="44.618786861785644" lon="10.51507586522427"><ele>180.0</ele><time>2026-03-28T09:55:59Z</time></trkpt><trkpt lat="44.61872650021207" lon="10.51495136944973"><ele>180.0</ele><time>2026-03-28T09:56:00Z</time></trkpt><trkpt lat="44.61866553485531" lon="10.514825634594505"><ele>180.0</ele><time>2026-03-28T09:56:01Z</time></trkpt><trkpt lat="44.61860788466968" lon="10.514706898897925"><ele>180.0</ele><time>2026-03-28T09:56:02Z</time></trkpt><trkpt lat="44.61854670090624" lon="10.514580814527893"><ele>179.6</ele><time>2026-03-28T09:56:03Z</time></trkpt><trkpt lat="44.61848399351179" lon="10.514451590410225"><ele>179.2</ele><time>2026-03-28T09:56:04Z</time></trkpt><trkpt lat="44.618423744779946" lon="10.514327433037895"><ele>178.8</ele><time>2026-03-28T09:56:05Z</time></trkpt><trkpt lat="44.61836311343444" lon="10.514202487120611"><ele>178.4</ele><time>2026-03-28T09:56:06Z</time></trkpt><trkpt lat="44.618301445141505" lon="10.514074965970373"><ele>178.0</ele><time>2026-03-28T09:56:07Z</time></trkpt><trkpt lat="44.618243039451414" lon="10.5139539962238"><ele>178.0</ele><time>2026-03-28T09:56:08Z</time></trkpt><trkpt lat="44.61818615267904" lon="10.51383629211746"><ele>178.0</ele><time>2026-03-28T09:56:09Z</time></trkpt><trkpt lat="44.618131892359834" lon="10.513724109917204"><ele>178.0</ele><time>2026-03-28T09:56:10Z</time></trkpt><trkpt lat="44.61807799601575" lon="10.513612680262867"><ele>178.0</ele><time>2026-03-28T09:56:11Z</time></trkpt><trkpt lat="44.618023159799144" lon="10.513499306277469"><ele>178.0</ele><time>2026-03-28T09:56:12Z</time></trkpt><trkpt lat="44.61796154160199" lon="10.513377094673743"><ele>178.0</ele><time>2026-03-28T09:56:13Z</time></trkpt><trkpt lat="44.61789207279512" lon="10.513240670261872"><ele>178.0</ele><time>2026-03-28T09:56:14Z</time></trkpt><trkpt lat="44.61782388281387" lon="10.51310567777313"><ele>178.0</ele><time>2026-03-28T09:56:15Z</time></trkpt><trkpt lat="44.61775270334415" lon="10.512964767010473"><ele>178.0</ele><time>2026-03-28T09:56:16Z</time></trkpt><trkpt lat="44.61767472490137" lon="10.512811211603879"><ele>178.25</ele><time>2026-03-28T09:56:17Z</time></trkpt><trkpt lat="44.617598996559444" lon="10.512662351594072"><ele>178.5</ele><time>2026-03-28T09:56:18Z</time></trkpt><trkpt lat="44.61752520999509" lon="10.512517308449594"><ele>178.75</ele><time>2026-03-28T09:56:19Z</time></trkpt><trkpt lat="44.61744996831402" lon="10.512369221279469"><ele>179.0</ele><time>2026-03-28T09:56:20Z</time></trkpt><trkpt lat="44.61737186935412" lon="10.512215497060993"><ele>179.5</ele><time>2026-03-28T09:56:21Z</time></trkpt><trkpt lat="44.617295580973654" lon="10.51207198173665"><ele>180.0</ele><time>2026-03-28T09:56:21.999Z</time></trkpt><trkpt lat="44.6172335890601" lon="10.511930147903634"><ele>180.5</ele><time>2026-03-28T09:56:22.999Z</time></trkpt><trkpt lat="44.6171705684107" lon="10.511802304241861"><ele>181.0</ele><time>2026-03-28T09:56:23.999Z</time></trkpt><trkpt lat="44.61720841443267" lon="10.511659710902196"><ele>181.0</ele><time>2026-03-28T09:56:24.999Z</time></trkpt><trkpt lat="44.617243399575784" lon="10.511527311621913"><ele>181.0</ele><time>2026-03-28T09:56:25.999Z</time></trkpt><trkpt lat="44.61731953377658" lon="10.511400230263572"><ele>181.0</ele><time>2026-03-28T09:56:26.999Z</time></trkpt><trkpt lat="44.61740054028782" lon="10.511254371314871"><ele>181.0</ele><time>2026-03-28T09:56:27.999Z</time></trkpt><trkpt lat="44.61745670495565" lon="10.511098500664113"><ele>181.5</ele><time>2026-03-28T09:56:28.999Z</time></trkpt><trkpt lat="44.61748723023408" lon="10.510961279234047"><ele>182.0</ele><time>2026-03-28T09:56:29.999Z</time></trkpt><trkpt lat="44.61751177756625" lon="10.510827945832924"><ele>182.5</ele><time>2026-03-28T09:56:30.999Z</time></trkpt><trkpt lat="44.61742969697421" lon="10.51067000450578"><ele>183.0</ele><time>2026-03-28T09:56:31.999Z</time></trkpt><trkpt lat="44.617383667208735" lon="10.510503239563096"><ele>183.5</ele><time>2026-03-28T09:56:32.999Z</time></trkpt><trkpt lat="44.617331105825386" lon="10.51033679487167"><ele>184.0</ele><time>2026-03-28T09:56:33.999Z</time></trkpt><trkpt lat="44.61728108433489" lon="10.510168888421504"><ele>184.5</ele><time>2026-03-28T09:56:34.999Z</time></trkpt><trkpt lat="44.617240128319644" lon="10.510001294711932"><ele>185.0</ele><time>2026-03-28T09:56:35.999Z</time></trkpt><trkpt lat="44.61720893112351" lon="10.509820728800195"><ele>185.0</ele><time>2026-03-28T09:56:36.999Z</time></trkpt><trkpt lat="44.61719080114201" lon="10.509636400017435"><ele>185.0</ele><time>2026-03-28T09:56:37.999Z</time></trkpt><trkpt lat="44.617197240714155" lon="10.50945742918368"><ele>185.0</ele><time>2026-03-28T09:56:38.999Z</time></trkpt><trkpt lat="44.61720868738544" lon="10.509246357584756"><ele>185.0</ele><time>2026-03-28T09:56:39.999Z</time></trkpt><trkpt lat="44.61722031418002" lon="10.509034850932457"><ele>185.5</ele><time>2026-03-28T09:56:40.999Z</time></trkpt><trkpt lat="44.61722603440394" lon="10.508827478753927"><ele>186.0</ele><time>2026-03-28T09:56:41.999Z</time></trkpt><trkpt lat="44.61722297370646" lon="10.508616171642442"><ele>186.5</ele><time>2026-03-28T09:56:42.999Z</time></trkpt><trkpt lat="44.617210648546376" lon="10.508409068717013"><ele>187.0</ele><time>2026-03-28T09:56:43.999Z</time></trkpt><trkpt lat="44.617191320760405" lon="10.508198525025373"><ele>187.5</ele><time>2026-03-28T09:56:44.999Z</time></trkpt><trkpt lat="44.61716716570794" lon="10.507993476388231"><ele>188.0</ele><time>2026-03-28T09:56:45.999Z</time></trkpt><trkpt lat="44.61714231317041" lon="10.507798266452795"><ele>188.5</ele><time>2026-03-28T09:56:46.999Z</time></trkpt><trkpt lat="44.617117727368594" lon="10.507605151491896"><ele>189.0</ele><time>2026-03-28T09:56:47.999Z</time></trkpt><trkpt lat="44.61709446763463" lon="10.507422452612685"><ele>189.75</ele><time>2026-03-28T09:56:48.999Z</time></trkpt><trkpt lat="44.61707214482308" lon="10.50723834130816"><ele>190.5</ele><time>2026-03-28T09:56:49.999Z</time></trkpt><trkpt lat="44.61705438822001" lon="10.507071495199918"><ele>191.25</ele><time>2026-03-28T09:56:50.999Z</time></trkpt><trkpt lat="44.617040018089085" lon="10.506900133378156"><ele>192.0</ele><time>2026-03-28T09:56:51.999Z</time></trkpt><trkpt lat="44.617028655781056" lon="10.506726995056688"><ele>193.0</ele><time>2026-03-28T09:56:52.999Z</time></trkpt><trkpt lat="44.61701260974662" lon="10.506556884125251"><ele>194.0</ele><time>2026-03-28T09:56:53.999Z</time></trkpt><trkpt lat="44.6169628156234" lon="10.506395831991208"><ele>195.0</ele><time>2026-03-28T09:56:54.999Z</time></trkpt><trkpt lat="44.61691359155436" lon="10.506253567823022"><ele>196.0</ele><time>2026-03-28T09:56:55.999Z</time></trkpt><trkpt lat="44.616858141320925" lon="10.506115294547989"><ele>194.25</ele><time>2026-03-28T09:56:56.999Z</time></trkpt><trkpt lat="44.61682409253901" lon="10.50597273867844"><ele>192.5</ele><time>2026-03-28T09:56:57.999Z</time></trkpt><trkpt lat="44.61678453332734" lon="10.505807102588737"><ele>190.75</ele><time>2026-03-28T09:56:58.999Z</time></trkpt><trkpt lat="44.61680529861291" lon="10.505620833002693"><ele>189.0</ele><time>2026-03-28T09:56:59.999Z</time></trkpt><trkpt lat="44.61680635511396" lon="10.505412196730308"><ele>189.0</ele><time>2026-03-28T09:57:00.999Z</time></trkpt><trkpt lat="44.61677932857449" lon="10.505223300656553"><ele>189.0</ele><time>2026-03-28T09:57:01.999Z</time></trkpt><trkpt lat="44.61674887708425" lon="10.50503167007379"><ele>189.0</ele><time>2026-03-28T09:57:02.999Z</time></trkpt><trkpt lat="44.616724735075955" lon="10.504838204217167"><ele>189.0</ele><time>2026-03-28T09:57:03.999Z</time></trkpt><trkpt lat="44.616678463101685" lon="10.504661331160108"><ele>189.5</ele><time>2026-03-28T09:57:04.999Z</time></trkpt><trkpt lat="44.616602635979504" lon="10.504505102806203"><ele>190.0</ele><time>2026-03-28T09:57:05.999Z</time></trkpt><trkpt lat="44.61653213491804" lon="10.504353520498112"><ele>190.5</ele><time>2026-03-28T09:57:06.999Z</time></trkpt><trkpt lat="44.616454353560755" lon="10.504195709106618"><ele>191.0</ele><time>2026-03-28T09:57:07.999Z</time></trkpt><trkpt lat="44.61637051823051" lon="10.504047824336995"><ele>191.0</ele><time>2026-03-28T09:57:08.999Z</time></trkpt><trkpt lat="44.61628956635922" lon="10.50390186405282"><ele>191.0</ele><time>2026-03-28T09:57:09.999Z</time></trkpt><trkpt lat="44.61621932045294" lon="10.503759079639256"><ele>191.0</ele><time>2026-03-28T09:57:10.999Z</time></trkpt><trkpt lat="44.61614989863569" lon="10.503635996804693"><ele>191.0</ele><time>2026-03-28T09:57:11.999Z</time></trkpt><trkpt lat="44.616089329890684" lon="10.50352518207324"><ele>190.8</ele><time>2026-03-28T09:57:12.999Z</time></trkpt><trkpt lat="44.6160293572912" lon="10.503410054569354"><ele>190.60000000000002</ele><time>2026-03-28T09:57:13.999Z</time></trkpt><trkpt lat="44.61597347512314" lon="10.503310452291712"><ele>190.4</ele><time>2026-03-28T09:57:14.999Z</time></trkpt><trkpt lat="44.61591934180103" lon="10.503225156662332"><ele>190.2</ele><time>2026-03-28T09:57:15.999Z</time></trkpt><trkpt lat="44.61585576923467" lon="10.503115062521196"><ele>190.0</ele><time>2026-03-28T09:57:17.999Z</time></trkpt><trkpt lat="44.61596896599878" lon="10.502972212121337"><ele>190.0</ele><time>2026-03-28T09:57:21.999Z</time></trkpt><trkpt lat="44.616029283116724" lon="10.50291911458863"><ele>190.0</ele><time>2026-03-28T09:57:23Z</time></trkpt><trkpt lat="44.61611214362562" lon="10.50284655495161"><ele>190.0</ele><time>2026-03-28T09:57:24Z</time></trkpt><trkpt lat="44.616182057840426" lon="10.502763102348666"><ele>190.0</ele><time>2026-03-28T09:57:25Z</time></trkpt><trkpt lat="44.61626485108448" lon="10.502693686180633"><ele>190.0</ele><time>2026-03-28T09:57:26Z</time></trkpt><trkpt lat="44.61634843737623" lon="10.502626174362794"><ele>192.4</ele><time>2026-03-28T09:57:27Z</time></trkpt><trkpt lat="44.6164279875192" lon="10.502548464396211"><ele>194.8</ele><time>2026-03-28T09:57:28Z</time></trkpt><trkpt lat="44.61652332335994" lon="10.50246113557575"><ele>197.2</ele><time>2026-03-28T09:57:29Z</time></trkpt><trkpt lat="44.616611415391624" lon="10.502381781251724"><ele>199.6</ele><time>2026-03-28T09:57:30Z</time></trkpt><trkpt lat="44.616711032285814" lon="10.502314373528689"><ele>202.0</ele><time>2026-03-28T09:57:31Z</time></trkpt><trkpt lat="44.61679468337138" lon="10.502215389803835"><ele>202.0</ele><time>2026-03-28T09:57:32Z</time></trkpt><trkpt lat="44.61689070658723" lon="10.50213622911116"><ele>202.0</ele><time>2026-03-28T09:57:33Z</time></trkpt><trkpt lat="44.61697308950056" lon="10.502060320881103"><ele>202.0</ele><time>2026-03-28T09:57:34Z</time></trkpt><trkpt lat="44.61705268611737" lon="10.501989256874422"><ele>202.0</ele><time>2026-03-28T09:57:35Z</time></trkpt><trkpt lat="44.6171042803806" lon="10.50191717254608"><ele>202.0</ele><time>2026-03-28T09:57:36Z</time></trkpt><trkpt lat="44.617105173923804" lon="10.501745012292078"><ele>204.8</ele><time>2026-03-28T09:57:38Z</time></trkpt><trkpt lat="44.61707167838086" lon="10.501626353357487"><ele>207.6</ele><time>2026-03-28T09:57:39Z</time></trkpt><trkpt lat="44.6170321212261" lon="10.501490832480672"><ele>210.40000000000003</ele><time>2026-03-28T09:57:40Z</time></trkpt><trkpt lat="44.61700031624974" lon="10.501333179618914"><ele>213.20000000000002</ele><time>2026-03-28T09:57:41Z</time></trkpt><trkpt lat="44.616965304906536" lon="10.501187007697354"><ele>216.0</ele><time>2026-03-28T09:57:42Z</time></trkpt><trkpt lat="44.61693331400015" lon="10.50104696333266"><ele>216.4</ele><time>2026-03-28T09:57:43Z</time></trkpt><trkpt lat="44.61692041677397" lon="10.500921979347467"><ele>216.8</ele><time>2026-03-28T09:57:44Z</time></trkpt><trkpt lat="44.616937280372944" lon="10.500812067260705"><ele>217.20000000000002</ele><time>2026-03-28T09:57:45Z</time></trkpt><trkpt lat="44.61699406517777" lon="10.500708297830297"><ele>217.60000000000002</ele><time>2026-03-28T09:57:46Z</time></trkpt><trkpt lat="44.6170377313384" lon="10.500595641149301"><ele>218.0</ele><time>2026-03-28T09:57:47Z</time></trkpt><trkpt lat="44.61707924955089" lon="10.500460744032983"><ele>223.4</ele><time>2026-03-28T09:57:48Z</time></trkpt><trkpt lat="44.61713529613614" lon="10.50033321944718"><ele>228.8</ele><time>2026-03-28T09:57:49Z</time></trkpt><trkpt lat="44.61719840626022" lon="10.50021119420356"><ele>234.2</ele><time>2026-03-28T09:57:50Z</time></trkpt><trkpt lat="44.61724320972928" lon="10.50006596524917"><ele>239.6</ele><time>2026-03-28T09:57:51Z</time></trkpt><trkpt lat="44.61729780269891" lon="10.49991767087326"><ele>245.0</ele><time>2026-03-28T09:57:52Z</time></trkpt><trkpt lat="44.61735019352973" lon="10.499769938463185"><ele>245.0</ele><time>2026-03-28T09:57:53Z</time></trkpt><trkpt lat="44.617391183091556" lon="10.499613232779907"><ele>245.0</ele><time>2026-03-28T09:57:54Z</time></trkpt><trkpt lat="44.61741659646891" lon="10.499460585540552"><ele>245.0</ele><time>2026-03-28T09:57:55Z</time></trkpt><trkpt lat="44.61744479391242" lon="10.499313537218537"><ele>245.0</ele><time>2026-03-28T09:57:56Z</time></trkpt><trkpt lat="44.61744808268413" lon="10.499162777665381"><ele>245.0</ele><time>2026-03-28T09:57:57Z</time></trkpt><trkpt lat="44.61746225190348" lon="10.49906070736423"><ele>246.42857142857144</ele><time>2026-03-28T09:57:58Z</time></trkpt><trkpt lat="44.61747528607753" lon="10.498967619040739"><ele>247.85714285714286</ele><time>2026-03-28T09:57:59Z</time></trkpt><trkpt lat="44.6175127005421" lon="10.498894772490134"><ele>249.28571428571428</ele><time>2026-03-28T09:58:01Z</time></trkpt><trkpt lat="44.61755873057509" lon="10.498965482329716"><ele>250.71428571428572</ele><time>2026-03-28T09:58:03Z</time></trkpt><trkpt lat="44.61756771911799" lon="10.499062208185984"><ele>252.14285714285717</ele><time>2026-03-28T09:58:06Z</time></trkpt><trkpt lat="44.61760969100864" lon="10.499201123445788"><ele>253.57142857142858</ele><time>2026-03-28T09:58:09Z</time></trkpt><trkpt lat="44.61765739311755" lon="10.499264734571002"><ele>255.0</ele><time>2026-03-28T09:58:11Z</time></trkpt><trkpt lat="44.617695322090206" lon="10.49935044528797"><ele>255.0</ele><time>2026-03-28T09:59:32Z</time></trkpt><trkpt lat="44.61764274111781" lon="10.499270959855583"><ele>255.0</ele><time>2026-03-28T09:59:36Z</time></trkpt><trkpt lat="44.617484759421814" lon="10.499098758079503"><ele>255.0</ele><time>2026-03-28T09:59:38Z</time></trkpt><trkpt lat="44.61747915424192" lon="10.498988513200521"><ele>255.0</ele><time>2026-03-28T09:59:40Z</time></trkpt><trkpt lat="44.617557846578755" lon="10.499027927468818"><ele>255.0</ele><time>2026-03-28T09:59:53Z</time></trkpt><trkpt lat="44.617603302168554" lon="10.499185763243643"><ele>255.0</ele><time>2026-03-28T09:59:55Z</time></trkpt><trkpt lat="44.61764913402644" lon="10.499320337819418"><ele>255.0</ele><time>2026-03-28T09:59:57Z</time></trkpt><trkpt lat="44.61767784641941" lon="10.499462174140508"><ele>255.0</ele><time>2026-03-28T09:59:59Z</time></trkpt><trkpt lat="44.617367109933504" lon="10.499756636278073"><ele>253.0</ele><time>2026-03-28T10:00:00Z</time></trkpt><trkpt lat="44.617337129403545" lon="10.49985780051314"><ele>251.0</ele><time>2026-03-28T10:00:01Z</time></trkpt><trkpt lat="44.61729806783812" lon="10.499958830790861"><ele>249.0</ele><time>2026-03-28T10:00:02Z</time></trkpt><trkpt lat="44.61722730303961" lon="10.500043619045138"><ele>247.0</ele><time>2026-03-28T10:00:03Z</time></trkpt><trkpt lat="44.61718022111609" lon="10.500162070210092"><ele>245.0</ele><time>2026-03-28T10:00:04Z</time></trkpt><trkpt lat="44.617128838715175" lon="10.500286635928306"><ele>242.50000000000003</ele><time>2026-03-28T10:00:05Z</time></trkpt><trkpt lat="44.61707428642395" lon="10.500418886164725"><ele>240.0</ele><time>2026-03-28T10:00:06Z</time></trkpt><trkpt lat="44.617022425884095" lon="10.500541602558432"><ele>237.5</ele><time>2026-03-28T10:00:07Z</time></trkpt><trkpt lat="44.616977369769764" lon="10.50065149184523"><ele>235.0</ele><time>2026-03-28T10:00:08Z</time></trkpt><trkpt lat="44.6169548882519" lon="10.500754922622004"><ele>232.50000000000003</ele><time>2026-03-28T10:00:09Z</time></trkpt><trkpt lat="44.61691943048514" lon="10.500841292750966"><ele>230.0</ele><time>2026-03-28T10:00:10Z</time></trkpt><trkpt lat="44.616900271739986" lon="10.50095077505052"><ele>228.00000000000003</ele><time>2026-03-28T10:00:11Z</time></trkpt><trkpt lat="44.6169066917342" lon="10.50106121435588"><ele>226.0</ele><time>2026-03-28T10:00:12Z</time></trkpt><trkpt lat="44.61692345362926" lon="10.501166056809955"><ele>224.0</ele><time>2026-03-28T10:00:13Z</time></trkpt><trkpt lat="44.616956478993025" lon="10.501278784008033"><ele>222.0</ele><time>2026-03-28T10:00:14Z</time></trkpt><trkpt lat="44.616995909353705" lon="10.501384062464606"><ele>220.00000000000003</ele><time>2026-03-28T10:00:15Z</time></trkpt><trkpt lat="44.6170236521897" lon="10.501501874999462"><ele>218.0</ele><time>2026-03-28T10:00:16Z</time></trkpt><trkpt lat="44.61705064364882" lon="10.501618728736402"><ele>217.66666666666669</ele><time>2026-03-28T10:00:17Z</time></trkpt><trkpt lat="44.61707615304041" lon="10.501724155247075"><ele>217.33333333333334</ele><time>2026-03-28T10:00:18Z</time></trkpt><trkpt lat="44.617087001733005" lon="10.501828367452283"><ele>217.0</ele><time>2026-03-28T10:00:19Z</time></trkpt><trkpt lat="44.61705675274536" lon="10.501985123796763"><ele>216.66666666666669</ele><time>2026-03-28T10:00:21Z</time></trkpt><trkpt lat="44.616981113698586" lon="10.502030770828116"><ele>216.33333333333334</ele><time>2026-03-28T10:00:22Z</time></trkpt><trkpt lat="44.6169171162192" lon="10.50207806960644"><ele>216.0</ele><time>2026-03-28T10:00:23Z</time></trkpt><trkpt lat="44.616862276427796" lon="10.502147683155163"><ele>213.66666666666666</ele><time>2026-03-28T10:00:24Z</time></trkpt><trkpt lat="44.616795226207145" lon="10.50220200915735"><ele>211.33333333333331</ele><time>2026-03-28T10:00:25Z</time></trkpt><trkpt lat="44.616730217324125" lon="10.502260938960085"><ele>209.0</ele><time>2026-03-28T10:00:26Z</time></trkpt><trkpt lat="44.616662047190104" lon="10.50232286463913"><ele>206.66666666666666</ele><time>2026-03-28T10:00:27Z</time></trkpt><trkpt lat="44.61659576236504" lon="10.502380398494491"><ele>204.33333333333331</ele><time>2026-03-28T10:00:28Z</time></trkpt><trkpt lat="44.61653507442313" lon="10.502433522798926"><ele>202.0</ele><time>2026-03-28T10:00:29Z</time></trkpt><trkpt lat="44.61646595898861" lon="10.50247781951181"><ele>202.0</ele><time>2026-03-28T10:00:30Z</time></trkpt><trkpt lat="44.61640664285507" lon="10.502530759095565"><ele>202.0</ele><time>2026-03-28T10:00:31Z</time></trkpt><trkpt lat="44.616339154818796" lon="10.502590992054545"><ele>202.0</ele><time>2026-03-28T10:00:32Z</time></trkpt><trkpt lat="44.616291629672794" lon="10.502649942650931"><ele>202.0</ele><time>2026-03-28T10:00:33Z</time></trkpt><trkpt lat="44.616181788928614" lon="10.502730584737531"><ele>202.0</ele><time>2026-03-28T10:00:35Z</time></trkpt><trkpt lat="44.61609202481731" lon="10.502836413368836"><ele>200.6</ele><time>2026-03-28T10:00:37Z</time></trkpt><trkpt lat="44.61596671144082" lon="10.502919035451015"><ele>199.2</ele><time>2026-03-28T10:00:39Z</time></trkpt><trkpt lat="44.615887873488006" lon="10.503016003143493"><ele>197.8</ele><time>2026-03-28T10:00:41Z</time></trkpt><trkpt lat="44.61582823314893" lon="10.503055547362978"><ele>196.4</ele><time>2026-03-28T10:00:43.999Z</time></trkpt><trkpt lat="44.61576132081391" lon="10.502942822189809"><ele>195.0</ele><time>2026-03-28T10:00:45.999Z</time></trkpt><trkpt lat="44.61569018901762" lon="10.502850767811198"><ele>195.0</ele><time>2026-03-28T10:00:46.999Z</time></trkpt><trkpt lat="44.61560803262068" lon="10.5027477330425"><ele>195.0</ele><time>2026-03-28T10:00:47.999Z</time></trkpt><trkpt lat="44.615530727655646" lon="10.502651518043423"><ele>195.0</ele><time>2026-03-28T10:00:48.999Z</time></trkpt><trkpt lat="44.61545394131902" lon="10.502539351493747"><ele>195.0</ele><time>2026-03-28T10:00:49.999Z</time></trkpt><trkpt lat="44.61540319442145" lon="10.502414261372826"><ele>195.0</ele><time>2026-03-28T10:00:50.999Z</time></trkpt><trkpt lat="44.61536264195956" lon="10.502262494443674"><ele>194.5</ele><time>2026-03-28T10:00:51.999Z</time></trkpt><trkpt lat="44.6153199034073" lon="10.502093167366175"><ele>194.0</ele><time>2026-03-28T10:00:52.999Z</time></trkpt><trkpt lat="44.6152792694196" lon="10.501923737235279"><ele>193.5</ele><time>2026-03-28T10:00:53.999Z</time></trkpt><trkpt lat="44.615247606727856" lon="10.501775780756452"><ele>193.0</ele><time>2026-03-28T10:00:54.999Z</time></trkpt><trkpt lat="44.61523365627965" lon="10.501629119808943"><ele>193.0</ele><time>2026-03-28T10:00:55.999Z</time></trkpt><trkpt lat="44.61523253227743" lon="10.501469611852386"><ele>193.0</ele><time>2026-03-28T10:00:56.999Z</time></trkpt><trkpt lat="44.61523778960796" lon="10.501298486509564"><ele>193.0</ele><time>2026-03-28T10:00:57.999Z</time></trkpt><trkpt lat="44.61524822067718" lon="10.501125642201009"><ele>193.0</ele><time>2026-03-28T10:00:58.999Z</time></trkpt><trkpt lat="44.61525596440563" lon="10.500954369248493"><ele>193.0</ele><time>2026-03-28T10:00:59.999Z</time></trkpt><trkpt lat="44.61524910632507" lon="10.500795850248238"><ele>193.0</ele><time>2026-03-28T10:01:00.999Z</time></trkpt><trkpt lat="44.6152320617762" lon="10.500642363228431"><ele>193.0</ele><time>2026-03-28T10:01:01.999Z</time></trkpt><trkpt lat="44.615214274442906" lon="10.500497828276547"><ele>193.0</ele><time>2026-03-28T10:01:02.999Z</time></trkpt><trkpt lat="44.61519604036048" lon="10.500349663576648"><ele>193.0</ele><time>2026-03-28T10:01:03.999Z</time></trkpt><trkpt lat="44.6151715335483" lon="10.50019344092123"><ele>193.4</ele><time>2026-03-28T10:01:04.999Z</time></trkpt><trkpt lat="44.6151265108665" lon="10.500044987577843"><ele>193.8</ele><time>2026-03-28T10:01:05.999Z</time></trkpt><trkpt lat="44.61503753545156" lon="10.499939719044962"><ele>194.2</ele><time>2026-03-28T10:01:06.999Z</time></trkpt><trkpt lat="44.614974163607755" lon="10.499837216984703"><ele>194.6</ele><time>2026-03-28T10:01:07.999Z</time></trkpt><trkpt lat="44.61490667902838" lon="10.499756504437928"><ele>195.0</ele><time>2026-03-28T10:01:08.999Z</time></trkpt><trkpt lat="44.614842739128996" lon="10.499684105374381"><ele>195.0</ele><time>2026-03-28T10:01:09.999Z</time></trkpt><trkpt lat="44.61477582533229" lon="10.499612080818505"><ele>195.0</ele><time>2026-03-28T10:01:10.999Z</time></trkpt><trkpt lat="44.614708675162134" lon="10.499569095400947"><ele>195.0</ele><time>2026-03-28T10:01:11.999Z</time></trkpt><trkpt lat="44.61463531719877" lon="10.499485976731295"><ele>195.0</ele><time>2026-03-28T10:01:13.999Z</time></trkpt><trkpt lat="44.6145778453455" lon="10.499415321933636"><ele>195.0</ele><time>2026-03-28T10:01:15.999Z</time></trkpt><trkpt lat="44.61451194281957" lon="10.499365078580793"><ele>195.0</ele><time>2026-03-28T10:01:18.999Z</time></trkpt><trkpt lat="44.61469554987683" lon="10.499182564731626"><ele>196.6</ele><time>2026-03-28T10:01:31.999Z</time></trkpt><trkpt lat="44.614770681712436" lon="10.499136910949444"><ele>198.2</ele><time>2026-03-28T10:01:32.999Z</time></trkpt><trkpt lat="44.61485405651359" lon="10.499085999605986"><ele>199.8</ele><time>2026-03-28T10:01:33.999Z</time></trkpt><trkpt lat="44.614944943371086" lon="10.499024866108112"><ele>201.4</ele><time>2026-03-28T10:01:35Z</time></trkpt><trkpt lat="44.6150262897234" lon="10.49897899295188"><ele>203.0</ele><time>2026-03-28T10:01:36Z</time></trkpt><trkpt lat="44.61511714411472" lon="10.498936720916422"><ele>203.0</ele><time>2026-03-28T10:01:37Z</time></trkpt><trkpt lat="44.615190862912904" lon="10.49894062444337"><ele>203.0</ele><time>2026-03-28T10:01:38Z</time></trkpt><trkpt lat="44.61528153233136" lon="10.498922816676448"><ele>203.0</ele><time>2026-03-28T10:01:39Z</time></trkpt><trkpt lat="44.61539564323783" lon="10.498897110139968"><ele>203.0</ele><time>2026-03-28T10:01:40Z</time></trkpt><trkpt lat="44.61547736824212" lon="10.498856074491878"><ele>203.0</ele><time>2026-03-28T10:01:41Z</time></trkpt><trkpt lat="44.61555700437287" lon="10.498814496945409"><ele>205.00000000000003</ele><time>2026-03-28T10:01:42Z</time></trkpt><trkpt lat="44.61563909422597" lon="10.49876780308036"><ele>207.0</ele><time>2026-03-28T10:01:43Z</time></trkpt><trkpt lat="44.61572068046553" lon="10.498708838778777"><ele>209.0</ele><time>2026-03-28T10:01:44Z</time></trkpt><trkpt lat="44.61579772254763" lon="10.498658910847672"><ele>211.0</ele><time>2026-03-28T10:01:45Z</time></trkpt><trkpt lat="44.615865027867315" lon="10.498616448081673"><ele>213.00000000000003</ele><time>2026-03-28T10:01:46Z</time></trkpt><trkpt lat="44.61595312871143" lon="10.498564673944491"><ele>215.0</ele><time>2026-03-28T10:01:47Z</time></trkpt><trkpt lat="44.61604421706412" lon="10.498510742684676"><ele>215.6</ele><time>2026-03-28T10:01:48Z</time></trkpt><trkpt lat="44.6161394324704" lon="10.498463860831613"><ele>216.2</ele><time>2026-03-28T10:01:49Z</time></trkpt><trkpt lat="44.61623956831733" lon="10.49841819714498"><ele>216.8</ele><time>2026-03-28T10:01:50Z</time></trkpt><trkpt lat="44.61633577527563" lon="10.498368928583506"><ele>217.4</ele><time>2026-03-28T10:01:51Z</time></trkpt><trkpt lat="44.616420765937555" lon="10.498333031169444"><ele>218.0</ele><time>2026-03-28T10:01:52Z</time></trkpt><trkpt lat="44.61651304849414" lon="10.498290796939287"><ele>221.4</ele><time>2026-03-28T10:01:53Z</time></trkpt><trkpt lat="44.616599004355045" lon="10.498244982879784"><ele>224.8</ele><time>2026-03-28T10:01:54Z</time></trkpt><trkpt lat="44.61669452016637" lon="10.498195977159973"><ele>228.2</ele><time>2026-03-28T10:01:55Z</time></trkpt><trkpt lat="44.61678093343151" lon="10.498149520099508"><ele>231.6</ele><time>2026-03-28T10:01:56Z</time></trkpt><trkpt lat="44.61686860615972" lon="10.498092767026597"><ele>235.0</ele><time>2026-03-28T10:01:57Z</time></trkpt><trkpt lat="44.61695674141388" lon="10.49803628195693"><ele>238.33333333333331</ele><time>2026-03-28T10:01:58Z</time></trkpt><trkpt lat="44.61703903741328" lon="10.497982743396943"><ele>241.66666666666666</ele><time>2026-03-28T10:01:59Z</time></trkpt><trkpt lat="44.61712112999199" lon="10.497923871086796"><ele>245.0</ele><time>2026-03-28T10:02:00Z</time></trkpt><trkpt lat="44.61719030369588" lon="10.497857655844134"><ele>248.33333333333331</ele><time>2026-03-28T10:02:01Z</time></trkpt><trkpt lat="44.61723503038836" lon="10.497776581331474"><ele>251.66666666666666</ele><time>2026-03-28T10:02:02Z</time></trkpt><trkpt lat="44.61726888405608" lon="10.49767570538261"><ele>255.0</ele><time>2026-03-28T10:02:03Z</time></trkpt><trkpt lat="44.61730001281804" lon="10.497595122851928"><ele>255.33333333333334</ele><time>2026-03-28T10:02:04Z</time></trkpt><trkpt lat="44.617373112350165" lon="10.497496135146145"><ele>255.66666666666669</ele><time>2026-03-28T10:02:06Z</time></trkpt><trkpt lat="44.61744843466768" lon="10.497453238796004"><ele>256.0</ele><time>2026-03-28T10:02:08Z</time></trkpt><trkpt lat="44.61752302169876" lon="10.497426546773147"><ele>256.33333333333337</ele><time>2026-03-28T10:02:20Z</time></trkpt><trkpt lat="44.617616540487205" lon="10.497486139630249"><ele>256.6666666666667</ele><time>2026-03-28T10:02:22Z</time></trkpt><trkpt lat="44.61767696860513" lon="10.49755344349823"><ele>257.0</ele><time>2026-03-28T10:02:23Z</time></trkpt><trkpt lat="44.61773735027895" lon="10.497603004650001"><ele>261.0</ele><time>2026-03-28T10:02:24Z</time></trkpt><trkpt lat="44.61782279938146" lon="10.497655313567643"><ele>265.0</ele><time>2026-03-28T10:02:25Z</time></trkpt><trkpt lat="44.61788494551372" lon="10.497748926475705"><ele>269.0</ele><time>2026-03-28T10:02:26Z</time></trkpt><trkpt lat="44.617949163466406" lon="10.497811027404387"><ele>273.0</ele><time>2026-03-28T10:02:27Z</time></trkpt><trkpt lat="44.61800259294316" lon="10.497883275242797"><ele>277.0</ele><time>2026-03-28T10:02:28Z</time></trkpt><trkpt lat="44.61804999814687" lon="10.49798831620127"><ele>281.0</ele><time>2026-03-28T10:02:29Z</time></trkpt><trkpt lat="44.61810781170559" lon="10.498072125707862"><ele>281.0</ele><time>2026-03-28T10:02:30Z</time></trkpt><trkpt lat="44.61816655638758" lon="10.498125941297413"><ele>281.0</ele><time>2026-03-28T10:02:31Z</time></trkpt><trkpt lat="44.618229534108615" lon="10.49818134528305"><ele>281.0</ele><time>2026-03-28T10:02:32Z</time></trkpt><trkpt lat="44.61829686772918" lon="10.498255816547939"><ele>281.0</ele><time>2026-03-28T10:02:33Z</time></trkpt><trkpt lat="44.618349300726884" lon="10.498342710990455"><ele>281.0</ele><time>2026-03-28T10:02:34Z</time></trkpt><trkpt lat="44.6184052829595" lon="10.498430174312356"><ele>281.0</ele><time>2026-03-28T10:02:36Z</time></trkpt><trkpt lat="44.618339286857584" lon="10.498531153441581"><ele>281.0</ele><time>2026-03-28T10:02:38Z</time></trkpt><trkpt lat="44.618307042766574" lon="10.498616969624006"><ele>281.0</ele><time>2026-03-28T10:02:40Z</time></trkpt><trkpt lat="44.618376238361876" lon="10.498690074152421"><ele>281.0</ele><time>2026-03-28T10:02:46.999Z</time></trkpt><trkpt lat="44.618463035668384" lon="10.498654089414181"><ele>281.0</ele><time>2026-03-28T10:02:49.999Z</time></trkpt><trkpt lat="44.61857693348179" lon="10.49852486714289"><ele>281.0</ele><time>2026-03-28T10:02:52.999Z</time></trkpt><trkpt lat="44.61863658627423" lon="10.498458583346853"><ele>282.6</ele><time>2026-03-28T10:02:53.999Z</time></trkpt><trkpt lat="44.61868255805003" lon="10.498391925275657"><ele>284.20000000000005</ele><time>2026-03-28T10:02:54.999Z</time></trkpt><trkpt lat="44.61875109727002" lon="10.498263924377419"><ele>285.79999999999995</ele><time>2026-03-28T10:02:56.999Z</time></trkpt><trkpt lat="44.618797406099894" lon="10.498105172737858"><ele>287.4</ele><time>2026-03-28T10:02:58.999Z</time></trkpt><trkpt lat="44.618876400962556" lon="10.498010278599967"><ele>289.0</ele><time>2026-03-28T10:03:00.999Z</time></trkpt><trkpt lat="44.61899395121855" lon="10.497969146069547"><ele>293.4</ele><time>2026-03-28T10:03:02.999Z</time></trkpt><trkpt lat="44.61905919772959" lon="10.497916517479396"><ele>297.79999999999995</ele><time>2026-03-28T10:03:03.999Z</time></trkpt><trkpt lat="44.61913313874927" lon="10.497881843122254"><ele>302.20000000000005</ele><time>2026-03-28T10:03:04.999Z</time></trkpt><trkpt lat="44.61922419759589" lon="10.49778139673418"><ele>306.6</ele><time>2026-03-28T10:03:06.999Z</time></trkpt><trkpt lat="44.619299100881165" lon="10.497631792957685"><ele>311.0</ele><time>2026-03-28T10:03:08.999Z</time></trkpt><trkpt lat="44.6193386101648" lon="10.49755741807395"><ele>311.0</ele><time>2026-03-28T10:03:09.999Z</time></trkpt><trkpt lat="44.61941187344532" lon="10.497522217333433"><ele>311.0</ele><time>2026-03-28T10:03:10.999Z</time></trkpt><trkpt lat="44.61947852873206" lon="10.497485867080869"><ele>311.0</ele><time>2026-03-28T10:03:11.999Z</time></trkpt><trkpt lat="44.61958513267685" lon="10.497421149089082"><ele>311.0</ele><time>2026-03-28T10:03:13.999Z</time></trkpt><trkpt lat="44.619671713334945" lon="10.497269128013668"><ele>311.0</ele><time>2026-03-28T10:03:15.999Z</time></trkpt><trkpt lat="44.61973784666226" lon="10.497190785780553"><ele>311.0</ele><time>2026-03-28T10:03:17.999Z</time></trkpt><trkpt lat="44.61980754955694" lon="10.497182173898866"><ele>311.0</ele><time>2026-03-28T10:03:20.999Z</time></trkpt><trkpt lat="44.619745280908866" lon="10.497197033209984"><ele>311.0</ele><time>2026-03-28T10:04:55.999Z</time></trkpt><trkpt lat="44.619653317386806" lon="10.497288849796755"><ele>311.0</ele><time>2026-03-28T10:04:58.999Z</time></trkpt><trkpt lat="44.619615346751516" lon="10.49737789023003"><ele>311.0</ele><time>2026-03-28T10:04:59.999Z</time></trkpt><trkpt lat="44.61955673190018" lon="10.497467609457695"><ele>311.0</ele><time>2026-03-28T10:05:01.999Z</time></trkpt><trkpt lat="44.61946139991164" lon="10.497491330944579"><ele>311.0</ele><time>2026-03-28T10:05:03.999Z</time></trkpt><trkpt lat="44.619405744499325" lon="10.497554516350752"><ele>311.0</ele><time>2026-03-28T10:05:05.999Z</time></trkpt><trkpt lat="44.6193336779028" lon="10.49764634642847"><ele>311.0</ele><time>2026-03-28T10:05:08.999Z</time></trkpt><trkpt lat="44.619278532357825" lon="10.497705205273247"><ele>311.0</ele><time>2026-03-28T10:05:10.999Z</time></trkpt><trkpt lat="44.61924743761742" lon="10.497785928425166"><ele>311.0</ele><time>2026-03-28T10:05:11.999Z</time></trkpt><trkpt lat="44.619175270126924" lon="10.497873644812884"><ele>311.0</ele><time>2026-03-28T10:05:13.999Z</time></trkpt><trkpt lat="44.61909020444784" lon="10.497912024125581"><ele>307.33333333333337</ele><time>2026-03-28T10:05:15.999Z</time></trkpt><trkpt lat="44.61898845262743" lon="10.497974298225344"><ele>303.6666666666667</ele><time>2026-03-28T10:05:17.999Z</time></trkpt><trkpt lat="44.61889690595501" lon="10.497993011147985"><ele>300.0</ele><time>2026-03-28T10:05:20.999Z</time></trkpt><trkpt lat="44.618833484323645" lon="10.498030926303743"><ele>296.3333333333333</ele><time>2026-03-28T10:05:22.999Z</time></trkpt><trkpt lat="44.61880157229516" lon="10.498122514150007"><ele>292.66666666666663</ele><time>2026-03-28T10:05:24.999Z</time></trkpt><trkpt lat="44.61876236757016" lon="10.498197793842527"><ele>289.0</ele><time>2026-03-28T10:05:26.999Z</time></trkpt><trkpt lat="44.61874303586347" lon="10.498294912416693"><ele>289.0</ele><time>2026-03-28T10:05:28.999Z</time></trkpt><trkpt lat="44.6187015223175" lon="10.498388725883832"><ele>289.0</ele><time>2026-03-28T10:05:31.999Z</time></trkpt><trkpt lat="44.6186507199428" lon="10.49844612524988"><ele>289.0</ele><time>2026-03-28T10:05:34.999Z</time></trkpt><trkpt lat="44.61858970520924" lon="10.498515421773714"><ele>289.0</ele><time>2026-03-28T10:05:37.999Z</time></trkpt><trkpt lat="44.6185492600092" lon="10.49859108938871"><ele>289.0</ele><time>2026-03-28T10:05:40.999Z</time></trkpt><trkpt lat="44.61850254003028" lon="10.498654702377399"><ele>289.0</ele><time>2026-03-28T10:05:42.999Z</time></trkpt><trkpt lat="44.61843578111567" lon="10.49867967811059"><ele>289.0</ele><time>2026-03-28T10:05:44.999Z</time></trkpt><trkpt lat="44.61837166093924" lon="10.498707387760504"><ele>287.8571428571429</ele><time>2026-03-28T10:05:47Z</time></trkpt><trkpt lat="44.61831850613902" lon="10.498650963563616"><ele>286.7142857142857</ele><time>2026-03-28T10:05:49Z</time></trkpt><trkpt lat="44.61830728072925" lon="10.498554506018449"><ele>285.57142857142856</ele><time>2026-03-28T10:05:51Z</time></trkpt><trkpt lat="44.61834827713308" lon="10.498478197391375"><ele>284.42857142857144</ele><time>2026-03-28T10:05:54Z</time></trkpt><trkpt lat="44.618353784123286" lon="10.498387170879562"><ele>283.2857142857143</ele><time>2026-03-28T10:06:12Z</time></trkpt><trkpt lat="44.61832719584123" lon="10.498288636737737"><ele>282.14285714285717</ele><time>2026-03-28T10:06:15Z</time></trkpt><trkpt lat="44.61825664965844" lon="10.498232432692369"><ele>281.0</ele><time>2026-03-28T10:06:17Z</time></trkpt><trkpt lat="44.618187139667526" lon="10.498179702992712"><ele>281.0</ele><time>2026-03-28T10:06:19Z</time></trkpt><trkpt lat="44.61811478459635" lon="10.498107486086951"><ele>281.0</ele><time>2026-03-28T10:06:21Z</time></trkpt><trkpt lat="44.61801720258333" lon="10.498007352320721"><ele>281.0</ele><time>2026-03-28T10:06:23Z</time></trkpt><trkpt lat="44.617940948022344" lon="10.49788379740377"><ele>281.0</ele><time>2026-03-28T10:06:25Z</time></trkpt><trkpt lat="44.617907703622585" lon="10.497793434110653"><ele>281.0</ele><time>2026-03-28T10:06:26Z</time></trkpt><trkpt lat="44.61781526129071" lon="10.497736080466705"><ele>276.2</ele><time>2026-03-28T10:06:28Z</time></trkpt><trkpt lat="44.617703717029414" lon="10.49765471586587"><ele>271.40000000000003</ele><time>2026-03-28T10:06:30Z</time></trkpt><trkpt lat="44.61761117337012" lon="10.497543250706434"><ele>266.6</ele><time>2026-03-28T10:06:32Z</time></trkpt><trkpt lat="44.617549333526625" lon="10.497476995660973"><ele>261.8</ele><time>2026-03-28T10:06:34Z</time></trkpt><trkpt lat="44.61748702160084" lon="10.497454635396295"><ele>257.0</ele><time>2026-03-28T10:06:36Z</time></trkpt><trkpt lat="44.61750135542361" lon="10.497308469896172"><ele>257.0</ele><time>2026-03-28T10:06:40Z</time></trkpt><trkpt lat="44.61748959539302" lon="10.497187165715346"><ele>257.0</ele><time>2026-03-28T10:06:41.999Z</time></trkpt><trkpt lat="44.617519948054536" lon="10.497081312242846"><ele>257.0</ele><time>2026-03-28T10:06:43.999Z</time></trkpt><trkpt lat="44.61758215372737" lon="10.496971506594218"><ele>257.0</ele><time>2026-03-28T10:06:45.999Z</time></trkpt><trkpt lat="44.61762573950813" lon="10.496836583886122"><ele>257.0</ele><time>2026-03-28T10:06:47.999Z</time></trkpt><trkpt lat="44.61770144849415" lon="10.496735233963369"><ele>259.0</ele><time>2026-03-28T10:06:49.999Z</time></trkpt><trkpt lat="44.61774140427944" lon="10.49665530824365"><ele>261.0</ele><time>2026-03-28T10:06:56.999Z</time></trkpt><trkpt lat="44.61777426643307" lon="10.49657806659384"><ele>263.0</ele><time>2026-03-28T10:06:59.999Z</time></trkpt><trkpt lat="44.61780754952683" lon="10.496470597651204"><ele>265.0</ele><time>2026-03-28T10:07:01.999Z</time></trkpt><trkpt lat="44.61787503868991" lon="10.496385344517416"><ele>267.0</ele><time>2026-03-28T10:07:03.999Z</time></trkpt><trkpt lat="44.61793547598645" lon="10.496267886723444"><ele>269.0</ele><time>2026-03-28T10:07:05.999Z</time></trkpt><trkpt lat="44.61800362965954" lon="10.496218347824433"><ele>272.2</ele><time>2026-03-28T10:07:07.999Z</time></trkpt><trkpt lat="44.61806770954154" lon="10.496104678243402"><ele>275.4</ele><time>2026-03-28T10:07:09.999Z</time></trkpt><trkpt lat="44.61813845710549" lon="10.495983382927788"><ele>278.6</ele><time>2026-03-28T10:07:12.999Z</time></trkpt><trkpt lat="44.61823344332981" lon="10.495890489910055"><ele>281.8</ele><time>2026-03-28T10:07:14.999Z</time></trkpt><trkpt lat="44.61831596002621" lon="10.495807993456923"><ele>285.0</ele><time>2026-03-28T10:07:16.999Z</time></trkpt><trkpt lat="44.61837786486715" lon="10.49570965409818"><ele>285.0</ele><time>2026-03-28T10:07:18.999Z</time></trkpt><trkpt lat="44.61844078424716" lon="10.495628225911734"><ele>285.0</ele><time>2026-03-28T10:07:21.999Z</time></trkpt><trkpt lat="44.61849247758631" lon="10.495569565540372"><ele>285.0</ele><time>2026-03-28T10:07:23.999Z</time></trkpt><trkpt lat="44.618550961176226" lon="10.495501805532935"><ele>285.0</ele><time>2026-03-28T10:07:25.999Z</time></trkpt><trkpt lat="44.618615333634615" lon="10.495401067144865"><ele>285.0</ele><time>2026-03-28T10:07:27.999Z</time></trkpt><trkpt lat="44.61857138538793" lon="10.495336080188403"><ele>285.0</ele><time>2026-03-28T10:07:30.999Z</time></trkpt><trkpt lat="44.61848786547595" lon="10.495297767606983"><ele>286.6666666666667</ele><time>2026-03-28T10:07:34.999Z</time></trkpt><trkpt lat="44.61839951288449" lon="10.495311134159259"><ele>288.3333333333333</ele><time>2026-03-28T10:07:36.999Z</time></trkpt><trkpt lat="44.61831017475217" lon="10.495331344629394"><ele>290.0</ele><time>2026-03-28T10:07:39.999Z</time></trkpt><trkpt lat="44.6182396363298" lon="10.495318578509382"><ele>291.66666666666663</ele><time>2026-03-28T10:07:41.999Z</time></trkpt><trkpt lat="44.61816157138845" lon="10.49521582728568"><ele>293.3333333333333</ele><time>2026-03-28T10:07:44.999Z</time></trkpt><trkpt lat="44.618081428669086" lon="10.4952328152928"><ele>295.0</ele><time>2026-03-28T10:07:46.999Z</time></trkpt><trkpt lat="44.61803979508196" lon="10.495357616974621"><ele>294.16666666666663</ele><time>2026-03-28T10:07:48.999Z</time></trkpt><trkpt lat="44.618000691705866" lon="10.495437359196421"><ele>293.3333333333333</ele><time>2026-03-28T10:07:49.999Z</time></trkpt><trkpt lat="44.61792738498427" lon="10.495555206127072"><ele>292.5</ele><time>2026-03-28T10:07:51.999Z</time></trkpt><trkpt lat="44.617863965798186" lon="10.495644374257362"><ele>291.6666666666667</ele><time>2026-03-28T10:07:54Z</time></trkpt><trkpt lat="44.61778252366677" lon="10.495747964033857"><ele>290.83333333333337</ele><time>2026-03-28T10:07:59Z</time></trkpt><trkpt lat="44.617727901178746" lon="10.495796786308631"><ele>290.0</ele><time>2026-03-28T10:08:00Z</time></trkpt><trkpt lat="44.61766899180384" lon="10.495832618941686"><ele>290.0</ele><time>2026-03-28T10:08:01Z</time></trkpt><trkpt lat="44.61756317401271" lon="10.495902215540532"><ele>290.0</ele><time>2026-03-28T10:08:03Z</time></trkpt><trkpt lat="44.6174878804299" lon="10.495957118953907"><ele>290.0</ele><time>2026-03-28T10:08:05Z</time></trkpt><trkpt lat="44.61738957214978" lon="10.49606749061315"><ele>290.0</ele><time>2026-03-28T10:08:07Z</time></trkpt><trkpt lat="44.61728866401121" lon="10.496094627541824"><ele>290.0</ele><time>2026-03-28T10:08:09Z</time></trkpt><trkpt lat="44.61723687575536" lon="10.49615453283329"><ele>290.0</ele><time>2026-03-28T10:08:10Z</time></trkpt><trkpt lat="44.617146838292115" lon="10.496212983632851"><ele>290.0</ele><time>2026-03-28T10:08:12Z</time></trkpt><trkpt lat="44.61706137160181" lon="10.49617810953257"><ele>290.0</ele><time>2026-03-28T10:08:14Z</time></trkpt><trkpt lat="44.616989456287406" lon="10.496053818728404"><ele>290.0</ele><time>2026-03-28T10:08:16Z</time></trkpt><trkpt lat="44.61693708750661" lon="10.49597578431843"><ele>290.0</ele><time>2026-03-28T10:08:19Z</time></trkpt><trkpt lat="44.616844389477166" lon="10.495843286235221"><ele>288.83333333333337</ele><time>2026-03-28T10:08:21Z</time></trkpt><trkpt lat="44.616772364392176" lon="10.495741703593206"><ele>287.6666666666667</ele><time>2026-03-28T10:08:23Z</time></trkpt><trkpt lat="44.61670809706828" lon="10.495639905407884"><ele>286.5</ele><time>2026-03-28T10:08:26Z</time></trkpt><trkpt lat="44.616715033846496" lon="10.495507484322497"><ele>285.3333333333333</ele><time>2026-03-28T10:08:29Z</time></trkpt><trkpt lat="44.61674448532399" lon="10.49542286438615"><ele>284.16666666666663</ele><time>2026-03-28T10:08:31Z</time></trkpt><trkpt lat="44.616770033133314" lon="10.495308456289806"><ele>283.0</ele><time>2026-03-28T10:08:33Z</time></trkpt><trkpt lat="44.616779822617076" lon="10.49516006117675"><ele>283.0</ele><time>2026-03-28T10:08:35Z</time></trkpt><trkpt lat="44.61680247655065" lon="10.495074817629709"><ele>283.0</ele><time>2026-03-28T10:08:37Z</time></trkpt><trkpt lat="44.616818054107696" lon="10.494960343248081"><ele>283.0</ele><time>2026-03-28T10:08:39Z</time></trkpt><trkpt lat="44.61685432051008" lon="10.49483407986461"><ele>283.0</ele><time>2026-03-28T10:08:41Z</time></trkpt><trkpt lat="44.61695365546646" lon="10.494748612661596"><ele>283.0</ele><time>2026-03-28T10:08:43Z</time></trkpt><trkpt lat="44.61706481716418" lon="10.494648382792999"><ele>287.2</ele><time>2026-03-28T10:08:45Z</time></trkpt><trkpt lat="44.61717200238812" lon="10.494553170720671"><ele>291.4</ele><time>2026-03-28T10:08:47Z</time></trkpt><trkpt lat="44.617232588528644" lon="10.494493034929032"><ele>295.59999999999997</ele><time>2026-03-28T10:08:48Z</time></trkpt><trkpt lat="44.61735142656715" lon="10.494431841836462"><ele>299.8</ele><time>2026-03-28T10:08:50Z</time></trkpt><trkpt lat="44.61746784012565" lon="10.49441905748204"><ele>304.0</ele><time>2026-03-28T10:08:52Z</time></trkpt><trkpt lat="44.61758524993566" lon="10.494392141400837"><ele>304.0</ele><time>2026-03-28T10:08:54Z</time></trkpt><trkpt lat="44.61764906808703" lon="10.494349821028703"><ele>304.0</ele><time>2026-03-28T10:08:55Z</time></trkpt><trkpt lat="44.617759713716886" lon="10.494266736194213"><ele>304.0</ele><time>2026-03-28T10:08:56.999Z</time></trkpt><trkpt lat="44.61787151809446" lon="10.49422863216617"><ele>304.0</ele><time>2026-03-28T10:08:58.999Z</time></trkpt><trkpt lat="44.617946485689686" lon="10.494209083760746"><ele>304.0</ele><time>2026-03-28T10:08:59.999Z</time></trkpt><trkpt lat="44.61802731958664" lon="10.49419530057738"><ele>305.8333333333333</ele><time>2026-03-28T10:09:00.999Z</time></trkpt><trkpt lat="44.61810949499652" lon="10.494175228344641"><ele>307.66666666666663</ele><time>2026-03-28T10:09:01.999Z</time></trkpt><trkpt lat="44.61818429087178" lon="10.494160190812728"><ele>309.5</ele><time>2026-03-28T10:09:02.999Z</time></trkpt><trkpt lat="44.618255404927766" lon="10.494144967838901"><ele>311.3333333333333</ele><time>2026-03-28T10:09:03.999Z</time></trkpt><trkpt lat="44.6183197621688" lon="10.494131325392122"><ele>313.1666666666667</ele><time>2026-03-28T10:09:04.999Z</time></trkpt><trkpt lat="44.618401283875414" lon="10.494099688908426"><ele>315.0</ele><time>2026-03-28T10:09:06.999Z</time></trkpt><trkpt lat="44.61844515015531" lon="10.493965748265696"><ele>315.0</ele><time>2026-03-28T10:09:09.999Z</time></trkpt><trkpt lat="44.61844043360639" lon="10.493874185188178"><ele>315.0</ele><time>2026-03-28T10:09:10.999Z</time></trkpt><trkpt lat="44.618436719867" lon="10.493775901027304"><ele>315.0</ele><time>2026-03-28T10:09:11.999Z</time></trkpt><trkpt lat="44.618426779543945" lon="10.493666971569027"><ele>315.0</ele><time>2026-03-28T10:09:12.999Z</time></trkpt><trkpt lat="44.618419871669" lon="10.493567664383862"><ele>315.0</ele><time>2026-03-28T10:09:13.999Z</time></trkpt><trkpt lat="44.618414764750526" lon="10.493388688738465"><ele>315.0</ele><time>2026-03-28T10:09:15.999Z</time></trkpt><trkpt lat="44.61841588421043" lon="10.49329390983266"><ele>318.0</ele><time>2026-03-28T10:09:16.999Z</time></trkpt><trkpt lat="44.61841007331914" lon="10.493202676370373"><ele>321.0</ele><time>2026-03-28T10:09:17.999Z</time></trkpt><trkpt lat="44.618448140907006" lon="10.493084374941665"><ele>324.0</ele><time>2026-03-28T10:09:19.999Z</time></trkpt><trkpt lat="44.61849105599176" lon="10.493013567340874"><ele>327.0</ele><time>2026-03-28T10:09:21.999Z</time></trkpt><trkpt lat="44.61844280329831" lon="10.49292862104392"><ele>330.0</ele><time>2026-03-28T10:09:23.999Z</time></trkpt><trkpt lat="44.61837678998751" lon="10.492968347027832"><ele>333.0</ele><time>2026-03-28T10:09:27.999Z</time></trkpt><trkpt lat="44.618296896237986" lon="10.49299107752781"><ele>335.0</ele><time>2026-03-28T10:11:34.999Z</time></trkpt><trkpt lat="44.618191725011386" lon="10.492920431788628"><ele>337.0</ele><time>2026-03-28T10:11:36.999Z</time></trkpt><trkpt lat="44.61814668111554" lon="10.492803389587158"><ele>339.0</ele><time>2026-03-28T10:11:38.999Z</time></trkpt><trkpt lat="44.618175616695" lon="10.492665787628042"><ele>341.0</ele><time>2026-03-28T10:11:40.999Z</time></trkpt><trkpt lat="44.6182170981021" lon="10.492579905465348"><ele>343.0</ele><time>2026-03-28T10:11:41.999Z</time></trkpt><trkpt lat="44.61825459403958" lon="10.492497025596977"><ele>343.0</ele><time>2026-03-28T10:11:42.999Z</time></trkpt><trkpt lat="44.61830050805589" lon="10.492422744595933"><ele>343.0</ele><time>2026-03-28T10:11:43.999Z</time></trkpt><trkpt lat="44.61834634484229" lon="10.492354540044671"><ele>343.0</ele><time>2026-03-28T10:11:44.999Z</time></trkpt><trkpt lat="44.6183911548506" lon="10.492286952213695"><ele>343.0</ele><time>2026-03-28T10:11:45.999Z</time></trkpt><trkpt lat="44.61845720991167" lon="10.492169550280618"><ele>343.0</ele><time>2026-03-28T10:11:47.999Z</time></trkpt><trkpt lat="44.61850961095819" lon="10.492093108409437"><ele>343.0</ele><time>2026-03-28T10:11:48.999Z</time></trkpt><trkpt lat="44.618566726922" lon="10.492008414056674"><ele>342.4</ele><time>2026-03-28T10:11:49.999Z</time></trkpt><trkpt lat="44.61863030428977" lon="10.491913814270118"><ele>341.79999999999995</ele><time>2026-03-28T10:11:50.999Z</time></trkpt><trkpt lat="44.61869427591387" lon="10.491823221099075"><ele>341.2</ele><time>2026-03-28T10:11:51.999Z</time></trkpt><trkpt lat="44.618756986197084" lon="10.491733235846752"><ele>340.6</ele><time>2026-03-28T10:11:52.999Z</time></trkpt><trkpt lat="44.61881469342203" lon="10.491641650852277"><ele>340.0</ele><time>2026-03-28T10:11:53.999Z</time></trkpt><trkpt lat="44.61888297751534" lon="10.491546282944707"><ele>342.0</ele><time>2026-03-28T10:11:54.999Z</time></trkpt><trkpt lat="44.61895170905013" lon="10.491446264641711"><ele>344.0</ele><time>2026-03-28T10:11:55.999Z</time></trkpt><trkpt lat="44.61901721644129" lon="10.491358352759661"><ele>346.0</ele><time>2026-03-28T10:11:56.999Z</time></trkpt><trkpt lat="44.61907564473855" lon="10.491265088057677"><ele>348.0</ele><time>2026-03-28T10:11:57.999Z</time></trkpt><trkpt lat="44.61913819637793" lon="10.491174156299413"><ele>350.0</ele><time>2026-03-28T10:11:58.999Z</time></trkpt><trkpt lat="44.619188395885566" lon="10.491101174238803"><ele>352.0</ele><time>2026-03-28T10:11:59.999Z</time></trkpt><trkpt lat="44.61924006214164" lon="10.491035876263943"><ele>352.0</ele><time>2026-03-28T10:12:00.999Z</time></trkpt><trkpt lat="44.6193039160032" lon="10.4909459461154"><ele>352.0</ele><time>2026-03-28T10:12:01.999Z</time></trkpt><trkpt lat="44.61936891553205" lon="10.490883434066287"><ele>352.0</ele><time>2026-03-28T10:12:02.999Z</time></trkpt><trkpt lat="44.61942840639221" lon="10.49081942479206"><ele>352.0</ele><time>2026-03-28T10:12:03.999Z</time></trkpt><trkpt lat="44.61948898146621" lon="10.490759699531193"><ele>352.0</ele><time>2026-03-28T10:12:05Z</time></trkpt><trkpt lat="44.61953627998898" lon="10.490696988267027"><ele>352.0</ele><time>2026-03-28T10:12:06Z</time></trkpt><trkpt lat="44.619593682033674" lon="10.490630996328887"><ele>352.66666666666663</ele><time>2026-03-28T10:12:07Z</time></trkpt><trkpt lat="44.61965633506968" lon="10.49053383160508"><ele>353.3333333333333</ele><time>2026-03-28T10:12:08Z</time></trkpt><trkpt lat="44.61971608152881" lon="10.490467305183513"><ele>354.0</ele><time>2026-03-28T10:12:09Z</time></trkpt><trkpt lat="44.61978151304304" lon="10.49038102868186"><ele>354.6666666666667</ele><time>2026-03-28T10:12:10Z</time></trkpt><trkpt lat="44.61983007209342" lon="10.490279483688514"><ele>355.33333333333337</ele><time>2026-03-28T10:12:11Z</time></trkpt><trkpt lat="44.61988866474726" lon="10.490192671966108"><ele>356.0</ele><time>2026-03-28T10:12:12Z</time></trkpt><trkpt lat="44.619939205868036" lon="10.490113231835073"><ele>355.33333333333337</ele><time>2026-03-28T10:12:13Z</time></trkpt><trkpt lat="44.61998262681793" lon="10.490032440472445"><ele>354.6666666666667</ele><time>2026-03-28T10:12:14Z</time></trkpt><trkpt lat="44.62002576324022" lon="10.48993693826257"><ele>354.0</ele><time>2026-03-28T10:12:15Z</time></trkpt><trkpt lat="44.62006921736174" lon="10.489845276521661"><ele>353.3333333333333</ele><time>2026-03-28T10:12:16Z</time></trkpt><trkpt lat="44.62011637324857" lon="10.489767476878514"><ele>352.66666666666663</ele><time>2026-03-28T10:12:17Z</time></trkpt><trkpt lat="44.62016832239148" lon="10.489669657522384"><ele>352.0</ele><time>2026-03-28T10:12:18Z</time></trkpt><trkpt lat="44.620234659816575" lon="10.489573847900386"><ele>352.0</ele><time>2026-03-28T10:12:19Z</time></trkpt><trkpt lat="44.62028747794469" lon="10.489488952379938"><ele>352.0</ele><time>2026-03-28T10:12:20Z</time></trkpt><trkpt lat="44.62034223395978" lon="10.489392212931444"><ele>352.0</ele><time>2026-03-28T10:12:21Z</time></trkpt><trkpt lat="44.620375204879785" lon="10.489314008145673"><ele>352.0</ele><time>2026-03-28T10:12:22Z</time></trkpt><trkpt lat="44.62048158398108" lon="10.489207390885527"><ele>352.0</ele><time>2026-03-28T10:12:24Z</time></trkpt><trkpt lat="44.620532621300335" lon="10.489148784064955"><ele>352.0</ele><time>2026-03-28T10:12:25Z</time></trkpt><trkpt lat="44.62059658979538" lon="10.48904867012616"><ele>355.3333333333333</ele><time>2026-03-28T10:12:26Z</time></trkpt><trkpt lat="44.62063566964702" lon="10.488948619091493"><ele>358.66666666666663</ele><time>2026-03-28T10:12:27Z</time></trkpt><trkpt lat="44.62066622104981" lon="10.488824880400145"><ele>362.0</ele><time>2026-03-28T10:12:28Z</time></trkpt><trkpt lat="44.620681332993975" lon="10.488712893774917"><ele>365.3333333333333</ele><time>2026-03-28T10:12:29Z</time></trkpt><trkpt lat="44.62070223721645" lon="10.488599352587238"><ele>368.6666666666667</ele><time>2026-03-28T10:12:30Z</time></trkpt><trkpt lat="44.62073289043282" lon="10.488483019637938"><ele>372.0</ele><time>2026-03-28T10:12:31Z</time></trkpt><trkpt lat="44.62074775073658" lon="10.488353270206925"><ele>372.1666666666667</ele><time>2026-03-28T10:12:32Z</time></trkpt><trkpt lat="44.62075525900664" lon="10.488265152954266"><ele>372.3333333333333</ele><time>2026-03-28T10:12:33Z</time></trkpt><trkpt lat="44.62079321626171" lon="10.48808666533416"><ele>372.5</ele><time>2026-03-28T10:12:35Z</time></trkpt><trkpt lat="44.62081381363325" lon="10.487983048085065"><ele>372.66666666666663</ele><time>2026-03-28T10:12:36Z</time></trkpt><trkpt lat="44.62082121634939" lon="10.487872303077483"><ele>372.8333333333333</ele><time>2026-03-28T10:12:37Z</time></trkpt><trkpt lat="44.620821227161294" lon="10.487745113553263"><ele>373.0</ele><time>2026-03-28T10:12:38Z</time></trkpt><trkpt lat="44.62081640528909" lon="10.487633514624797"><ele>373.0</ele><time>2026-03-28T10:12:39Z</time></trkpt><trkpt lat="44.62081482371172" lon="10.487530066991953"><ele>373.0</ele><time>2026-03-28T10:12:40Z</time></trkpt><trkpt lat="44.62081942791892" lon="10.487433605251764"><ele>373.0</ele><time>2026-03-28T10:12:41Z</time></trkpt><trkpt lat="44.620815354583875" lon="10.487325619469576"><ele>373.0</ele><time>2026-03-28T10:12:42Z</time></trkpt><trkpt lat="44.620811198869184" lon="10.487213883321397"><ele>373.0</ele><time>2026-03-28T10:12:43Z</time></trkpt><trkpt lat="44.62081616428317" lon="10.487114382863014"><ele>373.0</ele><time>2026-03-28T10:12:44Z</time></trkpt><trkpt lat="44.62082420253532" lon="10.487008367943442"><ele>373.0</ele><time>2026-03-28T10:12:45Z</time></trkpt><trkpt lat="44.62084438320346" lon="10.486836220609929"><ele>372.5</ele><time>2026-03-28T10:12:47Z</time></trkpt><trkpt lat="44.62085439606057" lon="10.486742005904043"><ele>372.0</ele><time>2026-03-28T10:12:48Z</time></trkpt><trkpt lat="44.620873658089884" lon="10.486641655317301"><ele>371.5</ele><time>2026-03-28T10:12:49Z</time></trkpt><trkpt lat="44.62090643408956" lon="10.486527945493014"><ele>371.0</ele><time>2026-03-28T10:12:50Z</time></trkpt><trkpt lat="44.62092699200971" lon="10.486442671875453"><ele>370.5</ele><time>2026-03-28T10:12:51Z</time></trkpt><trkpt lat="44.620922318902224" lon="10.486343479159467"><ele>370.0</ele><time>2026-03-28T10:12:52Z</time></trkpt><trkpt lat="44.62091310916835" lon="10.48619218260856"><ele>369.0</ele><time>2026-03-28T10:12:54Z</time></trkpt><trkpt lat="44.62091606379963" lon="10.486025985982323"><ele>368.0</ele><time>2026-03-28T10:12:56Z</time></trkpt><trkpt lat="44.62095550741617" lon="10.485868221953035"><ele>367.0</ele><time>2026-03-28T10:12:58Z</time></trkpt><trkpt lat="44.620967909842925" lon="10.485704785745876"><ele>366.0</ele><time>2026-03-28T10:13:00Z</time></trkpt><trkpt lat="44.620946207666094" lon="10.48561191355606"><ele>365.0</ele><time>2026-03-28T10:13:01Z</time></trkpt><trkpt lat="44.62089500636812" lon="10.48553582235621"><ele>365.0</ele><time>2026-03-28T10:13:02Z</time></trkpt><trkpt lat="44.62085171037107" lon="10.485457617418824"><ele>365.0</ele><time>2026-03-28T10:13:03Z</time></trkpt><trkpt lat="44.62080717997523" lon="10.485363855339672"><ele>365.0</ele><time>2026-03-28T10:13:04Z</time></trkpt><trkpt lat="44.620770754048316" lon="10.485263201564191"><ele>365.0</ele><time>2026-03-28T10:13:05Z</time></trkpt><trkpt lat="44.62074686740503" lon="10.485180488192013"><ele>365.0</ele><time>2026-03-28T10:13:06Z</time></trkpt><trkpt lat="44.62070510327747" lon="10.485073662790716"><ele>365.0</ele><time>2026-03-28T10:13:07Z</time></trkpt><trkpt lat="44.62065351846739" lon="10.48497845342309"><ele>364.6</ele><time>2026-03-28T10:13:08Z</time></trkpt><trkpt lat="44.62059945034581" lon="10.484912378994784"><ele>364.2</ele><time>2026-03-28T10:13:09Z</time></trkpt><trkpt lat="44.62045217540168" lon="10.484790993617034"><ele>363.79999999999995</ele><time>2026-03-28T10:13:11Z</time></trkpt><trkpt lat="44.6203790242376" lon="10.484716032197927"><ele>363.4</ele><time>2026-03-28T10:13:12Z</time></trkpt><trkpt lat="44.620301618211705" lon="10.484646124049581"><ele>363.0</ele><time>2026-03-28T10:13:13Z</time></trkpt><trkpt lat="44.62023214954915" lon="10.484583531517345"><ele>363.8333333333333</ele><time>2026-03-28T10:13:14Z</time></trkpt><trkpt lat="44.62018330902421" lon="10.484511248494156"><ele>364.6666666666667</ele><time>2026-03-28T10:13:15Z</time></trkpt><trkpt lat="44.62014035571367" lon="10.484430903310006"><ele>365.5</ele><time>2026-03-28T10:13:16Z</time></trkpt><trkpt lat="44.620106309286406" lon="10.484335689489622"><ele>366.33333333333337</ele><time>2026-03-28T10:13:17Z</time></trkpt><trkpt lat="44.62009609570145" lon="10.484247505400917"><ele>367.1666666666667</ele><time>2026-03-28T10:13:18Z</time></trkpt><trkpt lat="44.62012410627863" lon="10.484079144763804"><ele>368.0</ele><time>2026-03-28T10:13:20Z</time></trkpt><trkpt lat="44.62016340311637" lon="10.483997193795696"><ele>368.0</ele><time>2026-03-28T10:13:21Z</time></trkpt><trkpt lat="44.62021500994797" lon="10.483891494229551"><ele>368.0</ele><time>2026-03-28T10:13:22Z</time></trkpt><trkpt lat="44.620275575437" lon="10.483768488428899"><ele>368.0</ele><time>2026-03-28T10:13:23Z</time></trkpt><trkpt lat="44.62032051759923" lon="10.483671201040352"><ele>368.0</ele><time>2026-03-28T10:13:24Z</time></trkpt><trkpt lat="44.620362425400224" lon="10.483554854917825"><ele>368.0</ele><time>2026-03-28T10:13:25Z</time></trkpt><trkpt lat="44.62038203976426" lon="10.483454394535809"><ele>368.0</ele><time>2026-03-28T10:13:26Z</time></trkpt><trkpt lat="44.62040128548675" lon="10.483321696128575"><ele>369.1666666666667</ele><time>2026-03-28T10:13:27Z</time></trkpt><trkpt lat="44.620425359311" lon="10.48319522259894"><ele>370.33333333333337</ele><time>2026-03-28T10:13:28Z</time></trkpt><trkpt lat="44.62044978697329" lon="10.483074268700076"><ele>371.5</ele><time>2026-03-28T10:13:28.999Z</time></trkpt><trkpt lat="44.62047615420714" lon="10.482960519062434"><ele>372.6666666666667</ele><time>2026-03-28T10:13:29.999Z</time></trkpt><trkpt lat="44.62050224974837" lon="10.482851964305636"><ele>373.8333333333333</ele><time>2026-03-28T10:13:30.999Z</time></trkpt><trkpt lat="44.62052870256278" lon="10.482744880500762"><ele>375.0</ele><time>2026-03-28T10:13:31.999Z</time></trkpt><trkpt lat="44.62055646344008" lon="10.482649676575154"><ele>375.8333333333333</ele><time>2026-03-28T10:13:32.999Z</time></trkpt><trkpt lat="44.620592770889516" lon="10.482545895719939"><ele>376.6666666666667</ele><time>2026-03-28T10:13:33.999Z</time></trkpt><trkpt lat="44.620627806644904" lon="10.482449112569551"><ele>377.5</ele><time>2026-03-28T10:13:34.999Z</time></trkpt><trkpt lat="44.62065804958243" lon="10.48234466802169"><ele>378.33333333333337</ele><time>2026-03-28T10:13:35.999Z</time></trkpt><trkpt lat="44.62067332698801" lon="10.482247462556934"><ele>379.1666666666667</ele><time>2026-03-28T10:13:36.999Z</time></trkpt><trkpt lat="44.62066696188325" lon="10.48213070393752"><ele>380.0</ele><time>2026-03-28T10:13:37.999Z</time></trkpt><trkpt lat="44.620653445920816" lon="10.482031506124589"><ele>380.0</ele><time>2026-03-28T10:13:38.999Z</time></trkpt><trkpt lat="44.6206405611842" lon="10.48191709430008"><ele>380.0</ele><time>2026-03-28T10:13:39.999Z</time></trkpt><trkpt lat="44.62062993225933" lon="10.48180806629428"><ele>380.0</ele><time>2026-03-28T10:13:40.999Z</time></trkpt><trkpt lat="44.62061539283212" lon="10.481706502609413"><ele>380.0</ele><time>2026-03-28T10:13:41.999Z</time></trkpt><trkpt lat="44.62060531071891" lon="10.48160619373803"><ele>380.0</ele><time>2026-03-28T10:13:42.999Z</time></trkpt><trkpt lat="44.620598296724616" lon="10.48151573251219"><ele>380.0</ele><time>2026-03-28T10:13:43.999Z</time></trkpt><trkpt lat="44.620591788225255" lon="10.481321423939216"><ele>378.5</ele><time>2026-03-28T10:13:45.999Z</time></trkpt><trkpt lat="44.62058527981744" lon="10.48120463247371"><ele>377.0</ele><time>2026-03-28T10:13:46.999Z</time></trkpt><trkpt lat="44.62056758602192" lon="10.481106965146004"><ele>375.5</ele><time>2026-03-28T10:13:47.999Z</time></trkpt><trkpt lat="44.62054500852925" lon="10.48100818807604"><ele>374.0</ele><time>2026-03-28T10:13:48.999Z</time></trkpt><trkpt lat="44.62052739356912" lon="10.480882815348913"><ele>372.5</ele><time>2026-03-28T10:13:49.999Z</time></trkpt><trkpt lat="44.62051208020973" lon="10.48077964749508"><ele>371.0</ele><time>2026-03-28T10:13:50.999Z</time></trkpt><trkpt lat="44.62049760350611" lon="10.480662408366651"><ele>371.0</ele><time>2026-03-28T10:13:51.999Z</time></trkpt><trkpt lat="44.6204935392065" lon="10.48054952606312"><ele>371.0</ele><time>2026-03-28T10:13:52.999Z</time></trkpt><trkpt lat="44.62048197929605" lon="10.480429746734188"><ele>371.0</ele><time>2026-03-28T10:13:53.999Z</time></trkpt><trkpt lat="44.62045569306418" lon="10.480325503686325"><ele>371.0</ele><time>2026-03-28T10:13:54.999Z</time></trkpt><trkpt lat="44.620448991458304" lon="10.480210558783062"><ele>371.0</ele><time>2026-03-28T10:13:55.999Z</time></trkpt><trkpt lat="44.62042688885295" lon="10.480093154390447"><ele>371.0</ele><time>2026-03-28T10:13:56.999Z</time></trkpt><trkpt lat="44.620406023913276" lon="10.480007522116486"><ele>370.6666666666667</ele><time>2026-03-28T10:13:57.999Z</time></trkpt><trkpt lat="44.620379536952235" lon="10.479844818102835"><ele>370.33333333333337</ele><time>2026-03-28T10:13:59.999Z</time></trkpt><trkpt lat="44.6203433912093" lon="10.479767083159043"><ele>370.0</ele><time>2026-03-28T10:14:00.999Z</time></trkpt><trkpt lat="44.62030817731708" lon="10.47968142821289"><ele>369.6666666666667</ele><time>2026-03-28T10:14:01.999Z</time></trkpt><trkpt lat="44.62026459041236" lon="10.479589897322407"><ele>369.3333333333333</ele><time>2026-03-28T10:14:02.999Z</time></trkpt><trkpt lat="44.62023027098931" lon="10.479514216167518"><ele>369.0</ele><time>2026-03-28T10:14:03.999Z</time></trkpt><trkpt lat="44.620168224968374" lon="10.479408552745989"><ele>368.6666666666667</ele><time>2026-03-28T10:14:05.999Z</time></trkpt><trkpt lat="44.62013406711812" lon="10.479331992226124"><ele>368.3333333333333</ele><time>2026-03-28T10:14:06.999Z</time></trkpt><trkpt lat="44.62010169278398" lon="10.479255488347286"><ele>368.0</ele><time>2026-03-28T10:14:07.999Z</time></trkpt><trkpt lat="44.62008696101984" lon="10.479159642289014"><ele>367.66666666666663</ele><time>2026-03-28T10:14:08.999Z</time></trkpt><trkpt lat="44.6200839091336" lon="10.479070480363221"><ele>367.3333333333333</ele><time>2026-03-28T10:14:09.999Z</time></trkpt><trkpt lat="44.61995853349379" lon="10.479007515366941"><ele>367.0</ele><time>2026-03-28T10:14:11Z</time></trkpt><trkpt lat="44.61994577630336" lon="10.478920456029583"><ele>366.0</ele><time>2026-03-28T10:14:12Z</time></trkpt><trkpt lat="44.61991050335618" lon="10.478759001609701"><ele>365.0</ele><time>2026-03-28T10:14:14Z</time></trkpt><trkpt lat="44.61988934782609" lon="10.478668406374819"><ele>364.0</ele><time>2026-03-28T10:14:15Z</time></trkpt><trkpt lat="44.6198687296568" lon="10.478580112517877"><ele>363.0</ele><time>2026-03-28T10:14:16Z</time></trkpt><trkpt lat="44.61985098738074" lon="10.478475169187165"><ele>362.0</ele><time>2026-03-28T10:14:17Z</time></trkpt><trkpt lat="44.61980059244829" lon="10.478354154865464"><ele>361.0</ele><time>2026-03-28T10:14:19Z</time></trkpt><trkpt lat="44.61977528488012" lon="10.478270528614232"><ele>361.0</ele><time>2026-03-28T10:14:23Z</time></trkpt><trkpt lat="44.61972368370412" lon="10.478123317228556"><ele>361.0</ele><time>2026-03-28T10:15:01Z</time></trkpt><trkpt lat="44.61968143668017" lon="10.478023313064671"><ele>361.0</ele><time>2026-03-28T10:15:02Z</time></trkpt><trkpt lat="44.61962941009028" lon="10.47789387499774"><ele>361.0</ele><time>2026-03-28T10:15:03Z</time></trkpt><trkpt lat="44.61958227078312" lon="10.477768010927866"><ele>361.0</ele><time>2026-03-28T10:15:04Z</time></trkpt><trkpt lat="44.61954612339777" lon="10.477628707218942"><ele>358.75</ele><time>2026-03-28T10:15:05Z</time></trkpt><trkpt lat="44.61951715268309" lon="10.477468236187201"><ele>356.5</ele><time>2026-03-28T10:15:06Z</time></trkpt><trkpt lat="44.61949234021556" lon="10.47729067543406"><ele>354.25</ele><time>2026-03-28T10:15:07Z</time></trkpt><trkpt lat="44.61947622682441" lon="10.477117196284302"><ele>352.0</ele><time>2026-03-28T10:15:08Z</time></trkpt><trkpt lat="44.61947026725383" lon="10.476938581798946"><ele>351.5</ele><time>2026-03-28T10:15:09Z</time></trkpt><trkpt lat="44.61947417628724" lon="10.47675386967476"><ele>351.0</ele><time>2026-03-28T10:15:10Z</time></trkpt><trkpt lat="44.619480076971996" lon="10.4765589653358"><ele>350.5</ele><time>2026-03-28T10:15:11Z</time></trkpt><trkpt lat="44.61948710369948" lon="10.47638632982461"><ele>350.0</ele><time>2026-03-28T10:15:12Z</time></trkpt><trkpt lat="44.61947512261472" lon="10.476214234843155"><ele>351.5</ele><time>2026-03-28T10:15:12.999Z</time></trkpt><trkpt lat="44.61947333765015" lon="10.476047817386307"><ele>353.0</ele><time>2026-03-28T10:15:13.999Z</time></trkpt><trkpt lat="44.61940850363242" lon="10.475922811817028"><ele>354.5</ele><time>2026-03-28T10:15:14.999Z</time></trkpt><trkpt lat="44.61932353765846" lon="10.475798558658218"><ele>356.0</ele><time>2026-03-28T10:15:15.999Z</time></trkpt><trkpt lat="44.61925370707428" lon="10.475655116640318"><ele>356.0</ele><time>2026-03-28T10:15:16.999Z</time></trkpt><trkpt lat="44.61917598375799" lon="10.475523958665526"><ele>356.0</ele><time>2026-03-28T10:15:17.999Z</time></trkpt><trkpt lat="44.61911374585127" lon="10.475413548737045"><ele>356.0</ele><time>2026-03-28T10:15:18.999Z</time></trkpt><trkpt lat="44.61905741524959" lon="10.475284771962597"><ele>356.0</ele><time>2026-03-28T10:15:19.999Z</time></trkpt><trkpt lat="44.619006393393256" lon="10.475150314711106"><ele>356.0</ele><time>2026-03-28T10:15:20.999Z</time></trkpt><trkpt lat="44.6190256074922" lon="10.474991313199805"><ele>356.25</ele><time>2026-03-28T10:15:21.999Z</time></trkpt><trkpt lat="44.61904366032518" lon="10.474820222752212"><ele>356.5</ele><time>2026-03-28T10:15:22.999Z</time></trkpt><trkpt lat="44.61906173336464" lon="10.474637601347274"><ele>356.75</ele><time>2026-03-28T10:15:23.999Z</time></trkpt><trkpt lat="44.619065513533684" lon="10.474437090918435"><ele>357.0</ele><time>2026-03-28T10:15:24.999Z</time></trkpt><trkpt lat="44.619083625275834" lon="10.474266885150463"><ele>356.25</ele><time>2026-03-28T10:15:25.999Z</time></trkpt><trkpt lat="44.61910562491127" lon="10.47408124172298"><ele>355.5</ele><time>2026-03-28T10:15:26.999Z</time></trkpt><trkpt lat="44.619131134333884" lon="10.473893139194706"><ele>354.75</ele><time>2026-03-28T10:15:27.999Z</time></trkpt><trkpt lat="44.619144251416806" lon="10.47371159871774"><ele>354.0</ele><time>2026-03-28T10:15:28.999Z</time></trkpt><trkpt lat="44.6191611749766" lon="10.473523079193962"><ele>354.0</ele><time>2026-03-28T10:15:29.999Z</time></trkpt><trkpt lat="44.61917570852526" lon="10.473346792866662"><ele>354.0</ele><time>2026-03-28T10:15:30.999Z</time></trkpt><trkpt lat="44.619191463896456" lon="10.473160076671554"><ele>354.0</ele><time>2026-03-28T10:15:31.999Z</time></trkpt><trkpt lat="44.61920720094967" lon="10.47298616190931"><ele>354.0</ele><time>2026-03-28T10:15:32.999Z</time></trkpt><trkpt lat="44.61922346978446" lon="10.47281155984918"><ele>354.6</ele><time>2026-03-28T10:15:33.999Z</time></trkpt><trkpt lat="44.619244373522264" lon="10.472649378446432"><ele>355.2</ele><time>2026-03-28T10:15:34.999Z</time></trkpt><trkpt lat="44.61926108114931" lon="10.472491323731619"><ele>355.8</ele><time>2026-03-28T10:15:35.999Z</time></trkpt><trkpt lat="44.619269289262235" lon="10.472345970402149"><ele>356.40000000000003</ele><time>2026-03-28T10:15:36.999Z</time></trkpt><trkpt lat="44.61928436851886" lon="10.472230847010742"><ele>357.0</ele><time>2026-03-28T10:15:37.999Z</time></trkpt><trkpt lat="44.61929843844339" lon="10.472130718920198"><ele>357.1666666666667</ele><time>2026-03-28T10:15:38.999Z</time></trkpt><trkpt lat="44.61932139859948" lon="10.472041931049393"><ele>357.3333333333333</ele><time>2026-03-28T10:15:39.999Z</time></trkpt><trkpt lat="44.61933814628195" lon="10.471904338576781"><ele>357.5</ele><time>2026-03-28T10:15:41.999Z</time></trkpt><trkpt lat="44.61935029818383" lon="10.471804504850878"><ele>357.66666666666663</ele><time>2026-03-28T10:15:42.999Z</time></trkpt><trkpt lat="44.619313767204396" lon="10.471666287241002"><ele>357.8333333333333</ele><time>2026-03-28T10:15:43.999Z</time></trkpt><trkpt lat="44.619305932222424" lon="10.471519058179712"><ele>358.0</ele><time>2026-03-28T10:15:44.999Z</time></trkpt><trkpt lat="44.61930063898383" lon="10.471350827123628"><ele>359.75</ele><time>2026-03-28T10:15:45.999Z</time></trkpt><trkpt lat="44.61930384309573" lon="10.471179108568947"><ele>361.5</ele><time>2026-03-28T10:15:46.999Z</time></trkpt><trkpt lat="44.61931517720755" lon="10.470995443457152"><ele>363.25</ele><time>2026-03-28T10:15:47.999Z</time></trkpt><trkpt lat="44.61935547906753" lon="10.470820863267223"><ele>365.0</ele><time>2026-03-28T10:15:48.999Z</time></trkpt><trkpt lat="44.6193893650552" lon="10.470639460883284"><ele>365.0</ele><time>2026-03-28T10:15:49.999Z</time></trkpt><trkpt lat="44.619445434585984" lon="10.470484124487813"><ele>365.0</ele><time>2026-03-28T10:15:50.999Z</time></trkpt><trkpt lat="44.61948121740683" lon="10.47032819456568"><ele>365.0</ele><time>2026-03-28T10:15:51.999Z</time></trkpt><trkpt lat="44.61950584666289" lon="10.470179562254197"><ele>365.0</ele><time>2026-03-28T10:15:52.999Z</time></trkpt><trkpt lat="44.61948903063445" lon="10.470058034957797"><ele>365.0</ele><time>2026-03-28T10:15:53.999Z</time></trkpt><trkpt lat="44.61945259055025" lon="10.469938593498666"><ele>365.5</ele><time>2026-03-28T10:15:54.999Z</time></trkpt><trkpt lat="44.619376850529754" lon="10.46982791378297"><ele>366.0</ele><time>2026-03-28T10:15:55.999Z</time></trkpt><trkpt lat="44.61928503889432" lon="10.469718406405075"><ele>366.5</ele><time>2026-03-28T10:15:56.999Z</time></trkpt><trkpt lat="44.61917795158635" lon="10.4696165878858"><ele>367.0</ele><time>2026-03-28T10:15:57.999Z</time></trkpt><trkpt lat="44.61906289700515" lon="10.469520695129518"><ele>367.0</ele><time>2026-03-28T10:15:58.999Z</time></trkpt><trkpt lat="44.61896264947129" lon="10.469405873651729"><ele>367.0</ele><time>2026-03-28T10:15:59.999Z</time></trkpt><trkpt lat="44.61887378738937" lon="10.469278660163006"><ele>367.0</ele><time>2026-03-28T10:16:00.999Z</time></trkpt><trkpt lat="44.61880862330342" lon="10.469132041048065"><ele>367.0</ele><time>2026-03-28T10:16:01.999Z</time></trkpt><trkpt lat="44.61874646215879" lon="10.468974618360159"><ele>367.0</ele><time>2026-03-28T10:16:02.999Z</time></trkpt><trkpt lat="44.61869047918369" lon="10.468814257046244"><ele>367.0</ele><time>2026-03-28T10:16:03.999Z</time></trkpt><trkpt lat="44.6186428422588" lon="10.468672752338358"><ele>367.0</ele><time>2026-03-28T10:16:04.999Z</time></trkpt><trkpt lat="44.61860672733558" lon="10.46855259014799"><ele>367.0</ele><time>2026-03-28T10:16:05.999Z</time></trkpt><trkpt lat="44.61858680382583" lon="10.468450804875179"><ele>367.0</ele><time>2026-03-28T10:16:06.999Z</time></trkpt><trkpt lat="44.618579471434735" lon="10.468324534925292"><ele>368.8</ele><time>2026-03-28T10:16:07.999Z</time></trkpt><trkpt lat="44.61857508574906" lon="10.468184248613417"><ele>370.6</ele><time>2026-03-28T10:16:08.999Z</time></trkpt><trkpt lat="44.61857338163603" lon="10.468047890985197"><ele>372.40000000000003</ele><time>2026-03-28T10:16:09.999Z</time></trkpt><trkpt lat="44.61857105009155" lon="10.467911426609474"><ele>374.20000000000005</ele><time>2026-03-28T10:16:10.999Z</time></trkpt><trkpt lat="44.618566386695704" lon="10.467773979087028"><ele>376.0</ele><time>2026-03-28T10:16:11.999Z</time></trkpt><trkpt lat="44.618556490389814" lon="10.467631523187043"><ele>376.0</ele><time>2026-03-28T10:16:12.999Z</time></trkpt><trkpt lat="44.61852476429924" lon="10.467491237418683"><ele>376.0</ele><time>2026-03-28T10:16:13.999Z</time></trkpt><trkpt lat="44.6184407402403" lon="10.467353920524324"><ele>376.0</ele><time>2026-03-28T10:16:14.999Z</time></trkpt><trkpt lat="44.61836323574994" lon="10.467206450378105"><ele>376.0</ele><time>2026-03-28T10:16:15.999Z</time></trkpt><trkpt lat="44.61828586585021" lon="10.467069070305497"><ele>374.6</ele><time>2026-03-28T10:16:17Z</time></trkpt><trkpt lat="44.61824174349441" lon="10.46691249939717"><ele>373.20000000000005</ele><time>2026-03-28T10:16:18Z</time></trkpt><trkpt lat="44.61819065439045" lon="10.466769419134199"><ele>371.79999999999995</ele><time>2026-03-28T10:16:19Z</time></trkpt><trkpt lat="44.61814044428327" lon="10.466629388145572"><ele>370.4</ele><time>2026-03-28T10:16:20Z</time></trkpt><trkpt lat="44.61809390484057" lon="10.46649959452541"><ele>369.0</ele><time>2026-03-28T10:16:21Z</time></trkpt><trkpt lat="44.61805080246719" lon="10.466383251527093"><ele>369.0</ele><time>2026-03-28T10:16:22Z</time></trkpt><trkpt lat="44.61801442645691" lon="10.466286788313676"><ele>369.0</ele><time>2026-03-28T10:16:23Z</time></trkpt><trkpt lat="44.617983865706776" lon="10.466205744724881"><ele>369.0</ele><time>2026-03-28T10:16:24Z</time></trkpt><trkpt lat="44.61788387739401" lon="10.46616843162931"><ele>369.0</ele><time>2026-03-28T10:16:25Z</time></trkpt><trkpt lat="44.617798762355385" lon="10.466086506880751"><ele>369.0</ele><time>2026-03-28T10:16:26Z</time></trkpt><trkpt lat="44.61771255567543" lon="10.466011118470638"><ele>369.0</ele><time>2026-03-28T10:16:27Z</time></trkpt><trkpt lat="44.61763014845678" lon="10.465927055289109"><ele>369.0</ele><time>2026-03-28T10:16:28Z</time></trkpt><trkpt lat="44.617549877659265" lon="10.465830335006322"><ele>369.0</ele><time>2026-03-28T10:16:29Z</time></trkpt><trkpt lat="44.617468714053615" lon="10.465724789871496"><ele>369.0</ele><time>2026-03-28T10:16:30Z</time></trkpt><trkpt lat="44.61738701050204" lon="10.465617748433882"><ele>369.0</ele><time>2026-03-28T10:16:31Z</time></trkpt><trkpt lat="44.617308574910425" lon="10.465515378496033"><ele>369.79999999999995</ele><time>2026-03-28T10:16:32Z</time></trkpt><trkpt lat="44.61722051584799" lon="10.46543291424846"><ele>370.59999999999997</ele><time>2026-03-28T10:16:33Z</time></trkpt><trkpt lat="44.61714450198044" lon="10.46533317148498"><ele>371.4</ele><time>2026-03-28T10:16:34Z</time></trkpt><trkpt lat="44.61703297113672" lon="10.465305318117816"><ele>372.2</ele><time>2026-03-28T10:16:35Z</time></trkpt><trkpt lat="44.61692532138464" lon="10.465313100555164"><ele>373.0</ele><time>2026-03-28T10:16:36Z</time></trkpt><trkpt lat="44.61682343394032" lon="10.465345473527822"><ele>371.2</ele><time>2026-03-28T10:16:37Z</time></trkpt><trkpt lat="44.616742737053194" lon="10.465426617917771"><ele>369.4</ele><time>2026-03-28T10:16:38Z</time></trkpt><trkpt lat="44.616680788213195" lon="10.465544823328278"><ele>367.59999999999997</ele><time>2026-03-28T10:16:39Z</time></trkpt><trkpt lat="44.61666040714881" lon="10.465697405984283"><ele>365.79999999999995</ele><time>2026-03-28T10:16:40Z</time></trkpt><trkpt lat="44.6166341001609" lon="10.46584924571928"><ele>364.0</ele><time>2026-03-28T10:16:41Z</time></trkpt><trkpt lat="44.616614980526094" lon="10.466006316557365"><ele>363.25</ele><time>2026-03-28T10:16:42Z</time></trkpt><trkpt lat="44.61659023841056" lon="10.46616899774879"><ele>362.5</ele><time>2026-03-28T10:16:43Z</time></trkpt><trkpt lat="44.616563751114" lon="10.466351622923902"><ele>361.75</ele><time>2026-03-28T10:16:44Z</time></trkpt><trkpt lat="44.61649478558775" lon="10.466509321010397"><ele>361.0</ele><time>2026-03-28T10:16:45Z</time></trkpt><trkpt lat="44.616426577695115" lon="10.466689092474729"><ele>360.75</ele><time>2026-03-28T10:16:46Z</time></trkpt><trkpt lat="44.61635870015548" lon="10.466861674084845"><ele>360.5</ele><time>2026-03-28T10:16:47Z</time></trkpt><trkpt lat="44.61628637545906" lon="10.467035270361645"><ele>360.25</ele><time>2026-03-28T10:16:48Z</time></trkpt><trkpt lat="44.61621229210245" lon="10.467209747400677"><ele>360.0</ele><time>2026-03-28T10:16:49Z</time></trkpt><trkpt lat="44.61614291870665" lon="10.467379089041806"><ele>361.0</ele><time>2026-03-28T10:16:50Z</time></trkpt><trkpt lat="44.61608525206103" lon="10.467547408738117"><ele>362.0</ele><time>2026-03-28T10:16:51Z</time></trkpt><trkpt lat="44.61602621815106" lon="10.467714893640446"><ele>363.0</ele><time>2026-03-28T10:16:52Z</time></trkpt><trkpt lat="44.615981146711526" lon="10.467883647925671"><ele>364.0</ele><time>2026-03-28T10:16:53Z</time></trkpt><trkpt lat="44.61595148302367" lon="10.468051045897768"><ele>364.0</ele><time>2026-03-28T10:16:54Z</time></trkpt><trkpt lat="44.615928600886114" lon="10.468220256540011"><ele>364.0</ele><time>2026-03-28T10:16:55Z</time></trkpt><trkpt lat="44.61590820361207" lon="10.468377996143621"><ele>364.0</ele><time>2026-03-28T10:16:56Z</time></trkpt><trkpt lat="44.6158699581026" lon="10.468539399461752"><ele>364.0</ele><time>2026-03-28T10:16:57Z</time></trkpt><trkpt lat="44.61580050585876" lon="10.468681344931856"><ele>362.4</ele><time>2026-03-28T10:16:58Z</time></trkpt><trkpt lat="44.6157413286618" lon="10.468799304338425"><ele>360.79999999999995</ele><time>2026-03-28T10:16:59Z</time></trkpt><trkpt lat="44.61566377765977" lon="10.468904215482748"><ele>359.20000000000005</ele><time>2026-03-28T10:17:00Z</time></trkpt><trkpt lat="44.61558575266922" lon="10.469011687033037"><ele>357.6</ele><time>2026-03-28T10:17:01Z</time></trkpt><trkpt lat="44.61547512940401" lon="10.469079247712415"><ele>356.0</ele><time>2026-03-28T10:17:02Z</time></trkpt><trkpt lat="44.61538222872963" lon="10.469179182041758"><ele>357.83333333333337</ele><time>2026-03-28T10:17:03Z</time></trkpt><trkpt lat="44.615291884940596" lon="10.469243125323494"><ele>359.6666666666667</ele><time>2026-03-28T10:17:04Z</time></trkpt><trkpt lat="44.61522076002365" lon="10.469308358543113"><ele>361.5</ele><time>2026-03-28T10:17:05Z</time></trkpt><trkpt lat="44.61513335175227" lon="10.469425241697195"><ele>363.3333333333333</ele><time>2026-03-28T10:17:07Z</time></trkpt><trkpt lat="44.61509951078728" lon="10.469499955600366"><ele>365.16666666666663</ele><time>2026-03-28T10:17:09Z</time></trkpt><trkpt lat="44.615034146658694" lon="10.4694789483777"><ele>367.0</ele><time>2026-03-28T10:17:10Z</time></trkpt><trkpt lat="44.61495558947339" lon="10.469483805278648"><ele>367.0</ele><time>2026-03-28T10:17:12Z</time></trkpt><trkpt lat="44.614892146582775" lon="10.469476239992769"><ele>367.0</ele><time>2026-03-28T10:17:13Z</time></trkpt><trkpt lat="44.61482287332622" lon="10.469470756143323"><ele>367.0</ele><time>2026-03-28T10:17:14Z</time></trkpt><trkpt lat="44.61474603529999" lon="10.469452877409362"><ele>367.0</ele><time>2026-03-28T10:17:15Z</time></trkpt><trkpt lat="44.61466641097856" lon="10.469423062486692"><ele>367.0</ele><time>2026-03-28T10:17:16Z</time></trkpt><trkpt lat="44.614590309450335" lon="10.46937639525518"><ele>367.0</ele><time>2026-03-28T10:17:17Z</time></trkpt><trkpt lat="44.61451395067007" lon="10.469326702277627"><ele>363.40000000000003</ele><time>2026-03-28T10:17:18Z</time></trkpt><trkpt lat="44.614442686478384" lon="10.469277628134599"><ele>359.8</ele><time>2026-03-28T10:17:19Z</time></trkpt><trkpt lat="44.6143598845972" lon="10.469244458462343"><ele>356.2</ele><time>2026-03-28T10:17:19.999Z</time></trkpt><trkpt lat="44.614281364087965" lon="10.469183945312714"><ele>352.6</ele><time>2026-03-28T10:17:20.999Z</time></trkpt><trkpt lat="44.6141884627686" lon="10.469121659158448"><ele>349.0</ele><time>2026-03-28T10:17:21.999Z</time></trkpt><trkpt lat="44.614093955278754" lon="10.46905860670257"><ele>349.0</ele><time>2026-03-28T10:17:22.999Z</time></trkpt><trkpt lat="44.61400605425893" lon="10.469032745105327"><ele>349.0</ele><time>2026-03-28T10:17:23.999Z</time></trkpt><trkpt lat="44.6139278009302" lon="10.469021130840787"><ele>349.0</ele><time>2026-03-28T10:17:24.999Z</time></trkpt><trkpt lat="44.6137648028157" lon="10.469068333384929"><ele>349.0</ele><time>2026-03-28T10:17:27.999Z</time></trkpt><trkpt lat="44.61369103851016" lon="10.469119807289749"><ele>349.0</ele><time>2026-03-28T10:17:29.999Z</time></trkpt><trkpt lat="44.61361230405352" lon="10.469078008742684"><ele>344.75</ele><time>2026-03-28T10:17:31.999Z</time></trkpt><trkpt lat="44.6136227599672" lon="10.469211767743687"><ele>340.5</ele><time>2026-03-28T10:17:32.999Z</time></trkpt><trkpt lat="44.613575650805906" lon="10.469308658117047"><ele>336.25</ele><time>2026-03-28T10:17:34.999Z</time></trkpt><trkpt lat="44.61349573928904" lon="10.469404044392391"><ele>332.0</ele><time>2026-03-28T10:17:36.999Z</time></trkpt><trkpt lat="44.61326320115589" lon="10.469199577018507"><ele>332.0</ele><time>2026-03-28T10:17:38.999Z</time></trkpt><trkpt lat="44.61319880628457" lon="10.469200223661986"><ele>332.0</ele><time>2026-03-28T10:17:39.999Z</time></trkpt><trkpt lat="44.613131145250286" lon="10.469212248129299"><ele>332.0</ele><time>2026-03-28T10:17:40.999Z</time></trkpt><trkpt lat="44.61306270205916" lon="10.469234867138113"><ele>332.0</ele><time>2026-03-28T10:17:41.999Z</time></trkpt><trkpt lat="44.612955794482104" lon="10.469304120745443"><ele>332.0</ele><time>2026-03-28T10:17:43.999Z</time></trkpt><trkpt lat="44.61284213475123" lon="10.469386604658757"><ele>332.0</ele><time>2026-03-28T10:17:45.999Z</time></trkpt><trkpt lat="44.61274789802453" lon="10.469490359311775"><ele>328.20000000000005</ele><time>2026-03-28T10:17:47.999Z</time></trkpt><trkpt lat="44.61269688212588" lon="10.469547401631585"><ele>324.40000000000003</ele><time>2026-03-28T10:17:48.999Z</time></trkpt><trkpt lat="44.61259562697181" lon="10.469613583028918"><ele>320.6</ele><time>2026-03-28T10:17:50.999Z</time></trkpt><trkpt lat="44.612499624610095" lon="10.469619052673554"><ele>316.8</ele><time>2026-03-28T10:17:52.999Z</time></trkpt><trkpt lat="44.6124057215223" lon="10.469573190620086"><ele>313.0</ele><time>2026-03-28T10:17:54.999Z</time></trkpt><trkpt lat="44.61231607145629" lon="10.46951051105532"><ele>313.0</ele><time>2026-03-28T10:17:56.999Z</time></trkpt><trkpt lat="44.61221266799394" lon="10.469426242987515"><ele>313.0</ele><time>2026-03-28T10:17:58.999Z</time></trkpt><trkpt lat="44.61216782597383" lon="10.469349662007044"><ele>313.0</ele><time>2026-03-28T10:18:00.999Z</time></trkpt><trkpt lat="44.61211726301352" lon="10.469290243790383"><ele>313.0</ele><time>2026-03-28T10:18:03.999Z</time></trkpt><trkpt lat="44.61206237446728" lon="10.469359127706639"><ele>313.0</ele><time>2026-03-28T10:18:07.999Z</time></trkpt><trkpt lat="44.612077769070524" lon="10.469481767090135"><ele>313.0</ele><time>2026-03-28T10:18:10.999Z</time></trkpt><trkpt lat="44.61213297196782" lon="10.469609768018715"><ele>310.8</ele><time>2026-03-28T10:18:12.999Z</time></trkpt><trkpt lat="44.61216433741994" lon="10.469747338667986"><ele>308.6</ele><time>2026-03-28T10:18:14.999Z</time></trkpt><trkpt lat="44.612184599382694" lon="10.46989691873405"><ele>306.4</ele><time>2026-03-28T10:18:16.999Z</time></trkpt><trkpt lat="44.612162812198115" lon="10.469980842893841"><ele>304.2</ele><time>2026-03-28T10:18:17.999Z</time></trkpt><trkpt lat="44.612199248021405" lon="10.470105978345659"><ele>302.0</ele><time>2026-03-28T10:18:19.999Z</time></trkpt><trkpt lat="44.61223332662125" lon="10.470238885260596"><ele>302.0</ele><time>2026-03-28T10:18:21.999Z</time></trkpt><trkpt lat="44.612238365650455" lon="10.470327746138427"><ele>302.0</ele><time>2026-03-28T10:18:23Z</time></trkpt><trkpt lat="44.61226189178346" lon="10.470414794399002"><ele>302.0</ele><time>2026-03-28T10:18:24Z</time></trkpt><trkpt lat="44.61227178895116" lon="10.470503794951988"><ele>302.0</ele><time>2026-03-28T10:18:25Z</time></trkpt><trkpt lat="44.61228591597551" lon="10.470657908679303"><ele>302.0</ele><time>2026-03-28T10:18:27Z</time></trkpt><trkpt lat="44.612290750664684" lon="10.47081489104712"><ele>302.0</ele><time>2026-03-28T10:18:29Z</time></trkpt><trkpt lat="44.61231546850967" lon="10.470958843422768"><ele>299.6666666666667</ele><time>2026-03-28T10:18:31Z</time></trkpt><trkpt lat="44.61233571525894" lon="10.471099310866656"><ele>297.33333333333337</ele><time>2026-03-28T10:18:33Z</time></trkpt><trkpt lat="44.612329415942305" lon="10.471202808674994"><ele>295.0</ele><time>2026-03-28T10:18:35Z</time></trkpt><trkpt lat="44.61228001518497" lon="10.471284745445347"><ele>292.6666666666667</ele><time>2026-03-28T10:18:38Z</time></trkpt><trkpt lat="44.61220193443887" lon="10.471325359791415"><ele>290.3333333333333</ele><time>2026-03-28T10:18:42Z</time></trkpt><trkpt lat="44.612132341394755" lon="10.47138157377875"><ele>288.0</ele><time>2026-03-28T10:18:44Z</time></trkpt><trkpt lat="44.61207118903445" lon="10.47143837622003"><ele>286.3333333333333</ele><time>2026-03-28T10:18:46Z</time></trkpt><trkpt lat="44.61201224712433" lon="10.471481825812429"><ele>284.6666666666667</ele><time>2026-03-28T10:18:48Z</time></trkpt><trkpt lat="44.611945826546545" lon="10.471518438107188"><ele>283.0</ele><time>2026-03-28T10:18:50Z</time></trkpt><trkpt lat="44.6118385957722" lon="10.471573909376135"><ele>281.33333333333337</ele><time>2026-03-28T10:18:52Z</time></trkpt><trkpt lat="44.611764166518135" lon="10.471609562435415"><ele>279.6666666666667</ele><time>2026-03-28T10:18:53Z</time></trkpt><trkpt lat="44.611657587450786" lon="10.471654434620095"><ele>278.0</ele><time>2026-03-28T10:18:55Z</time></trkpt><trkpt lat="44.61157586676148" lon="10.471674543784284"><ele>273.8</ele><time>2026-03-28T10:18:58Z</time></trkpt><trkpt lat="44.61147439716644" lon="10.471702047050215"><ele>269.6</ele><time>2026-03-28T10:19:00Z</time></trkpt><trkpt lat="44.61137635480107" lon="10.471715812634342"><ele>265.4</ele><time>2026-03-28T10:19:01Z</time></trkpt><trkpt lat="44.61128653517255" lon="10.471717792882906"><ele>261.2</ele><time>2026-03-28T10:19:02Z</time></trkpt><trkpt lat="44.61121938308324" lon="10.471715050346699"><ele>257.0</ele><time>2026-03-28T10:19:03Z</time></trkpt><trkpt lat="44.611123735077236" lon="10.47172201188713"><ele>255.2</ele><time>2026-03-28T10:19:05Z</time></trkpt><trkpt lat="44.611051017464376" lon="10.471738929663202"><ele>253.39999999999998</ele><time>2026-03-28T10:19:06Z</time></trkpt><trkpt lat="44.61097810898622" lon="10.47174930712392"><ele>251.60000000000002</ele><time>2026-03-28T10:19:07Z</time></trkpt><trkpt lat="44.610873362551054" lon="10.471748341697303"><ele>249.8</ele><time>2026-03-28T10:19:09Z</time></trkpt><trkpt lat="44.61077489633036" lon="10.471700041412396"><ele>248.0</ele><time>2026-03-28T10:19:11Z</time></trkpt><trkpt lat="44.610685664179236" lon="10.471590740548947"><ele>248.00000000000003</ele><time>2026-03-28T10:19:13Z</time></trkpt><trkpt lat="44.61062287022144" lon="10.471454826204779"><ele>248.0</ele><time>2026-03-28T10:19:15Z</time></trkpt><trkpt lat="44.61059816031888" lon="10.471369932806908"><ele>248.0</ele><time>2026-03-28T10:19:16Z</time></trkpt><trkpt lat="44.61057999242589" lon="10.471262230382006"><ele>248.0</ele><time>2026-03-28T10:19:17Z</time></trkpt><trkpt lat="44.610563080591625" lon="10.471159548303623"><ele>248.00000000000003</ele><time>2026-03-28T10:19:18Z</time></trkpt><trkpt lat="44.610536637406774" lon="10.471072621238244"><ele>248.0</ele><time>2026-03-28T10:19:19Z</time></trkpt><trkpt lat="44.61051716173221" lon="10.470973461150983"><ele>248.2</ele><time>2026-03-28T10:19:21Z</time></trkpt><trkpt lat="44.61047788890531" lon="10.470864005439553"><ele>248.4</ele><time>2026-03-28T10:19:25Z</time></trkpt><trkpt lat="44.6104638780055" lon="10.470760025205688"><ele>248.59999999999997</ele><time>2026-03-28T10:19:27Z</time></trkpt><trkpt lat="44.61043788935254" lon="10.470584964560391"><ele>248.79999999999998</ele><time>2026-03-28T10:19:29Z</time></trkpt><trkpt lat="44.610437099350946" lon="10.47049271086537"><ele>249.0</ele><time>2026-03-28T10:19:30Z</time></trkpt><trkpt lat="44.6104139743599" lon="10.470339822822872"><ele>249.39999999999998</ele><time>2026-03-28T10:19:32Z</time></trkpt><trkpt lat="44.610393826260065" lon="10.470142898929698"><ele>249.79999999999998</ele><time>2026-03-28T10:19:34Z</time></trkpt><trkpt lat="44.610390296363704" lon="10.470041429596279"><ele>250.20000000000002</ele><time>2026-03-28T10:19:35Z</time></trkpt><trkpt lat="44.61039663210276" lon="10.469952241519287"><ele>250.60000000000002</ele><time>2026-03-28T10:19:36Z</time></trkpt><trkpt lat="44.610382739357895" lon="10.469782516873153"><ele>251.0</ele><time>2026-03-28T10:19:38Z</time></trkpt><trkpt lat="44.610330775091015" lon="10.469650978371499"><ele>251.4</ele><time>2026-03-28T10:19:40Z</time></trkpt><trkpt lat="44.61022220752289" lon="10.469579582164295"><ele>251.8</ele><time>2026-03-28T10:19:42Z</time></trkpt><trkpt lat="44.61011866510885" lon="10.46965234501068"><ele>252.20000000000002</ele><time>2026-03-28T10:19:44Z</time></trkpt><trkpt lat="44.61006617633912" lon="10.469716792186805"><ele>252.60000000000002</ele><time>2026-03-28T10:19:45Z</time></trkpt><trkpt lat="44.609990871966815" lon="10.469794479137603"><ele>253.0</ele><time>2026-03-28T10:19:46.999Z</time></trkpt><trkpt lat="44.60987633904846" lon="10.469770694287659"><ele>253.33333333333331</ele><time>2026-03-28T10:19:48.999Z</time></trkpt><trkpt lat="44.60980987405483" lon="10.46976664890189"><ele>253.66666666666666</ele><time>2026-03-28T10:19:49.999Z</time></trkpt><trkpt lat="44.609731902531585" lon="10.469778465559473"><ele>254.0</ele><time>2026-03-28T10:19:50.999Z</time></trkpt><trkpt lat="44.60962031965539" lon="10.469724487248278"><ele>254.33333333333331</ele><time>2026-03-28T10:19:52.999Z</time></trkpt><trkpt lat="44.60955940925363" lon="10.469669886271552"><ele>254.66666666666666</ele><time>2026-03-28T10:19:53.999Z</time></trkpt><trkpt lat="44.60949210565265" lon="10.469613448918452"><ele>255.0</ele><time>2026-03-28T10:19:54.999Z</time></trkpt><trkpt lat="44.609413043797865" lon="10.46956282148338"><ele>256.6666666666667</ele><time>2026-03-28T10:19:55.999Z</time></trkpt><trkpt lat="44.6093309866618" lon="10.469493725438774"><ele>258.3333333333333</ele><time>2026-03-28T10:19:56.999Z</time></trkpt><trkpt lat="44.60926333250027" lon="10.469438040752644"><ele>260.0</ele><time>2026-03-28T10:19:57.999Z</time></trkpt><trkpt lat="44.60919566328194" lon="10.469384917287329"><ele>261.66666666666663</ele><time>2026-03-28T10:19:58.999Z</time></trkpt><trkpt lat="44.60912243402674" lon="10.469321351245389"><ele>263.3333333333333</ele><time>2026-03-28T10:19:59.999Z</time></trkpt><trkpt lat="44.609059038088226" lon="10.469273158796566"><ele>265.0</ele><time>2026-03-28T10:20:00.999Z</time></trkpt><trkpt lat="44.609006310677984" lon="10.469213453112083"><ele>265.0</ele><time>2026-03-28T10:20:02.999Z</time></trkpt><trkpt lat="44.60894768148569" lon="10.469136048110455"><ele>265.0</ele><time>2026-03-28T10:20:07.999Z</time></trkpt><trkpt lat="44.608868444763765" lon="10.469153897073184"><ele>265.0</ele><time>2026-03-28T10:20:10.999Z</time></trkpt><trkpt lat="44.60880442647135" lon="10.469222893558557"><ele>265.0</ele><time>2026-03-28T10:20:12.999Z</time></trkpt><trkpt lat="44.60875895633355" lon="10.469304864325903"><ele>265.0</ele><time>2026-03-28T10:20:14.999Z</time></trkpt><trkpt lat="44.608695372848764" lon="10.469395153486934"><ele>265.0</ele><time>2026-03-28T10:20:16.999Z</time></trkpt><trkpt lat="44.608620786264396" lon="10.469404319903623"><ele>265.3333333333333</ele><time>2026-03-28T10:20:19.999Z</time></trkpt><trkpt lat="44.60855182296788" lon="10.469408356129065"><ele>265.66666666666663</ele><time>2026-03-28T10:20:22.999Z</time></trkpt><trkpt lat="44.60839536461507" lon="10.469402376164156"><ele>266.0</ele><time>2026-03-28T10:22:40.999Z</time></trkpt><trkpt lat="44.60840344652707" lon="10.469306774517959"><ele>266.3333333333333</ele><time>2026-03-28T10:22:45Z</time></trkpt><trkpt lat="44.60843916306745" lon="10.469220036245988"><ele>266.6666666666667</ele><time>2026-03-28T10:23:23Z</time></trkpt><trkpt lat="44.608378075998445" lon="10.469183788736922"><ele>267.0</ele><time>2026-03-28T10:24:49Z</time></trkpt><trkpt lat="44.60832994643314" lon="10.469095664526199"><ele>267.0</ele><time>2026-03-28T10:24:51Z</time></trkpt><trkpt lat="44.60832085458084" lon="10.468967964298923"><ele>267.0</ele><time>2026-03-28T10:24:55Z</time></trkpt><trkpt lat="44.60816799963528" lon="10.468745061655767"><ele>267.0</ele><time>2026-03-28T10:25:04Z</time></trkpt><trkpt lat="44.60804547712643" lon="10.468732448541239"><ele>267.0</ele><time>2026-03-28T10:25:06Z</time></trkpt><trkpt lat="44.60794188151584" lon="10.468688769055383"><ele>268.4</ele><time>2026-03-28T10:25:08Z</time></trkpt><trkpt lat="44.60784306254831" lon="10.468600621261237"><ele>269.79999999999995</ele><time>2026-03-28T10:25:10Z</time></trkpt><trkpt lat="44.607787053650156" lon="10.468494327774728"><ele>271.2</ele><time>2026-03-28T10:25:12Z</time></trkpt><trkpt lat="44.60770891762049" lon="10.468393610478612"><ele>272.59999999999997</ele><time>2026-03-28T10:25:14Z</time></trkpt><trkpt lat="44.607654891812544" lon="10.468325948910866"><ele>274.0</ele><time>2026-03-28T10:25:17Z</time></trkpt><trkpt lat="44.60761293268306" lon="10.468237020421945"><ele>274.0</ele><time>2026-03-28T10:25:22Z</time></trkpt><trkpt lat="44.60754856599979" lon="10.468147003900377"><ele>274.0</ele><time>2026-03-28T10:25:24Z</time></trkpt><trkpt lat="44.607475836632894" lon="10.468077362048561"><ele>274.0</ele><time>2026-03-28T10:25:26Z</time></trkpt><trkpt lat="44.6074111679838" lon="10.467999357422947"><ele>274.0</ele><time>2026-03-28T10:25:28Z</time></trkpt><trkpt lat="44.60731401427793" lon="10.467887344562138"><ele>274.0</ele><time>2026-03-28T10:25:30Z</time></trkpt><trkpt lat="44.60722892532108" lon="10.467825736095653"><ele>275.16666666666663</ele><time>2026-03-28T10:25:31Z</time></trkpt><trkpt lat="44.60718304232076" lon="10.467761584568624"><ele>276.3333333333333</ele><time>2026-03-28T10:25:32Z</time></trkpt><trkpt lat="44.60712371514446" lon="10.467709427098512"><ele>277.5</ele><time>2026-03-28T10:25:33Z</time></trkpt><trkpt lat="44.60706199025066" lon="10.46766634945182"><ele>278.6666666666667</ele><time>2026-03-28T10:25:34Z</time></trkpt><trkpt lat="44.60699492491607" lon="10.467531763291943"><ele>279.83333333333337</ele><time>2026-03-28T10:25:36Z</time></trkpt><trkpt lat="44.60693062985034" lon="10.467403359594044"><ele>281.0</ele><time>2026-03-28T10:25:38Z</time></trkpt><trkpt lat="44.60690765016047" lon="10.467281792455866"><ele>281.0</ele><time>2026-03-28T10:25:40Z</time></trkpt><trkpt lat="44.60685990808499" lon="10.467155573430917"><ele>281.0</ele><time>2026-03-28T10:25:42Z</time></trkpt><trkpt lat="44.60683413954531" lon="10.467034808983483"><ele>281.0</ele><time>2026-03-28T10:25:44Z</time></trkpt><trkpt lat="44.606781874484376" lon="10.466971061479828"><ele>281.0</ele><time>2026-03-28T10:25:45Z</time></trkpt><trkpt lat="44.606726412479006" lon="10.466865111267516"><ele>281.0</ele><time>2026-03-28T10:25:47Z</time></trkpt><trkpt lat="44.60666638628114" lon="10.466769010071996"><ele>281.0</ele><time>2026-03-28T10:25:49Z</time></trkpt><trkpt lat="44.606596857933745" lon="10.466687928721164"><ele>283.5</ele><time>2026-03-28T10:25:52Z</time></trkpt><trkpt lat="44.606543499518686" lon="10.466611812624917"><ele>286.0</ele><time>2026-03-28T10:25:55Z</time></trkpt><trkpt lat="44.606491212732095" lon="10.466543630172264"><ele>288.5</ele><time>2026-03-28T10:25:57Z</time></trkpt><trkpt lat="44.606431090706195" lon="10.466442903055201"><ele>291.0</ele><time>2026-03-28T10:25:59Z</time></trkpt><trkpt lat="44.60639167382145" lon="10.466334980632983"><ele>293.5</ele><time>2026-03-28T10:26:01Z</time></trkpt><trkpt lat="44.6063125782413" lon="10.4662577809668"><ele>296.0</ele><time>2026-03-28T10:26:03Z</time></trkpt><trkpt lat="44.60620384645006" lon="10.466169940128468"><ele>297.40000000000003</ele><time>2026-03-28T10:26:05Z</time></trkpt><trkpt lat="44.606121226147756" lon="10.466121994487102"><ele>298.8</ele><time>2026-03-28T10:26:07Z</time></trkpt><trkpt lat="44.60602555834182" lon="10.466051739871236"><ele>300.20000000000005</ele><time>2026-03-28T10:26:09Z</time></trkpt><trkpt lat="44.605944589173035" lon="10.465952056152691"><ele>301.6</ele><time>2026-03-28T10:26:10.999Z</time></trkpt><trkpt lat="44.60588293915092" lon="10.465803436302858"><ele>303.0</ele><time>2026-03-28T10:26:12.999Z</time></trkpt><trkpt lat="44.605838009356304" lon="10.465731424500694"><ele>303.0</ele><time>2026-03-28T10:26:13.999Z</time></trkpt><trkpt lat="44.60578962323943" lon="10.465673310448729"><ele>303.0</ele><time>2026-03-28T10:26:14.999Z</time></trkpt><trkpt lat="44.60574182100419" lon="10.465541531494999"><ele>303.0</ele><time>2026-03-28T10:26:16.999Z</time></trkpt><trkpt lat="44.605669499210265" lon="10.465444701923216"><ele>303.0</ele><time>2026-03-28T10:26:18.999Z</time></trkpt><trkpt lat="44.6056153337677" lon="10.465345455598525"><ele>303.0</ele><time>2026-03-28T10:26:20.999Z</time></trkpt><trkpt lat="44.605589700811414" lon="10.46526439991416"><ele>303.0</ele><time>2026-03-28T10:26:22.999Z</time></trkpt><trkpt lat="44.60558727044396" lon="10.465146906921516"><ele>305.6666666666667</ele><time>2026-03-28T10:26:26.999Z</time></trkpt><trkpt lat="44.60561323748919" lon="10.46502915665488"><ele>308.3333333333333</ele><time>2026-03-28T10:26:28.999Z</time></trkpt><trkpt lat="44.60568495508956" lon="10.465047481338113"><ele>311.0</ele><time>2026-03-28T10:26:37.999Z</time></trkpt><trkpt lat="44.60575467546822" lon="10.465060899600562"><ele>313.66666666666663</ele><time>2026-03-28T10:26:39.999Z</time></trkpt><trkpt lat="44.6058327274319" lon="10.465034325664563"><ele>316.3333333333333</ele><time>2026-03-28T10:26:41.999Z</time></trkpt><trkpt lat="44.605929021172614" lon="10.464966202643257"><ele>319.0</ele><time>2026-03-28T10:26:43.999Z</time></trkpt><trkpt lat="44.60602060628119" lon="10.464902988805521"><ele>319.0</ele><time>2026-03-28T10:26:45.999Z</time></trkpt><trkpt lat="44.60609314676057" lon="10.464825815337619"><ele>319.0</ele><time>2026-03-28T10:26:48.999Z</time></trkpt><trkpt lat="44.60616441361759" lon="10.464807597360226"><ele>319.0</ele><time>2026-03-28T10:26:50.999Z</time></trkpt><trkpt lat="44.606237120914045" lon="10.464798934011037"><ele>319.0</ele><time>2026-03-28T10:26:57Z</time></trkpt><trkpt lat="44.606332190534935" lon="10.464840681405304"><ele>319.0</ele><time>2026-03-28T10:27:00Z</time></trkpt><trkpt lat="44.606416970805" lon="10.464889199050962"><ele>319.0</ele><time>2026-03-28T10:27:02Z</time></trkpt><trkpt lat="44.60649028275755" lon="10.464938016109974"><ele>322.66666666666663</ele><time>2026-03-28T10:27:04Z</time></trkpt><trkpt lat="44.60656441875251" lon="10.464941846411188"><ele>326.3333333333333</ele><time>2026-03-28T10:27:06Z</time></trkpt><trkpt lat="44.60663877986242" lon="10.464962077401752"><ele>330.0</ele><time>2026-03-28T10:27:07Z</time></trkpt><trkpt lat="44.60669838737249" lon="10.465007432039892"><ele>333.6666666666667</ele><time>2026-03-28T10:27:08Z</time></trkpt><trkpt lat="44.60677017821942" lon="10.465113134040324"><ele>337.33333333333337</ele><time>2026-03-28T10:27:10Z</time></trkpt><trkpt lat="44.60684414973006" lon="10.465175148507665"><ele>341.0</ele><time>2026-03-28T10:27:12Z</time></trkpt><trkpt lat="44.606919181736174" lon="10.465215307438024"><ele>341.0</ele><time>2026-03-28T10:27:14Z</time></trkpt><trkpt lat="44.6069931447675" lon="10.465259438164939"><ele>341.0</ele><time>2026-03-28T10:27:16Z</time></trkpt><trkpt lat="44.60705379813147" lon="10.465298373217104"><ele>341.0</ele><time>2026-03-28T10:27:18Z</time></trkpt><trkpt lat="44.60713615922869" lon="10.465333964928492"><ele>341.0</ele><time>2026-03-28T10:27:20Z</time></trkpt><trkpt lat="44.60720028108122" lon="10.465323661481074"><ele>341.0</ele><time>2026-03-28T10:27:21Z</time></trkpt><trkpt lat="44.60729460789197" lon="10.465387582029628"><ele>341.0</ele><time>2026-03-28T10:27:23Z</time></trkpt><trkpt lat="44.60737686783783" lon="10.465475820342833"><ele>340.5</ele><time>2026-03-28T10:27:25Z</time></trkpt><trkpt lat="44.60743838840602" lon="10.465587861837859"><ele>340.0</ele><time>2026-03-28T10:27:27Z</time></trkpt><trkpt lat="44.607505685556234" lon="10.465709598285983"><ele>339.5</ele><time>2026-03-28T10:27:29Z</time></trkpt><trkpt lat="44.60756978882944" lon="10.46576684591001"><ele>339.0</ele><time>2026-03-28T10:27:31Z</time></trkpt><trkpt lat="44.60760965758518" lon="10.465839441436534"><ele>338.5</ele><time>2026-03-28T10:27:33Z</time></trkpt><trkpt lat="44.607660738089166" lon="10.465955784682754"><ele>338.0</ele><time>2026-03-28T10:27:35Z</time></trkpt><trkpt lat="44.60771435594807" lon="10.466047763656412"><ele>338.0</ele><time>2026-03-28T10:27:37Z</time></trkpt><trkpt lat="44.60780819086946" lon="10.466084900977815"><ele>338.0</ele><time>2026-03-28T10:27:40Z</time></trkpt><trkpt lat="44.60789882237013" lon="10.466043375922732"><ele>338.0</ele><time>2026-03-28T10:27:43Z</time></trkpt><trkpt lat="44.60795476131275" lon="10.465976504263391"><ele>338.0</ele><time>2026-03-28T10:27:46Z</time></trkpt><trkpt lat="44.60795546211504" lon="10.465884205943665"><ele>338.0</ele><time>2026-03-28T10:27:48Z</time></trkpt><trkpt lat="44.60790572177938" lon="10.465808316282248"><ele>338.0</ele><time>2026-03-28T10:27:50Z</time></trkpt><trkpt lat="44.60791360893083" lon="10.465657475960484"><ele>337.5</ele><time>2026-03-28T10:27:52Z</time></trkpt><trkpt lat="44.60788294326449" lon="10.465535822315653"><ele>337.0</ele><time>2026-03-28T10:27:54Z</time></trkpt><trkpt lat="44.60785441573764" lon="10.46542548827678"><ele>336.5</ele><time>2026-03-28T10:27:56Z</time></trkpt><trkpt lat="44.60781692860189" lon="10.465337677531478"><ele>336.0</ele><time>2026-03-28T10:27:58Z</time></trkpt><trkpt lat="44.60778741125449" lon="10.46525581049558"><ele>335.5</ele><time>2026-03-28T10:28:00Z</time></trkpt><trkpt lat="44.60776354635155" lon="10.465105542262808"><ele>335.0</ele><time>2026-03-28T10:28:01.999Z</time></trkpt><trkpt lat="44.607704129932415" lon="10.46501158326558"><ele>338.1666666666667</ele><time>2026-03-28T10:28:03.999Z</time></trkpt><trkpt lat="44.60765303900344" lon="10.464926369878704"><ele>341.33333333333337</ele><time>2026-03-28T10:28:05.999Z</time></trkpt><trkpt lat="44.60760716578037" lon="10.46486165292184"><ele>344.5</ele><time>2026-03-28T10:28:07.999Z</time></trkpt><trkpt lat="44.60753787600721" lon="10.464798767210773"><ele>347.6666666666667</ele><time>2026-03-28T10:28:17.999Z</time></trkpt><trkpt lat="44.607481094251796" lon="10.464727235995896"><ele>350.8333333333333</ele><time>2026-03-28T10:28:19.999Z</time></trkpt><trkpt lat="44.607407594452674" lon="10.464670271821815"><ele>354.0</ele><time>2026-03-28T10:28:21.999Z</time></trkpt><trkpt lat="44.607329929311334" lon="10.464638127071883"><ele>354.0</ele><time>2026-03-28T10:28:23.999Z</time></trkpt><trkpt lat="44.60722681808675" lon="10.464615535885192"><ele>354.0</ele><time>2026-03-28T10:28:25.999Z</time></trkpt><trkpt lat="44.60715245821903" lon="10.46465744939036"><ele>354.0</ele><time>2026-03-28T10:28:27.999Z</time></trkpt><trkpt lat="44.60708237882809" lon="10.464623595634672"><ele>354.0</ele><time>2026-03-28T10:28:29.999Z</time></trkpt><trkpt lat="44.60703007728471" lon="10.46454822063464"><ele>354.0</ele><time>2026-03-28T10:28:31.999Z</time></trkpt><trkpt lat="44.606979842041085" lon="10.464424540723979"><ele>354.0</ele><time>2026-03-28T10:28:33.999Z</time></trkpt><trkpt lat="44.60689939021676" lon="10.464299914879318"><ele>356.0</ele><time>2026-03-28T10:28:35.999Z</time></trkpt><trkpt lat="44.60686586055359" lon="10.46422292610106"><ele>358.0</ele><time>2026-03-28T10:28:37.999Z</time></trkpt><trkpt lat="44.60683620380865" lon="10.46413606743763"><ele>360.0</ele><time>2026-03-28T10:28:45.999Z</time></trkpt><trkpt lat="44.60681732931261" lon="10.464040375498534"><ele>362.0</ele><time>2026-03-28T10:28:50.999Z</time></trkpt><trkpt lat="44.60678172812834" lon="10.463914682298155"><ele>364.0</ele><time>2026-03-28T10:28:52.999Z</time></trkpt><trkpt lat="44.60673555981333" lon="10.463789710345262"><ele>366.0</ele><time>2026-03-28T10:28:54.999Z</time></trkpt><trkpt lat="44.60668665175113" lon="10.463684159338024"><ele>368.8333333333333</ele><time>2026-03-28T10:28:56.999Z</time></trkpt><trkpt lat="44.60665817628631" lon="10.463586020050101"><ele>371.6666666666667</ele><time>2026-03-28T10:28:58.999Z</time></trkpt><trkpt lat="44.606647942884685" lon="10.46348947772272"><ele>374.5</ele><time>2026-03-28T10:29:00Z</time></trkpt><trkpt lat="44.60663066242306" lon="10.463352604552599"><ele>377.33333333333337</ele><time>2026-03-28T10:29:03Z</time></trkpt><trkpt lat="44.606582380658686" lon="10.463271261457031"><ele>380.1666666666667</ele><time>2026-03-28T10:29:04Z</time></trkpt><trkpt lat="44.60655614102269" lon="10.463187260219769"><ele>383.0</ele><time>2026-03-28T10:29:05Z</time></trkpt><trkpt lat="44.6065163818761" lon="10.463077878571978"><ele>383.0</ele><time>2026-03-28T10:29:07Z</time></trkpt><trkpt lat="44.6064823330827" lon="10.4629476790458"><ele>383.0</ele><time>2026-03-28T10:29:09Z</time></trkpt><trkpt lat="44.6064217731505" lon="10.462847115821795"><ele>383.0</ele><time>2026-03-28T10:29:11Z</time></trkpt><trkpt lat="44.60636808743231" lon="10.462785012012246"><ele>383.0</ele><time>2026-03-28T10:29:12Z</time></trkpt><trkpt lat="44.606309061859356" lon="10.462714665024295"><ele>383.0</ele><time>2026-03-28T10:29:13Z</time></trkpt><trkpt lat="44.606260974567725" lon="10.462629425877195"><ele>383.0</ele><time>2026-03-28T10:29:14Z</time></trkpt><trkpt lat="44.60622796302572" lon="10.4625465188354"><ele>383.0</ele><time>2026-03-28T10:29:15Z</time></trkpt><trkpt lat="44.60615901442187" lon="10.46241174150497"><ele>383.0</ele><time>2026-03-28T10:29:17Z</time></trkpt><trkpt lat="44.60611037594279" lon="10.462354808862235"><ele>383.0</ele><time>2026-03-28T10:29:18Z</time></trkpt><trkpt lat="44.606005378975766" lon="10.462237952189229"><ele>383.0</ele><time>2026-03-28T10:29:20Z</time></trkpt><trkpt lat="44.605948992049505" lon="10.462090837953992"><ele>383.0</ele><time>2026-03-28T10:29:22Z</time></trkpt><trkpt lat="44.60587555255832" lon="10.461967474689844"><ele>385.79999999999995</ele><time>2026-03-28T10:29:24Z</time></trkpt><trkpt lat="44.605764867958214" lon="10.461915966587481"><ele>388.6</ele><time>2026-03-28T10:29:26Z</time></trkpt><trkpt lat="44.605703404301444" lon="10.461870604816164"><ele>391.4</ele><time>2026-03-28T10:29:27Z</time></trkpt><trkpt lat="44.60563986252431" lon="10.461828381941315"><ele>394.20000000000005</ele><time>2026-03-28T10:29:28Z</time></trkpt><trkpt lat="44.60555304064472" lon="10.461672420459466"><ele>397.0</ele><time>2026-03-28T10:29:30Z</time></trkpt><trkpt lat="44.605496631782394" lon="10.461596392157665"><ele>397.00000000000006</ele><time>2026-03-28T10:29:31Z</time></trkpt><trkpt lat="44.605459279998755" lon="10.461493099201952"><ele>397.0</ele><time>2026-03-28T10:29:32Z</time></trkpt><trkpt lat="44.60541510230071" lon="10.461401890034377"><ele>397.0</ele><time>2026-03-28T10:29:33Z</time></trkpt><trkpt lat="44.605379914314916" lon="10.461323661118271"><ele>397.0</ele><time>2026-03-28T10:29:34Z</time></trkpt><trkpt lat="44.60534135964493" lon="10.461246429631142"><ele>397.00000000000006</ele><time>2026-03-28T10:29:35Z</time></trkpt><trkpt lat="44.60531147450835" lon="10.461111993579399"><ele>397.0</ele><time>2026-03-28T10:29:37Z</time></trkpt><trkpt lat="44.605286225338375" lon="10.461020794024265"><ele>396.8</ele><time>2026-03-28T10:29:39Z</time></trkpt><trkpt lat="44.60525033091142" lon="10.460904687232487"><ele>396.6</ele><time>2026-03-28T10:29:41Z</time></trkpt><trkpt lat="44.6052223257106" lon="10.46082224042675"><ele>396.40000000000003</ele><time>2026-03-28T10:29:42Z</time></trkpt><trkpt lat="44.60514033766073" lon="10.460735589175577"><ele>396.20000000000005</ele><time>2026-03-28T10:29:44Z</time></trkpt><trkpt lat="44.605040122593515" lon="10.460709874625113"><ele>396.0</ele><time>2026-03-28T10:29:46Z</time></trkpt><trkpt lat="44.604913494501574" lon="10.460748028817191"><ele>396.0</ele><time>2026-03-28T10:29:48Z</time></trkpt><trkpt lat="44.60482159774412" lon="10.460763749190695"><ele>396.0</ele><time>2026-03-28T10:29:49Z</time></trkpt><trkpt lat="44.604721556988245" lon="10.460767675510954"><ele>396.0</ele><time>2026-03-28T10:29:50Z</time></trkpt><trkpt lat="44.604620653094756" lon="10.460778244922231"><ele>396.0</ele><time>2026-03-28T10:29:51Z</time></trkpt><trkpt lat="44.60451906750314" lon="10.460795378924061"><ele>396.0</ele><time>2026-03-28T10:29:52Z</time></trkpt><trkpt lat="44.60443067915739" lon="10.460830370979325"><ele>396.3333333333333</ele><time>2026-03-28T10:29:53Z</time></trkpt><trkpt lat="44.60434498242507" lon="10.460847561358582"><ele>396.66666666666663</ele><time>2026-03-28T10:29:54Z</time></trkpt><trkpt lat="44.60426709415708" lon="10.460850938108344"><ele>397.0</ele><time>2026-03-28T10:29:55Z</time></trkpt><trkpt lat="44.604176182764725" lon="10.460845815521967"><ele>397.3333333333333</ele><time>2026-03-28T10:29:56Z</time></trkpt><trkpt lat="44.6040732362082" lon="10.460829028315736"><ele>397.66666666666663</ele><time>2026-03-28T10:29:57Z</time></trkpt><trkpt lat="44.60399699413769" lon="10.460801826500301"><ele>398.0</ele><time>2026-03-28T10:29:57.999Z</time></trkpt><trkpt lat="44.603914384429935" lon="10.460779021081553"><ele>397.99999999999994</ele><time>2026-03-28T10:29:58.999Z</time></trkpt><trkpt lat="44.603817894356865" lon="10.460744979236079"><ele>398.0</ele><time>2026-03-28T10:29:59.999Z</time></trkpt><trkpt lat="44.60373803199157" lon="10.460724663510952"><ele>398.0</ele><time>2026-03-28T10:30:00.999Z</time></trkpt><trkpt lat="44.60366483560662" lon="10.460696926430797"><ele>398.0</ele><time>2026-03-28T10:30:01.999Z</time></trkpt><trkpt lat="44.603602488109075" lon="10.460673058093962"><ele>397.99999999999994</ele><time>2026-03-28T10:30:02.999Z</time></trkpt><trkpt lat="44.60353606602863" lon="10.460616139634432"><ele>398.0</ele><time>2026-03-28T10:30:04.999Z</time></trkpt><trkpt lat="44.60347628723067" lon="10.460671101375153"><ele>398.3333333333333</ele><time>2026-03-28T10:31:09Z</time></trkpt><trkpt lat="44.60348731472502" lon="10.460772126060586"><ele>398.66666666666663</ele><time>2026-03-28T10:31:12Z</time></trkpt><trkpt lat="44.6035266272142" lon="10.460702402913268"><ele>399.0</ele><time>2026-03-28T10:31:56Z</time></trkpt><trkpt lat="44.603509485031594" lon="10.460606033972294"><ele>399.33333333333337</ele><time>2026-03-28T10:33:28.999Z</time></trkpt><trkpt lat="44.60343602852112" lon="10.460520843847501"><ele>399.6666666666667</ele><time>2026-03-28T10:33:30.999Z</time></trkpt><trkpt lat="44.60333945992491" lon="10.46042640471272"><ele>400.0</ele><time>2026-03-28T10:33:32.999Z</time></trkpt><trkpt lat="44.60322565977827" lon="10.4603547317104"><ele>400.33333333333337</ele><time>2026-03-28T10:33:34.999Z</time></trkpt><trkpt lat="44.60315929591054" lon="10.46032559622214"><ele>400.6666666666667</ele><time>2026-03-28T10:33:35.999Z</time></trkpt><trkpt lat="44.60308764371371" lon="10.460294907801753"><ele>401.0</ele><time>2026-03-28T10:33:36.999Z</time></trkpt><trkpt lat="44.60297980782544" lon="10.460194608014687"><ele>401.33333333333337</ele><time>2026-03-28T10:33:38.999Z</time></trkpt><trkpt lat="44.602931956385866" lon="10.460131297635625"><ele>401.6666666666667</ele><time>2026-03-28T10:33:39.999Z</time></trkpt><trkpt lat="44.60287058695561" lon="10.460078653058542"><ele>402.0</ele><time>2026-03-28T10:33:40.999Z</time></trkpt><trkpt lat="44.602809031109146" lon="10.460046784955082"><ele>400.20000000000005</ele><time>2026-03-28T10:33:41.999Z</time></trkpt><trkpt lat="44.60273260708563" lon="10.459999517353788"><ele>398.4</ele><time>2026-03-28T10:33:43.999Z</time></trkpt><trkpt lat="44.60267573302709" lon="10.459940486993796"><ele>396.6</ele><time>2026-03-28T10:33:44.999Z</time></trkpt><trkpt lat="44.602581388231904" lon="10.459852732652255"><ele>394.79999999999995</ele><time>2026-03-28T10:33:46.999Z</time></trkpt><trkpt lat="44.60253485626025" lon="10.4597922666001"><ele>393.0</ele><time>2026-03-28T10:33:47.999Z</time></trkpt><trkpt lat="44.602443740618625" lon="10.459645168798593"><ele>393.3333333333333</ele><time>2026-03-28T10:33:49.999Z</time></trkpt><trkpt lat="44.60239836373211" lon="10.459581745046236"><ele>393.66666666666663</ele><time>2026-03-28T10:33:50.999Z</time></trkpt><trkpt lat="44.60234914051291" lon="10.459517962281227"><ele>394.0</ele><time>2026-03-28T10:33:51.999Z</time></trkpt><trkpt lat="44.60223320841123" lon="10.459429853698968"><ele>394.3333333333333</ele><time>2026-03-28T10:33:53.999Z</time></trkpt><trkpt lat="44.60218237967883" lon="10.459367487661824"><ele>394.66666666666663</ele><time>2026-03-28T10:33:54.999Z</time></trkpt><trkpt lat="44.6021231104214" lon="10.459293926680132"><ele>395.0</ele><time>2026-03-28T10:33:55.999Z</time></trkpt><trkpt lat="44.60206081133327" lon="10.45923425239419"><ele>395.99999999999994</ele><time>2026-03-28T10:33:56.999Z</time></trkpt><trkpt lat="44.6019975016891" lon="10.459181950249095"><ele>397.0</ele><time>2026-03-28T10:33:57.999Z</time></trkpt><trkpt lat="44.601919818465845" lon="10.459153786743775"><ele>398.0</ele><time>2026-03-28T10:33:58.999Z</time></trkpt><trkpt lat="44.60183615923868" lon="10.459139489350234"><ele>399.0</ele><time>2026-03-28T10:33:59.999Z</time></trkpt><trkpt lat="44.601757859872485" lon="10.459123036312075"><ele>399.99999999999994</ele><time>2026-03-28T10:34:00.999Z</time></trkpt><trkpt lat="44.60166913984939" lon="10.459103601286175"><ele>401.0</ele><time>2026-03-28T10:34:01.999Z</time></trkpt><trkpt lat="44.601586835215436" lon="10.459099756588436"><ele>400.99999999999994</ele><time>2026-03-28T10:34:02.999Z</time></trkpt><trkpt lat="44.60151401701345" lon="10.459111693515895"><ele>401.0</ele><time>2026-03-28T10:34:03.999Z</time></trkpt><trkpt lat="44.60143832305738" lon="10.459127000875734"><ele>401.0</ele><time>2026-03-28T10:34:04.999Z</time></trkpt><trkpt lat="44.60135247005711" lon="10.459136052473305"><ele>401.0</ele><time>2026-03-28T10:34:05.999Z</time></trkpt><trkpt lat="44.60125696101422" lon="10.459113487583545"><ele>400.99999999999994</ele><time>2026-03-28T10:34:06.999Z</time></trkpt><trkpt lat="44.601178826215595" lon="10.459076025419487"><ele>401.0</ele><time>2026-03-28T10:34:07.999Z</time></trkpt><trkpt lat="44.60110495120963" lon="10.45902890554614"><ele>403.0</ele><time>2026-03-28T10:34:08.999Z</time></trkpt><trkpt lat="44.601022263329426" lon="10.458984121898034"><ele>405.0</ele><time>2026-03-28T10:34:09.999Z</time></trkpt><trkpt lat="44.600926219053584" lon="10.458951793811496"><ele>407.0</ele><time>2026-03-28T10:34:10.999Z</time></trkpt><trkpt lat="44.60082529022075" lon="10.458926040448997"><ele>409.0</ele><time>2026-03-28T10:34:11.999Z</time></trkpt><trkpt lat="44.600738313990234" lon="10.458898722616961"><ele>411.0</ele><time>2026-03-28T10:34:12.999Z</time></trkpt><trkpt lat="44.600639418783814" lon="10.458878416828409"><ele>411.0</ele><time>2026-03-28T10:34:13.999Z</time></trkpt><trkpt lat="44.60053974401387" lon="10.458876216099195"><ele>411.0</ele><time>2026-03-28T10:34:14.999Z</time></trkpt><trkpt lat="44.600431818233616" lon="10.45887837430567"><ele>411.0</ele><time>2026-03-28T10:34:15.999Z</time></trkpt><trkpt lat="44.60033179352049" lon="10.458886720341397"><ele>411.0</ele><time>2026-03-28T10:34:16.999Z</time></trkpt><trkpt lat="44.600222143382084" lon="10.458897605322417"><ele>411.0</ele><time>2026-03-28T10:34:17.999Z</time></trkpt><trkpt lat="44.60011215671828" lon="10.458905034284458"><ele>413.1666666666667</ele><time>2026-03-28T10:34:18.999Z</time></trkpt><trkpt lat="44.6000265867024" lon="10.45892797712261"><ele>415.33333333333337</ele><time>2026-03-28T10:34:19.999Z</time></trkpt><trkpt lat="44.59993966259881" lon="10.458947409280851"><ele>417.5</ele><time>2026-03-28T10:34:20.999Z</time></trkpt><trkpt lat="44.59985387601799" lon="10.458938662279948"><ele>419.6666666666667</ele><time>2026-03-28T10:34:21.999Z</time></trkpt><trkpt lat="44.59976140932352" lon="10.458929701258299"><ele>421.83333333333337</ele><time>2026-03-28T10:34:22.999Z</time></trkpt><trkpt lat="44.59969139339905" lon="10.45890619556679"><ele>424.0</ele><time>2026-03-28T10:34:23.999Z</time></trkpt><trkpt lat="44.59960801865666" lon="10.458859042376075"><ele>424.79999999999995</ele><time>2026-03-28T10:34:24.999Z</time></trkpt><trkpt lat="44.59951418833866" lon="10.458779137199631"><ele>425.59999999999997</ele><time>2026-03-28T10:34:25.999Z</time></trkpt><trkpt lat="44.599471823285825" lon="10.458576604005856"><ele>426.4</ele><time>2026-03-28T10:34:26.999Z</time></trkpt><trkpt lat="44.59939666355624" lon="10.458529971507124"><ele>427.2</ele><time>2026-03-28T10:34:27.999Z</time></trkpt><trkpt lat="44.59932653603353" lon="10.458454148335532"><ele>428.0</ele><time>2026-03-28T10:34:28.999Z</time></trkpt><trkpt lat="44.59923986204313" lon="10.458361275090814"><ele>430.59999999999997</ele><time>2026-03-28T10:34:29.999Z</time></trkpt><trkpt lat="44.59915759628346" lon="10.458286947800259"><ele>433.19999999999993</ele><time>2026-03-28T10:34:30.999Z</time></trkpt><trkpt lat="44.59907015817909" lon="10.458217834938454"><ele>435.8</ele><time>2026-03-28T10:34:31.999Z</time></trkpt><trkpt lat="44.59897479729493" lon="10.458160125383941"><ele>438.4</ele><time>2026-03-28T10:34:32.999Z</time></trkpt><trkpt lat="44.59887944215567" lon="10.4581112957166"><ele>441.0</ele><time>2026-03-28T10:34:33.999Z</time></trkpt><trkpt lat="44.598783802998504" lon="10.458073203087604"><ele>441.0</ele><time>2026-03-28T10:34:34.999Z</time></trkpt><trkpt lat="44.598708708480494" lon="10.458007266825165"><ele>441.0</ele><time>2026-03-28T10:34:35.999Z</time></trkpt><trkpt lat="44.598628790312034" lon="10.457945971462467"><ele>441.0</ele><time>2026-03-28T10:34:36.999Z</time></trkpt><trkpt lat="44.598542376755994" lon="10.457906670533186"><ele>441.0</ele><time>2026-03-28T10:34:37.999Z</time></trkpt><trkpt lat="44.59845982656428" lon="10.457836896408544"><ele>441.0</ele><time>2026-03-28T10:34:38.999Z</time></trkpt><trkpt lat="44.59836384254416" lon="10.45781063088631"><ele>442.20000000000005</ele><time>2026-03-28T10:34:39.999Z</time></trkpt><trkpt lat="44.59827801265412" lon="10.457758291925687"><ele>443.40000000000003</ele><time>2026-03-28T10:34:40.999Z</time></trkpt><trkpt lat="44.59819819522589" lon="10.457694831468887"><ele>444.6</ele><time>2026-03-28T10:34:41.999Z</time></trkpt><trkpt lat="44.59811890951935" lon="10.457634666273846"><ele>445.8</ele><time>2026-03-28T10:34:42.999Z</time></trkpt><trkpt lat="44.598062185504325" lon="10.457519537875072"><ele>447.0</ele><time>2026-03-28T10:34:43.999Z</time></trkpt><trkpt lat="44.59799987173806" lon="10.45745749621042"><ele>447.0</ele><time>2026-03-28T10:34:44.999Z</time></trkpt><trkpt lat="44.59791899372804" lon="10.457402056891342"><ele>447.00000000000006</ele><time>2026-03-28T10:34:45.999Z</time></trkpt><trkpt lat="44.59784468055424" lon="10.457358811436237"><ele>447.00000000000006</ele><time>2026-03-28T10:34:46.999Z</time></trkpt><trkpt lat="44.59776069617371" lon="10.45732035559576"><ele>447.0</ele><time>2026-03-28T10:34:47.999Z</time></trkpt><trkpt lat="44.59766640721868" lon="10.457282375478572"><ele>447.0</ele><time>2026-03-28T10:34:48.999Z</time></trkpt><trkpt lat="44.597569488048016" lon="10.457242423633897"><ele>447.6</ele><time>2026-03-28T10:34:49.999Z</time></trkpt><trkpt lat="44.59748019487132" lon="10.45719368876826"><ele>448.20000000000005</ele><time>2026-03-28T10:34:50.999Z</time></trkpt><trkpt lat="44.59739397413449" lon="10.457160332371048"><ele>448.8</ele><time>2026-03-28T10:34:51.999Z</time></trkpt><trkpt lat="44.59731369626927" lon="10.457105119237339"><ele>449.4</ele><time>2026-03-28T10:34:52.999Z</time></trkpt><trkpt lat="44.59721988419688" lon="10.457082010502404"><ele>450.0</ele><time>2026-03-28T10:34:53.999Z</time></trkpt><trkpt lat="44.59713408766434" lon="10.457034982206121"><ele>448.6</ele><time>2026-03-28T10:34:54.999Z</time></trkpt><trkpt lat="44.597058235735034" lon="10.456990805037597"><ele>447.2</ele><time>2026-03-28T10:34:55.999Z</time></trkpt><trkpt lat="44.5969887758277" lon="10.456920676378042"><ele>445.79999999999995</ele><time>2026-03-28T10:34:56.999Z</time></trkpt><trkpt lat="44.596898781731994" lon="10.456875629120457"><ele>444.4</ele><time>2026-03-28T10:34:57.999Z</time></trkpt><trkpt lat="44.596806876958475" lon="10.45685310603797"><ele>443.0</ele><time>2026-03-28T10:34:58.999Z</time></trkpt><trkpt lat="44.59668860140983" lon="10.45685749859811"><ele>443.0</ele><time>2026-03-28T10:34:59.999Z</time></trkpt><trkpt lat="44.59659597254658" lon="10.456901150686722"><ele>442.99999999999994</ele><time>2026-03-28T10:35:00.999Z</time></trkpt><trkpt lat="44.596520980895875" lon="10.456946983827144"><ele>442.99999999999994</ele><time>2026-03-28T10:35:01.999Z</time></trkpt><trkpt lat="44.596428441489195" lon="10.4568501390152"><ele>443.0</ele><time>2026-03-28T10:35:02.999Z</time></trkpt><trkpt lat="44.596312407379045" lon="10.456803835962125"><ele>443.0</ele><time>2026-03-28T10:35:03.999Z</time></trkpt><trkpt lat="44.59618337629431" lon="10.456753433196248"><ele>444.25</ele><time>2026-03-28T10:35:04.999Z</time></trkpt><trkpt lat="44.59604598319825" lon="10.45672065160656"><ele>445.5</ele><time>2026-03-28T10:35:05.999Z</time></trkpt><trkpt lat="44.595916521010274" lon="10.456646177658255"><ele>446.75</ele><time>2026-03-28T10:35:06.999Z</time></trkpt><trkpt lat="44.595777436437025" lon="10.456590145034221"><ele>448.0</ele><time>2026-03-28T10:35:07.999Z</time></trkpt><trkpt lat="44.59563985641562" lon="10.456552369959622"><ele>448.0</ele><time>2026-03-28T10:35:08.999Z</time></trkpt><trkpt lat="44.595495833210286" lon="10.45648770495739"><ele>448.0</ele><time>2026-03-28T10:35:09.999Z</time></trkpt><trkpt lat="44.595355882290356" lon="10.45644230849024"><ele>448.0</ele><time>2026-03-28T10:35:10.999Z</time></trkpt><trkpt lat="44.59520507623756" lon="10.456396001243444"><ele>448.0</ele><time>2026-03-28T10:35:11.999Z</time></trkpt><trkpt lat="44.59505529325967" lon="10.456349268171435"><ele>449.0</ele><time>2026-03-28T10:35:12.999Z</time></trkpt><trkpt lat="44.59491190754952" lon="10.456301075158063"><ele>450.0</ele><time>2026-03-28T10:35:13.999Z</time></trkpt><trkpt lat="44.59477348905235" lon="10.45626844217014"><ele>451.0</ele><time>2026-03-28T10:35:14.999Z</time></trkpt><trkpt lat="44.59463519383079" lon="10.456254830844744"><ele>452.0</ele><time>2026-03-28T10:35:15.999Z</time></trkpt><trkpt lat="44.594485404939576" lon="10.456262551704883"><ele>456.0</ele><time>2026-03-28T10:35:16.999Z</time></trkpt><trkpt lat="44.59434515503262" lon="10.456305192981999"><ele>460.0</ele><time>2026-03-28T10:35:18Z</time></trkpt><trkpt lat="44.59421479064348" lon="10.456352484092902"><ele>464.0</ele><time>2026-03-28T10:35:19Z</time></trkpt><trkpt lat="44.59407075183768" lon="10.456347833901253"><ele>468.0</ele><time>2026-03-28T10:35:20Z</time></trkpt><trkpt lat="44.59392360266529" lon="10.456378313004207"><ele>468.0</ele><time>2026-03-28T10:35:21Z</time></trkpt><trkpt lat="44.593781879541076" lon="10.45638958801526"><ele>468.0</ele><time>2026-03-28T10:35:22Z</time></trkpt><trkpt lat="44.59363279667319" lon="10.456411381411078"><ele>468.0</ele><time>2026-03-28T10:35:23Z</time></trkpt><trkpt lat="44.59349781510123" lon="10.45640926918193"><ele>468.0</ele><time>2026-03-28T10:35:24Z</time></trkpt><trkpt lat="44.593351163149975" lon="10.456414884070542"><ele>471.25</ele><time>2026-03-28T10:35:25Z</time></trkpt><trkpt lat="44.59319442599823" lon="10.456415302090731"><ele>474.5</ele><time>2026-03-28T10:35:26Z</time></trkpt><trkpt lat="44.59304614328243" lon="10.456415302094776"><ele>477.75</ele><time>2026-03-28T10:35:27Z</time></trkpt><trkpt lat="44.592903060503104" lon="10.456412900518623"><ele>481.0</ele><time>2026-03-28T10:35:28Z</time></trkpt><trkpt lat="44.59278698463735" lon="10.456394208803545"><ele>481.33333333333337</ele><time>2026-03-28T10:35:29Z</time></trkpt><trkpt lat="44.592653483806295" lon="10.456356396707804"><ele>481.66666666666663</ele><time>2026-03-28T10:35:30Z</time></trkpt><trkpt lat="44.59249285234218" lon="10.456341853424053"><ele>482.0</ele><time>2026-03-28T10:35:31Z</time></trkpt><trkpt lat="44.592340621682766" lon="10.456302245522076"><ele>482.0</ele><time>2026-03-28T10:35:32Z</time></trkpt><trkpt lat="44.59216991264464" lon="10.456288346360179"><ele>482.0</ele><time>2026-03-28T10:35:33Z</time></trkpt><trkpt lat="44.59201699325256" lon="10.45628749028593"><ele>482.0</ele><time>2026-03-28T10:35:34Z</time></trkpt><trkpt lat="44.59186891647463" lon="10.456284405376078"><ele>484.8</ele><time>2026-03-28T10:35:35Z</time></trkpt><trkpt lat="44.591735720705834" lon="10.456260641301979"><ele>487.6</ele><time>2026-03-28T10:35:36Z</time></trkpt><trkpt lat="44.59163133994385" lon="10.45619201713419"><ele>490.40000000000003</ele><time>2026-03-28T10:35:37Z</time></trkpt><trkpt lat="44.59155865826604" lon="10.456131545960767"><ele>493.20000000000005</ele><time>2026-03-28T10:35:38Z</time></trkpt><trkpt lat="44.59151785997552" lon="10.45603927066111"><ele>496.0</ele><time>2026-03-28T10:35:39Z</time></trkpt><trkpt lat="44.59146289153367" lon="10.4559345791925"><ele>496.0</ele><time>2026-03-28T10:35:40Z</time></trkpt><trkpt lat="44.59140797709755" lon="10.455827170451572"><ele>496.0</ele><time>2026-03-28T10:35:41Z</time></trkpt><trkpt lat="44.591350692990716" lon="10.45572819641562"><ele>496.0</ele><time>2026-03-28T10:35:42Z</time></trkpt><trkpt lat="44.59128625944453" lon="10.455606910278593"><ele>496.0</ele><time>2026-03-28T10:35:43Z</time></trkpt><trkpt lat="44.59119290178797" lon="10.45549925458939"><ele>496.0</ele><time>2026-03-28T10:35:44Z</time></trkpt><trkpt lat="44.59108570011413" lon="10.455393628833319"><ele>499.25</ele><time>2026-03-28T10:35:45Z</time></trkpt><trkpt lat="44.590960338214984" lon="10.455301920182"><ele>502.5</ele><time>2026-03-28T10:35:46Z</time></trkpt><trkpt lat="44.59082385731747" lon="10.45524190489213"><ele>505.75</ele><time>2026-03-28T10:35:47Z</time></trkpt><trkpt lat="44.5906744286695" lon="10.455215221878653"><ele>509.0</ele><time>2026-03-28T10:35:48Z</time></trkpt><trkpt lat="44.59052664287547" lon="10.455202433126988"><ele>509.0</ele><time>2026-03-28T10:35:49Z</time></trkpt><trkpt lat="44.590382979679696" lon="10.455144792908698"><ele>509.0</ele><time>2026-03-28T10:35:50Z</time></trkpt><trkpt lat="44.59024354544281" lon="10.455094389098916"><ele>509.0</ele><time>2026-03-28T10:35:51Z</time></trkpt><trkpt lat="44.590113517512826" lon="10.455062598667451"><ele>509.0</ele><time>2026-03-28T10:35:52Z</time></trkpt><trkpt lat="44.59000659175335" lon="10.45502437834887"><ele>509.66666666666663</ele><time>2026-03-28T10:35:53Z</time></trkpt><trkpt lat="44.58992223643409" lon="10.454988747399693"><ele>510.3333333333333</ele><time>2026-03-28T10:35:54Z</time></trkpt><trkpt lat="44.589853518312346" lon="10.454958095798967"><ele>511.0</ele><time>2026-03-28T10:35:55Z</time></trkpt><trkpt lat="44.58979197840056" lon="10.454929672418498"><ele>511.66666666666663</ele><time>2026-03-28T10:35:56Z</time></trkpt><trkpt lat="44.58973326883854" lon="10.454888460703437"><ele>512.3333333333334</ele><time>2026-03-28T10:35:57Z</time></trkpt><trkpt lat="44.589638552127504" lon="10.454816365566817"><ele>513.0</ele><time>2026-03-28T10:35:59Z</time></trkpt><trkpt lat="44.58955785380991" lon="10.45480220233709"><ele>512.6666666666666</ele><time>2026-03-28T10:36:00Z</time></trkpt><trkpt lat="44.58946734991978" lon="10.454810753449213"><ele>512.3333333333334</ele><time>2026-03-28T10:36:01Z</time></trkpt><trkpt lat="44.58937337520794" lon="10.454821049142595"><ele>512.0</ele><time>2026-03-28T10:36:02Z</time></trkpt><trkpt lat="44.589273490859405" lon="10.454833945320908"><ele>511.6666666666667</ele><time>2026-03-28T10:36:03Z</time></trkpt><trkpt lat="44.58919838507376" lon="10.454850453095204"><ele>511.33333333333337</ele><time>2026-03-28T10:36:04Z</time></trkpt><trkpt lat="44.58912517655835" lon="10.454837944615624"><ele>511.0</ele><time>2026-03-28T10:36:07Z</time></trkpt><trkpt lat="44.58904887453295" lon="10.45498272372043"><ele>511.0</ele><time>2026-03-28T10:53:24.999Z</time></trkpt><trkpt lat="44.588967266097" lon="10.455036742232872"><ele>511.0</ele><time>2026-03-28T10:53:25.999Z</time></trkpt><trkpt lat="44.58887950388037" lon="10.455082224260629"><ele>511.0</ele><time>2026-03-28T10:53:26.999Z</time></trkpt><trkpt lat="44.58878071948156" lon="10.455150177988953"><ele>511.0</ele><time>2026-03-28T10:53:27.999Z</time></trkpt><trkpt lat="44.58868312682882" lon="10.455204646832673"><ele>511.0</ele><time>2026-03-28T10:53:28.999Z</time></trkpt><trkpt lat="44.5886006079843" lon="10.455301647152192"><ele>509.4</ele><time>2026-03-28T10:53:29.999Z</time></trkpt><trkpt lat="44.58854280810022" lon="10.455426283048546"><ele>507.8</ele><time>2026-03-28T10:53:30.999Z</time></trkpt><trkpt lat="44.58848854690448" lon="10.455545862715335"><ele>506.19999999999993</ele><time>2026-03-28T10:53:31.999Z</time></trkpt><trkpt lat="44.58846393656851" lon="10.455690116919351"><ele>504.59999999999997</ele><time>2026-03-28T10:53:32.999Z</time></trkpt><trkpt lat="44.58844056602263" lon="10.45584135183739"><ele>503.0</ele><time>2026-03-28T10:53:33.999Z</time></trkpt><trkpt lat="44.58840891371835" lon="10.456001243844772"><ele>502.25</ele><time>2026-03-28T10:53:34.999Z</time></trkpt><trkpt lat="44.588377228655524" lon="10.45616168743645"><ele>501.5</ele><time>2026-03-28T10:53:35.999Z</time></trkpt><trkpt lat="44.58834004340661" lon="10.456332614409053"><ele>500.75</ele><time>2026-03-28T10:53:36.999Z</time></trkpt><trkpt lat="44.58830466591404" lon="10.456507795107438"><ele>500.0</ele><time>2026-03-28T10:53:37.999Z</time></trkpt><trkpt lat="44.588268204065514" lon="10.456680273046329"><ele>499.75</ele><time>2026-03-28T10:53:38.999Z</time></trkpt><trkpt lat="44.58822813074051" lon="10.456843948767832"><ele>499.5</ele><time>2026-03-28T10:53:39.999Z</time></trkpt><trkpt lat="44.58817841642228" lon="10.45700009628336"><ele>499.25</ele><time>2026-03-28T10:53:40.999Z</time></trkpt><trkpt lat="44.58810262645678" lon="10.457122318617195"><ele>499.0</ele><time>2026-03-28T10:53:41.999Z</time></trkpt><trkpt lat="44.58803629346116" lon="10.457254932719268"><ele>497.75</ele><time>2026-03-28T10:53:42.999Z</time></trkpt><trkpt lat="44.58794867375036" lon="10.457362395385251"><ele>496.5</ele><time>2026-03-28T10:53:43.999Z</time></trkpt><trkpt lat="44.587862638407465" lon="10.457485237752358"><ele>495.25</ele><time>2026-03-28T10:53:44.999Z</time></trkpt><trkpt lat="44.58776949906885" lon="10.457612635735863"><ele>494.0</ele><time>2026-03-28T10:53:45.999Z</time></trkpt><trkpt lat="44.587680297867905" lon="10.457740748126392"><ele>494.5</ele><time>2026-03-28T10:53:46.999Z</time></trkpt><trkpt lat="44.58759328550636" lon="10.457868701907287"><ele>495.0</ele><time>2026-03-28T10:53:47.999Z</time></trkpt><trkpt lat="44.58750078243333" lon="10.457998137948584"><ele>495.5</ele><time>2026-03-28T10:53:48.999Z</time></trkpt><trkpt lat="44.587417516422235" lon="10.458143042822472"><ele>496.0</ele><time>2026-03-28T10:53:49.999Z</time></trkpt><trkpt lat="44.587335604576324" lon="10.458316220435318"><ele>496.0</ele><time>2026-03-28T10:53:50.999Z</time></trkpt><trkpt lat="44.587269566884636" lon="10.458495382540269"><ele>496.0</ele><time>2026-03-28T10:53:51.999Z</time></trkpt><trkpt lat="44.587204699057104" lon="10.458670728104304"><ele>496.0</ele><time>2026-03-28T10:53:52.999Z</time></trkpt><trkpt lat="44.58713161302733" lon="10.458831290734395"><ele>496.0</ele><time>2026-03-28T10:53:53.999Z</time></trkpt><trkpt lat="44.58705996585241" lon="10.458985809252297"><ele>499.75</ele><time>2026-03-28T10:53:54.999Z</time></trkpt><trkpt lat="44.58699868570872" lon="10.459151989962763"><ele>503.5</ele><time>2026-03-28T10:53:55.999Z</time></trkpt><trkpt lat="44.58695893101153" lon="10.459317832839323"><ele>507.25</ele><time>2026-03-28T10:53:56.999Z</time></trkpt><trkpt lat="44.58694204435103" lon="10.45948920707272"><ele>511.0</ele><time>2026-03-28T10:53:57.999Z</time></trkpt><trkpt lat="44.586925893876554" lon="10.459658067980184"><ele>511.20000000000005</ele><time>2026-03-28T10:53:58.999Z</time></trkpt><trkpt lat="44.58688444520074" lon="10.459800769099195"><ele>511.40000000000003</ele><time>2026-03-28T10:53:59.999Z</time></trkpt><trkpt lat="44.58682709436068" lon="10.459904890017917"><ele>511.6</ele><time>2026-03-28T10:54:00.999Z</time></trkpt><trkpt lat="44.58676672940629" lon="10.459999833934793"><ele>511.8</ele><time>2026-03-28T10:54:01.999Z</time></trkpt><trkpt lat="44.58669557567727" lon="10.460115557226766"><ele>512.0</ele><time>2026-03-28T10:54:02.999Z</time></trkpt><trkpt lat="44.586615183846426" lon="10.460235225123968"><ele>512.0</ele><time>2026-03-28T10:54:03.999Z</time></trkpt><trkpt lat="44.586529263564834" lon="10.460368459979508"><ele>512.0</ele><time>2026-03-28T10:54:04.999Z</time></trkpt><trkpt lat="44.58644203903764" lon="10.460509257402638"><ele>512.0</ele><time>2026-03-28T10:54:05.999Z</time></trkpt><trkpt lat="44.58635276812256" lon="10.460648519367266"><ele>512.0</ele><time>2026-03-28T10:54:06.999Z</time></trkpt><trkpt lat="44.5862704500982" lon="10.460768215404988"><ele>510.6</ele><time>2026-03-28T10:54:07.999Z</time></trkpt><trkpt lat="44.5861950329731" lon="10.460869532539185"><ele>509.20000000000005</ele><time>2026-03-28T10:54:08.999Z</time></trkpt><trkpt lat="44.586136049998345" lon="10.460946622583153"><ele>507.8</ele><time>2026-03-28T10:54:09.999Z</time></trkpt><trkpt lat="44.58606231703522" lon="10.460979143342856"><ele>506.4</ele><time>2026-03-28T10:54:10.999Z</time></trkpt><trkpt lat="44.58595906507888" lon="10.46095071036309"><ele>505.0</ele><time>2026-03-28T10:54:13Z</time></trkpt><trkpt lat="44.58587258991609" lon="10.460933851846079"><ele>505.00000000000006</ele><time>2026-03-28T10:54:15Z</time></trkpt><trkpt lat="44.585834366476334" lon="10.46104916333109"><ele>505.0</ele><time>2026-03-28T10:54:16Z</time></trkpt><trkpt lat="44.58582509886958" lon="10.461165803878496"><ele>505.0</ele><time>2026-03-28T10:54:17Z</time></trkpt><trkpt lat="44.58578639379968" lon="10.46125981198667"><ele>505.0</ele><time>2026-03-28T10:54:18Z</time></trkpt><trkpt lat="44.5857599071899" lon="10.461348107768856"><ele>505.00000000000006</ele><time>2026-03-28T10:54:19Z</time></trkpt><trkpt lat="44.58572673557076" lon="10.461433293839342"><ele>505.0</ele><time>2026-03-28T10:54:20Z</time></trkpt><trkpt lat="44.58571516454007" lon="10.46170088373589"><ele>505.4</ele><time>2026-03-28T10:54:23Z</time></trkpt><trkpt lat="44.58569570138074" lon="10.46181657865669"><ele>505.8</ele><time>2026-03-28T10:54:24Z</time></trkpt><trkpt lat="44.58564975577176" lon="10.461921598250571"><ele>506.20000000000005</ele><time>2026-03-28T10:54:25Z</time></trkpt><trkpt lat="44.585599393407115" lon="10.462052173202984"><ele>506.6</ele><time>2026-03-28T10:54:26Z</time></trkpt><trkpt lat="44.58555633861157" lon="10.462175702535706"><ele>507.0</ele><time>2026-03-28T10:54:27Z</time></trkpt><trkpt lat="44.58551983094172" lon="10.462294429597371"><ele>507.85714285714283</ele><time>2026-03-28T10:54:28Z</time></trkpt><trkpt lat="44.58548924488892" lon="10.462381535157732"><ele>508.7142857142858</ele><time>2026-03-28T10:54:29Z</time></trkpt><trkpt lat="44.585457126993425" lon="10.462475546280517"><ele>509.5714285714286</ele><time>2026-03-28T10:54:30Z</time></trkpt><trkpt lat="44.58544613924478" lon="10.462571185692966"><ele>510.42857142857144</ele><time>2026-03-28T10:54:31Z</time></trkpt><trkpt lat="44.58546163745879" lon="10.462664622486065"><ele>511.28571428571433</ele><time>2026-03-28T10:54:32Z</time></trkpt><trkpt lat="44.58547660959141" lon="10.462763332418175"><ele>512.1428571428572</ele><time>2026-03-28T10:54:33Z</time></trkpt><trkpt lat="44.5855423219631" lon="10.462859327973067"><ele>513.0</ele><time>2026-03-28T10:54:34Z</time></trkpt><trkpt lat="44.585588428160015" lon="10.46298754417756"><ele>514.6</ele><time>2026-03-28T10:54:35Z</time></trkpt><trkpt lat="44.58563995512941" lon="10.463099537587988"><ele>516.1999999999999</ele><time>2026-03-28T10:54:36Z</time></trkpt><trkpt lat="44.58570521999146" lon="10.463201583429367"><ele>517.8</ele><time>2026-03-28T10:54:37Z</time></trkpt><trkpt lat="44.58578129759799" lon="10.463298565323631"><ele>519.4</ele><time>2026-03-28T10:54:38Z</time></trkpt><trkpt lat="44.585836609619015" lon="10.463388941578396"><ele>521.0</ele><time>2026-03-28T10:54:39Z</time></trkpt><trkpt lat="44.58586050889286" lon="10.463503428071734"><ele>521.0</ele><time>2026-03-28T10:54:40Z</time></trkpt><trkpt lat="44.585891101050315" lon="10.463616504412657"><ele>521.0</ele><time>2026-03-28T10:54:41Z</time></trkpt><trkpt lat="44.58585203264743" lon="10.463752122181674"><ele>521.0</ele><time>2026-03-28T10:54:42Z</time></trkpt><trkpt lat="44.585835738276884" lon="10.463900777458083"><ele>521.0</ele><time>2026-03-28T10:54:43Z</time></trkpt><trkpt lat="44.58583285218688" lon="10.464046768539628"><ele>521.0</ele><time>2026-03-28T10:54:44Z</time></trkpt><trkpt lat="44.585824970145175" lon="10.464184552566145"><ele>521.8333333333333</ele><time>2026-03-28T10:54:45Z</time></trkpt><trkpt lat="44.58582458509351" lon="10.46433289758253"><ele>522.6666666666666</ele><time>2026-03-28T10:54:46Z</time></trkpt><trkpt lat="44.585829439984956" lon="10.464458744191925"><ele>523.5</ele><time>2026-03-28T10:54:47Z</time></trkpt><trkpt lat="44.58582891568931" lon="10.46456239144882"><ele>524.3333333333334</ele><time>2026-03-28T10:54:48Z</time></trkpt><trkpt lat="44.58582831109689" lon="10.464663338085098"><ele>525.1666666666667</ele><time>2026-03-28T10:54:49Z</time></trkpt><trkpt lat="44.585811485376006" lon="10.464769349690728"><ele>526.0</ele><time>2026-03-28T10:54:50Z</time></trkpt><trkpt lat="44.58580715496797" lon="10.464888966425384"><ele>526.4</ele><time>2026-03-28T10:54:51Z</time></trkpt><trkpt lat="44.5857771871679" lon="10.46502093750588"><ele>526.8</ele><time>2026-03-28T10:54:52Z</time></trkpt><trkpt lat="44.58574817168264" lon="10.465153003187643"><ele>527.1999999999999</ele><time>2026-03-28T10:54:53Z</time></trkpt><trkpt lat="44.58572389230056" lon="10.465297106252656"><ele>527.6</ele><time>2026-03-28T10:54:54Z</time></trkpt><trkpt lat="44.585669212891496" lon="10.465419229918968"><ele>528.0</ele><time>2026-03-28T10:54:55Z</time></trkpt><trkpt lat="44.5856510108033" lon="10.465565196652443"><ele>528.0</ele><time>2026-03-28T10:54:56Z</time></trkpt><trkpt lat="44.58560985545985" lon="10.465710015372842"><ele>528.0</ele><time>2026-03-28T10:54:57Z</time></trkpt><trkpt lat="44.585589401804114" lon="10.465865734438726"><ele>528.0</ele><time>2026-03-28T10:54:58Z</time></trkpt><trkpt lat="44.585580328816576" lon="10.4660172625599"><ele>528.0</ele><time>2026-03-28T10:54:59Z</time></trkpt><trkpt lat="44.58555597713398" lon="10.466162015383071"><ele>528.0</ele><time>2026-03-28T10:55:00Z</time></trkpt><trkpt lat="44.5855215144713" lon="10.466277520456984"><ele>528.1666666666666</ele><time>2026-03-28T10:55:01Z</time></trkpt><trkpt lat="44.58548759989061" lon="10.466395346249046"><ele>528.3333333333334</ele><time>2026-03-28T10:55:02Z</time></trkpt><trkpt lat="44.585478473642304" lon="10.466515544157298"><ele>528.5</ele><time>2026-03-28T10:55:03Z</time></trkpt><trkpt lat="44.58544085580777" lon="10.466592863520125"><ele>528.6666666666667</ele><time>2026-03-28T10:55:04Z</time></trkpt><trkpt lat="44.58539916479385" lon="10.466662715074312"><ele>528.8333333333334</ele><time>2026-03-28T10:55:05Z</time></trkpt><trkpt lat="44.58533937577358" lon="10.466746055212587"><ele>529.0</ele><time>2026-03-28T10:55:06Z</time></trkpt><trkpt lat="44.585279699070924" lon="10.466842559175683"><ele>529.0</ele><time>2026-03-28T10:55:07Z</time></trkpt><trkpt lat="44.58523326007966" lon="10.466959812040079"><ele>529.0</ele><time>2026-03-28T10:55:08Z</time></trkpt><trkpt lat="44.585178911491006" lon="10.46705187700193"><ele>529.0</ele><time>2026-03-28T10:55:08.999Z</time></trkpt><trkpt lat="44.585100892510226" lon="10.467164662593552"><ele>529.0</ele><time>2026-03-28T10:55:10.999Z</time></trkpt><trkpt lat="44.58506492551251" lon="10.467256611855383"><ele>529.0</ele><time>2026-03-28T10:55:11.999Z</time></trkpt><trkpt lat="44.585134163682326" lon="10.467464533587496"><ele>528.3333333333334</ele><time>2026-03-28T10:55:12.999Z</time></trkpt><trkpt lat="44.58511615499348" lon="10.467577786204146"><ele>527.6666666666667</ele><time>2026-03-28T10:55:13.999Z</time></trkpt><trkpt lat="44.585105517127175" lon="10.467684677748094"><ele>527.0</ele><time>2026-03-28T10:55:14.999Z</time></trkpt><trkpt lat="44.5850774699272" lon="10.467774555097861"><ele>526.3333333333334</ele><time>2026-03-28T10:55:15.999Z</time></trkpt><trkpt lat="44.58502649111908" lon="10.467886083361753"><ele>525.6666666666666</ele><time>2026-03-28T10:55:17.999Z</time></trkpt><trkpt lat="44.585002650514014" lon="10.467986440691027"><ele>525.0</ele><time>2026-03-28T10:55:19.999Z</time></trkpt><trkpt lat="44.58501367757491" lon="10.468096208603287"><ele>523.8</ele><time>2026-03-28T10:55:21.999Z</time></trkpt><trkpt lat="44.58500764368955" lon="10.468228095140274"><ele>522.6</ele><time>2026-03-28T10:55:23.999Z</time></trkpt><trkpt lat="44.5850136217748" lon="10.468359557155273"><ele>521.4</ele><time>2026-03-28T10:55:25.999Z</time></trkpt><trkpt lat="44.58507808932473" lon="10.468487520261618"><ele>520.2</ele><time>2026-03-28T10:55:27.999Z</time></trkpt><trkpt lat="44.585109753976475" lon="10.468636219878391"><ele>519.0</ele><time>2026-03-28T10:55:29.999Z</time></trkpt><trkpt lat="44.58513067204856" lon="10.468811091246176"><ele>517.0</ele><time>2026-03-28T10:55:31.999Z</time></trkpt><trkpt lat="44.585144824383796" lon="10.468900284144198"><ele>515.0</ele><time>2026-03-28T10:55:32.999Z</time></trkpt><trkpt lat="44.58517942426087" lon="10.46907195014751"><ele>513.0</ele><time>2026-03-28T10:55:34.999Z</time></trkpt><trkpt lat="44.58517735234906" lon="10.469261415173472"><ele>511.0</ele><time>2026-03-28T10:55:36.999Z</time></trkpt><trkpt lat="44.5851658748156" lon="10.469355672319407"><ele>509.0</ele><time>2026-03-28T10:55:37.999Z</time></trkpt><trkpt lat="44.58515704761547" lon="10.469549528929484"><ele>508.66666666666663</ele><time>2026-03-28T10:55:39.999Z</time></trkpt><trkpt lat="44.58516070142825" lon="10.469656072511631"><ele>508.3333333333333</ele><time>2026-03-28T10:55:40.999Z</time></trkpt><trkpt lat="44.585162021005374" lon="10.469747952739201"><ele>508.0</ele><time>2026-03-28T10:55:41.999Z</time></trkpt><trkpt lat="44.58514492463963" lon="10.469894677603397"><ele>507.66666666666663</ele><time>2026-03-28T10:55:43.999Z</time></trkpt><trkpt lat="44.58514056187271" lon="10.46999797542994"><ele>507.3333333333333</ele><time>2026-03-28T10:55:44.999Z</time></trkpt><trkpt lat="44.58515700193525" lon="10.470114266313098"><ele>507.0</ele><time>2026-03-28T10:55:45.999Z</time></trkpt><trkpt lat="44.58517807099353" lon="10.470246637454736"><ele>507.0</ele><time>2026-03-28T10:55:47.999Z</time></trkpt><trkpt lat="44.58520070299312" lon="10.470357252713818"><ele>507.00000000000006</ele><time>2026-03-28T10:55:48.999Z</time></trkpt><trkpt lat="44.58522870185179" lon="10.470529938269888"><ele>507.00000000000006</ele><time>2026-03-28T10:55:50.999Z</time></trkpt><trkpt lat="44.58526367661993" lon="10.470719215398255"><ele>507.0</ele><time>2026-03-28T10:55:52.999Z</time></trkpt><trkpt lat="44.585284977628014" lon="10.470824621355323"><ele>507.0</ele><time>2026-03-28T10:55:53.999Z</time></trkpt><trkpt lat="44.58529086015731" lon="10.470936977198754"><ele>506.1666666666667</ele><time>2026-03-28T10:55:54.999Z</time></trkpt><trkpt lat="44.58527830576716" lon="10.47102833975927"><ele>505.33333333333337</ele><time>2026-03-28T10:55:55.999Z</time></trkpt><trkpt lat="44.58527077117677" lon="10.471148512504971"><ele>504.5</ele><time>2026-03-28T10:55:56.999Z</time></trkpt><trkpt lat="44.58524423299491" lon="10.471255295284763"><ele>503.6666666666667</ele><time>2026-03-28T10:55:57.999Z</time></trkpt><trkpt lat="44.58520377485248" lon="10.471391223514745"><ele>502.83333333333337</ele><time>2026-03-28T10:55:58.999Z</time></trkpt><trkpt lat="44.58518353410692" lon="10.471497125555885"><ele>502.0</ele><time>2026-03-28T10:55:59.999Z</time></trkpt><trkpt lat="44.585158419023045" lon="10.471616370366888"><ele>499.6</ele><time>2026-03-28T10:56:00.999Z</time></trkpt><trkpt lat="44.58510489430833" lon="10.47179137400155"><ele>497.20000000000005</ele><time>2026-03-28T10:56:02.999Z</time></trkpt><trkpt lat="44.585081699717335" lon="10.471950465006481"><ele>494.8</ele><time>2026-03-28T10:56:04.999Z</time></trkpt><trkpt lat="44.585086416333645" lon="10.472077716365849"><ele>492.4</ele><time>2026-03-28T10:56:05.999Z</time></trkpt><trkpt lat="44.585085438857504" lon="10.472193515554167"><ele>490.0</ele><time>2026-03-28T10:56:06.999Z</time></trkpt><trkpt lat="44.58507232441461" lon="10.472293145874545"><ele>489.1666666666667</ele><time>2026-03-28T10:56:07.999Z</time></trkpt><trkpt lat="44.585062412882074" lon="10.472396839108814"><ele>488.33333333333337</ele><time>2026-03-28T10:56:08.999Z</time></trkpt><trkpt lat="44.58503799245561" lon="10.472561538156803"><ele>487.5</ele><time>2026-03-28T10:56:10.999Z</time></trkpt><trkpt lat="44.585028581087144" lon="10.472703772491183"><ele>486.66666666666663</ele><time>2026-03-28T10:56:12.999Z</time></trkpt><trkpt lat="44.58506371543393" lon="10.47278919061268"><ele>485.8333333333333</ele><time>2026-03-28T10:56:13.999Z</time></trkpt><trkpt lat="44.5850954098281" lon="10.47287960568997"><ele>485.0</ele><time>2026-03-28T10:56:14.999Z</time></trkpt><trkpt lat="44.585115313260324" lon="10.472972262895548"><ele>484.99999999999994</ele><time>2026-03-28T10:56:15.999Z</time></trkpt><trkpt lat="44.58511540375383" lon="10.473091825846097"><ele>485.0</ele><time>2026-03-28T10:56:16.999Z</time></trkpt><trkpt lat="44.58510049766109" lon="10.473226673234633"><ele>485.0</ele><time>2026-03-28T10:56:18Z</time></trkpt><trkpt lat="44.58508197208239" lon="10.473345999071011"><ele>485.0</ele><time>2026-03-28T10:56:19Z</time></trkpt><trkpt lat="44.58506386023922" lon="10.473454152841772"><ele>484.99999999999994</ele><time>2026-03-28T10:56:20Z</time></trkpt><trkpt lat="44.58505254168158" lon="10.473548376608106"><ele>485.0</ele><time>2026-03-28T10:56:21Z</time></trkpt><trkpt lat="44.585041636763236" lon="10.473662725592131"><ele>486.99999999999994</ele><time>2026-03-28T10:56:22Z</time></trkpt><trkpt lat="44.58502210526481" lon="10.473783055066596"><ele>489.0</ele><time>2026-03-28T10:56:23Z</time></trkpt><trkpt lat="44.58500775561324" lon="10.473887737863523"><ele>491.0</ele><time>2026-03-28T10:56:24Z</time></trkpt><trkpt lat="44.5849998445819" lon="10.473994314644015"><ele>493.0</ele><time>2026-03-28T10:56:25Z</time></trkpt><trkpt lat="44.58500221820155" lon="10.474086098752219"><ele>494.99999999999994</ele><time>2026-03-28T10:56:26Z</time></trkpt><trkpt lat="44.58504904036747" lon="10.474245964686947"><ele>497.0</ele><time>2026-03-28T10:56:28Z</time></trkpt><trkpt lat="44.58507556992816" lon="10.474330930044493"><ele>497.0</ele><time>2026-03-28T10:56:29Z</time></trkpt><trkpt lat="44.58506731622992" lon="10.47448751112428"><ele>497.00000000000006</ele><time>2026-03-28T10:56:31Z</time></trkpt><trkpt lat="44.58505471150785" lon="10.474635231403456"><ele>497.00000000000006</ele><time>2026-03-28T10:56:33Z</time></trkpt><trkpt lat="44.58503813395213" lon="10.474807640364972"><ele>497.0</ele><time>2026-03-28T10:56:35Z</time></trkpt><trkpt lat="44.58503670045507" lon="10.474900852964145"><ele>497.0</ele><time>2026-03-28T10:56:36Z</time></trkpt><trkpt lat="44.58504419875789" lon="10.475023876078849"><ele>499.3333333333333</ele><time>2026-03-28T10:56:38Z</time></trkpt><trkpt lat="44.58501468575222" lon="10.475194997898809"><ele>501.66666666666663</ele><time>2026-03-28T10:56:40Z</time></trkpt><trkpt lat="44.585006964284" lon="10.475296584356931"><ele>504.0</ele><time>2026-03-28T10:56:41Z</time></trkpt><trkpt lat="44.58499622946099" lon="10.47539479964759"><ele>506.33333333333337</ele><time>2026-03-28T10:56:42Z</time></trkpt><trkpt lat="44.584987243099015" lon="10.475513840807233"><ele>508.6666666666667</ele><time>2026-03-28T10:56:43Z</time></trkpt><trkpt lat="44.584975035476695" lon="10.475608188897327"><ele>511.0</ele><time>2026-03-28T10:56:44Z</time></trkpt><trkpt lat="44.584971095391786" lon="10.475711010220257"><ele>513.5</ele><time>2026-03-28T10:56:45Z</time></trkpt><trkpt lat="44.584945146235" lon="10.475884656933966"><ele>516.0</ele><time>2026-03-28T10:56:47Z</time></trkpt><trkpt lat="44.584930422852594" lon="10.475985265834819"><ele>518.5</ele><time>2026-03-28T10:56:48Z</time></trkpt><trkpt lat="44.584902878836765" lon="10.476130259872853"><ele>521.0</ele><time>2026-03-28T10:56:50Z</time></trkpt><trkpt lat="44.58493211835975" lon="10.476216432023666"><ele>523.5</ele><time>2026-03-28T10:56:55Z</time></trkpt><trkpt lat="44.58498931589669" lon="10.476265717706207"><ele>526.0</ele><time>2026-03-28T10:57:03Z</time></trkpt><trkpt lat="44.58494371118094" lon="10.476178949412361"><ele>526.0</ele><time>2026-03-28T11:03:56Z</time></trkpt><trkpt lat="44.58489025981553" lon="10.476131211615373"><ele>526.0</ele><time>2026-03-28T11:03:58Z</time></trkpt><trkpt lat="44.58483335057844" lon="10.476087887933804"><ele>526.0</ele><time>2026-03-28T11:04:00Z</time></trkpt><trkpt lat="44.58476638083817" lon="10.476068212079978"><ele>526.0</ele><time>2026-03-28T11:04:03Z</time></trkpt><trkpt lat="44.58466116049263" lon="10.476062591648287"><ele>526.0</ele><time>2026-03-28T11:04:05Z</time></trkpt><trkpt lat="44.58456740896587" lon="10.476071253481868"><ele>526.0</ele><time>2026-03-28T11:04:06.999Z</time></trkpt><trkpt lat="44.58448362749253" lon="10.476106822207747"><ele>524.5</ele><time>2026-03-28T11:04:08.999Z</time></trkpt><trkpt lat="44.58441056673773" lon="10.476118175140158"><ele>523.0</ele><time>2026-03-28T11:04:10.999Z</time></trkpt><trkpt lat="44.58434359036888" lon="10.476148879644697"><ele>521.5</ele><time>2026-03-28T11:04:12.999Z</time></trkpt><trkpt lat="44.58427079588467" lon="10.476189398909186"><ele>520.0</ele><time>2026-03-28T11:04:14.999Z</time></trkpt><trkpt lat="44.58416503640925" lon="10.476233877013552"><ele>518.5</ele><time>2026-03-28T11:04:16.999Z</time></trkpt><trkpt lat="44.584083012929696" lon="10.476318949488578"><ele>517.0</ele><time>2026-03-28T11:04:18.999Z</time></trkpt><trkpt lat="44.584004389186454" lon="10.476392422702856"><ele>516.6666666666667</ele><time>2026-03-28T11:04:20.999Z</time></trkpt><trkpt lat="44.58390406036045" lon="10.476449054168748"><ele>516.3333333333334</ele><time>2026-03-28T11:04:22.999Z</time></trkpt><trkpt lat="44.58380240808949" lon="10.47648638630097"><ele>516.0</ele><time>2026-03-28T11:04:24.999Z</time></trkpt><trkpt lat="44.58371949671496" lon="10.476502989198087"><ele>515.6666666666666</ele><time>2026-03-28T11:04:26.999Z</time></trkpt><trkpt lat="44.583632429842375" lon="10.476522572405532"><ele>515.3333333333333</ele><time>2026-03-28T11:04:28.999Z</time></trkpt><trkpt lat="44.58356926102937" lon="10.47653637666351"><ele>515.0</ele><time>2026-03-28T11:04:30.999Z</time></trkpt><trkpt lat="44.58346676585382" lon="10.476552147765236"><ele>513.8333333333333</ele><time>2026-03-28T11:04:52Z</time></trkpt><trkpt lat="44.58338125306168" lon="10.476574673405796"><ele>512.6666666666666</ele><time>2026-03-28T11:04:54Z</time></trkpt><trkpt lat="44.583308390593864" lon="10.476587287305895"><ele>511.5</ele><time>2026-03-28T11:04:56Z</time></trkpt><trkpt lat="44.583227970256836" lon="10.476579132697335"><ele>510.33333333333337</ele><time>2026-03-28T11:04:57Z</time></trkpt><trkpt lat="44.583162260532724" lon="10.476581447701982"><ele>509.1666666666667</ele><time>2026-03-28T11:04:58Z</time></trkpt><trkpt lat="44.58309894490638" lon="10.476577695745116"><ele>508.0</ele><time>2026-03-28T11:04:59Z</time></trkpt><trkpt lat="44.58296794238434" lon="10.476580164120024"><ele>508.00000000000006</ele><time>2026-03-28T11:05:01Z</time></trkpt><trkpt lat="44.58285561227861" lon="10.47657780232864"><ele>508.0</ele><time>2026-03-28T11:05:03Z</time></trkpt><trkpt lat="44.582779130365324" lon="10.476559269434208"><ele>508.0</ele><time>2026-03-28T11:05:05Z</time></trkpt><trkpt lat="44.582712085909314" lon="10.476553003188567"><ele>508.0</ele><time>2026-03-28T11:05:07Z</time></trkpt><trkpt lat="44.58265835529887" lon="10.476625865687277"><ele>508.00000000000006</ele><time>2026-03-28T11:05:09Z</time></trkpt><trkpt lat="44.58258119104338" lon="10.476686471638281"><ele>508.0</ele><time>2026-03-28T11:05:11Z</time></trkpt><trkpt lat="44.58249247005009" lon="10.47680550153272"><ele>506.79999999999995</ele><time>2026-03-28T11:05:13Z</time></trkpt><trkpt lat="44.5824128364936" lon="10.47690650260588"><ele>505.59999999999997</ele><time>2026-03-28T11:05:15Z</time></trkpt><trkpt lat="44.58231404491351" lon="10.47697530100302"><ele>504.40000000000003</ele><time>2026-03-28T11:05:17Z</time></trkpt><trkpt lat="44.58223645968712" lon="10.477057193254822"><ele>503.20000000000005</ele><time>2026-03-28T11:05:19Z</time></trkpt><trkpt lat="44.58215295320395" lon="10.477153605805567"><ele>502.0</ele><time>2026-03-28T11:05:21Z</time></trkpt><trkpt lat="44.58211753531694" lon="10.477261523044858"><ele>500.6</ele><time>2026-03-28T11:05:23Z</time></trkpt><trkpt lat="44.58207530408318" lon="10.477358185660538"><ele>499.20000000000005</ele><time>2026-03-28T11:05:25Z</time></trkpt><trkpt lat="44.58201040362981" lon="10.477483606411342"><ele>497.8</ele><time>2026-03-28T11:05:28Z</time></trkpt><trkpt lat="44.581985344518635" lon="10.477630197207976"><ele>496.4</ele><time>2026-03-28T11:05:30Z</time></trkpt><trkpt lat="44.58197809310768" lon="10.477738472812035"><ele>495.0</ele><time>2026-03-28T11:05:32Z</time></trkpt><trkpt lat="44.58197653081816" lon="10.477856055022151"><ele>493.3333333333333</ele><time>2026-03-28T11:05:34Z</time></trkpt><trkpt lat="44.581934256246335" lon="10.477950708377318"><ele>491.66666666666663</ele><time>2026-03-28T11:05:36Z</time></trkpt><trkpt lat="44.581909389718305" lon="10.478054515018965"><ele>490.0</ele><time>2026-03-28T11:05:38Z</time></trkpt><trkpt lat="44.581874970882346" lon="10.478139274709584"><ele>488.3333333333333</ele><time>2026-03-28T11:05:40Z</time></trkpt><trkpt lat="44.581842223103145" lon="10.478225698925446"><ele>486.66666666666663</ele><time>2026-03-28T11:05:43Z</time></trkpt><trkpt lat="44.58181518917397" lon="10.478316598890599"><ele>485.0</ele><time>2026-03-28T11:05:45Z</time></trkpt><trkpt lat="44.581763858221116" lon="10.478445440609663"><ele>485.0</ele><time>2026-03-28T11:05:47Z</time></trkpt><trkpt lat="44.58169977557959" lon="10.478536404623098"><ele>485.0</ele><time>2026-03-28T11:05:49Z</time></trkpt><trkpt lat="44.581622348269505" lon="10.47864104668664"><ele>485.0</ele><time>2026-03-28T11:05:51Z</time></trkpt><trkpt lat="44.58155202195109" lon="10.478746010595"><ele>485.0</ele><time>2026-03-28T11:05:53Z</time></trkpt><trkpt lat="44.58149551627264" lon="10.47886807559592"><ele>485.0</ele><time>2026-03-28T11:05:55Z</time></trkpt><trkpt lat="44.58143473203947" lon="10.479026267944713"><ele>483.49999999999994</ele><time>2026-03-28T11:05:57Z</time></trkpt><trkpt lat="44.58140541162404" lon="10.479106879745691"><ele>482.0</ele><time>2026-03-28T11:05:58Z</time></trkpt><trkpt lat="44.5813291484872" lon="10.479234385262984"><ele>480.5</ele><time>2026-03-28T11:06:00Z</time></trkpt><trkpt lat="44.5813016129582" lon="10.479329496631197"><ele>479.0</ele><time>2026-03-28T11:06:01Z</time></trkpt><trkpt lat="44.581282905475994" lon="10.479430188055307"><ele>477.49999999999994</ele><time>2026-03-28T11:06:02Z</time></trkpt><trkpt lat="44.58124306135114" lon="10.479544964834878"><ele>476.0</ele><time>2026-03-28T11:06:04Z</time></trkpt><trkpt lat="44.58119822427089" lon="10.47963985558748"><ele>474.49999999999994</ele><time>2026-03-28T11:06:06Z</time></trkpt><trkpt lat="44.58114610866824" lon="10.479751420794537"><ele>473.0</ele><time>2026-03-28T11:06:08Z</time></trkpt><trkpt lat="44.58109645695755" lon="10.479848475742731"><ele>471.5</ele><time>2026-03-28T11:06:11Z</time></trkpt><trkpt lat="44.58105875677536" lon="10.479922833687958"><ele>470.0</ele><time>2026-03-28T11:06:13Z</time></trkpt><trkpt lat="44.58100961645944" lon="10.480004719290633"><ele>468.49999999999994</ele><time>2026-03-28T11:06:15Z</time></trkpt><trkpt lat="44.580958445573444" lon="10.480109036875918"><ele>467.0</ele><time>2026-03-28T11:06:17Z</time></trkpt><trkpt lat="44.580903967427226" lon="10.480186193558069"><ele>467.0</ele><time>2026-03-28T11:06:19Z</time></trkpt><trkpt lat="44.58085834000954" lon="10.480273569561524"><ele>467.00000000000006</ele><time>2026-03-28T11:06:22Z</time></trkpt><trkpt lat="44.580788081156015" lon="10.480373410537956"><ele>467.00000000000006</ele><time>2026-03-28T11:06:24.999Z</time></trkpt><trkpt lat="44.58071330739403" lon="10.480460244227237"><ele>467.0</ele><time>2026-03-28T11:06:26.999Z</time></trkpt><trkpt lat="44.58061092538884" lon="10.480520960822355"><ele>467.0</ele><time>2026-03-28T11:06:28.999Z</time></trkpt><trkpt lat="44.58056873776495" lon="10.48059586173723"><ele>465.71428571428567</ele><time>2026-03-28T11:06:31.999Z</time></trkpt><trkpt lat="44.58054798979927" lon="10.48069188910862"><ele>464.42857142857144</ele><time>2026-03-28T11:06:34.999Z</time></trkpt><trkpt lat="44.58048999195655" lon="10.480769221217342"><ele>463.1428571428571</ele><time>2026-03-28T11:06:38.999Z</time></trkpt><trkpt lat="44.58041539456047" lon="10.480842380046406"><ele>461.85714285714283</ele><time>2026-03-28T11:06:40.999Z</time></trkpt><trkpt lat="44.580359363568114" lon="10.480883686731671"><ele>460.57142857142856</ele><time>2026-03-28T11:06:42.999Z</time></trkpt><trkpt lat="44.580302542408" lon="10.480950168121122"><ele>459.2857142857143</ele><time>2026-03-28T11:06:45.999Z</time></trkpt><trkpt lat="44.58026564873122" lon="10.48103019274152"><ele>458.0</ele><time>2026-03-28T11:06:50Z</time></trkpt><trkpt lat="44.58021529078399" lon="10.481110911115422"><ele>455.2</ele><time>2026-03-28T11:06:58Z</time></trkpt><trkpt lat="44.580170566357914" lon="10.48118446115027"><ele>452.4</ele><time>2026-03-28T11:07:01Z</time></trkpt><trkpt lat="44.58013145813216" lon="10.481292462359358"><ele>449.59999999999997</ele><time>2026-03-28T11:07:03Z</time></trkpt><trkpt lat="44.58007586319133" lon="10.481423065538099"><ele>446.79999999999995</ele><time>2026-03-28T11:07:05Z</time></trkpt><trkpt lat="44.58002383843847" lon="10.481549981495577"><ele>444.0</ele><time>2026-03-28T11:07:07Z</time></trkpt><trkpt lat="44.57997526886531" lon="10.481650650096611"><ele>443.2</ele><time>2026-03-28T11:07:09Z</time></trkpt><trkpt lat="44.57992590473395" lon="10.481786966533894"><ele>442.4</ele><time>2026-03-28T11:07:11Z</time></trkpt><trkpt lat="44.579868966125105" lon="10.481887065556437"><ele>441.6</ele><time>2026-03-28T11:07:13Z</time></trkpt><trkpt lat="44.5797890259659" lon="10.481994470973607"><ele>440.8</ele><time>2026-03-28T11:07:15Z</time></trkpt><trkpt lat="44.57974255474385" lon="10.482107040689735"><ele>440.0</ele><time>2026-03-28T11:07:17Z</time></trkpt><trkpt lat="44.579694892524685" lon="10.482206570729806"><ele>437.3333333333333</ele><time>2026-03-28T11:07:19Z</time></trkpt><trkpt lat="44.57967620992707" lon="10.482299947037273"><ele>434.66666666666663</ele><time>2026-03-28T11:07:21Z</time></trkpt><trkpt lat="44.57967087672527" lon="10.482402657883231"><ele>432.0</ele><time>2026-03-28T11:07:33Z</time></trkpt><trkpt lat="44.57964941933711" lon="10.482499979085445"><ele>429.33333333333337</ele><time>2026-03-28T11:07:39Z</time></trkpt><trkpt lat="44.57961968234717" lon="10.482628504101212"><ele>426.6666666666667</ele><time>2026-03-28T11:07:42Z</time></trkpt><trkpt lat="44.579582440611695" lon="10.482730767187444"><ele>424.0</ele><time>2026-03-28T11:07:44Z</time></trkpt><trkpt lat="44.579550899801184" lon="10.482830757171847"><ele>424.00000000000006</ele><time>2026-03-28T11:07:46Z</time></trkpt><trkpt lat="44.57956330275388" lon="10.482918023226286"><ele>424.0</ele><time>2026-03-28T11:07:48Z</time></trkpt><trkpt lat="44.57956475998962" lon="10.483057320223837"><ele>424.0</ele><time>2026-03-28T11:07:50Z</time></trkpt><trkpt lat="44.5795321298685" lon="10.483145320854685"><ele>424.0</ele><time>2026-03-28T11:07:53Z</time></trkpt><trkpt lat="44.57949820788095" lon="10.48326730152676"><ele>424.00000000000006</ele><time>2026-03-28T11:07:55Z</time></trkpt><trkpt lat="44.57947621783609" lon="10.483370370988979"><ele>424.0</ele><time>2026-03-28T11:07:57Z</time></trkpt><trkpt lat="44.579466417015865" lon="10.483477954206018"><ele>419.6</ele><time>2026-03-28T11:07:59Z</time></trkpt><trkpt lat="44.57943649810169" lon="10.483607676477467"><ele>415.2</ele><time>2026-03-28T11:08:02Z</time></trkpt><trkpt lat="44.57937981699009" lon="10.48372629388529"><ele>410.8</ele><time>2026-03-28T11:08:04Z</time></trkpt><trkpt lat="44.579342346829485" lon="10.48384507690738"><ele>406.40000000000003</ele><time>2026-03-28T11:08:06Z</time></trkpt><trkpt lat="44.57932472471514" lon="10.483976822145479"><ele>402.0</ele><time>2026-03-28T11:08:08Z</time></trkpt><trkpt lat="44.579273053086084" lon="10.484125022305628"><ele>400.20000000000005</ele><time>2026-03-28T11:08:10Z</time></trkpt><trkpt lat="44.579234583988914" lon="10.484205693952118"><ele>398.4</ele><time>2026-03-28T11:08:11Z</time></trkpt><trkpt lat="44.57920613620555" lon="10.484311749722451"><ele>396.6</ele><time>2026-03-28T11:08:13Z</time></trkpt><trkpt lat="44.57914702261239" lon="10.484464042585046"><ele>394.79999999999995</ele><time>2026-03-28T11:08:15Z</time></trkpt><trkpt lat="44.57909368996425" lon="10.484597483815223"><ele>393.0</ele><time>2026-03-28T11:08:17Z</time></trkpt><trkpt lat="44.57906734834884" lon="10.484701862760208"><ele>390.79999999999995</ele><time>2026-03-28T11:08:19Z</time></trkpt><trkpt lat="44.57906028950871" lon="10.48483023194799"><ele>388.6</ele><time>2026-03-28T11:08:21Z</time></trkpt><trkpt lat="44.57904857981538" lon="10.484930552375381"><ele>386.4</ele><time>2026-03-28T11:08:22.999Z</time></trkpt><trkpt lat="44.57899028474185" lon="10.485028701015922"><ele>384.20000000000005</ele><time>2026-03-28T11:08:24.999Z</time></trkpt><trkpt lat="44.578915366522885" lon="10.485146896250253"><ele>382.0</ele><time>2026-03-28T11:08:26.999Z</time></trkpt><trkpt lat="44.57886925748873" lon="10.485299604733846"><ele>379.66666666666663</ele><time>2026-03-28T11:08:28.999Z</time></trkpt><trkpt lat="44.57886334684796" lon="10.485459680706326"><ele>377.3333333333333</ele><time>2026-03-28T11:08:30.999Z</time></trkpt><trkpt lat="44.578834795141304" lon="10.485555187909908"><ele>375.0</ele><time>2026-03-28T11:08:32.999Z</time></trkpt><trkpt lat="44.57877518607828" lon="10.48564260821513"><ele>372.6666666666667</ele><time>2026-03-28T11:08:34.999Z</time></trkpt><trkpt lat="44.57873482093894" lon="10.485715619035224"><ele>370.33333333333337</ele><time>2026-03-28T11:08:35.999Z</time></trkpt><trkpt lat="44.57865092390737" lon="10.485804919853651"><ele>368.0</ele><time>2026-03-28T11:08:37.999Z</time></trkpt><trkpt lat="44.578586790585106" lon="10.485865002071662"><ele>366.1666666666667</ele><time>2026-03-28T11:08:40.999Z</time></trkpt><trkpt lat="44.578514741896115" lon="10.485949598958907"><ele>364.33333333333337</ele><time>2026-03-28T11:08:43.999Z</time></trkpt><trkpt lat="44.57846682709429" lon="10.486018835900936"><ele>362.5</ele><time>2026-03-28T11:08:46.999Z</time></trkpt><trkpt lat="44.578448368450395" lon="10.48611772655248"><ele>360.6666666666667</ele><time>2026-03-28T11:08:52.999Z</time></trkpt><trkpt lat="44.57841627683538" lon="10.486226506384401"><ele>358.8333333333333</ele><time>2026-03-28T11:09:01Z</time></trkpt><trkpt lat="44.57838061146623" lon="10.486355724382195"><ele>357.0</ele><time>2026-03-28T11:09:03Z</time></trkpt><trkpt lat="44.57835259709263" lon="10.48643857041635"><ele>356.0</ele><time>2026-03-28T11:09:04Z</time></trkpt><trkpt lat="44.578325070318364" lon="10.486523888921528"><ele>355.0</ele><time>2026-03-28T11:09:05Z</time></trkpt><trkpt lat="44.578277362043345" lon="10.486583979529316"><ele>354.0</ele><time>2026-03-28T11:09:06Z</time></trkpt><trkpt lat="44.57823728989755" lon="10.486653701067034"><ele>353.0</ele><time>2026-03-28T11:09:07Z</time></trkpt><trkpt lat="44.5781947555501" lon="10.48673142170407"><ele>352.0</ele><time>2026-03-28T11:09:08Z</time></trkpt><trkpt lat="44.57813657771302" lon="10.48683633720704"><ele>351.0</ele><time>2026-03-28T11:09:10Z</time></trkpt><trkpt lat="44.57807973912913" lon="10.486915802570508"><ele>350.0</ele><time>2026-03-28T11:09:12Z</time></trkpt><trkpt lat="44.577999070371355" lon="10.486938658910407"><ele>350.0</ele><time>2026-03-28T11:09:14Z</time></trkpt><trkpt lat="44.57790668190757" lon="10.486874854119728"><ele>350.0</ele><time>2026-03-28T11:09:16Z</time></trkpt><trkpt lat="44.57783480298161" lon="10.48678953934363"><ele>350.0</ele><time>2026-03-28T11:09:18Z</time></trkpt><trkpt lat="44.57777108423578" lon="10.486672415347165"><ele>350.0</ele><time>2026-03-28T11:09:20Z</time></trkpt><trkpt lat="44.577728512590866" lon="10.486549357462042"><ele>350.0</ele><time>2026-03-28T11:09:22Z</time></trkpt><trkpt lat="44.57771457526181" lon="10.486401088029556"><ele>346.83333333333337</ele><time>2026-03-28T11:09:24Z</time></trkpt><trkpt lat="44.57771825347667" lon="10.48627328200346"><ele>343.6666666666667</ele><time>2026-03-28T11:09:26Z</time></trkpt><trkpt lat="44.57769702697239" lon="10.486148439833228"><ele>340.5</ele><time>2026-03-28T11:09:28Z</time></trkpt><trkpt lat="44.57766747887915" lon="10.48603883573002"><ele>337.3333333333333</ele><time>2026-03-28T11:09:30Z</time></trkpt><trkpt lat="44.57767419409912" lon="10.485903650163154"><ele>334.16666666666663</ele><time>2026-03-28T11:09:32Z</time></trkpt><trkpt lat="44.577628529008756" lon="10.485805376594495"><ele>331.0</ele><time>2026-03-28T11:09:34Z</time></trkpt><trkpt lat="44.577577646298" lon="10.485732156009494"><ele>331.0</ele><time>2026-03-28T11:09:36Z</time></trkpt><trkpt lat="44.57748777203392" lon="10.485678847931766"><ele>331.0</ele><time>2026-03-28T11:09:38Z</time></trkpt><trkpt lat="44.57740657939726" lon="10.485613928099378"><ele>331.0</ele><time>2026-03-28T11:09:40Z</time></trkpt><trkpt lat="44.57734025289655" lon="10.485560275988258"><ele>331.0</ele><time>2026-03-28T11:09:45Z</time></trkpt><trkpt lat="44.577290306727875" lon="10.485503410209917"><ele>331.0</ele><time>2026-03-28T11:09:51Z</time></trkpt><trkpt lat="44.57722775496849" lon="10.48546237248842"><ele>331.0</ele><time>2026-03-28T11:10:01Z</time></trkpt><trkpt lat="44.57715966013939" lon="10.485446428671976"><ele>331.0</ele><time>2026-03-28T11:10:05Z</time></trkpt><trkpt lat="44.57705190776127" lon="10.485462216066196"><ele>331.0</ele><time>2026-03-28T11:10:08Z</time></trkpt><trkpt lat="44.57696337186967" lon="10.48549181126653"><ele>331.0</ele><time>2026-03-28T11:10:10Z</time></trkpt><trkpt lat="44.576906420969124" lon="10.485537820187892"><ele>331.0</ele><time>2026-03-28T11:10:11Z</time></trkpt><trkpt lat="44.576825210071085" lon="10.48562804210638"><ele>331.0</ele><time>2026-03-28T11:10:13Z</time></trkpt><trkpt lat="44.57674065746242" lon="10.485723703596735"><ele>327.0</ele><time>2026-03-28T11:10:15Z</time></trkpt><trkpt lat="44.5766606648598" lon="10.48578015383373"><ele>323.0</ele><time>2026-03-28T11:10:16.999Z</time></trkpt><trkpt lat="44.57656286042495" lon="10.485824282041785"><ele>319.0</ele><time>2026-03-28T11:10:18.999Z</time></trkpt><trkpt lat="44.57648509523766" lon="10.48581928390076"><ele>315.0</ele><time>2026-03-28T11:10:20.999Z</time></trkpt><trkpt lat="44.576443658695105" lon="10.485739450405033"><ele>311.0</ele><time>2026-03-28T11:10:28.999Z</time></trkpt><trkpt lat="44.57639483964637" lon="10.485623584513178"><ele>307.0</ele><time>2026-03-28T11:10:30.999Z</time></trkpt><trkpt lat="44.576315157540655" lon="10.485587305270148"><ele>306.99999999999994</ele><time>2026-03-28T11:10:32.999Z</time></trkpt><trkpt lat="44.57624626616919" lon="10.485567685718294"><ele>307.0</ele><time>2026-03-28T11:11:10Z</time></trkpt><trkpt lat="44.57618415388137" lon="10.485551335206555"><ele>307.0</ele><time>2026-03-28T11:11:15Z</time></trkpt><trkpt lat="44.57611382192947" lon="10.485574359239143"><ele>307.0</ele><time>2026-03-28T11:13:09Z</time></trkpt><trkpt lat="44.5760541720953" lon="10.485609150275272"><ele>307.0</ele><time>2026-03-28T11:13:11Z</time></trkpt><trkpt lat="44.575995735804774" lon="10.48566707042845"><ele>306.99999999999994</ele><time>2026-03-28T11:13:13Z</time></trkpt><trkpt lat="44.57591118306776" lon="10.485742916708594"><ele>307.0</ele><time>2026-03-28T11:13:15Z</time></trkpt><trkpt lat="44.57583883811533" lon="10.485819183523239"><ele>303.66666666666663</ele><time>2026-03-28T11:13:17Z</time></trkpt><trkpt lat="44.57574911862003" lon="10.485903100107958"><ele>300.3333333333333</ele><time>2026-03-28T11:13:19Z</time></trkpt><trkpt lat="44.57566557164293" lon="10.485995466710675"><ele>297.0</ele><time>2026-03-28T11:13:21Z</time></trkpt><trkpt lat="44.57560975555477" lon="10.486095223956939"><ele>293.6666666666667</ele><time>2026-03-28T11:13:23Z</time></trkpt><trkpt lat="44.57558904264193" lon="10.486179909452453"><ele>290.33333333333337</ele><time>2026-03-28T11:13:26Z</time></trkpt><trkpt lat="44.575577056392646" lon="10.486266703432559"><ele>287.0</ele><time>2026-03-28T11:13:29Z</time></trkpt><trkpt lat="44.57555999647818" lon="10.486352353201513"><ele>286.1666666666667</ele><time>2026-03-28T11:19:40Z</time></trkpt><trkpt lat="44.575559664069694" lon="10.48645565280636"><ele>285.33333333333337</ele><time>2026-03-28T11:19:42Z</time></trkpt><trkpt lat="44.575609889669586" lon="10.486528770209354"><ele>284.5</ele><time>2026-03-28T11:19:43Z</time></trkpt><trkpt lat="44.575674755015726" lon="10.486603804148393"><ele>283.6666666666667</ele><time>2026-03-28T11:19:44Z</time></trkpt><trkpt lat="44.57573812953324" lon="10.486703349147827"><ele>282.8333333333333</ele><time>2026-03-28T11:19:45Z</time></trkpt><trkpt lat="44.575804016636255" lon="10.48679881286981"><ele>282.0</ele><time>2026-03-28T11:19:46Z</time></trkpt><trkpt lat="44.57588074625529" lon="10.486898055998639"><ele>282.0</ele><time>2026-03-28T11:19:47Z</time></trkpt><trkpt lat="44.57596854003297" lon="10.48699200281085"><ele>282.0</ele><time>2026-03-28T11:19:48Z</time></trkpt><trkpt lat="44.57604493705187" lon="10.487086375225836"><ele>282.0</ele><time>2026-03-28T11:19:49Z</time></trkpt><trkpt lat="44.57612876835764" lon="10.48718827764469"><ele>282.0</ele><time>2026-03-28T11:19:50Z</time></trkpt><trkpt lat="44.57620653792013" lon="10.487301345948673"><ele>282.0</ele><time>2026-03-28T11:19:51Z</time></trkpt><trkpt lat="44.57627257861227" lon="10.487438063522545"><ele>283.8</ele><time>2026-03-28T11:19:52Z</time></trkpt><trkpt lat="44.57630649165569" lon="10.487583828659119"><ele>285.6</ele><time>2026-03-28T11:19:53Z</time></trkpt><trkpt lat="44.57633676135282" lon="10.487728874974987"><ele>287.40000000000003</ele><time>2026-03-28T11:19:54Z</time></trkpt><trkpt lat="44.57634929765849" lon="10.487883891824257"><ele>289.2</ele><time>2026-03-28T11:19:55Z</time></trkpt><trkpt lat="44.576367543408985" lon="10.488040406562419"><ele>291.0</ele><time>2026-03-28T11:19:56Z</time></trkpt><trkpt lat="44.57636340885301" lon="10.488203587208957"><ele>291.0</ele><time>2026-03-28T11:19:57Z</time></trkpt><trkpt lat="44.57636537062159" lon="10.48836649013784"><ele>291.0</ele><time>2026-03-28T11:19:58Z</time></trkpt><trkpt lat="44.57636539249116" lon="10.488526876533403"><ele>291.0</ele><time>2026-03-28T11:19:59Z</time></trkpt><trkpt lat="44.57636072541337" lon="10.488690489679493"><ele>291.0</ele><time>2026-03-28T11:20:00Z</time></trkpt><trkpt lat="44.57635301642831" lon="10.488855709246602"><ele>289.75</ele><time>2026-03-28T11:20:01Z</time></trkpt><trkpt lat="44.57635286429578" lon="10.489023794412109"><ele>288.5</ele><time>2026-03-28T11:20:02Z</time></trkpt><trkpt lat="44.57634315464261" lon="10.48919371432931"><ele>287.25</ele><time>2026-03-28T11:20:03Z</time></trkpt><trkpt lat="44.57633273388377" lon="10.489360553837642"><ele>286.0</ele><time>2026-03-28T11:20:04Z</time></trkpt><trkpt lat="44.5763220590824" lon="10.489527396108217"><ele>285.40000000000003</ele><time>2026-03-28T11:20:05Z</time></trkpt><trkpt lat="44.57630944742393" lon="10.489667851072637"><ele>284.8</ele><time>2026-03-28T11:20:06Z</time></trkpt><trkpt lat="44.576303290453104" lon="10.489775523823404"><ele>284.20000000000005</ele><time>2026-03-28T11:20:07Z</time></trkpt><trkpt lat="44.57630136302976" lon="10.48991389767178"><ele>283.6</ele><time>2026-03-28T11:20:08Z</time></trkpt><trkpt lat="44.57629532884682" lon="10.490057157885959"><ele>283.0</ele><time>2026-03-28T11:20:09Z</time></trkpt><trkpt lat="44.57628113954446" lon="10.490205074723976"><ele>283.0</ele><time>2026-03-28T11:20:10Z</time></trkpt><trkpt lat="44.576272689914234" lon="10.490354088191234"><ele>283.0</ele><time>2026-03-28T11:20:11Z</time></trkpt><trkpt lat="44.576269412482475" lon="10.490500947503852"><ele>283.0</ele><time>2026-03-28T11:20:12Z</time></trkpt><trkpt lat="44.576273601899196" lon="10.490633191063614"><ele>283.0</ele><time>2026-03-28T11:20:13Z</time></trkpt><trkpt lat="44.57627203111631" lon="10.490766134001271"><ele>283.0</ele><time>2026-03-28T11:20:14Z</time></trkpt><trkpt lat="44.576266658612646" lon="10.490893019822593"><ele>282.2</ele><time>2026-03-28T11:20:15Z</time></trkpt><trkpt lat="44.576275915934644" lon="10.490995361114226"><ele>281.4</ele><time>2026-03-28T11:20:16Z</time></trkpt><trkpt lat="44.576288739987994" lon="10.491165349285895"><ele>280.59999999999997</ele><time>2026-03-28T11:20:18Z</time></trkpt><trkpt lat="44.576304840888476" lon="10.491276486365141"><ele>279.8</ele><time>2026-03-28T11:20:19Z</time></trkpt><trkpt lat="44.57632442049769" lon="10.491406123591503"><ele>279.0</ele><time>2026-03-28T11:20:20Z</time></trkpt><trkpt lat="44.57636409482925" lon="10.491527331970099"><ele>279.0</ele><time>2026-03-28T11:20:21Z</time></trkpt><trkpt lat="44.57640811926558" lon="10.491658398106477"><ele>279.0</ele><time>2026-03-28T11:20:22Z</time></trkpt><trkpt lat="44.57645041899996" lon="10.49179621412417"><ele>279.0</ele><time>2026-03-28T11:20:23Z</time></trkpt><trkpt lat="44.576487640063235" lon="10.491937781757901"><ele>279.0</ele><time>2026-03-28T11:20:24Z</time></trkpt><trkpt lat="44.57651952245574" lon="10.49208186053105"><ele>279.0</ele><time>2026-03-28T11:20:25Z</time></trkpt><trkpt lat="44.57654955873619" lon="10.492218960596698"><ele>279.5</ele><time>2026-03-28T11:20:25.999Z</time></trkpt><trkpt lat="44.576594862543125" lon="10.49234853914438"><ele>280.0</ele><time>2026-03-28T11:20:26.999Z</time></trkpt><trkpt lat="44.576608641867594" lon="10.492475619087276"><ele>280.5</ele><time>2026-03-28T11:20:27.999Z</time></trkpt><trkpt lat="44.57662594812692" lon="10.492608278186125"><ele>281.0</ele><time>2026-03-28T11:20:28.999Z</time></trkpt><trkpt lat="44.576595074481595" lon="10.492696275593328"><ele>281.5</ele><time>2026-03-28T11:20:29.999Z</time></trkpt><trkpt lat="44.576588834894125" lon="10.492801938147533"><ele>282.0</ele><time>2026-03-28T11:20:30.999Z</time></trkpt><trkpt lat="44.57655736825622" lon="10.492909410673322"><ele>281.4</ele><time>2026-03-28T11:20:31.999Z</time></trkpt><trkpt lat="44.576520493829406" lon="10.493026595727928"><ele>280.79999999999995</ele><time>2026-03-28T11:20:32.999Z</time></trkpt><trkpt lat="44.576487801600045" lon="10.493156829128987"><ele>280.2</ele><time>2026-03-28T11:20:33.999Z</time></trkpt><trkpt lat="44.57645248498989" lon="10.493298205533657"><ele>279.59999999999997</ele><time>2026-03-28T11:20:34.999Z</time></trkpt><trkpt lat="44.576418686138254" lon="10.493432581274872"><ele>279.0</ele><time>2026-03-28T11:20:35.999Z</time></trkpt><trkpt lat="44.5764067370657" lon="10.493571465304534"><ele>279.0</ele><time>2026-03-28T11:20:36.999Z</time></trkpt><trkpt lat="44.576403811363505" lon="10.493721687880768"><ele>279.0</ele><time>2026-03-28T11:20:37.999Z</time></trkpt><trkpt lat="44.576402418605205" lon="10.493866349015818"><ele>279.0</ele><time>2026-03-28T11:20:38.999Z</time></trkpt><trkpt lat="44.57642494888266" lon="10.49402195158752"><ele>279.0</ele><time>2026-03-28T11:20:39.999Z</time></trkpt><trkpt lat="44.576447334849775" lon="10.494177291219222"><ele>279.0</ele><time>2026-03-28T11:20:40.999Z</time></trkpt><trkpt lat="44.57646741313663" lon="10.494327215750772"><ele>278.2</ele><time>2026-03-28T11:20:41.999Z</time></trkpt><trkpt lat="44.576475800535775" lon="10.494492526538568"><ele>277.4</ele><time>2026-03-28T11:20:42.999Z</time></trkpt><trkpt lat="44.576497081700495" lon="10.494632207972675"><ele>276.6</ele><time>2026-03-28T11:20:43.999Z</time></trkpt><trkpt lat="44.576528270089646" lon="10.494776669279759"><ele>275.8</ele><time>2026-03-28T11:20:44.999Z</time></trkpt><trkpt lat="44.57656540682286" lon="10.494924153882563"><ele>275.0</ele><time>2026-03-28T11:20:45.999Z</time></trkpt><trkpt lat="44.57659524385149" lon="10.495074155611197"><ele>273.75</ele><time>2026-03-28T11:20:46.999Z</time></trkpt><trkpt lat="44.57664385970331" lon="10.495242950188329"><ele>272.5</ele><time>2026-03-28T11:20:47.999Z</time></trkpt><trkpt lat="44.57670380088126" lon="10.495412984385341"><ele>271.25</ele><time>2026-03-28T11:20:48.999Z</time></trkpt><trkpt lat="44.57678141118283" lon="10.49556878396311"><ele>270.0</ele><time>2026-03-28T11:20:49.999Z</time></trkpt><trkpt lat="44.57686967833835" lon="10.495727106290628"><ele>271.0</ele><time>2026-03-28T11:20:50.999Z</time></trkpt><trkpt lat="44.576952465300735" lon="10.495877525937223"><ele>272.0</ele><time>2026-03-28T11:20:51.999Z</time></trkpt><trkpt lat="44.57704019272161" lon="10.496027939896077"><ele>273.0</ele><time>2026-03-28T11:20:52.999Z</time></trkpt><trkpt lat="44.57712090801679" lon="10.496181483177564"><ele>274.0</ele><time>2026-03-28T11:20:53.999Z</time></trkpt><trkpt lat="44.57720644967396" lon="10.496335845121243"><ele>271.75</ele><time>2026-03-28T11:20:54.999Z</time></trkpt><trkpt lat="44.57728114521684" lon="10.496481914905653"><ele>269.5</ele><time>2026-03-28T11:20:55.999Z</time></trkpt><trkpt lat="44.57737091562827" lon="10.496630743110403"><ele>267.25</ele><time>2026-03-28T11:20:56.999Z</time></trkpt><trkpt lat="44.57745457848097" lon="10.496778659394229"><ele>265.0</ele><time>2026-03-28T11:20:57.999Z</time></trkpt><trkpt lat="44.577538430468" lon="10.496922623926714"><ele>265.0</ele><time>2026-03-28T11:20:58.999Z</time></trkpt><trkpt lat="44.57761669022845" lon="10.497065162062176"><ele>265.0</ele><time>2026-03-28T11:20:59.999Z</time></trkpt><trkpt lat="44.57768308388406" lon="10.49720389503576"><ele>265.0</ele><time>2026-03-28T11:21:00.999Z</time></trkpt><trkpt lat="44.577763970226805" lon="10.497334485213218"><ele>265.0</ele><time>2026-03-28T11:21:01.999Z</time></trkpt><trkpt lat="44.577840663803094" lon="10.497466994290543"><ele>265.6</ele><time>2026-03-28T11:21:02.999Z</time></trkpt><trkpt lat="44.57790798419685" lon="10.49759325105962"><ele>266.2</ele><time>2026-03-28T11:21:03.999Z</time></trkpt><trkpt lat="44.57797454105766" lon="10.497719466925748"><ele>266.8</ele><time>2026-03-28T11:21:04.999Z</time></trkpt><trkpt lat="44.57804531426246" lon="10.49784552862734"><ele>267.4</ele><time>2026-03-28T11:21:05.999Z</time></trkpt><trkpt lat="44.57811436478912" lon="10.49796296368254"><ele>268.0</ele><time>2026-03-28T11:21:06.999Z</time></trkpt><trkpt lat="44.57818713726259" lon="10.49808744776523"><ele>266.6</ele><time>2026-03-28T11:21:07.999Z</time></trkpt><trkpt lat="44.57825668159237" lon="10.498210289707949"><ele>265.20000000000005</ele><time>2026-03-28T11:21:08.999Z</time></trkpt><trkpt lat="44.57833027766637" lon="10.498334519134605"><ele>263.8</ele><time>2026-03-28T11:21:09.999Z</time></trkpt><trkpt lat="44.57839354006212" lon="10.498458147500708"><ele>262.40000000000003</ele><time>2026-03-28T11:21:10.999Z</time></trkpt><trkpt lat="44.5784506185361" lon="10.498586245320988"><ele>261.0</ele><time>2026-03-28T11:21:11.999Z</time></trkpt><trkpt lat="44.57850672799242" lon="10.498719237915966"><ele>259.75</ele><time>2026-03-28T11:21:12.999Z</time></trkpt><trkpt lat="44.57854543699523" lon="10.498870018625006"><ele>258.5</ele><time>2026-03-28T11:21:13.999Z</time></trkpt><trkpt lat="44.578568968788225" lon="10.499039337134567"><ele>257.25</ele><time>2026-03-28T11:21:14.999Z</time></trkpt><trkpt lat="44.57857919040281" lon="10.49920260969453"><ele>256.0</ele><time>2026-03-28T11:21:15.999Z</time></trkpt><trkpt lat="44.57860243327543" lon="10.49938013317556"><ele>256.0</ele><time>2026-03-28T11:21:16.999Z</time></trkpt><trkpt lat="44.578618710541555" lon="10.499549077138779"><ele>256.0</ele><time>2026-03-28T11:21:17.999Z</time></trkpt><trkpt lat="44.57864124966576" lon="10.499697999045935"><ele>256.0</ele><time>2026-03-28T11:21:18.999Z</time></trkpt><trkpt lat="44.57868727753266" lon="10.499821403911684"><ele>256.0</ele><time>2026-03-28T11:21:19.999Z</time></trkpt><trkpt lat="44.57874811571379" lon="10.499919284109183"><ele>256.0</ele><time>2026-03-28T11:21:20.999Z</time></trkpt><trkpt lat="44.578824921153995" lon="10.500002594100348"><ele>255.5</ele><time>2026-03-28T11:21:21.999Z</time></trkpt><trkpt lat="44.578904377982674" lon="10.500091379880953"><ele>255.0</ele><time>2026-03-28T11:21:22.999Z</time></trkpt><trkpt lat="44.578995117962435" lon="10.50019878089209"><ele>254.5</ele><time>2026-03-28T11:21:23.999Z</time></trkpt><trkpt lat="44.5790767516095" lon="10.500313492339219"><ele>254.0</ele><time>2026-03-28T11:21:24.999Z</time></trkpt><trkpt lat="44.57916230460782" lon="10.500430459576537"><ele>254.0</ele><time>2026-03-28T11:21:25.999Z</time></trkpt><trkpt lat="44.57925132233393" lon="10.50054489337538"><ele>254.0</ele><time>2026-03-28T11:21:26.999Z</time></trkpt><trkpt lat="44.57934337973372" lon="10.500663448072956"><ele>254.0</ele><time>2026-03-28T11:21:27.999Z</time></trkpt><trkpt lat="44.579434975926006" lon="10.50078464306545"><ele>254.0</ele><time>2026-03-28T11:21:29Z</time></trkpt><trkpt lat="44.57952157975479" lon="10.500908316515579"><ele>254.75</ele><time>2026-03-28T11:21:30Z</time></trkpt><trkpt lat="44.57960818368703" lon="10.501022169599821"><ele>255.5</ele><time>2026-03-28T11:21:31Z</time></trkpt><trkpt lat="44.57969509434511" lon="10.501138167329897"><ele>256.25</ele><time>2026-03-28T11:21:32Z</time></trkpt><trkpt lat="44.579782230391494" lon="10.50125452327827"><ele>257.0</ele><time>2026-03-28T11:21:33Z</time></trkpt><trkpt lat="44.57986542108588" lon="10.501366743353255"><ele>257.0</ele><time>2026-03-28T11:21:34Z</time></trkpt><trkpt lat="44.579950909751545" lon="10.501477088310738"><ele>257.0</ele><time>2026-03-28T11:21:35Z</time></trkpt><trkpt lat="44.58003264715838" lon="10.501586662548231"><ele>257.0</ele><time>2026-03-28T11:21:36Z</time></trkpt><trkpt lat="44.58011461435196" lon="10.501704570226835"><ele>257.0</ele><time>2026-03-28T11:21:37Z</time></trkpt><trkpt lat="44.580197544263875" lon="10.501819076507534"><ele>257.0</ele><time>2026-03-28T11:21:38Z</time></trkpt><trkpt lat="44.580289192965296" lon="10.501927461569878"><ele>257.0</ele><time>2026-03-28T11:21:39Z</time></trkpt><trkpt lat="44.58038257295181" lon="10.50202988410829"><ele>257.0</ele><time>2026-03-28T11:21:40Z</time></trkpt><trkpt lat="44.580475372868925" lon="10.502118168441486"><ele>257.0</ele><time>2026-03-28T11:21:41Z</time></trkpt><trkpt lat="44.58057444212558" lon="10.502213433147602"><ele>257.0</ele><time>2026-03-28T11:21:42Z</time></trkpt><trkpt lat="44.580662472693916" lon="10.50230551573116"><ele>257.0</ele><time>2026-03-28T11:21:43Z</time></trkpt><trkpt lat="44.5807465752081" lon="10.502396703584616"><ele>257.0</ele><time>2026-03-28T11:21:44Z</time></trkpt><trkpt lat="44.58082775034262" lon="10.502481550460022"><ele>257.0</ele><time>2026-03-28T11:21:45Z</time></trkpt><trkpt lat="44.58091055693406" lon="10.502567553340386"><ele>257.0</ele><time>2026-03-28T11:21:46Z</time></trkpt><trkpt lat="44.580992578502624" lon="10.502653900714146"><ele>257.0</ele><time>2026-03-28T11:21:47Z</time></trkpt><trkpt lat="44.58107442396917" lon="10.502744849246108"><ele>257.0</ele><time>2026-03-28T11:21:48Z</time></trkpt><trkpt lat="44.5811525832307" lon="10.502843565778294"><ele>257.0</ele><time>2026-03-28T11:21:49Z</time></trkpt><trkpt lat="44.581231182052704" lon="10.502940971609066"><ele>257.0</ele><time>2026-03-28T11:21:50Z</time></trkpt><trkpt lat="44.581316931304414" lon="10.503034807651773"><ele>257.0</ele><time>2026-03-28T11:21:51Z</time></trkpt><trkpt lat="44.581401145592075" lon="10.503120484457588"><ele>255.50000000000003</ele><time>2026-03-28T11:21:52Z</time></trkpt><trkpt lat="44.58146443098326" lon="10.503185769432957"><ele>254.0</ele><time>2026-03-28T11:21:53Z</time></trkpt><trkpt lat="44.581548449470375" lon="10.503268594015662"><ele>252.5</ele><time>2026-03-28T11:21:55Z</time></trkpt><trkpt lat="44.58160127247476" lon="10.503348752651974"><ele>251.0</ele><time>2026-03-28T11:21:58Z</time></trkpt><trkpt lat="44.581517432616444" lon="10.50336379710953"><ele>249.50000000000003</ele><time>2026-03-28T11:22:04Z</time></trkpt><trkpt lat="44.58158537188776" lon="10.503375167679124"><ele>248.0</ele><time>2026-03-28T11:23:15.999Z</time></trkpt><trkpt lat="44.58166462300001" lon="10.503359242548203"><ele>248.0</ele><time>2026-03-28T11:23:16.999Z</time></trkpt><trkpt lat="44.58177153777058" lon="10.503543130258196"><ele>248.0</ele><time>2026-03-28T11:23:17.999Z</time></trkpt><trkpt lat="44.58187973583296" lon="10.50366943761844"><ele>248.0</ele><time>2026-03-28T11:23:18.999Z</time></trkpt><trkpt lat="44.5819872638955" lon="10.503831006563832"><ele>249.0</ele><time>2026-03-28T11:23:19.999Z</time></trkpt><trkpt lat="44.582081101384745" lon="10.503990609324667"><ele>250.0</ele><time>2026-03-28T11:23:20.999Z</time></trkpt><trkpt lat="44.582169494558435" lon="10.504134695435173"><ele>251.0</ele><time>2026-03-28T11:23:21.999Z</time></trkpt><trkpt lat="44.58225185193883" lon="10.504263200919388"><ele>252.0</ele><time>2026-03-28T11:23:22.999Z</time></trkpt><trkpt lat="44.5823310541792" lon="10.504352708979887"><ele>252.0</ele><time>2026-03-28T11:23:23.999Z</time></trkpt><trkpt lat="44.58242487513902" lon="10.504414891819088"><ele>252.0</ele><time>2026-03-28T11:23:24.999Z</time></trkpt><trkpt lat="44.582538780206924" lon="10.5044815346884"><ele>252.0</ele><time>2026-03-28T11:23:25.999Z</time></trkpt><trkpt lat="44.58264752724638" lon="10.504574976127165"><ele>252.0</ele><time>2026-03-28T11:23:26.999Z</time></trkpt><trkpt lat="44.58276868425484" lon="10.504656994310146"><ele>250.5</ele><time>2026-03-28T11:23:27.999Z</time></trkpt><trkpt lat="44.58289305090731" lon="10.504720703467846"><ele>249.0</ele><time>2026-03-28T11:23:28.999Z</time></trkpt><trkpt lat="44.583008313848545" lon="10.504804745678427"><ele>247.5</ele><time>2026-03-28T11:23:29.999Z</time></trkpt><trkpt lat="44.58310072251012" lon="10.504912841507291"><ele>246.0</ele><time>2026-03-28T11:23:30.999Z</time></trkpt><trkpt lat="44.58319182914546" lon="10.505007085954677"><ele>246.0</ele><time>2026-03-28T11:23:31.999Z</time></trkpt><trkpt lat="44.58329063393974" lon="10.505095226326189"><ele>246.0</ele><time>2026-03-28T11:23:32.999Z</time></trkpt><trkpt lat="44.583359199902276" lon="10.505214459310391"><ele>246.0</ele><time>2026-03-28T11:23:33.999Z</time></trkpt><trkpt lat="44.58341494179752" lon="10.505348858640227"><ele>246.0</ele><time>2026-03-28T11:23:35Z</time></trkpt><trkpt lat="44.58343046131211" lon="10.50550837466694"><ele>244.25</ele><time>2026-03-28T11:23:36Z</time></trkpt><trkpt lat="44.583458752975666" lon="10.505679672761758"><ele>242.5</ele><time>2026-03-28T11:23:37Z</time></trkpt><trkpt lat="44.58346166980483" lon="10.505862077995788"><ele>240.75</ele><time>2026-03-28T11:23:38Z</time></trkpt><trkpt lat="44.58346438025766" lon="10.506042182357037"><ele>239.0</ele><time>2026-03-28T11:23:39Z</time></trkpt><trkpt lat="44.583474078395284" lon="10.50620915349831"><ele>238.5</ele><time>2026-03-28T11:23:40Z</time></trkpt><trkpt lat="44.58350992720466" lon="10.50637398621605"><ele>238.0</ele><time>2026-03-28T11:23:41Z</time></trkpt><trkpt lat="44.58356628285532" lon="10.506524881888259"><ele>237.5</ele><time>2026-03-28T11:23:42Z</time></trkpt><trkpt lat="44.58363437026805" lon="10.50666417617825"><ele>237.0</ele><time>2026-03-28T11:23:43Z</time></trkpt><trkpt lat="44.58371589718274" lon="10.50678459346566"><ele>236.2</ele><time>2026-03-28T11:23:44Z</time></trkpt><trkpt lat="44.583784091463315" lon="10.506896447913185"><ele>235.39999999999998</ele><time>2026-03-28T11:23:45Z</time></trkpt><trkpt lat="44.58383859285723" lon="10.507019510934454"><ele>234.60000000000002</ele><time>2026-03-28T11:23:46Z</time></trkpt><trkpt lat="44.58382505249505" lon="10.507164426198049"><ele>233.8</ele><time>2026-03-28T11:23:47Z</time></trkpt><trkpt lat="44.583841221812094" lon="10.507318438793662"><ele>233.0</ele><time>2026-03-28T11:23:48Z</time></trkpt><trkpt lat="44.583846029273204" lon="10.507466382841015"><ele>233.0</ele><time>2026-03-28T11:23:49Z</time></trkpt><trkpt lat="44.5838648775834" lon="10.507601900759393"><ele>233.0</ele><time>2026-03-28T11:23:50Z</time></trkpt><trkpt lat="44.58395870720035" lon="10.507696976324462"><ele>233.0</ele><time>2026-03-28T11:23:51Z</time></trkpt><trkpt lat="44.5840535235714" lon="10.507787863765762"><ele>233.0</ele><time>2026-03-28T11:23:52Z</time></trkpt><trkpt lat="44.58416487870804" lon="10.507841754021948"><ele>233.0</ele><time>2026-03-28T11:23:53Z</time></trkpt><trkpt lat="44.584292722833176" lon="10.507865555927642"><ele>233.0</ele><time>2026-03-28T11:23:54Z</time></trkpt><trkpt lat="44.5844225183607" lon="10.507866768431406"><ele>233.0</ele><time>2026-03-28T11:23:55Z</time></trkpt><trkpt lat="44.58453623916732" lon="10.50789417430126"><ele>233.0</ele><time>2026-03-28T11:23:56Z</time></trkpt><trkpt lat="44.58463488869513" lon="10.507908290626418"><ele>233.0</ele><time>2026-03-28T11:23:57Z</time></trkpt><trkpt lat="44.584716982249105" lon="10.507925674440896"><ele>233.0</ele><time>2026-03-28T11:23:58Z</time></trkpt><trkpt lat="44.584754172219576" lon="10.508032834010772"><ele>233.4</ele><time>2026-03-28T11:23:59Z</time></trkpt><trkpt lat="44.58477170850188" lon="10.50816653989468"><ele>233.8</ele><time>2026-03-28T11:24:00Z</time></trkpt><trkpt lat="44.58482911184061" lon="10.508276601933117"><ele>234.2</ele><time>2026-03-28T11:24:01Z</time></trkpt><trkpt lat="44.58489618330154" lon="10.508370393773848"><ele>234.6</ele><time>2026-03-28T11:24:02Z</time></trkpt><trkpt lat="44.58499855355514" lon="10.508425534473295"><ele>235.0</ele><time>2026-03-28T11:24:03Z</time></trkpt><trkpt lat="44.58511803183325" lon="10.508457251652016"><ele>235.0</ele><time>2026-03-28T11:24:04Z</time></trkpt><trkpt lat="44.5852370709301" lon="10.508469539017792"><ele>235.0</ele><time>2026-03-28T11:24:05Z</time></trkpt><trkpt lat="44.58535700420614" lon="10.508481944867137"><ele>235.0</ele><time>2026-03-28T11:24:06Z</time></trkpt><trkpt lat="44.58546222500119" lon="10.508491263776353"><ele>235.0</ele><time>2026-03-28T11:24:07Z</time></trkpt><trkpt lat="44.58557838680364" lon="10.508489785040336"><ele>234.75</ele><time>2026-03-28T11:24:08Z</time></trkpt><trkpt lat="44.58569369328982" lon="10.508506715152317"><ele>234.5</ele><time>2026-03-28T11:24:09Z</time></trkpt><trkpt lat="44.585815273890084" lon="10.5085112735299"><ele>234.25</ele><time>2026-03-28T11:24:10Z</time></trkpt><trkpt lat="44.5859294025562" lon="10.50852288071464"><ele>234.0</ele><time>2026-03-28T11:24:11Z</time></trkpt><trkpt lat="44.58603966392848" lon="10.508538441423179"><ele>234.0</ele><time>2026-03-28T11:24:12Z</time></trkpt><trkpt lat="44.58614086738262" lon="10.508560282647258"><ele>233.99999999999997</ele><time>2026-03-28T11:24:13Z</time></trkpt><trkpt lat="44.58623498684293" lon="10.508598971162794"><ele>233.99999999999997</ele><time>2026-03-28T11:24:14Z</time></trkpt><trkpt lat="44.58632958723948" lon="10.508649801710572"><ele>234.0</ele><time>2026-03-28T11:24:15Z</time></trkpt><trkpt lat="44.586428652779865" lon="10.508687309696862"><ele>234.0</ele><time>2026-03-28T11:24:16Z</time></trkpt><trkpt lat="44.586522028141246" lon="10.508725470155479"><ele>233.6</ele><time>2026-03-28T11:24:17Z</time></trkpt><trkpt lat="44.586609015555375" lon="10.508767599353261"><ele>233.2</ele><time>2026-03-28T11:24:18Z</time></trkpt><trkpt lat="44.586683633641606" lon="10.508797311801617"><ele>232.79999999999998</ele><time>2026-03-28T11:24:19Z</time></trkpt><trkpt lat="44.58679237210185" lon="10.508812466332321"><ele>232.39999999999998</ele><time>2026-03-28T11:24:21Z</time></trkpt><trkpt lat="44.58687190960693" lon="10.50865119786894"><ele>232.0</ele><time>2026-03-28T11:24:24Z</time></trkpt><trkpt lat="44.58691295128974" lon="10.508548528254927"><ele>232.0</ele><time>2026-03-28T11:24:25Z</time></trkpt><trkpt lat="44.58697134288328" lon="10.508454351384598"><ele>232.0</ele><time>2026-03-28T11:24:26Z</time></trkpt><trkpt lat="44.58707932238306" lon="10.508456308416886"><ele>232.0</ele><time>2026-03-28T11:24:27Z</time></trkpt><trkpt lat="44.587176328319394" lon="10.508426851328895"><ele>232.0</ele><time>2026-03-28T11:24:28Z</time></trkpt><trkpt lat="44.58726358984918" lon="10.508385201312423"><ele>232.0</ele><time>2026-03-28T11:24:29Z</time></trkpt><trkpt lat="44.587340795217926" lon="10.508362543046294"><ele>232.2</ele><time>2026-03-28T11:24:30Z</time></trkpt><trkpt lat="44.58745277507787" lon="10.508317076985279"><ele>232.39999999999998</ele><time>2026-03-28T11:24:32Z</time></trkpt><trkpt lat="44.587581850224545" lon="10.508259415208324"><ele>232.60000000000002</ele><time>2026-03-28T11:24:34Z</time></trkpt><trkpt lat="44.58765104842467" lon="10.508238857022151"><ele>232.8</ele><time>2026-03-28T11:24:35Z</time></trkpt><trkpt lat="44.5877538337254" lon="10.508189987644917"><ele>233.0</ele><time>2026-03-28T11:24:37Z</time></trkpt><trkpt lat="44.58785258193687" lon="10.508115288143088"><ele>233.50000000000003</ele><time>2026-03-28T11:24:39Z</time></trkpt><trkpt lat="44.58791580166569" lon="10.508082056636628"><ele>234.0</ele><time>2026-03-28T11:24:39.999Z</time></trkpt><trkpt lat="44.58798055149237" lon="10.508052103566847"><ele>234.5</ele><time>2026-03-28T11:24:40.999Z</time></trkpt><trkpt lat="44.58804519655062" lon="10.508012998406977"><ele>235.0</ele><time>2026-03-28T11:24:41.999Z</time></trkpt><trkpt lat="44.58811261897735" lon="10.508000090305762"><ele>235.50000000000003</ele><time>2026-03-28T11:24:42.999Z</time></trkpt><trkpt lat="44.588211340616766" lon="10.507941237739088"><ele>236.0</ele><time>2026-03-28T11:24:44.999Z</time></trkpt><trkpt lat="44.58829545804369" lon="10.507884899298046"><ele>236.0</ele><time>2026-03-28T11:24:46.999Z</time></trkpt><trkpt lat="44.588177994881406" lon="10.50785141331965"><ele>236.00000000000003</ele><time>2026-03-28T11:24:51.999Z</time></trkpt><trkpt lat="44.588133754260845" lon="10.50791620003355"><ele>236.00000000000003</ele><time>2026-03-28T11:24:59.999Z</time></trkpt><trkpt lat="44.58804339963914" lon="10.507970443904494"><ele>236.0</ele><time>2026-03-28T11:27:15.999Z</time></trkpt><trkpt lat="44.58793245285386" lon="10.50804578369843"><ele>236.0</ele><time>2026-03-28T11:27:17.999Z</time></trkpt><trkpt lat="44.58785656019671" lon="10.508085619507263"><ele>235.4</ele><time>2026-03-28T11:27:18.999Z</time></trkpt><trkpt lat="44.58777681497959" lon="10.508127550216882"><ele>234.8</ele><time>2026-03-28T11:27:19.999Z</time></trkpt><trkpt lat="44.58768656637666" lon="10.508172836622075"><ele>234.20000000000002</ele><time>2026-03-28T11:27:20.999Z</time></trkpt><trkpt lat="44.587584477805464" lon="10.508220426241046"><ele>233.60000000000002</ele><time>2026-03-28T11:27:21.999Z</time></trkpt><trkpt lat="44.58747944306245" lon="10.508268432452274"><ele>233.0</ele><time>2026-03-28T11:27:22.999Z</time></trkpt><trkpt lat="44.58736898850988" lon="10.508315446939541"><ele>233.0</ele><time>2026-03-28T11:27:23.999Z</time></trkpt><trkpt lat="44.58726069916527" lon="10.50835370208081"><ele>233.0</ele><time>2026-03-28T11:27:24.999Z</time></trkpt><trkpt lat="44.58715885547158" lon="10.508386242216403"><ele>233.0</ele><time>2026-03-28T11:27:25.999Z</time></trkpt><trkpt lat="44.587054562243345" lon="10.508415370141888"><ele>233.0</ele><time>2026-03-28T11:27:26.999Z</time></trkpt><trkpt lat="44.58695640178988" lon="10.50848985288064"><ele>233.0</ele><time>2026-03-28T11:27:27.999Z</time></trkpt><trkpt lat="44.586870302410084" lon="10.508553984895928"><ele>232.8</ele><time>2026-03-28T11:27:28.999Z</time></trkpt><trkpt lat="44.58682318897008" lon="10.508644199380383"><ele>232.60000000000002</ele><time>2026-03-28T11:27:29.999Z</time></trkpt><trkpt lat="44.586800012573796" lon="10.508748703012973"><ele>232.39999999999998</ele><time>2026-03-28T11:27:30.999Z</time></trkpt><trkpt lat="44.58666954335359" lon="10.508749695644983"><ele>232.2</ele><time>2026-03-28T11:27:32.999Z</time></trkpt><trkpt lat="44.58657283521912" lon="10.508714169969746"><ele>232.0</ele><time>2026-03-28T11:27:33.999Z</time></trkpt><trkpt lat="44.58646395668047" lon="10.508665503176118"><ele>232.0</ele><time>2026-03-28T11:27:34.999Z</time></trkpt><trkpt lat="44.58635907811037" lon="10.508621492980323"><ele>232.0</ele><time>2026-03-28T11:27:35.999Z</time></trkpt><trkpt lat="44.58625190948899" lon="10.508596327402852"><ele>232.0</ele><time>2026-03-28T11:27:36.999Z</time></trkpt><trkpt lat="44.5861508673505" lon="10.508553302600289"><ele>232.0</ele><time>2026-03-28T11:27:37.999Z</time></trkpt><trkpt lat="44.58604816633222" lon="10.508523963333126"><ele>232.0</ele><time>2026-03-28T11:27:38.999Z</time></trkpt><trkpt lat="44.585934125485124" lon="10.508485639486787"><ele>232.5</ele><time>2026-03-28T11:27:39.999Z</time></trkpt><trkpt lat="44.585816925149565" lon="10.508479728751789"><ele>233.0</ele><time>2026-03-28T11:27:40.999Z</time></trkpt><trkpt lat="44.58570622116279" lon="10.508473098041927"><ele>233.5</ele><time>2026-03-28T11:27:41.999Z</time></trkpt><trkpt lat="44.58559439906919" lon="10.50846430165943"><ele>234.0</ele><time>2026-03-28T11:27:42.999Z</time></trkpt><trkpt lat="44.5854731329494" lon="10.508476373078414"><ele>234.0</ele><time>2026-03-28T11:27:43.999Z</time></trkpt><trkpt lat="44.58535615145014" lon="10.508465766016512"><ele>233.99999999999997</ele><time>2026-03-28T11:27:44.999Z</time></trkpt><trkpt lat="44.585259993208616" lon="10.50844782056236"><ele>233.99999999999997</ele><time>2026-03-28T11:27:45.999Z</time></trkpt><trkpt lat="44.58515637996672" lon="10.50844283862386"><ele>234.0</ele><time>2026-03-28T11:27:46.999Z</time></trkpt><trkpt lat="44.5850513870208" lon="10.508409752439906"><ele>234.0</ele><time>2026-03-28T11:27:47.999Z</time></trkpt><trkpt lat="44.58495137166799" lon="10.50836604834095"><ele>234.2</ele><time>2026-03-28T11:27:48.999Z</time></trkpt><trkpt lat="44.58486627860708" lon="10.508290573810113"><ele>234.39999999999998</ele><time>2026-03-28T11:27:49.999Z</time></trkpt><trkpt lat="44.58480397327168" lon="10.508184867082502"><ele>234.6</ele><time>2026-03-28T11:27:50.999Z</time></trkpt><trkpt lat="44.58476999870215" lon="10.508067170132827"><ele>234.8</ele><time>2026-03-28T11:27:51.999Z</time></trkpt><trkpt lat="44.5847285673201" lon="10.507935822612247"><ele>235.0</ele><time>2026-03-28T11:27:52.999Z</time></trkpt><trkpt lat="44.584675022038574" lon="10.507847659970338"><ele>235.25</ele><time>2026-03-28T11:27:53.999Z</time></trkpt><trkpt lat="44.584570056123745" lon="10.507831864780432"><ele>235.5</ele><time>2026-03-28T11:27:54.999Z</time></trkpt><trkpt lat="44.584455959431054" lon="10.507831554026987"><ele>235.75</ele><time>2026-03-28T11:27:55.999Z</time></trkpt><trkpt lat="44.58434404265812" lon="10.507832192267418"><ele>236.0</ele><time>2026-03-28T11:27:56.999Z</time></trkpt><trkpt lat="44.58422418191841" lon="10.50782103511752"><ele>235.4</ele><time>2026-03-28T11:27:57.999Z</time></trkpt><trkpt lat="44.5841068089112" lon="10.507801505635904"><ele>234.8</ele><time>2026-03-28T11:27:58.999Z</time></trkpt><trkpt lat="44.58401862002688" lon="10.507718149633543"><ele>234.20000000000002</ele><time>2026-03-28T11:27:59.999Z</time></trkpt><trkpt lat="44.58393427989926" lon="10.507629885686502"><ele>233.60000000000002</ele><time>2026-03-28T11:28:00.999Z</time></trkpt><trkpt lat="44.58388350817709" lon="10.50750855610176"><ele>233.0</ele><time>2026-03-28T11:28:01.999Z</time></trkpt><trkpt lat="44.58384383424775" lon="10.50737994199901"><ele>233.0</ele><time>2026-03-28T11:28:02.999Z</time></trkpt><trkpt lat="44.5838545392025" lon="10.507234145395504"><ele>233.0</ele><time>2026-03-28T11:28:03.999Z</time></trkpt><trkpt lat="44.583858602563076" lon="10.507074842659087"><ele>233.0</ele><time>2026-03-28T11:28:04.999Z</time></trkpt><trkpt lat="44.58384344855169" lon="10.506926905007916"><ele>233.0</ele><time>2026-03-28T11:28:05.999Z</time></trkpt><trkpt lat="44.58377205159965" lon="10.506793823373721"><ele>233.0</ele><time>2026-03-28T11:28:06.999Z</time></trkpt><trkpt lat="44.583681292709585" lon="10.506683161134454"><ele>233.8</ele><time>2026-03-28T11:28:07.999Z</time></trkpt><trkpt lat="44.58361240015988" lon="10.506539990813293"><ele>234.60000000000002</ele><time>2026-03-28T11:28:08.999Z</time></trkpt><trkpt lat="44.58356115020922" lon="10.506420174368799"><ele>235.39999999999998</ele><time>2026-03-28T11:28:09.999Z</time></trkpt><trkpt lat="44.583525250256436" lon="10.506299848607743"><ele>236.2</ele><time>2026-03-28T11:28:10.999Z</time></trkpt><trkpt lat="44.583502081207875" lon="10.506176671947053"><ele>237.0</ele><time>2026-03-28T11:28:11.999Z</time></trkpt><trkpt lat="44.5834912919363" lon="10.506063416854557"><ele>237.33333333333334</ele><time>2026-03-28T11:28:12.999Z</time></trkpt><trkpt lat="44.58348627427318" lon="10.50594558756879"><ele>237.66666666666669</ele><time>2026-03-28T11:28:13.999Z</time></trkpt><trkpt lat="44.58348465492599" lon="10.505834108383135"><ele>238.0</ele><time>2026-03-28T11:28:14.999Z</time></trkpt><trkpt lat="44.58348073403922" lon="10.505679122358483"><ele>238.33333333333334</ele><time>2026-03-28T11:28:16.999Z</time></trkpt><trkpt lat="44.583470804892386" lon="10.505557865560432"><ele>238.66666666666669</ele><time>2026-03-28T11:28:18.999Z</time></trkpt><trkpt lat="44.58345688671947" lon="10.505461123743297"><ele>239.0</ele><time>2026-03-28T11:28:19.999Z</time></trkpt><trkpt lat="44.58343481740869" lon="10.505345336696418"><ele>240.75</ele><time>2026-03-28T11:28:20.999Z</time></trkpt><trkpt lat="44.58338668721166" lon="10.505216757457259"><ele>242.5</ele><time>2026-03-28T11:28:21.999Z</time></trkpt><trkpt lat="44.583324190745415" lon="10.505104958297212"><ele>244.25</ele><time>2026-03-28T11:28:22.999Z</time></trkpt><trkpt lat="44.58323102726168" lon="10.504991565796452"><ele>246.0</ele><time>2026-03-28T11:28:23.999Z</time></trkpt><trkpt lat="44.58312179894334" lon="10.50487809807511"><ele>246.0</ele><time>2026-03-28T11:28:24.999Z</time></trkpt><trkpt lat="44.58301253053838" lon="10.504778575584453"><ele>246.0</ele><time>2026-03-28T11:28:25.999Z</time></trkpt><trkpt lat="44.58289391317984" lon="10.504693333452483"><ele>246.0</ele><time>2026-03-28T11:28:26.999Z</time></trkpt><trkpt lat="44.58278597964126" lon="10.504617038580788"><ele>246.0</ele><time>2026-03-28T11:28:27.999Z</time></trkpt><trkpt lat="44.582676069089025" lon="10.504542543986048"><ele>247.20000000000002</ele><time>2026-03-28T11:28:28.999Z</time></trkpt><trkpt lat="44.582554557406304" lon="10.5044884586803"><ele>248.40000000000003</ele><time>2026-03-28T11:28:29.999Z</time></trkpt><trkpt lat="44.58245771855437" lon="10.50442724185005"><ele>249.6</ele><time>2026-03-28T11:28:30.999Z</time></trkpt><trkpt lat="44.582365347078756" lon="10.504357198918552"><ele>250.8</ele><time>2026-03-28T11:28:31.999Z</time></trkpt><trkpt lat="44.58227715011731" lon="10.504281133333384"><ele>252.0</ele><time>2026-03-28T11:28:32.999Z</time></trkpt><trkpt lat="44.5822122226165" lon="10.504159609476597"><ele>252.0</ele><time>2026-03-28T11:28:33.999Z</time></trkpt><trkpt lat="44.58212486900098" lon="10.504044718724145"><ele>252.0</ele><time>2026-03-28T11:28:34.999Z</time></trkpt><trkpt lat="44.58203926116445" lon="10.503906018263715"><ele>252.0</ele><time>2026-03-28T11:28:35.999Z</time></trkpt><trkpt lat="44.581953851094035" lon="10.503760983375054"><ele>252.0</ele><time>2026-03-28T11:28:36.999Z</time></trkpt><trkpt lat="44.58186939676001" lon="10.503628228570392"><ele>251.0</ele><time>2026-03-28T11:28:37.999Z</time></trkpt><trkpt lat="44.58177491342299" lon="10.503501238921311"><ele>250.0</ele><time>2026-03-28T11:28:38.999Z</time></trkpt><trkpt lat="44.58168507576726" lon="10.503384473953288"><ele>249.0</ele><time>2026-03-28T11:28:39.999Z</time></trkpt><trkpt lat="44.58158911337787" lon="10.503273663131422"><ele>248.0</ele><time>2026-03-28T11:28:40.999Z</time></trkpt><trkpt lat="44.581493277595385" lon="10.503173940236621"><ele>248.0</ele><time>2026-03-28T11:28:41.999Z</time></trkpt><trkpt lat="44.58139408427697" lon="10.503075185440789"><ele>248.0</ele><time>2026-03-28T11:28:42.999Z</time></trkpt><trkpt lat="44.581299369643816" lon="10.502986392454686"><ele>248.0</ele><time>2026-03-28T11:28:43.999Z</time></trkpt><trkpt lat="44.581209168077095" lon="10.502893605982857"><ele>248.0</ele><time>2026-03-28T11:28:44.999Z</time></trkpt><trkpt lat="44.58113595714458" lon="10.502801939879248"><ele>248.0</ele><time>2026-03-28T11:28:45.999Z</time></trkpt><trkpt lat="44.58107864928331" lon="10.502712645225651"><ele>249.50000000000003</ele><time>2026-03-28T11:28:46.999Z</time></trkpt><trkpt lat="44.58102332611277" lon="10.502634292987333"><ele>251.0</ele><time>2026-03-28T11:28:47.999Z</time></trkpt><trkpt lat="44.58096313569687" lon="10.502573990405923"><ele>252.5</ele><time>2026-03-28T11:28:48.999Z</time></trkpt><trkpt lat="44.580865788390575" lon="10.502497826546037"><ele>254.0</ele><time>2026-03-28T11:28:50.999Z</time></trkpt><trkpt lat="44.58081055743382" lon="10.502443838957895"><ele>255.50000000000003</ele><time>2026-03-28T11:28:51.999Z</time></trkpt><trkpt lat="44.580734669909724" lon="10.502361521122753"><ele>257.0</ele><time>2026-03-28T11:28:52.999Z</time></trkpt><trkpt lat="44.58065708451102" lon="10.502248183094771"><ele>257.0</ele><time>2026-03-28T11:28:53.999Z</time></trkpt><trkpt lat="44.580564803813076" lon="10.50215216985778"><ele>257.0</ele><time>2026-03-28T11:28:54.999Z</time></trkpt><trkpt lat="44.58046682252961" lon="10.50205163840274"><ele>257.0</ele><time>2026-03-28T11:28:55.999Z</time></trkpt><trkpt lat="44.580370181428236" lon="10.501946409886667"><ele>257.0</ele><time>2026-03-28T11:28:56.999Z</time></trkpt><trkpt lat="44.5802698798326" lon="10.501837195622366"><ele>257.0</ele><time>2026-03-28T11:28:57.999Z</time></trkpt><trkpt lat="44.58016780218106" lon="10.501717740498993"><ele>257.0</ele><time>2026-03-28T11:28:58.999Z</time></trkpt><trkpt lat="44.580069795182155" lon="10.501588707034701"><ele>257.0</ele><time>2026-03-28T11:28:59.999Z</time></trkpt><trkpt lat="44.579976027899356" lon="10.50145880708473"><ele>257.0</ele><time>2026-03-28T11:29:00.999Z</time></trkpt><trkpt lat="44.57987848494254" lon="10.501328160062872"><ele>256.25</ele><time>2026-03-28T11:29:01.999Z</time></trkpt><trkpt lat="44.57978148224553" lon="10.50119823665358"><ele>255.5</ele><time>2026-03-28T11:29:02.999Z</time></trkpt><trkpt lat="44.57968409439012" lon="10.501067797347975"><ele>254.75</ele><time>2026-03-28T11:29:03.999Z</time></trkpt><trkpt lat="44.57958562756968" lon="10.500947439522832"><ele>254.0</ele><time>2026-03-28T11:29:04.999Z</time></trkpt><trkpt lat="44.57949117788988" lon="10.500830759981211"><ele>254.0</ele><time>2026-03-28T11:29:05.999Z</time></trkpt><trkpt lat="44.579399252792086" lon="10.500708096847937"><ele>254.0</ele><time>2026-03-28T11:29:06.999Z</time></trkpt><trkpt lat="44.57930464644719" lon="10.500585190419203"><ele>254.0</ele><time>2026-03-28T11:29:07.999Z</time></trkpt><trkpt lat="44.579215897663886" lon="10.500474255879348"><ele>254.0</ele><time>2026-03-28T11:29:08.999Z</time></trkpt><trkpt lat="44.57912970721205" lon="10.500356745001755"><ele>256.0</ele><time>2026-03-28T11:29:09.999Z</time></trkpt><trkpt lat="44.57904180853878" lon="10.500247919788734"><ele>258.0</ele><time>2026-03-28T11:29:10.999Z</time></trkpt><trkpt lat="44.578959578653944" lon="10.500127569391557"><ele>260.0</ele><time>2026-03-28T11:29:11.999Z</time></trkpt><trkpt lat="44.57887298931162" lon="10.50001607840363"><ele>262.0</ele><time>2026-03-28T11:29:12.999Z</time></trkpt><trkpt lat="44.57879764344546" lon="10.499906769958686"><ele>262.0</ele><time>2026-03-28T11:29:13.999Z</time></trkpt><trkpt lat="44.57872535380869" lon="10.499803925775748"><ele>262.0</ele><time>2026-03-28T11:29:14.999Z</time></trkpt><trkpt lat="44.57866864250477" lon="10.499687503099189"><ele>262.0</ele><time>2026-03-28T11:29:15.999Z</time></trkpt><trkpt lat="44.57865071560586" lon="10.49955048679136"><ele>262.0</ele><time>2026-03-28T11:29:16.999Z</time></trkpt><trkpt lat="44.5786277711824" lon="10.49938465864452"><ele>262.0</ele><time>2026-03-28T11:29:17.999Z</time></trkpt><trkpt lat="44.578613766885276" lon="10.499210145204628"><ele>261.75</ele><time>2026-03-28T11:29:18.999Z</time></trkpt><trkpt lat="44.57859117914844" lon="10.499026211046285"><ele>261.5</ele><time>2026-03-28T11:29:19.999Z</time></trkpt><trkpt lat="44.57854647697897" lon="10.498854754892756"><ele>261.25</ele><time>2026-03-28T11:29:20.999Z</time></trkpt><trkpt lat="44.57849981395207" lon="10.498673357507904"><ele>261.0</ele><time>2026-03-28T11:29:21.999Z</time></trkpt><trkpt lat="44.5784352306742" lon="10.498495216492369"><ele>261.0</ele><time>2026-03-28T11:29:22.999Z</time></trkpt><trkpt lat="44.57835970400302" lon="10.498335795298654"><ele>261.0</ele><time>2026-03-28T11:29:23.999Z</time></trkpt><trkpt lat="44.57827288784402" lon="10.498185936672694"><ele>261.0</ele><time>2026-03-28T11:29:24.999Z</time></trkpt><trkpt lat="44.57817557611854" lon="10.498040883078495"><ele>261.0</ele><time>2026-03-28T11:29:25.999Z</time></trkpt><trkpt lat="44.57809849342955" lon="10.497871698169769"><ele>260.5</ele><time>2026-03-28T11:29:26.999Z</time></trkpt><trkpt lat="44.57799924996032" lon="10.497732935678055"><ele>260.0</ele><time>2026-03-28T11:29:27.999Z</time></trkpt><trkpt lat="44.57791731858725" lon="10.497583825277907"><ele>259.5</ele><time>2026-03-28T11:29:28.999Z</time></trkpt><trkpt lat="44.57783160305995" lon="10.497429603262152"><ele>259.0</ele><time>2026-03-28T11:29:29.999Z</time></trkpt><trkpt lat="44.57774317664526" lon="10.497276575420933"><ele>259.0</ele><time>2026-03-28T11:29:30.999Z</time></trkpt><trkpt lat="44.57766048608207" lon="10.49712852970053"><ele>259.0</ele><time>2026-03-28T11:29:31.999Z</time></trkpt><trkpt lat="44.57757719941938" lon="10.496977288327114"><ele>259.0</ele><time>2026-03-28T11:29:32.999Z</time></trkpt><trkpt lat="44.57749168936783" lon="10.496828038892449"><ele>259.0</ele><time>2026-03-28T11:29:33.999Z</time></trkpt><trkpt lat="44.57742067084991" lon="10.496661358819512"><ele>260.5</ele><time>2026-03-28T11:29:34.999Z</time></trkpt><trkpt lat="44.57733875474576" lon="10.496510656830655"><ele>262.0</ele><time>2026-03-28T11:29:35.999Z</time></trkpt><trkpt lat="44.57725788056301" lon="10.496362805642692"><ele>263.5</ele><time>2026-03-28T11:29:36.999Z</time></trkpt><trkpt lat="44.577178898778214" lon="10.496218511697123"><ele>265.0</ele><time>2026-03-28T11:29:37.999Z</time></trkpt><trkpt lat="44.57710372555411" lon="10.496081175709818"><ele>264.5</ele><time>2026-03-28T11:29:38.999Z</time></trkpt><trkpt lat="44.577035692219766" lon="10.495956883793102"><ele>264.0</ele><time>2026-03-28T11:29:39.999Z</time></trkpt><trkpt lat="44.57695845479463" lon="10.495815776662637"><ele>263.5</ele><time>2026-03-28T11:29:40.999Z</time></trkpt><trkpt lat="44.57687491456217" lon="10.495663154774185"><ele>263.0</ele><time>2026-03-28T11:29:41.999Z</time></trkpt><trkpt lat="44.57678133229069" lon="10.495527424029527"><ele>264.75</ele><time>2026-03-28T11:29:42.999Z</time></trkpt><trkpt lat="44.57670689912812" lon="10.495368912986267"><ele>266.5</ele><time>2026-03-28T11:29:43.999Z</time></trkpt><trkpt lat="44.57666047876659" lon="10.495199585391227"><ele>268.25</ele><time>2026-03-28T11:29:44.999Z</time></trkpt><trkpt lat="44.576616584701355" lon="10.49502798602793"><ele>270.0</ele><time>2026-03-28T11:29:45.999Z</time></trkpt><trkpt lat="44.57657999292954" lon="10.494854320194971"><ele>270.0</ele><time>2026-03-28T11:29:46.999Z</time></trkpt><trkpt lat="44.57652990768903" lon="10.494682887263874"><ele>270.0</ele><time>2026-03-28T11:29:47.999Z</time></trkpt><trkpt lat="44.57649822166902" lon="10.494512820939104"><ele>270.0</ele><time>2026-03-28T11:29:48.999Z</time></trkpt><trkpt lat="44.576488150130615" lon="10.494338247525931"><ele>270.0</ele><time>2026-03-28T11:29:49.999Z</time></trkpt><trkpt lat="44.57645146251746" lon="10.49415627020949"><ele>271.25</ele><time>2026-03-28T11:29:50.999Z</time></trkpt><trkpt lat="44.57644245684422" lon="10.493982682789797"><ele>272.5</ele><time>2026-03-28T11:29:51.999Z</time></trkpt><trkpt lat="44.576429079561535" lon="10.49380672431725"><ele>273.75</ele><time>2026-03-28T11:29:53Z</time></trkpt><trkpt lat="44.57642208779941" lon="10.49363525811648"><ele>275.0</ele><time>2026-03-28T11:29:54Z</time></trkpt><trkpt lat="44.576437056153445" lon="10.493462409738873"><ele>276.0</ele><time>2026-03-28T11:29:55Z</time></trkpt><trkpt lat="44.57645738010727" lon="10.493300888079201"><ele>277.0</ele><time>2026-03-28T11:29:56Z</time></trkpt><trkpt lat="44.57651308744305" lon="10.493141916276988"><ele>278.0</ele><time>2026-03-28T11:29:57Z</time></trkpt><trkpt lat="44.57654654116743" lon="10.492976183638316"><ele>279.0</ele><time>2026-03-28T11:29:58Z</time></trkpt><trkpt lat="44.57658423268047" lon="10.492831122341563"><ele>279.75</ele><time>2026-03-28T11:29:59Z</time></trkpt><trkpt lat="44.576629055078584" lon="10.492688165329527"><ele>280.5</ele><time>2026-03-28T11:30:00Z</time></trkpt><trkpt lat="44.5766437171678" lon="10.492534410878836"><ele>281.25</ele><time>2026-03-28T11:30:01Z</time></trkpt><trkpt lat="44.57662731268783" lon="10.492384035555524"><ele>282.0</ele><time>2026-03-28T11:30:02Z</time></trkpt><trkpt lat="44.57659175428214" lon="10.492216750385415"><ele>281.25</ele><time>2026-03-28T11:30:03Z</time></trkpt><trkpt lat="44.576538148944636" lon="10.492052249688777"><ele>280.5</ele><time>2026-03-28T11:30:04Z</time></trkpt><trkpt lat="44.5764971308974" lon="10.491886142049529"><ele>279.75</ele><time>2026-03-28T11:30:05Z</time></trkpt><trkpt lat="44.57646435814633" lon="10.491721877973125"><ele>279.0</ele><time>2026-03-28T11:30:06Z</time></trkpt><trkpt lat="44.57641666202258" lon="10.491572247750199"><ele>279.0</ele><time>2026-03-28T11:30:07Z</time></trkpt><trkpt lat="44.57635571950479" lon="10.491440328084945"><ele>279.0</ele><time>2026-03-28T11:30:08Z</time></trkpt><trkpt lat="44.576318410070975" lon="10.49130716158575"><ele>279.0</ele><time>2026-03-28T11:30:09Z</time></trkpt><trkpt lat="44.5763038630262" lon="10.491156707571124"><ele>279.0</ele><time>2026-03-28T11:30:10Z</time></trkpt><trkpt lat="44.57629496978354" lon="10.491000696464926"><ele>279.0</ele><time>2026-03-28T11:30:11Z</time></trkpt><trkpt lat="44.57627970762151" lon="10.490818371092146"><ele>279.0</ele><time>2026-03-28T11:30:12Z</time></trkpt><trkpt lat="44.576292811177886" lon="10.490628600067556"><ele>279.0</ele><time>2026-03-28T11:30:13Z</time></trkpt><trkpt lat="44.5763004896597" lon="10.490463977112984"><ele>279.0</ele><time>2026-03-28T11:30:14Z</time></trkpt><trkpt lat="44.57631183767706" lon="10.490291758328631"><ele>279.0</ele><time>2026-03-28T11:30:15Z</time></trkpt><trkpt lat="44.57632363462426" lon="10.490113367073102"><ele>280.0</ele><time>2026-03-28T11:30:16Z</time></trkpt><trkpt lat="44.57632843454371" lon="10.489944789068703"><ele>281.0</ele><time>2026-03-28T11:30:17Z</time></trkpt><trkpt lat="44.57633376359624" lon="10.489771538311096"><ele>282.0</ele><time>2026-03-28T11:30:18Z</time></trkpt><trkpt lat="44.57633654716253" lon="10.489599892716726"><ele>283.0</ele><time>2026-03-28T11:30:19Z</time></trkpt><trkpt lat="44.57635684203189" lon="10.48942483913402"><ele>283.75</ele><time>2026-03-28T11:30:20Z</time></trkpt><trkpt lat="44.57635349406481" lon="10.489247867545542"><ele>284.5</ele><time>2026-03-28T11:30:21Z</time></trkpt><trkpt lat="44.57637478950858" lon="10.489069923944731"><ele>285.25</ele><time>2026-03-28T11:30:22Z</time></trkpt><trkpt lat="44.57637853753241" lon="10.488888161390538"><ele>286.0</ele><time>2026-03-28T11:30:23Z</time></trkpt><trkpt lat="44.57638520344345" lon="10.488710212276935"><ele>287.25</ele><time>2026-03-28T11:30:24Z</time></trkpt><trkpt lat="44.57639078850864" lon="10.488534668379344"><ele>288.5</ele><time>2026-03-28T11:30:25Z</time></trkpt><trkpt lat="44.57638777163475" lon="10.488356240077344"><ele>289.75</ele><time>2026-03-28T11:30:26Z</time></trkpt><trkpt lat="44.57638563020042" lon="10.488174405491094"><ele>291.0</ele><time>2026-03-28T11:30:27Z</time></trkpt><trkpt lat="44.5763827517692" lon="10.488001495360352"><ele>291.75</ele><time>2026-03-28T11:30:28Z</time></trkpt><trkpt lat="44.57637237747353" lon="10.48782710628716"><ele>292.5</ele><time>2026-03-28T11:30:29Z</time></trkpt><trkpt lat="44.57635276010454" lon="10.487647658340409"><ele>293.25</ele><time>2026-03-28T11:30:30Z</time></trkpt><trkpt lat="44.57630190710269" lon="10.48747902051554"><ele>294.0</ele><time>2026-03-28T11:30:31Z</time></trkpt><trkpt lat="44.57622259755935" lon="10.487314616190151"><ele>291.75</ele><time>2026-03-28T11:30:32Z</time></trkpt><trkpt lat="44.57612530434899" lon="10.487170695099495"><ele>289.5</ele><time>2026-03-28T11:30:33Z</time></trkpt><trkpt lat="44.57602750289693" lon="10.487029274000259"><ele>287.25</ele><time>2026-03-28T11:30:34Z</time></trkpt><trkpt lat="44.57592594962787" lon="10.486908830134276"><ele>285.0</ele><time>2026-03-28T11:30:35Z</time></trkpt><trkpt lat="44.57582585270937" lon="10.486787724623904"><ele>285.5</ele><time>2026-03-28T11:30:36Z</time></trkpt><trkpt lat="44.57573362309522" lon="10.486658697076853"><ele>286.0</ele><time>2026-03-28T11:30:37Z</time></trkpt><trkpt lat="44.57565638783" lon="10.486519309669438"><ele>286.5</ele><time>2026-03-28T11:30:38Z</time></trkpt><trkpt lat="44.57556921907256" lon="10.486386930977039"><ele>287.0</ele><time>2026-03-28T11:30:39Z</time></trkpt><trkpt lat="44.575504667570414" lon="10.486231468409937"><ele>287.0</ele><time>2026-03-28T11:30:40Z</time></trkpt><trkpt lat="44.575428331793866" lon="10.486100064398316"><ele>287.0</ele><time>2026-03-28T11:30:41Z</time></trkpt><trkpt lat="44.57536823707573" lon="10.485959848298132"><ele>287.0</ele><time>2026-03-28T11:30:42Z</time></trkpt><trkpt lat="44.57530630384621" lon="10.485815215103349"><ele>287.0</ele><time>2026-03-28T11:30:43Z</time></trkpt><trkpt lat="44.57524465698215" lon="10.485670968861417"><ele>286.8</ele><time>2026-03-28T11:30:44Z</time></trkpt><trkpt lat="44.57518312306499" lon="10.48553412919989"><ele>286.6</ele><time>2026-03-28T11:30:45Z</time></trkpt><trkpt lat="44.57514413763026" lon="10.485388645804154"><ele>286.40000000000003</ele><time>2026-03-28T11:30:46Z</time></trkpt><trkpt lat="44.575107092288064" lon="10.485248963822071"><ele>286.2</ele><time>2026-03-28T11:30:47Z</time></trkpt><trkpt lat="44.57507818154146" lon="10.485106083182874"><ele>286.0</ele><time>2026-03-28T11:30:48Z</time></trkpt><trkpt lat="44.575053599840935" lon="10.48496591797005"><ele>286.0</ele><time>2026-03-28T11:30:49Z</time></trkpt><trkpt lat="44.575028889743564" lon="10.484819470417882"><ele>286.0</ele><time>2026-03-28T11:30:50Z</time></trkpt><trkpt lat="44.575002865952165" lon="10.484665237072852"><ele>286.0</ele><time>2026-03-28T11:30:51Z</time></trkpt><trkpt lat="44.57497539693107" lon="10.484502438419506"><ele>286.0</ele><time>2026-03-28T11:30:52Z</time></trkpt><trkpt lat="44.57494718922767" lon="10.484335261835655"><ele>287.0</ele><time>2026-03-28T11:30:53Z</time></trkpt><trkpt lat="44.574917524667775" lon="10.484167101141074"><ele>288.0</ele><time>2026-03-28T11:30:54Z</time></trkpt><trkpt lat="44.57488681338306" lon="10.483993340038682"><ele>289.0</ele><time>2026-03-28T11:30:55Z</time></trkpt><trkpt lat="44.574849072715885" lon="10.483825422338374"><ele>290.0</ele><time>2026-03-28T11:30:56Z</time></trkpt><trkpt lat="44.574816982809594" lon="10.483645053424068"><ele>290.0</ele><time>2026-03-28T11:30:57Z</time></trkpt><trkpt lat="44.57479432981903" lon="10.483482147841691"><ele>290.0</ele><time>2026-03-28T11:30:58Z</time></trkpt><trkpt lat="44.574770623965236" lon="10.483313937190186"><ele>290.0</ele><time>2026-03-28T11:30:59Z</time></trkpt><trkpt lat="44.57474140818066" lon="10.483152640030543"><ele>290.0</ele><time>2026-03-28T11:31:00Z</time></trkpt><trkpt lat="44.57472451449514" lon="10.483006500531243"><ele>290.4</ele><time>2026-03-28T11:31:01Z</time></trkpt><trkpt lat="44.57470687202051" lon="10.482865552459343"><ele>290.8</ele><time>2026-03-28T11:31:02Z</time></trkpt><trkpt lat="44.57466732924454" lon="10.482737949094496"><ele>291.2</ele><time>2026-03-28T11:31:03Z</time></trkpt><trkpt lat="44.574611158514784" lon="10.482648991627897"><ele>291.6</ele><time>2026-03-28T11:31:04Z</time></trkpt><trkpt lat="44.574551989117815" lon="10.482545205025664"><ele>292.0</ele><time>2026-03-28T11:31:05Z</time></trkpt><trkpt lat="44.57447005055768" lon="10.482444716271246"><ele>292.25</ele><time>2026-03-28T11:31:06Z</time></trkpt><trkpt lat="44.574360964807205" lon="10.482343133646784"><ele>292.5</ele><time>2026-03-28T11:31:07Z</time></trkpt><trkpt lat="44.57425004608058" lon="10.482238522449709"><ele>292.75</ele><time>2026-03-28T11:31:08Z</time></trkpt><trkpt lat="44.57414402444171" lon="10.482078742292156"><ele>293.0</ele><time>2026-03-28T11:31:09Z</time></trkpt><trkpt lat="44.57407097103914" lon="10.481952732529082"><ele>293.0</ele><time>2026-03-28T11:31:10Z</time></trkpt><trkpt lat="44.57399818538658" lon="10.4817966576657"><ele>293.0</ele><time>2026-03-28T11:31:11Z</time></trkpt><trkpt lat="44.573927229480816" lon="10.481637222836591"><ele>293.0</ele><time>2026-03-28T11:31:12Z</time></trkpt><trkpt lat="44.57385448878081" lon="10.481473923450395"><ele>293.0</ele><time>2026-03-28T11:31:13Z</time></trkpt><trkpt lat="44.57378491658801" lon="10.481316425882994"><ele>293.25</ele><time>2026-03-28T11:31:14Z</time></trkpt><trkpt lat="44.573714333895886" lon="10.481154445671146"><ele>293.5</ele><time>2026-03-28T11:31:14.999Z</time></trkpt><trkpt lat="44.57364399723472" lon="10.480993030173268"><ele>293.75</ele><time>2026-03-28T11:31:15.999Z</time></trkpt><trkpt lat="44.573575649436755" lon="10.48083813826447"><ele>294.0</ele><time>2026-03-28T11:31:16.999Z</time></trkpt><trkpt lat="44.5735073588643" lon="10.48068824597648"><ele>294.25</ele><time>2026-03-28T11:31:17.999Z</time></trkpt><trkpt lat="44.57343856624999" lon="10.48054441697553"><ele>294.5</ele><time>2026-03-28T11:31:18.999Z</time></trkpt><trkpt lat="44.57338004550178" lon="10.480410698486265"><ele>294.75</ele><time>2026-03-28T11:31:19.999Z</time></trkpt><trkpt lat="44.57329462100673" lon="10.480295608942267"><ele>295.0</ele><time>2026-03-28T11:31:20.999Z</time></trkpt><trkpt lat="44.57319795457057" lon="10.480191783010467"><ele>295.0</ele><time>2026-03-28T11:31:21.999Z</time></trkpt><trkpt lat="44.57308375390907" lon="10.480110578648786"><ele>295.0</ele><time>2026-03-28T11:31:22.999Z</time></trkpt><trkpt lat="44.57296875751468" lon="10.480009041054242"><ele>295.0</ele><time>2026-03-28T11:31:23.999Z</time></trkpt><trkpt lat="44.572845067871455" lon="10.479925922327348"><ele>295.0</ele><time>2026-03-28T11:31:24.999Z</time></trkpt><trkpt lat="44.5727252961583" lon="10.47982815571404"><ele>297.0</ele><time>2026-03-28T11:31:25.999Z</time></trkpt><trkpt lat="44.57261335178915" lon="10.479733280201836"><ele>299.0</ele><time>2026-03-28T11:31:26.999Z</time></trkpt><trkpt lat="44.5725068914986" lon="10.479636648704792"><ele>301.0</ele><time>2026-03-28T11:31:27.999Z</time></trkpt><trkpt lat="44.572416472678306" lon="10.479543800595412"><ele>303.0</ele><time>2026-03-28T11:31:28.999Z</time></trkpt><trkpt lat="44.572325893892156" lon="10.47945907939095"><ele>303.0</ele><time>2026-03-28T11:31:29.999Z</time></trkpt><trkpt lat="44.57225236521823" lon="10.479392968254748"><ele>303.0</ele><time>2026-03-28T11:31:30.999Z</time></trkpt><trkpt lat="44.572184904551285" lon="10.479333054699149"><ele>303.0</ele><time>2026-03-28T11:31:31.999Z</time></trkpt><trkpt lat="44.57212031656015" lon="10.479299998536089"><ele>303.0</ele><time>2026-03-28T11:31:32.999Z</time></trkpt><trkpt lat="44.572028932489594" lon="10.479202473764152"><ele>303.0</ele><time>2026-03-28T11:31:34.999Z</time></trkpt><trkpt lat="44.57193235108911" lon="10.47908866838595"><ele>303.5</ele><time>2026-03-28T11:31:36.999Z</time></trkpt><trkpt lat="44.571878331768154" lon="10.478979549779345"><ele>304.0</ele><time>2026-03-28T11:31:38.999Z</time></trkpt><trkpt lat="44.571781462458375" lon="10.478916082569167"><ele>304.5</ele><time>2026-03-28T11:31:40.999Z</time></trkpt><trkpt lat="44.57182741496769" lon="10.478824386731405"><ele>305.0</ele><time>2026-03-28T11:31:43.999Z</time></trkpt><trkpt lat="44.57154874856979" lon="10.479097071740364"><ele>305.0</ele><time>2026-03-28T11:31:44.999Z</time></trkpt><trkpt lat="44.57146605240468" lon="10.479057187640263"><ele>305.0</ele><time>2026-03-28T11:31:48.999Z</time></trkpt><trkpt lat="44.57140063476855" lon="10.478969225274335"><ele>305.0</ele><time>2026-03-28T11:31:51.999Z</time></trkpt><trkpt lat="44.57136034652775" lon="10.478891245521067"><ele>305.0</ele><time>2026-03-28T11:31:54.999Z</time></trkpt><trkpt lat="44.571311899586476" lon="10.47877044024804"><ele>305.0</ele><time>2026-03-28T11:31:56.999Z</time></trkpt><trkpt lat="44.571238592545875" lon="10.47864641530698"><ele>305.6666666666667</ele><time>2026-03-28T11:31:59Z</time></trkpt><trkpt lat="44.571188119399714" lon="10.478566403453039"><ele>306.33333333333337</ele><time>2026-03-28T11:32:01Z</time></trkpt><trkpt lat="44.57110696243711" lon="10.478573425175528"><ele>307.0</ele><time>2026-03-28T11:32:04Z</time></trkpt><trkpt lat="44.57108724749863" lon="10.478463123677304"><ele>307.6666666666667</ele><time>2026-03-28T11:32:07Z</time></trkpt><trkpt lat="44.57102004380141" lon="10.478432462057349"><ele>308.3333333333333</ele><time>2026-03-28T11:32:09Z</time></trkpt><trkpt lat="44.57095513452071" lon="10.478433443960219"><ele>309.0</ele><time>2026-03-28T11:32:11Z</time></trkpt><trkpt lat="44.57090480364914" lon="10.478551446362037"><ele>309.0</ele><time>2026-03-28T11:32:14Z</time></trkpt><trkpt lat="44.57083635246866" lon="10.478577383897097"><ele>309.0</ele><time>2026-03-28T11:32:16Z</time></trkpt><trkpt lat="44.57073928264053" lon="10.478472646418433"><ele>309.0</ele><time>2026-03-28T11:32:18Z</time></trkpt><trkpt lat="44.57067546934273" lon="10.478417403874602"><ele>309.0</ele><time>2026-03-28T11:32:19Z</time></trkpt><trkpt lat="44.57062167374109" lon="10.47834964274245"><ele>309.0</ele><time>2026-03-28T11:32:20Z</time></trkpt><trkpt lat="44.570548670061775" lon="10.478393586266618"><ele>309.0</ele><time>2026-03-28T11:32:23Z</time></trkpt><trkpt lat="44.57050967187294" lon="10.478553734567425"><ele>309.0</ele><time>2026-03-28T11:32:25Z</time></trkpt><trkpt lat="44.5704509887529" lon="10.478679310831627"><ele>309.0</ele><time>2026-03-28T11:32:28Z</time></trkpt><trkpt lat="44.570376684291794" lon="10.478746091733498"><ele>309.0</ele><time>2026-03-28T11:32:29Z</time></trkpt><trkpt lat="44.57027425189112" lon="10.478811714787396"><ele>309.0</ele><time>2026-03-28T11:32:31Z</time></trkpt><trkpt lat="44.570156553149445" lon="10.47882739211684"><ele>309.0</ele><time>2026-03-28T11:32:33Z</time></trkpt><trkpt lat="44.57007658970115" lon="10.478895855664522"><ele>311.8333333333333</ele><time>2026-03-28T11:32:35Z</time></trkpt><trkpt lat="44.57001061473487" lon="10.478999970738235"><ele>314.6666666666667</ele><time>2026-03-28T11:32:37Z</time></trkpt><trkpt lat="44.569928364092526" lon="10.47905436533907"><ele>317.5</ele><time>2026-03-28T11:32:38Z</time></trkpt><trkpt lat="44.5698591926392" lon="10.479069478141447"><ele>320.33333333333337</ele><time>2026-03-28T11:32:39Z</time></trkpt><trkpt lat="44.56980163434438" lon="10.479110566087199"><ele>323.1666666666667</ele><time>2026-03-28T11:32:40Z</time></trkpt><trkpt lat="44.56975935591988" lon="10.479189849723133"><ele>326.0</ele><time>2026-03-28T11:32:42Z</time></trkpt><trkpt lat="44.569687148791665" lon="10.479361968577"><ele>326.0</ele><time>2026-03-28T11:32:44Z</time></trkpt><trkpt lat="44.569632041767655" lon="10.479433920869319"><ele>326.0</ele><time>2026-03-28T11:32:45Z</time></trkpt><trkpt lat="44.56950450819779" lon="10.479547707523228"><ele>326.0</ele><time>2026-03-28T11:32:47Z</time></trkpt><trkpt lat="44.56940289605338" lon="10.479662844194554"><ele>326.0</ele><time>2026-03-28T11:32:49Z</time></trkpt><trkpt lat="44.56932972036299" lon="10.479792938481085"><ele>329.83333333333337</ele><time>2026-03-28T11:32:51Z</time></trkpt><trkpt lat="44.56925021812732" lon="10.47992038081762"><ele>333.6666666666667</ele><time>2026-03-28T11:32:53Z</time></trkpt><trkpt lat="44.56921064539102" lon="10.480058115537199"><ele>337.5</ele><time>2026-03-28T11:32:55Z</time></trkpt><trkpt lat="44.56915847430801" lon="10.480122288972067"><ele>341.3333333333333</ele><time>2026-03-28T11:32:57Z</time></trkpt><trkpt lat="44.56910025271058" lon="10.480162651519588"><ele>345.16666666666663</ele><time>2026-03-28T11:33:01Z</time></trkpt><trkpt lat="44.56904789699606" lon="10.4802571664387"><ele>349.0</ele><time>2026-03-28T11:33:03Z</time></trkpt><trkpt lat="44.56903061814194" lon="10.480348830334787"><ele>351.0</ele><time>2026-03-28T11:33:07Z</time></trkpt><trkpt lat="44.568978764739356" lon="10.48046552106706"><ele>353.0</ele><time>2026-03-28T11:33:09Z</time></trkpt><trkpt lat="44.568920307098765" lon="10.48053147541718"><ele>355.0</ele><time>2026-03-28T11:33:11Z</time></trkpt><trkpt lat="44.56887018267508" lon="10.480593510572694"><ele>357.0</ele><time>2026-03-28T11:33:13Z</time></trkpt><trkpt lat="44.56878956993245" lon="10.480709759943549"><ele>359.0</ele><time>2026-03-28T11:33:15Z</time></trkpt><trkpt lat="44.56872610095436" lon="10.480772443646591"><ele>361.0</ele><time>2026-03-28T11:33:16Z</time></trkpt><trkpt lat="44.56866283084031" lon="10.480832375822779"><ele>363.8</ele><time>2026-03-28T11:33:17Z</time></trkpt><trkpt lat="44.56857125571374" lon="10.480910138079164"><ele>366.6</ele><time>2026-03-28T11:33:19Z</time></trkpt><trkpt lat="44.56846668715969" lon="10.48100387545194"><ele>369.4</ele><time>2026-03-28T11:33:21Z</time></trkpt><trkpt lat="44.56836867974093" lon="10.481099693314675"><ele>372.2</ele><time>2026-03-28T11:33:23Z</time></trkpt><trkpt lat="44.568321710476916" lon="10.481159777788084"><ele>375.0</ele><time>2026-03-28T11:33:24Z</time></trkpt><trkpt lat="44.56827166719407" lon="10.481217665625946"><ele>375.0</ele><time>2026-03-28T11:33:25Z</time></trkpt><trkpt lat="44.568211419745325" lon="10.481249610422852"><ele>375.0</ele><time>2026-03-28T11:33:28Z</time></trkpt><trkpt lat="44.56810235108309" lon="10.481330576666815"><ele>375.0</ele><time>2026-03-28T11:33:39Z</time></trkpt><trkpt lat="44.56800081458051" lon="10.481398876550749"><ele>375.0</ele><time>2026-03-28T11:33:41Z</time></trkpt><trkpt lat="44.56794392447984" lon="10.48145522831535"><ele>375.0</ele><time>2026-03-28T11:33:42Z</time></trkpt><trkpt lat="44.567881006220475" lon="10.481492877285524"><ele>375.0</ele><time>2026-03-28T11:33:43Z</time></trkpt><trkpt lat="44.56781912425744" lon="10.481519966273627"><ele>380.2</ele><time>2026-03-28T11:33:43.999Z</time></trkpt><trkpt lat="44.56772952635966" lon="10.481579909450428"><ele>385.4</ele><time>2026-03-28T11:33:45.999Z</time></trkpt><trkpt lat="44.56764294957211" lon="10.48159279434223"><ele>390.6</ele><time>2026-03-28T11:33:47.999Z</time></trkpt><trkpt lat="44.56757453209178" lon="10.48159699343615"><ele>395.8</ele><time>2026-03-28T11:33:52.999Z</time></trkpt><trkpt lat="44.56747916700146" lon="10.4816606165588"><ele>401.0</ele><time>2026-03-28T11:33:55.999Z</time></trkpt><trkpt lat="44.567393468995235" lon="10.481757202176114"><ele>401.0</ele><time>2026-03-28T11:33:57.999Z</time></trkpt><trkpt lat="44.567252747769786" lon="10.481732724962209"><ele>401.0</ele><time>2026-03-28T11:33:59.999Z</time></trkpt><trkpt lat="44.56714847199067" lon="10.481730229244238"><ele>401.0</ele><time>2026-03-28T11:34:01.999Z</time></trkpt><trkpt lat="44.567036601883174" lon="10.481739662043703"><ele>401.0</ele><time>2026-03-28T11:34:03.999Z</time></trkpt><trkpt lat="44.56698591654975" lon="10.481686994397979"><ele>401.0</ele><time>2026-03-28T11:34:05Z</time></trkpt><trkpt lat="44.566933523896004" lon="10.481606174117255"><ele>402.49999999999994</ele><time>2026-03-28T11:34:06Z</time></trkpt><trkpt lat="44.56688290092337" lon="10.481529753513371"><ele>404.0</ele><time>2026-03-28T11:34:07Z</time></trkpt><trkpt lat="44.56680124129972" lon="10.481465995414787"><ele>405.5</ele><time>2026-03-28T11:34:09Z</time></trkpt><trkpt lat="44.5667250071731" lon="10.481440900412428"><ele>407.0</ele><time>2026-03-28T11:34:10Z</time></trkpt><trkpt lat="44.56665642317653" lon="10.481433712509746"><ele>408.49999999999994</ele><time>2026-03-28T11:34:11Z</time></trkpt><trkpt lat="44.56657421258837" lon="10.481415189544613"><ele>410.0</ele><time>2026-03-28T11:34:12Z</time></trkpt><trkpt lat="44.566489869202805" lon="10.481402799841698"><ele>409.99999999999994</ele><time>2026-03-28T11:34:13Z</time></trkpt><trkpt lat="44.56640473316587" lon="10.481386412790153"><ele>410.0</ele><time>2026-03-28T11:34:14Z</time></trkpt><trkpt lat="44.566325916591396" lon="10.481384532479295"><ele>410.0</ele><time>2026-03-28T11:34:15Z</time></trkpt><trkpt lat="44.56625843988686" lon="10.481396650410343"><ele>410.0</ele><time>2026-03-28T11:34:16Z</time></trkpt><trkpt lat="44.56619598737314" lon="10.481417270435864"><ele>409.99999999999994</ele><time>2026-03-28T11:34:17Z</time></trkpt><trkpt lat="44.56609711557356" lon="10.48147205428979"><ele>410.0</ele><time>2026-03-28T11:34:19Z</time></trkpt><trkpt lat="44.56599606924568" lon="10.481570184646975"><ele>409.8</ele><time>2026-03-28T11:34:21Z</time></trkpt><trkpt lat="44.56587926650305" lon="10.481579173225738"><ele>409.6</ele><time>2026-03-28T11:34:23Z</time></trkpt><trkpt lat="44.56576521371874" lon="10.48152567672902"><ele>409.4</ele><time>2026-03-28T11:34:25Z</time></trkpt><trkpt lat="44.56568897740734" lon="10.481506184133815"><ele>409.2</ele><time>2026-03-28T11:34:27Z</time></trkpt><trkpt lat="44.5656019581407" lon="10.48156763011075"><ele>409.0</ele><time>2026-03-28T11:34:29Z</time></trkpt><trkpt lat="44.56553125575371" lon="10.481656062886831"><ele>409.0</ele><time>2026-03-28T11:34:31Z</time></trkpt><trkpt lat="44.56547781327998" lon="10.481745207760184"><ele>409.0</ele><time>2026-03-28T11:34:32Z</time></trkpt><trkpt lat="44.56539233539081" lon="10.48185000669586"><ele>409.0</ele><time>2026-03-28T11:34:34Z</time></trkpt><trkpt lat="44.565329614647375" lon="10.481933671051825"><ele>409.0</ele><time>2026-03-28T11:34:35Z</time></trkpt><trkpt lat="44.565251765776935" lon="10.482110653067982"><ele>409.0</ele><time>2026-03-28T11:34:37Z</time></trkpt><trkpt lat="44.56521078524723" lon="10.48220745276879"><ele>409.2</ele><time>2026-03-28T11:34:38Z</time></trkpt><trkpt lat="44.56519240649417" lon="10.482292990007156"><ele>409.4</ele><time>2026-03-28T11:34:39Z</time></trkpt><trkpt lat="44.56511374463056" lon="10.482337408102584"><ele>409.6</ele><time>2026-03-28T11:34:42Z</time></trkpt><trkpt lat="44.56496767582708" lon="10.482358141636857"><ele>409.8</ele><time>2026-03-28T11:34:44Z</time></trkpt><trkpt lat="44.56485141046994" lon="10.48231941526432"><ele>410.0</ele><time>2026-03-28T11:34:46Z</time></trkpt><trkpt lat="44.56476167915931" lon="10.482280744764331"><ele>410.0</ele><time>2026-03-28T11:34:48Z</time></trkpt><trkpt lat="44.564650734542596" lon="10.482267064147061"><ele>410.0</ele><time>2026-03-28T11:34:50Z</time></trkpt><trkpt lat="44.564583630994065" lon="10.482255894124997"><ele>410.0</ele><time>2026-03-28T11:34:51Z</time></trkpt><trkpt lat="44.56447170972122" lon="10.482235624947384"><ele>410.0</ele><time>2026-03-28T11:34:53Z</time></trkpt><trkpt lat="44.56436610815221" lon="10.482207417241074"><ele>410.0</ele><time>2026-03-28T11:34:55Z</time></trkpt><trkpt lat="44.56425496881114" lon="10.482242194473638"><ele>410.0</ele><time>2026-03-28T11:34:57Z</time></trkpt><trkpt lat="44.56418819712408" lon="10.48227162735977"><ele>410.0</ele><time>2026-03-28T11:34:58Z</time></trkpt><trkpt lat="44.56411672368426" lon="10.482309559439315"><ele>410.0</ele><time>2026-03-28T11:34:59Z</time></trkpt><trkpt lat="44.56403166004697" lon="10.482424047864077"><ele>410.0</ele><time>2026-03-28T11:35:01Z</time></trkpt><trkpt lat="44.563937467951504" lon="10.482482278052867"><ele>410.0</ele><time>2026-03-28T11:35:03Z</time></trkpt><trkpt lat="44.56382459968928" lon="10.482554293648"><ele>410.0</ele><time>2026-03-28T11:35:05Z</time></trkpt><trkpt lat="44.563751733611944" lon="10.482601132808316"><ele>410.0</ele><time>2026-03-28T11:35:06Z</time></trkpt><trkpt lat="44.56369305171259" lon="10.482644474105978"><ele>410.0</ele><time>2026-03-28T11:35:07Z</time></trkpt><trkpt lat="44.56356213533563" lon="10.482719010199094"><ele>410.0</ele><time>2026-03-28T11:35:09Z</time></trkpt><trkpt lat="44.56349093646445" lon="10.482749327851204"><ele>410.0</ele><time>2026-03-28T11:35:10Z</time></trkpt><trkpt lat="44.563384877693885" lon="10.482801161744312"><ele>410.0</ele><time>2026-03-28T11:35:12Z</time></trkpt><trkpt lat="44.56332610937033" lon="10.482842465108792"><ele>410.0</ele><time>2026-03-28T11:35:13Z</time></trkpt><trkpt lat="44.56323613213879" lon="10.482914935614957"><ele>410.0</ele><time>2026-03-28T11:35:15Z</time></trkpt><trkpt lat="44.56315071414499" lon="10.48300816647143"><ele>410.0</ele><time>2026-03-28T11:35:17Z</time></trkpt><trkpt lat="44.563086297839405" lon="10.483122037612477"><ele>410.0</ele><time>2026-03-28T11:35:19Z</time></trkpt><trkpt lat="44.56303950061876" lon="10.483278153047785"><ele>411.66666666666663</ele><time>2026-03-28T11:35:21Z</time></trkpt><trkpt lat="44.56302004615432" lon="10.483364271825272"><ele>413.3333333333333</ele><time>2026-03-28T11:35:22Z</time></trkpt><trkpt lat="44.562990577800186" lon="10.483455283635484"><ele>415.0</ele><time>2026-03-28T11:35:23Z</time></trkpt><trkpt lat="44.56291678845668" lon="10.483617471894364"><ele>416.66666666666663</ele><time>2026-03-28T11:35:25Z</time></trkpt><trkpt lat="44.562878859623574" lon="10.483700611477746"><ele>418.3333333333333</ele><time>2026-03-28T11:35:26Z</time></trkpt><trkpt lat="44.56286571066047" lon="10.4838167322866"><ele>420.0</ele><time>2026-03-28T11:35:27Z</time></trkpt><trkpt lat="44.56282336440041" lon="10.48390387855995"><ele>420.0</ele><time>2026-03-28T11:35:28Z</time></trkpt><trkpt lat="44.562784885519115" lon="10.483992380277352"><ele>420.0</ele><time>2026-03-28T11:35:29Z</time></trkpt><trkpt lat="44.56276259507394" lon="10.484093734728068"><ele>420.0</ele><time>2026-03-28T11:35:30Z</time></trkpt><trkpt lat="44.56274193645399" lon="10.484179653123876"><ele>420.0</ele><time>2026-03-28T11:35:31Z</time></trkpt><trkpt lat="44.56270059690401" lon="10.48433447113887"><ele>420.0</ele><time>2026-03-28T11:35:33Z</time></trkpt><trkpt lat="44.5626774486731" lon="10.484418412090129"><ele>420.0</ele><time>2026-03-28T11:35:34Z</time></trkpt><trkpt lat="44.562647251445476" lon="10.484576248792951"><ele>421.4</ele><time>2026-03-28T11:35:36Z</time></trkpt><trkpt lat="44.56260659756973" lon="10.484713403707685"><ele>422.8</ele><time>2026-03-28T11:35:38Z</time></trkpt><trkpt lat="44.56257495610234" lon="10.484814117028735"><ele>424.20000000000005</ele><time>2026-03-28T11:37:31.999Z</time></trkpt><trkpt lat="44.562452438346774" lon="10.4848445466204"><ele>425.6</ele><time>2026-03-28T11:37:33.999Z</time></trkpt><trkpt lat="44.56235395421901" lon="10.484824174390557"><ele>427.0</ele><time>2026-03-28T11:37:34.999Z</time></trkpt><trkpt lat="44.562261596799196" lon="10.484793801973588"><ele>427.0</ele><time>2026-03-28T11:37:35.999Z</time></trkpt><trkpt lat="44.562159945319614" lon="10.484759429383544"><ele>427.00000000000006</ele><time>2026-03-28T11:37:36.999Z</time></trkpt><trkpt lat="44.562065217375086" lon="10.484718990138354"><ele>427.00000000000006</ele><time>2026-03-28T11:37:37.999Z</time></trkpt><trkpt lat="44.5619657140456" lon="10.484674676670153"><ele>427.0</ele><time>2026-03-28T11:37:38.999Z</time></trkpt><trkpt lat="44.561851377029335" lon="10.484647661435714"><ele>427.0</ele><time>2026-03-28T11:37:39.999Z</time></trkpt><trkpt lat="44.56173818843987" lon="10.484636619861323"><ele>427.0</ele><time>2026-03-28T11:37:40.999Z</time></trkpt><trkpt lat="44.5616358883752" lon="10.484640505612033"><ele>427.00000000000006</ele><time>2026-03-28T11:37:41.999Z</time></trkpt><trkpt lat="44.56153309476505" lon="10.484658882518053"><ele>427.00000000000006</ele><time>2026-03-28T11:37:42.999Z</time></trkpt><trkpt lat="44.56143007103642" lon="10.484678198330641"><ele>427.0</ele><time>2026-03-28T11:37:43.999Z</time></trkpt><trkpt lat="44.56133495391926" lon="10.484710398188577"><ele>427.0</ele><time>2026-03-28T11:37:44.999Z</time></trkpt><trkpt lat="44.56123568046579" lon="10.48475666282847"><ele>424.75</ele><time>2026-03-28T11:37:45.999Z</time></trkpt><trkpt lat="44.561125013129896" lon="10.4848208678876"><ele>422.5</ele><time>2026-03-28T11:37:46.999Z</time></trkpt><trkpt lat="44.56101727915867" lon="10.484892888353656"><ele>420.25</ele><time>2026-03-28T11:37:47.999Z</time></trkpt><trkpt lat="44.56090987000901" lon="10.48496322995648"><ele>418.0</ele><time>2026-03-28T11:37:48.999Z</time></trkpt><trkpt lat="44.56080164449581" lon="10.485021934295347"><ele>418.00000000000006</ele><time>2026-03-28T11:37:49.999Z</time></trkpt><trkpt lat="44.56069989994002" lon="10.485030649155812"><ele>418.0</ele><time>2026-03-28T11:37:50.999Z</time></trkpt><trkpt lat="44.560605151933416" lon="10.485001730674819"><ele>418.0</ele><time>2026-03-28T11:37:51.999Z</time></trkpt><trkpt lat="44.56052964217404" lon="10.484956961424768"><ele>418.0</ele><time>2026-03-28T11:37:52.999Z</time></trkpt><trkpt lat="44.56045818591954" lon="10.48491597761695"><ele>418.00000000000006</ele><time>2026-03-28T11:37:53.999Z</time></trkpt><trkpt lat="44.560385158622005" lon="10.484891319806993"><ele>418.0</ele><time>2026-03-28T11:37:54.999Z</time></trkpt><trkpt lat="44.560312788330265" lon="10.48489288838459"><ele>418.85714285714283</ele><time>2026-03-28T11:37:55.999Z</time></trkpt><trkpt lat="44.56024835395398" lon="10.484900204252002"><ele>419.71428571428567</ele><time>2026-03-28T11:37:56.999Z</time></trkpt><trkpt lat="44.56018223056713" lon="10.484941818181712"><ele>420.57142857142856</ele><time>2026-03-28T11:37:57.999Z</time></trkpt><trkpt lat="44.56012207999655" lon="10.484977716322398"><ele>421.42857142857144</ele><time>2026-03-28T11:37:58.999Z</time></trkpt><trkpt lat="44.560056109283146" lon="10.485023618474226"><ele>422.2857142857143</ele><time>2026-03-28T11:38:00.999Z</time></trkpt><trkpt lat="44.560126365410625" lon="10.48500794679901"><ele>423.14285714285717</ele><time>2026-03-28T11:38:03.999Z</time></trkpt><trkpt lat="44.56018642482857" lon="10.484957890686516"><ele>424.0</ele><time>2026-03-28T11:38:04.999Z</time></trkpt><trkpt lat="44.56026632503154" lon="10.484897820369245"><ele>424.00000000000006</ele><time>2026-03-28T11:38:05.999Z</time></trkpt><trkpt lat="44.560355173243785" lon="10.48487074194508"><ele>424.0</ele><time>2026-03-28T11:38:06.999Z</time></trkpt><trkpt lat="44.56043697870155" lon="10.484865028274957"><ele>424.0</ele><time>2026-03-28T11:38:07.999Z</time></trkpt><trkpt lat="44.56050788584394" lon="10.484871319920673"><ele>424.0</ele><time>2026-03-28T11:38:08.999Z</time></trkpt><trkpt lat="44.56057855263985" lon="10.48490240742006"><ele>424.00000000000006</ele><time>2026-03-28T11:38:09.999Z</time></trkpt><trkpt lat="44.56066324730851" lon="10.484953171514288"><ele>424.0</ele><time>2026-03-28T11:38:11.999Z</time></trkpt><trkpt lat="44.5606280238565" lon="10.485035383594433"><ele>424.0</ele><time>2026-03-28T11:38:13.999Z</time></trkpt><trkpt lat="44.5605840597946" lon="10.485099626512273"><ele>424.0</ele><time>2026-03-28T11:38:19Z</time></trkpt><trkpt lat="44.560526917235734" lon="10.485142769811121"><ele>424.0</ele><time>2026-03-28T11:38:20Z</time></trkpt><trkpt lat="44.560457271100006" lon="10.48520607828282"><ele>424.0</ele><time>2026-03-28T11:38:21Z</time></trkpt><trkpt lat="44.56040067195846" lon="10.485260075221285"><ele>424.0</ele><time>2026-03-28T11:38:22Z</time></trkpt><trkpt lat="44.560349297874325" lon="10.485317454807172"><ele>424.0</ele><time>2026-03-28T11:38:23Z</time></trkpt><trkpt lat="44.56030434932373" lon="10.48539347757179"><ele>424.0</ele><time>2026-03-28T11:38:24Z</time></trkpt><trkpt lat="44.56025791526216" lon="10.485485842423596"><ele>423.8571428571429</ele><time>2026-03-28T11:38:25Z</time></trkpt><trkpt lat="44.560214888314725" lon="10.485564867832137"><ele>423.71428571428567</ele><time>2026-03-28T11:38:26Z</time></trkpt><trkpt lat="44.5601732449681" lon="10.485633774827111"><ele>423.57142857142856</ele><time>2026-03-28T11:38:27Z</time></trkpt><trkpt lat="44.560111699626766" lon="10.485719713364825"><ele>423.42857142857144</ele><time>2026-03-28T11:38:28Z</time></trkpt><trkpt lat="44.560057045905836" lon="10.48578682900909"><ele>423.28571428571433</ele><time>2026-03-28T11:38:29Z</time></trkpt><trkpt lat="44.55999244421334" lon="10.485807118812206"><ele>423.1428571428571</ele><time>2026-03-28T11:38:30Z</time></trkpt><trkpt lat="44.55992267348427" lon="10.485804571031908"><ele>423.0</ele><time>2026-03-28T11:38:31Z</time></trkpt><trkpt lat="44.55980329110233" lon="10.485795408042165"><ele>423.0</ele><time>2026-03-28T11:38:33Z</time></trkpt><trkpt lat="44.55973754382944" lon="10.48589660467394"><ele>423.0</ele><time>2026-03-28T11:38:35Z</time></trkpt><trkpt lat="44.55971174732088" lon="10.4859885153554"><ele>423.0</ele><time>2026-03-28T11:38:36Z</time></trkpt><trkpt lat="44.55964854051596" lon="10.48614236516533"><ele>423.0</ele><time>2026-03-28T11:38:38Z</time></trkpt><trkpt lat="44.559529909113266" lon="10.486222910707536"><ele>423.0</ele><time>2026-03-28T11:38:40Z</time></trkpt><trkpt lat="44.559423798988234" lon="10.486278674816097"><ele>425.59999999999997</ele><time>2026-03-28T11:38:42Z</time></trkpt><trkpt lat="44.55938541736698" lon="10.486420024313231"><ele>428.2</ele><time>2026-03-28T11:38:44Z</time></trkpt><trkpt lat="44.55936723236723" lon="10.486526531869155"><ele>430.8</ele><time>2026-03-28T11:38:45Z</time></trkpt><trkpt lat="44.55940094808781" lon="10.486629894609582"><ele>433.4</ele><time>2026-03-28T11:38:46Z</time></trkpt><trkpt lat="44.55942237658824" lon="10.48672405939987"><ele>436.0</ele><time>2026-03-28T11:38:47Z</time></trkpt><trkpt lat="44.55940552215096" lon="10.486899933095371"><ele>436.00000000000006</ele><time>2026-03-28T11:38:49Z</time></trkpt><trkpt lat="44.55936816717024" lon="10.48699063085123"><ele>436.0</ele><time>2026-03-28T11:38:50Z</time></trkpt><trkpt lat="44.55932548036771" lon="10.487058204177476"><ele>436.0</ele><time>2026-03-28T11:38:51Z</time></trkpt><trkpt lat="44.55926073782686" lon="10.487113668938065"><ele>436.0</ele><time>2026-03-28T11:38:52Z</time></trkpt><trkpt lat="44.559192318923884" lon="10.487158780385693"><ele>436.00000000000006</ele><time>2026-03-28T11:38:53Z</time></trkpt><trkpt lat="44.55915572950771" lon="10.487301723741513"><ele>436.0</ele><time>2026-03-28T11:38:55Z</time></trkpt><trkpt lat="44.5591409089572" lon="10.487394067871923"><ele>435.00000000000006</ele><time>2026-03-28T11:38:56Z</time></trkpt><trkpt lat="44.55913062311403" lon="10.487484713723115"><ele>434.0</ele><time>2026-03-28T11:38:57Z</time></trkpt><trkpt lat="44.55912626449087" lon="10.48757890994763"><ele>433.0</ele><time>2026-03-28T11:38:58Z</time></trkpt><trkpt lat="44.55911413965643" lon="10.487680481211752"><ele>432.0</ele><time>2026-03-28T11:38:59Z</time></trkpt><trkpt lat="44.559097276316535" lon="10.487777297732245"><ele>431.00000000000006</ele><time>2026-03-28T11:39:00Z</time></trkpt><trkpt lat="44.55906665115905" lon="10.487870284027052"><ele>430.0</ele><time>2026-03-28T11:39:01Z</time></trkpt><trkpt lat="44.558988602645634" lon="10.48799368331999"><ele>431.4</ele><time>2026-03-28T11:39:03Z</time></trkpt><trkpt lat="44.55892260248729" lon="10.488074350771186"><ele>432.8</ele><time>2026-03-28T11:39:05Z</time></trkpt><trkpt lat="44.558823241690085" lon="10.488172816016101"><ele>434.20000000000005</ele><time>2026-03-28T11:39:07Z</time></trkpt><trkpt lat="44.55875312220417" lon="10.48820961286387"><ele>435.6</ele><time>2026-03-28T11:39:08Z</time></trkpt><trkpt lat="44.558635349006074" lon="10.488209148984074"><ele>437.0</ele><time>2026-03-28T11:39:10Z</time></trkpt><trkpt lat="44.558579686213484" lon="10.488286011900337"><ele>436.99999999999994</ele><time>2026-03-28T11:39:12Z</time></trkpt><trkpt lat="44.55856052596847" lon="10.488438357826167"><ele>437.0</ele><time>2026-03-28T11:39:14Z</time></trkpt><trkpt lat="44.55850425686014" lon="10.488544229265644"><ele>437.0</ele><time>2026-03-28T11:39:16Z</time></trkpt><trkpt lat="44.55844315009578" lon="10.488579561955657"><ele>437.0</ele><time>2026-03-28T11:39:17Z</time></trkpt><trkpt lat="44.5583738268869" lon="10.488612159926104"><ele>436.99999999999994</ele><time>2026-03-28T11:39:18Z</time></trkpt><trkpt lat="44.558311636283115" lon="10.488651114086625"><ele>437.0</ele><time>2026-03-28T11:39:19Z</time></trkpt><trkpt lat="44.5582539653833" lon="10.488704237261844"><ele>437.0</ele><time>2026-03-28T11:39:20Z</time></trkpt><trkpt lat="44.55819460079609" lon="10.488757310521054"><ele>437.0</ele><time>2026-03-28T11:39:21Z</time></trkpt><trkpt lat="44.55813229288727" lon="10.488825409243093"><ele>437.0</ele><time>2026-03-28T11:39:22Z</time></trkpt><trkpt lat="44.55808233338404" lon="10.48890785904434"><ele>437.0</ele><time>2026-03-28T11:39:23Z</time></trkpt><trkpt lat="44.558020075768205" lon="10.488987901920913"><ele>437.0</ele><time>2026-03-28T11:39:24Z</time></trkpt><trkpt lat="44.55796199553963" lon="10.489033929179328"><ele>437.0</ele><time>2026-03-28T11:39:25Z</time></trkpt><trkpt lat="44.557913559754894" lon="10.48909458699493"><ele>437.0</ele><time>2026-03-28T11:39:26Z</time></trkpt><trkpt lat="44.55780003109977" lon="10.489190759280287"><ele>436.0</ele><time>2026-03-28T11:39:28Z</time></trkpt><trkpt lat="44.55768176468987" lon="10.489233167008093"><ele>435.00000000000006</ele><time>2026-03-28T11:39:30Z</time></trkpt><trkpt lat="44.5576197300847" lon="10.489261047448714"><ele>434.00000000000006</ele><time>2026-03-28T11:39:31Z</time></trkpt><trkpt lat="44.557545134728315" lon="10.489294488815455"><ele>433.0</ele><time>2026-03-28T11:39:32Z</time></trkpt><trkpt lat="44.557479982495266" lon="10.48933715492741"><ele>432.0</ele><time>2026-03-28T11:39:33Z</time></trkpt><trkpt lat="44.55737670558401" lon="10.489417422350424"><ele>432.0</ele><time>2026-03-28T11:39:34.999Z</time></trkpt><trkpt lat="44.55732761186463" lon="10.489487383629633"><ele>432.00000000000006</ele><time>2026-03-28T11:39:36.999Z</time></trkpt><trkpt lat="44.55726325761714" lon="10.489557568788214"><ele>432.00000000000006</ele><time>2026-03-28T11:39:43.999Z</time></trkpt><trkpt lat="44.55716837082684" lon="10.489639673777335"><ele>432.0</ele><time>2026-03-28T11:39:45.999Z</time></trkpt><trkpt lat="44.55708524730875" lon="10.489712471049291"><ele>432.0</ele><time>2026-03-28T11:39:47.999Z</time></trkpt><trkpt lat="44.55697840381526" lon="10.48975842163093"><ele>431.3333333333333</ele><time>2026-03-28T11:39:49.999Z</time></trkpt><trkpt lat="44.556912922334554" lon="10.489795818380843"><ele>430.66666666666663</ele><time>2026-03-28T11:39:50.999Z</time></trkpt><trkpt lat="44.55684612725986" lon="10.489824939201855"><ele>430.0</ele><time>2026-03-28T11:39:51.999Z</time></trkpt><trkpt lat="44.55675706435425" lon="10.489850042160395"><ele>429.3333333333333</ele><time>2026-03-28T11:39:53.999Z</time></trkpt><trkpt lat="44.55667129356937" lon="10.489856181237643"><ele>428.66666666666663</ele><time>2026-03-28T11:39:55.999Z</time></trkpt><trkpt lat="44.55660943044551" lon="10.489831246225524"><ele>428.0</ele><time>2026-03-28T11:39:56.999Z</time></trkpt><trkpt lat="44.55654255948773" lon="10.48990715208839"><ele>427.99999999999994</ele><time>2026-03-28T11:39:58.999Z</time></trkpt><trkpt lat="44.556539673625956" lon="10.490062018084695"><ele>428.0</ele><time>2026-03-28T11:40:00.999Z</time></trkpt><trkpt lat="44.55645065425789" lon="10.490167487190288"><ele>428.0</ele><time>2026-03-28T11:40:02.999Z</time></trkpt><trkpt lat="44.55638321351164" lon="10.490171854712354"><ele>428.0</ele><time>2026-03-28T11:40:03.999Z</time></trkpt><trkpt lat="44.556322602846805" lon="10.490139295176252"><ele>427.99999999999994</ele><time>2026-03-28T11:40:04.999Z</time></trkpt><trkpt lat="44.55626000775826" lon="10.490122451586993"><ele>428.0</ele><time>2026-03-28T11:40:05.999Z</time></trkpt><trkpt lat="44.55618348812786" lon="10.49014842839488"><ele>428.0</ele><time>2026-03-28T11:40:07.999Z</time></trkpt><trkpt lat="44.55613216212283" lon="10.490230344680597"><ele>427.99999999999994</ele><time>2026-03-28T11:40:09.999Z</time></trkpt><trkpt lat="44.556221993649" lon="10.490304150257268"><ele>427.99999999999994</ele><time>2026-03-28T11:40:12.999Z</time></trkpt><trkpt lat="44.55632796660243" lon="10.490419778900785"><ele>428.0</ele><time>2026-03-28T11:40:14.999Z</time></trkpt><trkpt lat="44.55635910469809" lon="10.49051500971312"><ele>428.0</ele><time>2026-03-28T11:40:15.999Z</time></trkpt><trkpt lat="44.556399736589476" lon="10.490602127152785"><ele>428.0</ele><time>2026-03-28T11:40:16.999Z</time></trkpt><trkpt lat="44.55648926676247" lon="10.490640076384315"><ele>427.99999999999994</ele><time>2026-03-28T11:40:19.999Z</time></trkpt><trkpt lat="44.55655384095946" lon="10.490709617283793"><ele>427.99999999999994</ele><time>2026-03-28T11:40:21.999Z</time></trkpt><trkpt lat="44.55659878369622" lon="10.490896722597578"><ele>428.0</ele><time>2026-03-28T11:40:24Z</time></trkpt><trkpt lat="44.55660898069467" lon="10.49101655995323"><ele>428.0</ele><time>2026-03-28T11:40:25Z</time></trkpt><trkpt lat="44.556634110139896" lon="10.49110734164235"><ele>428.0</ele><time>2026-03-28T11:40:26Z</time></trkpt><trkpt lat="44.556670115032425" lon="10.49123693452087"><ele>427.99999999999994</ele><time>2026-03-28T11:40:28Z</time></trkpt><trkpt lat="44.55676038260214" lon="10.491367247376042"><ele>427.99999999999994</ele><time>2026-03-28T11:40:30Z</time></trkpt><trkpt lat="44.55682785162829" lon="10.491421103382633"><ele>428.0</ele><time>2026-03-28T11:40:31Z</time></trkpt><trkpt lat="44.55689872888086" lon="10.491465734562686"><ele>428.0</ele><time>2026-03-28T11:40:32Z</time></trkpt><trkpt lat="44.556977403741286" lon="10.491593264338753"><ele>430.25</ele><time>2026-03-28T11:40:34Z</time></trkpt><trkpt lat="44.556976164448606" lon="10.491799775749419"><ele>432.5</ele><time>2026-03-28T11:40:36Z</time></trkpt><trkpt lat="44.55696235199319" lon="10.491941871692324"><ele>434.75</ele><time>2026-03-28T11:40:37Z</time></trkpt><trkpt lat="44.55694886506365" lon="10.492072059880782"><ele>437.0</ele><time>2026-03-28T11:40:38Z</time></trkpt><trkpt lat="44.556930512681475" lon="10.49222670211685"><ele>437.8</ele><time>2026-03-28T11:40:39Z</time></trkpt><trkpt lat="44.556904237309595" lon="10.492356801775296"><ele>438.6</ele><time>2026-03-28T11:40:40Z</time></trkpt><trkpt lat="44.55686971571574" lon="10.492488326737513"><ele>439.40000000000003</ele><time>2026-03-28T11:40:41Z</time></trkpt><trkpt lat="44.556841593588636" lon="10.492601528028695"><ele>440.20000000000005</ele><time>2026-03-28T11:40:42Z</time></trkpt><trkpt lat="44.556811631517306" lon="10.492730106109097"><ele>441.0</ele><time>2026-03-28T11:40:43Z</time></trkpt><trkpt lat="44.556771630138286" lon="10.49284472167778"><ele>441.0</ele><time>2026-03-28T11:40:44Z</time></trkpt><trkpt lat="44.55672130424773" lon="10.4929162580826"><ele>441.0</ele><time>2026-03-28T11:40:45Z</time></trkpt><trkpt lat="44.55667075218834" lon="10.493048663401606"><ele>441.0</ele><time>2026-03-28T11:40:46Z</time></trkpt><trkpt lat="44.556703505030406" lon="10.493157862118876"><ele>441.0</ele><time>2026-03-28T11:40:47Z</time></trkpt><trkpt lat="44.556710517014906" lon="10.493276119418006"><ele>441.0</ele><time>2026-03-28T11:40:48Z</time></trkpt><trkpt lat="44.55673457704398" lon="10.493398421313621"><ele>441.0</ele><time>2026-03-28T11:40:49Z</time></trkpt><trkpt lat="44.556738896540146" lon="10.493537264027328"><ele>442.1666666666667</ele><time>2026-03-28T11:40:50Z</time></trkpt><trkpt lat="44.556746146485835" lon="10.493667198852757"><ele>443.33333333333337</ele><time>2026-03-28T11:40:51Z</time></trkpt><trkpt lat="44.556738476948794" lon="10.493783281626383"><ele>444.5</ele><time>2026-03-28T11:40:52Z</time></trkpt><trkpt lat="44.556738421005804" lon="10.493907719549348"><ele>445.6666666666667</ele><time>2026-03-28T11:40:53Z</time></trkpt><trkpt lat="44.55674418056357" lon="10.494025134285396"><ele>446.83333333333337</ele><time>2026-03-28T11:40:54Z</time></trkpt><trkpt lat="44.55674738901015" lon="10.494118109870316"><ele>448.0</ele><time>2026-03-28T11:40:55Z</time></trkpt><trkpt lat="44.556692630996004" lon="10.494222356349882"><ele>449.6666666666667</ele><time>2026-03-28T11:40:58Z</time></trkpt><trkpt lat="44.55663442902114" lon="10.494280833713725"><ele>451.33333333333337</ele><time>2026-03-28T11:40:59Z</time></trkpt><trkpt lat="44.55657769366017" lon="10.494342773142089"><ele>453.0</ele><time>2026-03-28T11:41:00Z</time></trkpt><trkpt lat="44.55652090691537" lon="10.49440033647563"><ele>454.66666666666663</ele><time>2026-03-28T11:41:01Z</time></trkpt><trkpt lat="44.5564575519015" lon="10.494469348149243"><ele>456.3333333333333</ele><time>2026-03-28T11:41:02Z</time></trkpt><trkpt lat="44.55638539106445" lon="10.494527802053366"><ele>458.0</ele><time>2026-03-28T11:41:03Z</time></trkpt><trkpt lat="44.55631668297732" lon="10.494578066197928"><ele>458.1428571428571</ele><time>2026-03-28T11:41:04Z</time></trkpt><trkpt lat="44.55625901151962" lon="10.494633996088718"><ele>458.28571428571433</ele><time>2026-03-28T11:41:05Z</time></trkpt><trkpt lat="44.55619225902277" lon="10.49468293476255"><ele>458.42857142857144</ele><time>2026-03-28T11:41:06Z</time></trkpt><trkpt lat="44.55611424115134" lon="10.49471525125538"><ele>458.57142857142856</ele><time>2026-03-28T11:41:07Z</time></trkpt><trkpt lat="44.55604217119987" lon="10.494715138623256"><ele>458.71428571428567</ele><time>2026-03-28T11:41:08Z</time></trkpt><trkpt lat="44.55597898107191" lon="10.494698421725946"><ele>458.8571428571429</ele><time>2026-03-28T11:41:09Z</time></trkpt><trkpt lat="44.55591449804256" lon="10.494684789276754"><ele>459.0</ele><time>2026-03-28T11:41:10Z</time></trkpt><trkpt lat="44.555827994402996" lon="10.494601386314885"><ele>461.6666666666667</ele><time>2026-03-28T11:41:12Z</time></trkpt><trkpt lat="44.55579306441112" lon="10.494514329098084"><ele>464.33333333333337</ele><time>2026-03-28T11:41:13Z</time></trkpt><trkpt lat="44.55575624676732" lon="10.494435089288329"><ele>467.0</ele><time>2026-03-28T11:41:14Z</time></trkpt><trkpt lat="44.55570289551339" lon="10.494361005736403"><ele>469.6666666666667</ele><time>2026-03-28T11:41:15Z</time></trkpt><trkpt lat="44.55564370073305" lon="10.49428209695842"><ele>472.33333333333337</ele><time>2026-03-28T11:41:16Z</time></trkpt><trkpt lat="44.55558607124" lon="10.494192171278568"><ele>475.0</ele><time>2026-03-28T11:41:17Z</time></trkpt><trkpt lat="44.555543612062614" lon="10.494091242649711"><ele>475.0</ele><time>2026-03-28T11:41:18Z</time></trkpt><trkpt lat="44.555530702582054" lon="10.493985368749858"><ele>475.0</ele><time>2026-03-28T11:41:19Z</time></trkpt><trkpt lat="44.55550535277383" lon="10.49389235773291"><ele>475.0</ele><time>2026-03-28T11:41:20Z</time></trkpt><trkpt lat="44.55547611087785" lon="10.493765868649083"><ele>475.0</ele><time>2026-03-28T11:41:21Z</time></trkpt><trkpt lat="44.55545846655417" lon="10.49365130899233"><ele>475.0</ele><time>2026-03-28T11:41:22Z</time></trkpt><trkpt lat="44.5554382507553" lon="10.493476690511748"><ele>473.83333333333337</ele><time>2026-03-28T11:41:24Z</time></trkpt><trkpt lat="44.555414556706125" lon="10.493352602901053"><ele>472.6666666666667</ele><time>2026-03-28T11:41:25Z</time></trkpt><trkpt lat="44.555400328245746" lon="10.49324406980682"><ele>471.5</ele><time>2026-03-28T11:41:26Z</time></trkpt><trkpt lat="44.555394240033614" lon="10.493152004662708"><ele>470.33333333333337</ele><time>2026-03-28T11:41:27Z</time></trkpt><trkpt lat="44.55538790699748" lon="10.493048174665729"><ele>469.1666666666667</ele><time>2026-03-28T11:41:28Z</time></trkpt><trkpt lat="44.555301384178605" lon="10.492919152249536"><ele>468.0</ele><time>2026-03-28T11:41:30Z</time></trkpt><trkpt lat="44.55520843399569" lon="10.492767708778034"><ele>472.5</ele><time>2026-03-28T11:41:32Z</time></trkpt><trkpt lat="44.5551516282641" lon="10.492681699307274"><ele>477.0</ele><time>2026-03-28T11:41:33Z</time></trkpt><trkpt lat="44.55508614512461" lon="10.49259820296834"><ele>481.5</ele><time>2026-03-28T11:41:34Z</time></trkpt><trkpt lat="44.55504693502025" lon="10.492522947221177"><ele>486.0</ele><time>2026-03-28T11:41:34.999Z</time></trkpt><trkpt lat="44.554980099220955" lon="10.492454986362434"><ele>490.5</ele><time>2026-03-28T11:41:36.999Z</time></trkpt><trkpt lat="44.55491027226961" lon="10.49245658819443"><ele>495.0</ele><time>2026-03-28T11:41:38.999Z</time></trkpt><trkpt lat="44.554817897420754" lon="10.49245608478327"><ele>495.0</ele><time>2026-03-28T11:41:42.999Z</time></trkpt><trkpt lat="44.55473870164753" lon="10.492477946157788"><ele>495.0</ele><time>2026-03-28T11:41:44.999Z</time></trkpt><trkpt lat="44.554674227383174" lon="10.492524345095948"><ele>495.0</ele><time>2026-03-28T11:41:47.999Z</time></trkpt><trkpt lat="44.554589072381724" lon="10.492557338087824"><ele>495.0</ele><time>2026-03-28T11:41:56.999Z</time></trkpt><trkpt lat="44.55451729805194" lon="10.492608787835946"><ele>495.0</ele><time>2026-03-28T11:41:58.999Z</time></trkpt><trkpt lat="44.55445741719499" lon="10.492687123387691"><ele>495.0</ele><time>2026-03-28T11:42:00.999Z</time></trkpt><trkpt lat="44.554438578929116" lon="10.492827563346326"><ele>501.4</ele><time>2026-03-28T11:42:02.999Z</time></trkpt><trkpt lat="44.5544135914188" lon="10.492932023569242"><ele>507.8</ele><time>2026-03-28T11:42:03.999Z</time></trkpt><trkpt lat="44.55440202969265" lon="10.493022538921847"><ele>514.2</ele><time>2026-03-28T11:42:05.999Z</time></trkpt><trkpt lat="44.554380087645804" lon="10.493174915746193"><ele>520.6</ele><time>2026-03-28T11:42:07.999Z</time></trkpt><trkpt lat="44.55436573669702" lon="10.493318616229487"><ele>527.0</ele><time>2026-03-28T11:42:09.999Z</time></trkpt><trkpt lat="44.554416863091674" lon="10.493455949801406"><ele>527.0</ele><time>2026-03-28T11:42:11.999Z</time></trkpt><trkpt lat="44.5544629305345" lon="10.493632452164883"><ele>527.0</ele><time>2026-03-28T11:42:13.999Z</time></trkpt><trkpt lat="44.55447785479842" lon="10.49378390889666"><ele>527.0</ele><time>2026-03-28T11:42:15.999Z</time></trkpt><trkpt lat="44.55442746204091" lon="10.493856782734078"><ele>527.0</ele><time>2026-03-28T11:42:17.999Z</time></trkpt><trkpt lat="44.5543904404556" lon="10.493935894890779"><ele>527.0</ele><time>2026-03-28T11:42:18.999Z</time></trkpt><trkpt lat="44.55430420125244" lon="10.494087025137516"><ele>528.0</ele><time>2026-03-28T11:42:20.999Z</time></trkpt><trkpt lat="44.55425014876591" lon="10.49414641664391"><ele>529.0</ele><time>2026-03-28T11:42:21.999Z</time></trkpt><trkpt lat="44.55422835135461" lon="10.494235989261524"><ele>530.0</ele><time>2026-03-28T11:42:26.999Z</time></trkpt><trkpt lat="44.55423595190102" lon="10.494329335174964"><ele>531.0</ele><time>2026-03-28T11:43:40.999Z</time></trkpt><trkpt lat="44.554172607296984" lon="10.494330279575255"><ele>532.0</ele><time>2026-03-28T11:45:13Z</time></trkpt><trkpt lat="44.554082589889155" lon="10.494468145075997"><ele>533.0</ele><time>2026-03-28T11:48:48Z</time></trkpt><trkpt lat="44.55397318993443" lon="10.494583373107085"><ele>531.6</ele><time>2026-03-28T11:48:50Z</time></trkpt><trkpt lat="44.55385964126224" lon="10.494648868012534"><ele>530.1999999999999</ele><time>2026-03-28T11:48:52Z</time></trkpt><trkpt lat="44.553753821408" lon="10.494659734441933"><ele>528.8</ele><time>2026-03-28T11:48:54Z</time></trkpt><trkpt lat="44.55368660393414" lon="10.494715512351268"><ele>527.4</ele><time>2026-03-28T11:48:56Z</time></trkpt><trkpt lat="44.553636228948214" lon="10.494784397198789"><ele>526.0</ele><time>2026-03-28T11:48:57Z</time></trkpt><trkpt lat="44.55362774380471" lon="10.494908688035505"><ele>529.8</ele><time>2026-03-28T11:48:59Z</time></trkpt><trkpt lat="44.55363834875772" lon="10.495010267690402"><ele>533.6</ele><time>2026-03-28T11:49:00Z</time></trkpt><trkpt lat="44.553599317198504" lon="10.495159399192211"><ele>537.4</ele><time>2026-03-28T11:49:02Z</time></trkpt><trkpt lat="44.553558307637985" lon="10.495298333765856"><ele>541.2</ele><time>2026-03-28T11:49:04Z</time></trkpt><trkpt lat="44.55359127981296" lon="10.495429726850045"><ele>545.0</ele><time>2026-03-28T11:49:06Z</time></trkpt><trkpt lat="44.55355051413177" lon="10.495600178339648"><ele>545.0</ele><time>2026-03-28T11:49:09Z</time></trkpt><trkpt lat="44.55347818257073" lon="10.495688964524225"><ele>545.0</ele><time>2026-03-28T11:49:10Z</time></trkpt><trkpt lat="44.55345467374422" lon="10.49579159549816"><ele>545.0</ele><time>2026-03-28T11:49:12Z</time></trkpt><trkpt lat="44.553428121626126" lon="10.495923646857916"><ele>545.0</ele><time>2026-03-28T11:49:14Z</time></trkpt><trkpt lat="44.55342140928243" lon="10.496022499651183"><ele>545.0</ele><time>2026-03-28T11:49:15Z</time></trkpt><trkpt lat="44.55337177588434" lon="10.496157086622945"><ele>545.0</ele><time>2026-03-28T11:49:17Z</time></trkpt><trkpt lat="44.55325472301463" lon="10.496129396264669"><ele>545.0</ele><time>2026-03-28T11:49:19Z</time></trkpt><trkpt lat="44.553198870447524" lon="10.496049945335706"><ele>545.0</ele><time>2026-03-28T11:49:20Z</time></trkpt><trkpt lat="44.55311042747289" lon="10.495942173676454"><ele>545.0</ele><time>2026-03-28T11:49:22Z</time></trkpt><trkpt lat="44.55307111624147" lon="10.49579459730844"><ele>545.0</ele><time>2026-03-28T11:49:24Z</time></trkpt><trkpt lat="44.55299977461509" lon="10.495684233545965"><ele>545.0</ele><time>2026-03-28T11:49:26Z</time></trkpt><trkpt lat="44.552928667405006" lon="10.495657316762413"><ele>546.8</ele><time>2026-03-28T11:49:27Z</time></trkpt><trkpt lat="44.552806216092094" lon="10.495615188414833"><ele>548.6</ele><time>2026-03-28T11:49:29Z</time></trkpt><trkpt lat="44.5527294815446" lon="10.495562144241648"><ele>550.4</ele><time>2026-03-28T11:49:30Z</time></trkpt><trkpt lat="44.55264605416739" lon="10.49551819649802"><ele>552.2</ele><time>2026-03-28T11:49:31Z</time></trkpt><trkpt lat="44.552577668544124" lon="10.49548641584749"><ele>554.0</ele><time>2026-03-28T11:49:32Z</time></trkpt><trkpt lat="44.55249622106163" lon="10.495448422597187"><ele>556.3333333333333</ele><time>2026-03-28T11:49:33Z</time></trkpt><trkpt lat="44.55243579519096" lon="10.495413135703977"><ele>558.6666666666666</ele><time>2026-03-28T11:49:34Z</time></trkpt><trkpt lat="44.552376862060825" lon="10.49538198509971"><ele>561.0</ele><time>2026-03-28T11:49:35Z</time></trkpt><trkpt lat="44.55231196535887" lon="10.495313513014036"><ele>563.3333333333334</ele><time>2026-03-28T11:49:37Z</time></trkpt><trkpt lat="44.5522842674904" lon="10.495158145414605"><ele>565.6666666666667</ele><time>2026-03-28T11:49:39Z</time></trkpt><trkpt lat="44.5522492596253" lon="10.495074986587724"><ele>568.0</ele><time>2026-03-28T11:49:40Z</time></trkpt><trkpt lat="44.55217077848539" lon="10.494983443938334"><ele>568.0</ele><time>2026-03-28T11:49:42Z</time></trkpt><trkpt lat="44.552114711066935" lon="10.494873965233127"><ele>568.0</ele><time>2026-03-28T11:49:44Z</time></trkpt><trkpt lat="44.55214145991672" lon="10.494732612033626"><ele>568.0</ele><time>2026-03-28T11:49:46Z</time></trkpt><trkpt lat="44.55225446296527" lon="10.494645251033331"><ele>568.0</ele><time>2026-03-28T11:49:48Z</time></trkpt><trkpt lat="44.55232710722571" lon="10.494581132016346"><ele>568.0</ele><time>2026-03-28T11:49:52Z</time></trkpt><trkpt lat="44.55236121796651" lon="10.494429785856184"><ele>570.1666666666667</ele><time>2026-03-28T11:49:54Z</time></trkpt><trkpt lat="44.55237821289922" lon="10.494334459487035"><ele>572.3333333333334</ele><time>2026-03-28T11:49:55Z</time></trkpt><trkpt lat="44.552392057342104" lon="10.49423879049473"><ele>574.5</ele><time>2026-03-28T11:49:56Z</time></trkpt><trkpt lat="44.55235351497898" lon="10.494083172778113"><ele>576.6666666666666</ele><time>2026-03-28T11:49:57.999Z</time></trkpt><trkpt lat="44.55228690366489" lon="10.494031977107854"><ele>578.8333333333333</ele><time>2026-03-28T11:49:58.999Z</time></trkpt><trkpt lat="44.55220092918581" lon="10.49399699997675"><ele>581.0</ele><time>2026-03-28T11:49:59.999Z</time></trkpt><trkpt lat="44.552122266808475" lon="10.493962394677135"><ele>581.0</ele><time>2026-03-28T11:50:00.999Z</time></trkpt><trkpt lat="44.55205603425881" lon="10.493918031917932"><ele>581.0</ele><time>2026-03-28T11:50:01.999Z</time></trkpt><trkpt lat="44.55198817546629" lon="10.493868992154903"><ele>581.0</ele><time>2026-03-28T11:50:02.999Z</time></trkpt><trkpt lat="44.551926694579436" lon="10.493830428164104"><ele>581.0</ele><time>2026-03-28T11:50:03.999Z</time></trkpt><trkpt lat="44.55186339335788" lon="10.493796078373723"><ele>581.0</ele><time>2026-03-28T11:50:04.999Z</time></trkpt><trkpt lat="44.55179310704642" lon="10.493744840648395"><ele>581.0</ele><time>2026-03-28T11:50:05.999Z</time></trkpt><trkpt lat="44.55173134594236" lon="10.493687060727103"><ele>581.0</ele><time>2026-03-28T11:50:06.999Z</time></trkpt><trkpt lat="44.55165481624154" lon="10.49364024318199"><ele>582.5</ele><time>2026-03-28T11:50:07.999Z</time></trkpt><trkpt lat="44.55157763217787" lon="10.493634242382594"><ele>584.0</ele><time>2026-03-28T11:50:08.999Z</time></trkpt><trkpt lat="44.551499281548786" lon="10.493637173928166"><ele>585.5</ele><time>2026-03-28T11:50:09.999Z</time></trkpt><trkpt lat="44.551420605932506" lon="10.493616531803118"><ele>587.0</ele><time>2026-03-28T11:50:10.999Z</time></trkpt><trkpt lat="44.55133974285579" lon="10.493591147458725"><ele>588.5</ele><time>2026-03-28T11:50:11.999Z</time></trkpt><trkpt lat="44.55126425664471" lon="10.493579012901387"><ele>590.0</ele><time>2026-03-28T11:50:12.999Z</time></trkpt><trkpt lat="44.551178866451295" lon="10.493560630346902"><ele>591.6666666666666</ele><time>2026-03-28T11:50:13.999Z</time></trkpt><trkpt lat="44.551089392113575" lon="10.493537817488447"><ele>593.3333333333333</ele><time>2026-03-28T11:50:14.999Z</time></trkpt><trkpt lat="44.551009755787796" lon="10.493502913247442"><ele>595.0</ele><time>2026-03-28T11:50:15.999Z</time></trkpt><trkpt lat="44.55093056316059" lon="10.49349053236744"><ele>596.6666666666666</ele><time>2026-03-28T11:50:16.999Z</time></trkpt><trkpt lat="44.550852776166195" lon="10.493501241117029"><ele>598.3333333333334</ele><time>2026-03-28T11:50:17.999Z</time></trkpt><trkpt lat="44.55077601595249" lon="10.493524966977954"><ele>600.0</ele><time>2026-03-28T11:50:18.999Z</time></trkpt><trkpt lat="44.55069645851798" lon="10.493560602409596"><ele>600.0</ele><time>2026-03-28T11:50:19.999Z</time></trkpt><trkpt lat="44.550622255886125" lon="10.493608764992858"><ele>600.0</ele><time>2026-03-28T11:50:20.999Z</time></trkpt><trkpt lat="44.550547468859875" lon="10.49365612410761"><ele>600.0</ele><time>2026-03-28T11:50:21.999Z</time></trkpt><trkpt lat="44.55047607812966" lon="10.49370065332167"><ele>600.0</ele><time>2026-03-28T11:50:22.999Z</time></trkpt><trkpt lat="44.55040309585432" lon="10.493737376987342"><ele>600.0</ele><time>2026-03-28T11:50:23.999Z</time></trkpt><trkpt lat="44.55033007667168" lon="10.493768628902428"><ele>600.0</ele><time>2026-03-28T11:50:24.999Z</time></trkpt><trkpt lat="44.550248837705325" lon="10.493797265920634"><ele>600.1666666666666</ele><time>2026-03-28T11:50:25.999Z</time></trkpt><trkpt lat="44.550165400676015" lon="10.493810298441733"><ele>600.3333333333334</ele><time>2026-03-28T11:50:26.999Z</time></trkpt><trkpt lat="44.55008900645182" lon="10.493785952939232"><ele>600.5</ele><time>2026-03-28T11:50:27.999Z</time></trkpt><trkpt lat="44.55002389108255" lon="10.49374333513333"><ele>600.6666666666667</ele><time>2026-03-28T11:50:28.999Z</time></trkpt><trkpt lat="44.549964856232144" lon="10.493687619796955"><ele>600.8333333333334</ele><time>2026-03-28T11:50:30.999Z</time></trkpt><trkpt lat="44.549939331227286" lon="10.49358051869653"><ele>601.0</ele><time>2026-03-28T11:50:32.999Z</time></trkpt><trkpt lat="44.5498853346686" lon="10.493429239876582"><ele>601.0</ele><time>2026-03-28T11:50:34.999Z</time></trkpt><trkpt lat="44.54984731691649" lon="10.49335246863449"><ele>601.0</ele><time>2026-03-28T11:50:36.999Z</time></trkpt><trkpt lat="44.54978130363133" lon="10.49338323087644"><ele>601.0</ele><time>2026-03-28T11:50:39.999Z</time></trkpt><trkpt lat="44.54975527525857" lon="10.493464307947127"><ele>601.0</ele><time>2026-03-28T11:50:40.999Z</time></trkpt><trkpt lat="44.54973786632928" lon="10.493581593422943"><ele>601.0</ele><time>2026-03-28T11:50:41.999Z</time></trkpt><trkpt lat="44.54972591268552" lon="10.493669000344207"><ele>601.0</ele><time>2026-03-28T11:50:42.999Z</time></trkpt><trkpt lat="44.549696323039136" lon="10.493750911809872"><ele>601.0</ele><time>2026-03-28T11:50:43.999Z</time></trkpt><trkpt lat="44.54966463133058" lon="10.49383605443359"><ele>601.0</ele><time>2026-03-28T11:50:44.999Z</time></trkpt><trkpt lat="44.54964000788352" lon="10.493922379818367"><ele>601.0</ele><time>2026-03-28T11:50:45.999Z</time></trkpt><trkpt lat="44.549612877903456" lon="10.494015520931107"><ele>601.0</ele><time>2026-03-28T11:50:46.999Z</time></trkpt><trkpt lat="44.54959671409249" lon="10.494117536025593"><ele>601.0</ele><time>2026-03-28T11:50:47.999Z</time></trkpt><trkpt lat="44.549571827286925" lon="10.494206246246"><ele>601.0</ele><time>2026-03-28T11:50:48.999Z</time></trkpt><trkpt lat="44.54954717905554" lon="10.494305808901276"><ele>601.0</ele><time>2026-03-28T11:50:49.999Z</time></trkpt><trkpt lat="44.54951709211975" lon="10.494406264482093"><ele>601.0</ele><time>2026-03-28T11:50:50.999Z</time></trkpt><trkpt lat="44.54949180889714" lon="10.49450657515206"><ele>600.2</ele><time>2026-03-28T11:50:51.999Z</time></trkpt><trkpt lat="44.54944736895205" lon="10.494684260792424"><ele>599.4000000000001</ele><time>2026-03-28T11:50:54Z</time></trkpt><trkpt lat="44.549429247828954" lon="10.494783899875685"><ele>598.6</ele><time>2026-03-28T11:50:55Z</time></trkpt><trkpt lat="44.54940680900722" lon="10.49491212713995"><ele>597.8000000000001</ele><time>2026-03-28T11:50:56Z</time></trkpt><trkpt lat="44.54938560014807" lon="10.495058897450145"><ele>597.0</ele><time>2026-03-28T11:50:57Z</time></trkpt><trkpt lat="44.549365555845" lon="10.495205497668447"><ele>597.0</ele><time>2026-03-28T11:50:58Z</time></trkpt><trkpt lat="44.549334941976625" lon="10.495349153331553"><ele>597.0</ele><time>2026-03-28T11:50:59Z</time></trkpt><trkpt lat="44.54930337519231" lon="10.49550412878691"><ele>597.0</ele><time>2026-03-28T11:51:00Z</time></trkpt><trkpt lat="44.549268138475874" lon="10.49565377019255"><ele>597.0</ele><time>2026-03-28T11:51:01Z</time></trkpt><trkpt lat="44.54923179260469" lon="10.495799519240757"><ele>597.0</ele><time>2026-03-28T11:51:02Z</time></trkpt><trkpt lat="44.549188044757045" lon="10.495931068479436"><ele>595.5</ele><time>2026-03-28T11:51:03Z</time></trkpt><trkpt lat="44.549143243690665" lon="10.496050258036707"><ele>594.0</ele><time>2026-03-28T11:51:04Z</time></trkpt><trkpt lat="44.549109467839216" lon="10.496168064611433"><ele>592.5</ele><time>2026-03-28T11:51:05Z</time></trkpt><trkpt lat="44.54909530989551" lon="10.496271551306721"><ele>591.0</ele><time>2026-03-28T11:51:06Z</time></trkpt><trkpt lat="44.54908651400413" lon="10.496422123052886"><ele>589.5</ele><time>2026-03-28T11:51:08Z</time></trkpt><trkpt lat="44.54905789873219" lon="10.49650605959905"><ele>588.0</ele><time>2026-03-28T11:53:30Z</time></trkpt><trkpt lat="44.54901106259037" lon="10.496408208342897"><ele>588.0</ele><time>2026-03-28T11:53:34Z</time></trkpt><trkpt lat="44.549041549680965" lon="10.496308456745432"><ele>588.0</ele><time>2026-03-28T11:53:35Z</time></trkpt><trkpt lat="44.54912816016468" lon="10.496079672492595"><ele>588.0</ele><time>2026-03-28T11:53:36Z</time></trkpt><trkpt lat="44.549184103085686" lon="10.495920859801862"><ele>588.0</ele><time>2026-03-28T11:53:37Z</time></trkpt><trkpt lat="44.54924484667073" lon="10.495722361680878"><ele>588.0</ele><time>2026-03-28T11:53:38Z</time></trkpt><trkpt lat="44.5492956054084" lon="10.495517166117544"><ele>588.0</ele><time>2026-03-28T11:53:39Z</time></trkpt><trkpt lat="44.54934039291262" lon="10.495308828931469"><ele>588.0</ele><time>2026-03-28T11:53:40Z</time></trkpt><trkpt lat="44.549375774194694" lon="10.49508622422132"><ele>590.25</ele><time>2026-03-28T11:53:41Z</time></trkpt><trkpt lat="44.54940937185604" lon="10.494877963692467"><ele>592.5</ele><time>2026-03-28T11:53:42Z</time></trkpt><trkpt lat="44.54944077634735" lon="10.494692862142243"><ele>594.75</ele><time>2026-03-28T11:53:43Z</time></trkpt><trkpt lat="44.54947876174513" lon="10.494525889082064"><ele>597.0</ele><time>2026-03-28T11:53:44Z</time></trkpt><trkpt lat="44.54951355473125" lon="10.494355966800004"><ele>597.8000000000001</ele><time>2026-03-28T11:53:45Z</time></trkpt><trkpt lat="44.54955778961319" lon="10.494197003756407"><ele>598.6</ele><time>2026-03-28T11:53:46Z</time></trkpt><trkpt lat="44.54960576641" lon="10.494040077967277"><ele>599.4000000000001</ele><time>2026-03-28T11:53:47Z</time></trkpt><trkpt lat="44.549644629461014" lon="10.493899610256358"><ele>600.2</ele><time>2026-03-28T11:53:48Z</time></trkpt><trkpt lat="44.54967874247602" lon="10.493774646807251"><ele>601.0</ele><time>2026-03-28T11:53:49Z</time></trkpt><trkpt lat="44.54971572601224" lon="10.493651868173197"><ele>601.6666666666667</ele><time>2026-03-28T11:53:50Z</time></trkpt><trkpt lat="44.54975393377187" lon="10.493549736253275"><ele>602.3333333333334</ele><time>2026-03-28T11:53:51Z</time></trkpt><trkpt lat="44.54978160223509" lon="10.493456248157024"><ele>603.0</ele><time>2026-03-28T11:53:52Z</time></trkpt><trkpt lat="44.54982251544708" lon="10.493320972321564"><ele>603.6666666666666</ele><time>2026-03-28T11:53:54Z</time></trkpt><trkpt lat="44.549843844516936" lon="10.493231995061924"><ele>604.3333333333333</ele><time>2026-03-28T11:53:56Z</time></trkpt><trkpt lat="44.549818280377714" lon="10.493148209593548"><ele>605.0</ele><time>2026-03-28T11:53:59Z</time></trkpt><trkpt lat="44.54974479711413" lon="10.493089862654067"><ele>605.0</ele><time>2026-03-28T11:54:02Z</time></trkpt><trkpt lat="44.54967456497705" lon="10.493123838144925"><ele>605.0</ele><time>2026-03-28T11:54:03.999Z</time></trkpt><trkpt lat="44.54960765403127" lon="10.493168856606674"><ele>605.0</ele><time>2026-03-28T11:54:07.999Z</time></trkpt><trkpt lat="44.54952762582839" lon="10.493142045550265"><ele>623.0</ele><time>2026-03-28T11:54:11.999Z</time></trkpt><trkpt lat="44.54949463295101" lon="10.493064920906976"><ele>623.0</ele><time>2026-03-28T11:54:14.999Z</time></trkpt></trkseg></trk></gpx>